Temperature & Humidity sensor readings

 Timestamp   Temperature   Relative humidity 
 2018-12-14 11:11:55  22 C   36 % 
 2018-12-14 10:52:38  22 C   33 % 
 2018-12-14 10:43:00  22 C   33 % 
 2018-12-14 10:33:12  22 C   33 % 
 2018-12-14 09:54:45  22 C   33 % 
 2018-12-14 08:18:39  22 C   34 % 
 2018-12-14 07:30:30  22 C   34 % 
 2018-12-14 07:11:15  22 C   34 % 
 2018-12-14 06:42:21  22 C   34 % 
 2018-12-14 06:32:50  22 C   34 % 
 2018-12-14 06:22:39  22 C   34 % 
 2018-12-14 06:03:30  22 C   34 % 
 2018-12-14 05:53:45  22 C   34 % 
 2018-12-14 05:44:09  22 C   34 % 
 2018-12-14 05:34:31  22 C   34 % 
 2018-12-14 05:24:54  22 C   34 % 
 2018-12-14 05:15:19  23 C   34 % 
 2018-12-14 05:05:42  23 C   34 % 
 2018-12-14 04:56:09  23 C   34 % 
 2018-12-14 04:46:10  23 C   34 % 
 2018-12-14 04:36:34  23 C   34 % 
 2018-12-14 04:27:05  23 C   34 % 
 2018-12-14 04:17:06  23 C   34 % 
 2018-12-14 04:07:31  23 C   34 % 
 2018-12-14 03:57:53  23 C   34 % 
 2018-12-14 03:48:15  23 C   34 % 
 2018-12-14 03:38:42  23 C   33 % 
 2018-12-14 03:29:00  23 C   33 % 
 2018-12-14 03:19:24  23 C   33 % 
 2018-12-14 03:09:47  23 C   33 % 
 2018-12-14 03:00:13  23 C   33 % 
 2018-12-14 02:50:33  23 C   33 % 
 2018-12-14 02:40:57  23 C   33 % 
 2018-12-14 02:31:22  23 C   33 % 
 2018-12-14 02:21:43  23 C   33 % 
 2018-12-14 02:02:30  23 C   33 % 
 2018-12-14 01:52:54  23 C   33 % 
 2018-12-14 01:43:17  23 C   33 % 
 2018-12-14 01:33:40  23 C   34 % 
 2018-12-14 01:04:48  23 C   34 % 
 2018-12-14 00:45:32  23 C   33 % 
 2018-12-14 00:35:56  23 C   33 % 
 2018-12-14 00:26:20  23 C   33 % 
 2018-12-14 00:16:42  23 C   34 % 
 2018-12-14 00:07:04  23 C   34 % 
 2018-12-13 23:57:28  23 C   34 % 
 2018-12-13 23:47:52  23 C   34 % 
 2018-12-13 23:38:17  23 C   34 % 
 2018-12-13 23:28:37  23 C   34 % 
 2018-12-13 23:19:00  23 C   34 % 
 2018-12-13 23:09:23  23 C   34 % 
 2018-12-13 22:59:47  23 C   34 % 
 2018-12-13 22:50:11  23 C   34 % 
 2018-12-13 22:40:34  23 C   35 % 
 2018-12-13 22:30:57  23 C   35 % 
 2018-12-13 22:21:20  23 C   35 % 
 2018-12-13 22:01:48  23 C   35 % 
 2018-12-13 21:42:33  23 C   36 % 
 2018-12-13 21:33:07  23 C   37 % 
 2018-12-13 21:22:57  23 C   44 % 
 2018-12-13 21:13:15  23 C   35 % 
 2018-12-13 21:03:39  23 C   35 % 
 2018-12-13 20:44:25  23 C   35 % 
 2018-12-13 20:05:17  23 C   34 % 
 2018-12-13 19:45:59  23 C   34 % 
 2018-12-13 19:17:11  23 C   34 % 
 2018-12-13 19:07:10  23 C   34 % 
 2018-12-13 18:57:36  23 C   35 % 
 2018-12-13 18:47:58  23 C   35 % 
 2018-12-13 18:38:21  23 C   35 % 
 2018-12-13 18:19:07  23 C   35 % 
 2018-12-13 17:59:41  22 C   35 % 
 2018-12-13 17:50:04  22 C   35 % 
 2018-12-13 17:40:28  22 C   35 % 
 2018-12-13 17:20:43  22 C   35 % 
 2018-12-13 17:11:05  22 C   35 % 
 2018-12-13 17:01:28  22 C   35 % 
 2018-12-13 16:42:10  22 C   35 % 
 2018-12-13 16:32:34  22 C   35 % 
 2018-12-13 16:22:56  22 C   35 % 
 2018-12-13 16:13:19  22 C   35 % 
 2018-12-13 16:03:37  22 C   35 % 
 2018-12-13 15:54:00  22 C   35 % 
 2018-12-13 15:44:25  22 C   35 % 
 2018-12-13 15:34:51  22 C   35 % 
 2018-12-13 15:25:08  22 C   35 % 
 2018-12-13 15:15:32  22 C   35 % 
 2018-12-13 15:05:56  22 C   35 % 
 2018-12-13 14:56:19  22 C   35 % 
 2018-12-13 14:46:38  22 C   35 % 
 2018-12-13 14:17:48  22 C   35 % 
 2018-12-13 12:40:50  21 C   36 % 
 2018-12-13 08:21:17  21 C   35 % 
 2018-12-13 08:11:12  21 C   35 % 
 2018-12-13 07:03:25  22 C   35 % 
 2018-12-13 06:44:12  22 C   35 % 
 2018-12-13 06:34:33  22 C   35 % 
 2018-12-13 06:05:40  22 C   35 % 
 2018-12-13 05:56:08  22 C   35 % 
 2018-12-13 05:46:20  22 C   35 % 
 2018-12-13 05:36:46  22 C   35 % 
 2018-12-13 05:27:07  22 C   35 % 
 2018-12-13 05:17:31  22 C   35 % 
 2018-12-13 04:58:10  22 C   35 % 
 2018-12-13 04:38:33  22 C   35 % 
 2018-12-13 04:28:56  22 C   35 % 
 2018-12-13 03:59:50  22 C   35 % 
 2018-12-13 03:50:05  22 C   35 % 
 2018-12-13 03:40:30  22 C   35 % 
 2018-12-13 03:20:32  23 C   35 % 
 2018-12-13 03:11:04  23 C   35 % 
 2018-12-13 03:01:00  23 C   35 % 
 2018-12-13 02:41:46  23 C   35 % 
 2018-12-13 02:32:08  23 C   35 % 
 2018-12-13 02:22:34  23 C   35 % 
 2018-12-13 02:12:54  23 C   35 % 
 2018-12-13 02:03:22  23 C   35 % 
 2018-12-13 01:43:55  23 C   35 % 
 2018-12-13 01:34:20  23 C   35 % 
 2018-12-13 01:15:10  23 C   35 % 
 2018-12-13 00:55:50  23 C   35 % 
 2018-12-13 00:36:33  23 C   35 % 
 2018-12-13 00:26:57  23 C   35 % 
 2018-12-13 00:17:22  23 C   34 % 
 2018-12-12 23:57:44  23 C   34 % 
 2018-12-12 23:48:07  23 C   34 % 
 2018-12-12 23:28:56  23 C   35 % 
 2018-12-12 23:19:19  23 C   35 % 
 2018-12-12 23:09:43  23 C   35 % 
 2018-12-12 23:00:06  23 C   35 % 
 2018-12-12 22:50:34  24 C   35 % 
 2018-12-12 22:31:10  24 C   34 % 
 2018-12-12 22:21:32  24 C   33 % 
 2018-12-12 22:11:52  24 C   33 % 
 2018-12-12 22:02:16  24 C   33 % 
 2018-12-12 21:52:38  24 C   32 % 
 2018-12-12 21:43:02  24 C   35 % 
 2018-12-12 21:33:28  24 C   34 % 
 2018-12-12 21:23:41  24 C   34 % 
 2018-12-12 21:14:08  24 C   34 % 
 2018-12-12 20:54:43  24 C   36 % 
 2018-12-12 20:35:26  23 C   35 % 
 2018-12-12 20:16:14  23 C   35 % 
 2018-12-12 20:06:35  23 C   35 % 
 2018-12-12 19:56:58  23 C   35 % 
 2018-12-12 19:47:21  23 C   35 % 
 2018-12-12 19:37:45  23 C   36 % 
 2018-12-12 19:28:07  23 C   36 % 
 2018-12-12 19:18:30  23 C   37 % 
 2018-12-12 19:08:51  23 C   38 % 
 2018-12-12 18:59:15  23 C   35 % 
 2018-12-12 18:49:38  23 C   35 % 
 2018-12-12 18:40:01  23 C   35 % 
 2018-12-12 18:30:23  23 C   35 % 
 2018-12-12 18:20:48  23 C   35 % 
 2018-12-12 18:11:09  23 C   35 % 
 2018-12-12 18:01:32  23 C   36 % 
 2018-12-12 17:51:54  23 C   36 % 
 2018-12-12 17:42:18  23 C   36 % 
 2018-12-12 17:32:39  23 C   36 % 
 2018-12-12 17:23:04  23 C   36 % 
 2018-12-12 17:13:27  23 C   36 % 
 2018-12-12 17:03:49  23 C   36 % 
 2018-12-12 16:54:14  23 C   36 % 
 2018-12-12 16:44:38  23 C   36 % 
 2018-12-12 16:34:59  23 C   36 % 
 2018-12-12 16:25:21  23 C   36 % 
 2018-12-12 16:15:43  23 C   36 % 
 2018-12-12 16:06:07  23 C   36 % 
 2018-12-12 15:56:29  23 C   36 % 
 2018-12-12 15:46:49  23 C   36 % 
 2018-12-12 15:37:10  23 C   36 % 
 2018-12-12 15:27:39  23 C   37 % 
 2018-12-12 15:17:49  23 C   37 % 
 2018-12-12 15:07:52  23 C   36 % 
 2018-12-12 14:58:17  23 C   36 % 
 2018-12-12 14:28:42  23 C   36 % 
 2018-12-12 14:19:06  23 C   36 % 
 2018-12-12 14:09:29  23 C   37 % 
 2018-12-12 13:59:52  23 C   37 % 
 2018-12-12 13:50:12  23 C   37 % 
 2018-12-12 13:40:35  23 C   37 % 
 2018-12-12 13:30:59  23 C   37 % 
 2018-12-12 13:21:18  23 C   37 % 
 2018-12-12 13:02:03  23 C   37 % 
 2018-12-12 12:52:30  23 C   36 % 
 2018-12-12 12:42:40  22 C   36 % 
 2018-12-12 12:33:08  22 C   36 % 
 2018-12-12 12:13:27  22 C   36 % 
 2018-12-12 12:03:49  22 C   36 % 
 2018-12-12 11:54:13  22 C   36 % 
 2018-12-12 11:34:56  22 C   36 % 
 2018-12-12 11:15:41  22 C   36 % 
 2018-12-12 10:56:01  22 C   36 % 
 2018-12-12 10:46:25  22 C   36 % 
 2018-12-12 10:27:12  22 C   37 % 
 2018-12-12 10:17:31  22 C   37 % 
 2018-12-12 10:08:02  21 C   37 % 
 2018-12-12 09:48:29  21 C   37 % 
 2018-12-12 07:42:42  22 C   36 % 
 2018-12-12 06:34:09  22 C   36 % 
 2018-12-12 06:24:33  22 C   36 % 
 2018-12-12 06:14:59  22 C   36 % 
 2018-12-12 06:05:04  22 C   36 % 
 2018-12-12 05:55:26  22 C   36 % 
 2018-12-12 05:45:50  22 C   36 % 
 2018-12-12 05:36:12  22 C   36 % 
 2018-12-12 05:16:58  22 C   36 % 
 2018-12-12 04:57:18  22 C   36 % 
 2018-12-12 04:47:39  23 C   36 % 
 2018-12-12 04:28:33  23 C   37 % 
 2018-12-12 04:18:39  23 C   36 % 
 2018-12-12 03:59:05  23 C   36 % 
 2018-12-12 03:49:26  23 C   36 % 
 2018-12-12 03:39:51  23 C   36 % 
 2018-12-12 03:30:10  23 C   36 % 
 2018-12-12 03:10:56  23 C   36 % 
 2018-12-12 03:01:20  23 C   36 % 
 2018-12-12 02:51:41  23 C   36 % 
 2018-12-12 02:42:07  23 C   36 % 
 2018-12-12 02:22:44  23 C   36 % 
 2018-12-12 02:13:07  23 C   36 % 
 2018-12-12 02:03:27  23 C   36 % 
 2018-12-12 01:53:50  23 C   36 % 
 2018-12-12 01:44:15  23 C   36 % 
 2018-12-12 01:34:39  23 C   36 % 
 2018-12-12 01:25:10  23 C   36 % 
 2018-12-12 01:05:22  23 C   36 % 
 2018-12-12 00:55:44  24 C   36 % 
 2018-12-12 00:46:09  24 C   36 % 
 2018-12-12 00:36:32  24 C   36 % 
 2018-12-12 00:17:11  24 C   36 % 
 2018-12-11 23:58:01  24 C   36 % 
 2018-12-11 23:29:04  24 C   36 % 
 2018-12-11 23:19:18  24 C   36 % 
 2018-12-11 23:09:45  24 C   36 % 
 2018-12-11 23:00:04  24 C   36 % 
 2018-12-11 22:50:27  24 C   36 % 
 2018-12-11 22:40:51  24 C   36 % 
 2018-12-11 22:31:16  24 C   36 % 
 2018-12-11 22:11:57  24 C   36 % 
 2018-12-11 22:02:21  24 C   36 % 
 2018-12-11 21:52:43  24 C   36 % 
 2018-12-11 21:43:07  24 C   36 % 
 2018-12-11 21:33:35  24 C   36 % 
 2018-12-11 21:13:29  24 C   36 % 
 2018-12-11 21:03:53  24 C   37 % 
 2018-12-11 20:44:38  24 C   37 % 
 2018-12-11 20:35:07  24 C   37 % 
 2018-12-11 20:25:14  24 C   35 % 
 2018-12-11 20:15:37  24 C   35 % 
 2018-12-11 20:06:01  24 C   35 % 
 2018-12-11 19:56:24  25 C   35 % 
 2018-12-11 19:46:48  25 C   35 % 
 2018-12-11 19:37:12  25 C   35 % 
 2018-12-11 19:27:42  25 C   35 % 
 2018-12-11 19:17:45  25 C   34 % 
 2018-12-11 19:08:09  25 C   34 % 
 2018-12-11 18:58:33  26 C   34 % 
 2018-12-11 18:48:56  26 C   33 % 
 2018-12-11 18:39:20  26 C   33 % 
 2018-12-11 18:29:46  26 C   33 % 
 2018-12-11 18:20:07  27 C   33 % 
 2018-12-11 18:10:31  27 C   32 % 
 2018-12-11 18:00:54  27 C   32 % 
 2018-12-11 17:51:18  28 C   31 % 
 2018-12-11 17:32:05  29 C   29 % 
 2018-12-11 17:12:05  30 C   29 % 
 2018-12-11 16:52:43  27 C   53 % 
 2018-12-11 16:43:05  24 C   36 % 
 2018-12-11 16:23:43  24 C   36 % 
 2018-12-11 16:14:06  24 C   36 % 
 2018-12-11 16:04:30  24 C   36 % 
 2018-12-11 15:35:39  24 C   36 % 
 2018-12-11 15:26:01  24 C   36 % 
 2018-12-11 15:06:48  24 C   36 % 
 2018-12-11 14:57:14  24 C   36 % 
 2018-12-11 14:47:36  24 C   36 % 
 2018-12-11 14:28:20  25 C   36 % 
 2018-12-11 14:18:44  25 C   36 % 
 2018-12-11 14:09:09  25 C   36 % 
 2018-12-11 13:59:32  25 C   36 % 
 2018-12-11 13:40:02  25 C   36 % 
 2018-12-11 13:30:24  24 C   36 % 
 2018-12-11 13:20:49  24 C   36 % 
 2018-12-11 13:11:12  25 C   36 % 
 2018-12-11 13:01:36  25 C   36 % 
 2018-12-11 12:51:58  25 C   36 % 
 2018-12-11 12:42:22  25 C   36 % 
 2018-12-11 12:32:45  24 C   36 % 
 2018-12-11 12:23:08  24 C   36 % 
 2018-12-11 12:13:31  24 C   36 % 
 2018-12-11 11:44:38  25 C   36 % 
 2018-12-11 11:34:59  25 C   36 % 
 2018-12-11 11:15:12  25 C   36 % 
 2018-12-11 11:05:34  25 C   36 % 
 2018-12-11 10:55:58  25 C   36 % 
 2018-12-11 10:26:23  24 C   36 % 
 2018-12-11 10:16:46  24 C   36 % 
 2018-12-11 10:07:11  24 C   37 % 
 2018-12-11 09:47:37  24 C   37 % 
 2018-12-11 09:37:59  24 C   39 % 
 2018-12-11 09:18:15  24 C   36 % 
 2018-12-11 09:08:41  24 C   36 % 
 2018-12-11 08:59:01  24 C   36 % 
 2018-12-11 08:39:35  24 C   36 % 
 2018-12-11 08:29:57  24 C   36 % 
 2018-12-11 08:20:20  24 C   36 % 
 2018-12-11 08:10:46  24 C   36 % 
 2018-12-11 08:01:05  24 C   36 % 
 2018-12-11 07:51:29  24 C   36 % 
 2018-12-11 07:41:55  24 C   36 % 
 2018-12-11 07:32:13  24 C   36 % 
 2018-12-11 07:22:38  24 C   36 % 
 2018-12-11 07:13:00  24 C   36 % 
 2018-12-11 07:03:24  24 C   36 % 
 2018-12-11 06:53:47  24 C   36 % 
 2018-12-11 06:34:31  24 C   36 % 
 2018-12-11 06:14:43  24 C   36 % 
 2018-12-11 06:05:06  24 C   36 % 
 2018-12-11 05:55:30  24 C   36 % 
 2018-12-11 05:36:11  24 C   36 % 
 2018-12-11 05:26:34  24 C   36 % 
 2018-12-11 05:07:16  24 C   36 % 
 2018-12-11 04:57:41  24 C   36 % 
 2018-12-11 04:48:02  24 C   36 % 
 2018-12-11 04:38:29  24 C   36 % 
 2018-12-11 04:19:07  24 C   36 % 
 2018-12-11 04:09:30  24 C   36 % 
 2018-12-11 03:59:54  24 C   36 % 
 2018-12-11 03:50:17  24 C   36 % 
 2018-12-11 03:40:40  24 C   36 % 
 2018-12-11 03:20:50  24 C   36 % 
 2018-12-11 03:11:13  24 C   36 % 
 2018-12-11 02:51:56  24 C   36 % 
 2018-12-11 02:42:19  24 C   36 % 
 2018-12-11 02:32:43  24 C   36 % 
 2018-12-11 02:12:59  24 C   36 % 
 2018-12-11 02:03:22  24 C   36 % 
 2018-12-11 01:53:46  24 C   36 % 
 2018-12-11 01:44:10  24 C   36 % 
 2018-12-11 01:34:33  24 C   36 % 
 2018-12-11 01:24:57  24 C   36 % 
 2018-12-11 01:15:22  24 C   36 % 
 2018-12-11 01:05:43  24 C   36 % 
 2018-12-11 00:56:07  24 C   36 % 
 2018-12-11 00:46:32  24 C   36 % 
 2018-12-11 00:36:56  24 C   36 % 
 2018-12-11 00:27:20  24 C   36 % 
 2018-12-11 00:07:35  24 C   36 % 
 2018-12-10 23:57:58  24 C   36 % 
 2018-12-10 23:48:23  24 C   36 % 
 2018-12-10 23:38:47  24 C   36 % 
 2018-12-10 23:29:08  24 C   36 % 
 2018-12-10 23:19:30  24 C   36 % 
 2018-12-10 23:00:15  24 C   35 % 
 2018-12-10 22:50:38  24 C   35 % 
 2018-12-10 22:41:05  24 C   36 % 
 2018-12-10 22:31:22  24 C   36 % 
 2018-12-10 22:21:46  24 C   36 % 
 2018-12-10 22:12:07  24 C   35 % 
 2018-12-10 22:02:36  24 C   35 % 
 2018-12-10 21:52:49  24 C   35 % 
 2018-12-10 21:43:13  24 C   35 % 
 2018-12-10 21:33:28  24 C   35 % 
 2018-12-10 21:23:52  24 C   35 % 
 2018-12-10 21:14:15  24 C   35 % 
 2018-12-10 21:04:39  24 C   35 % 
 2018-12-10 20:55:02  24 C   35 % 
 2018-12-10 20:45:27  24 C   35 % 
 2018-12-10 20:35:50  24 C   35 % 
 2018-12-10 20:26:13  24 C   35 % 
 2018-12-10 20:16:36  24 C   35 % 
 2018-12-10 19:57:20  24 C   35 % 
 2018-12-10 19:47:43  24 C   35 % 
 2018-12-10 19:28:32  24 C   35 % 
 2018-12-10 19:18:45  24 C   35 % 
 2018-12-10 19:09:08  24 C   35 % 
 2018-12-10 18:59:25  24 C   35 % 
 2018-12-10 18:49:49  24 C   35 % 
 2018-12-10 18:40:13  24 C   35 % 
 2018-12-10 18:30:34  24 C   35 % 
 2018-12-10 18:20:56  24 C   36 % 
 2018-12-10 18:11:20  24 C   36 % 
 2018-12-10 18:01:42  24 C   36 % 
 2018-12-10 17:52:07  24 C   36 % 
 2018-12-10 17:42:29  24 C   36 % 
 2018-12-10 17:32:53  24 C   36 % 
 2018-12-10 17:23:18  24 C   37 % 
 2018-12-10 17:13:39  24 C   37 % 
 2018-12-10 17:04:02  24 C   37 % 
 2018-12-10 16:54:25  24 C   38 % 
 2018-12-10 16:44:48  24 C   37 % 
 2018-12-10 16:35:11  24 C   37 % 
 2018-12-10 16:25:35  24 C   36 % 
 2018-12-10 16:15:59  24 C   36 % 
 2018-12-10 16:06:21  24 C   36 % 
 2018-12-10 15:56:50  24 C   36 % 
 2018-12-10 15:47:03  24 C   36 % 
 2018-12-10 15:27:47  24 C   36 % 
 2018-12-10 15:18:10  24 C   36 % 
 2018-12-10 15:08:34  24 C   36 % 
 2018-12-10 14:58:58  24 C   36 % 
 2018-12-10 14:49:22  24 C   36 % 
 2018-12-10 14:39:45  24 C   36 % 
 2018-12-10 14:30:09  24 C   36 % 
 2018-12-10 14:20:34  24 C   36 % 
 2018-12-10 14:10:54  24 C   36 % 
 2018-12-10 14:01:17  24 C   36 % 
 2018-12-10 13:51:41  24 C   36 % 
 2018-12-10 13:42:03  24 C   36 % 
 2018-12-10 13:32:27  24 C   36 % 
 2018-12-10 13:22:50  24 C   35 % 
 2018-12-10 13:13:13  24 C   34 % 
 2018-12-10 13:03:37  24 C   34 % 
 2018-12-10 12:54:00  24 C   39 % 
 2018-12-10 12:44:23  24 C   38 % 
 2018-12-10 12:34:47  24 C   38 % 
 2018-12-10 12:25:12  24 C   37 % 
 2018-12-10 12:15:35  24 C   37 % 
 2018-12-10 12:05:58  24 C   36 % 
 2018-12-10 11:56:21  24 C   36 % 
 2018-12-10 11:46:45  24 C   36 % 
 2018-12-10 11:37:08  24 C   36 % 
 2018-12-10 11:27:31  24 C   36 % 
 2018-12-10 11:07:41  24 C   36 % 
 2018-12-10 10:48:24  24 C   37 % 
 2018-12-10 10:38:48  24 C   36 % 
 2018-12-10 10:29:11  24 C   36 % 
 2018-12-10 10:19:34  24 C   36 % 
 2018-12-10 10:00:22  24 C   36 % 
 2018-12-10 09:50:47  24 C   36 % 
 2018-12-10 09:30:58  24 C   36 % 
 2018-12-10 09:21:24  24 C   36 % 
 2018-12-10 09:11:43  24 C   36 % 
 2018-12-10 09:02:05  24 C   36 % 
 2018-12-10 08:52:29  24 C   36 % 
 2018-12-10 08:42:52  24 C   37 % 
 2018-12-10 08:33:15  24 C   37 % 
 2018-12-10 08:23:39  24 C   37 % 
 2018-12-10 08:14:02  24 C   37 % 
 2018-12-10 08:04:26  24 C   37 % 
 2018-12-10 07:54:52  24 C   37 % 
 2018-12-10 07:45:11  24 C   37 % 
 2018-12-10 07:35:33  24 C   37 % 
 2018-12-10 07:25:56  24 C   38 % 
 2018-12-10 07:16:20  23 C   38 % 
 2018-12-10 07:06:45  23 C   38 % 
 2018-12-10 06:57:06  23 C   38 % 
 2018-12-10 06:47:29  24 C   39 % 
 2018-12-10 06:37:53  24 C   37 % 
 2018-12-10 06:28:17  24 C   37 % 
 2018-12-10 06:18:40  24 C   36 % 
 2018-12-10 06:09:03  24 C   36 % 
 2018-12-10 05:59:26  24 C   37 % 
 2018-12-10 05:49:50  24 C   37 % 
 2018-12-10 05:40:13  24 C   37 % 
 2018-12-10 05:30:38  24 C   36 % 
 2018-12-10 05:21:00  24 C   36 % 
 2018-12-10 05:11:23  24 C   36 % 
 2018-12-10 05:01:47  24 C   36 % 
 2018-12-10 04:52:17  24 C   36 % 
 2018-12-10 04:42:25  24 C   36 % 
 2018-12-10 04:22:54  24 C   36 % 
 2018-12-10 04:13:17  24 C   36 % 
 2018-12-10 04:03:41  24 C   36 % 
 2018-12-10 03:54:04  24 C   35 % 
 2018-12-10 03:44:27  25 C   35 % 
 2018-12-10 03:34:50  25 C   35 % 
 2018-12-10 03:25:14  25 C   36 % 
 2018-12-10 03:15:37  25 C   36 % 
 2018-12-10 03:06:02  25 C   36 % 
 2018-12-10 02:56:23  25 C   36 % 
 2018-12-10 02:46:46  25 C   36 % 
 2018-12-10 02:37:09  25 C   36 % 
 2018-12-10 02:27:32  25 C   36 % 
 2018-12-10 02:17:58  25 C   36 % 
 2018-12-10 02:08:17  25 C   36 % 
 2018-12-10 01:58:40  25 C   36 % 
 2018-12-10 01:49:05  25 C   36 % 
 2018-12-10 01:39:26  25 C   36 % 
 2018-12-10 01:29:51  25 C   36 % 
 2018-12-10 01:20:12  25 C   36 % 
 2018-12-10 01:10:36  25 C   35 % 
 2018-12-10 01:01:00  25 C   35 % 
 2018-12-10 00:51:23  25 C   35 % 
 2018-12-10 00:41:47  25 C   35 % 
 2018-12-10 00:32:10  25 C   35 % 
 2018-12-10 00:22:34  25 C   35 % 
 2018-12-10 00:12:57  25 C   35 % 
 2018-12-10 00:03:21  25 C   34 % 
 2018-12-09 23:53:45  25 C   33 % 
 2018-12-09 23:44:08  25 C   33 % 
 2018-12-09 23:34:32  25 C   33 % 
 2018-12-09 23:24:54  25 C   34 % 
 2018-12-09 23:15:18  25 C   34 % 
 2018-12-09 23:05:41  25 C   34 % 
 2018-12-09 22:46:19  24 C   35 % 
 2018-12-09 22:36:43  24 C   35 % 
 2018-12-09 22:27:06  24 C   36 % 
 2018-12-09 22:17:30  25 C   36 % 
 2018-12-09 22:07:43  25 C   36 % 
 2018-12-09 21:58:11  25 C   36 % 
 2018-12-09 21:38:49  25 C   39 % 
 2018-12-09 21:29:12  25 C   39 % 
 2018-12-09 21:19:35  25 C   39 % 
 2018-12-09 21:10:00  25 C   39 % 
 2018-12-09 21:00:21  25 C   39 % 
 2018-12-09 20:50:44  25 C   40 % 
 2018-12-09 20:41:07  25 C   40 % 
 2018-12-09 20:11:36  25 C   39 % 
 2018-12-09 19:51:55  25 C   38 % 
 2018-12-09 19:42:19  24 C   38 % 
 2018-12-09 19:32:41  24 C   38 % 
 2018-12-09 19:23:06  24 C   50 % 
 2018-12-09 19:03:27  24 C   37 % 
 2018-12-09 18:54:01  24 C   37 % 
 2018-12-09 18:33:38  24 C   37 % 
 2018-12-09 18:23:58  24 C   37 % 
 2018-12-09 18:14:21  24 C   37 % 
 2018-12-09 18:04:46  24 C   37 % 
 2018-12-09 17:55:07  24 C   37 % 
 2018-12-09 17:45:34  24 C   37 % 
 2018-12-09 17:35:52  24 C   37 % 
 2018-12-09 17:26:14  24 C   37 % 
 2018-12-09 17:16:39  24 C   37 % 
 2018-12-09 17:07:00  24 C   37 % 
 2018-12-09 16:57:24  24 C   37 % 
 2018-12-09 16:47:54  24 C   36 % 
 2018-12-09 16:37:58  24 C   36 % 
 2018-12-09 16:28:21  24 C   36 % 
 2018-12-09 16:18:50  24 C   36 % 
 2018-12-09 15:49:12  24 C   35 % 
 2018-12-09 15:29:56  24 C   36 % 
 2018-12-09 15:20:19  24 C   36 % 
 2018-12-09 14:50:55  24 C   36 % 
 2018-12-09 14:11:23  23 C   43 % 
 2018-12-09 14:01:42  23 C   43 % 
 2018-12-09 13:52:06  23 C   39 % 
 2018-12-09 13:42:30  23 C   38 % 
 2018-12-09 13:32:52  23 C   38 % 
 2018-12-09 13:23:17  23 C   38 % 
 2018-12-09 13:13:37  23 C   38 % 
 2018-12-09 13:04:01  23 C   38 % 
 2018-12-09 12:54:24  23 C   38 % 
 2018-12-09 12:44:43  23 C   38 % 
 2018-12-09 12:35:03  23 C   38 % 
 2018-12-09 12:25:27  23 C   38 % 
 2018-12-09 12:15:52  23 C   38 % 
 2018-12-09 12:06:12  23 C   38 % 
 2018-12-09 11:46:57  23 C   38 % 
 2018-12-09 11:37:21  23 C   38 % 
 2018-12-09 11:27:45  23 C   39 % 
 2018-12-09 11:18:08  23 C   37 % 
 2018-12-09 11:08:31  23 C   37 % 
 2018-12-09 10:58:55  23 C   37 % 
 2018-12-09 10:49:19  23 C   37 % 
 2018-12-09 10:39:39  23 C   38 % 
 2018-12-09 10:30:03  23 C   38 % 
 2018-12-09 10:20:26  23 C   38 % 
 2018-12-09 10:10:51  23 C   38 % 
 2018-12-09 10:01:18  23 C   38 % 
 2018-12-09 09:51:20  22 C   38 % 
 2018-12-09 09:41:43  22 C   38 % 
 2018-12-09 09:32:06  22 C   38 % 
 2018-12-09 09:22:30  22 C   38 % 
 2018-12-09 09:12:56  22 C   38 % 
 2018-12-09 08:53:10  22 C   39 % 
 2018-12-09 08:43:28  22 C   39 % 
 2018-12-09 08:04:39  22 C   39 % 
 2018-12-09 07:54:58  22 C   39 % 
 2018-12-09 07:45:24  22 C   38 % 
 2018-12-09 07:25:31  22 C   38 % 
 2018-12-09 07:15:53  22 C   38 % 
 2018-12-09 07:06:17  22 C   38 % 
 2018-12-09 06:56:40  23 C   38 % 
 2018-12-09 06:47:03  23 C   38 % 
 2018-12-09 06:37:29  23 C   38 % 
 2018-12-09 06:08:09  23 C   38 % 
 2018-12-09 05:58:31  23 C   38 % 
 2018-12-09 05:48:55  23 C   38 % 
 2018-12-09 05:39:16  23 C   38 % 
 2018-12-09 05:29:41  23 C   38 % 
 2018-12-09 05:20:03  23 C   38 % 
 2018-12-09 05:10:24  23 C   38 % 
 2018-12-09 05:00:47  23 C   38 % 
 2018-12-09 04:51:10  23 C   38 % 
 2018-12-09 04:41:33  23 C   38 % 
 2018-12-09 04:31:57  23 C   38 % 
 2018-12-09 04:22:19  23 C   38 % 
 2018-12-09 04:12:41  23 C   38 % 
 2018-12-09 04:03:06  23 C   37 % 
 2018-12-09 03:53:28  23 C   37 % 
 2018-12-09 03:34:07  23 C   37 % 
 2018-12-09 03:24:30  23 C   36 % 
 2018-12-09 03:14:53  23 C   36 % 
 2018-12-09 03:05:16  23 C   36 % 
 2018-12-09 02:55:41  23 C   36 % 
 2018-12-09 02:46:04  23 C   36 % 
 2018-12-09 02:36:29  23 C   36 % 
 2018-12-09 02:26:50  23 C   36 % 
 2018-12-09 02:17:14  24 C   36 % 
 2018-12-09 02:07:38  24 C   36 % 
 2018-12-09 01:48:26  24 C   35 % 
 2018-12-09 01:38:43  24 C   35 % 
 2018-12-09 01:19:30  24 C   35 % 
 2018-12-09 00:59:43  24 C   35 % 
 2018-12-09 00:49:57  24 C   34 % 
 2018-12-09 00:40:21  24 C   34 % 
 2018-12-09 00:30:44  24 C   34 % 
 2018-12-09 00:21:07  23 C   34 % 
 2018-12-09 00:11:31  23 C   34 % 
 2018-12-08 23:42:44  23 C   34 % 
 2018-12-08 23:32:48  23 C   35 % 
 2018-12-08 23:23:19  23 C   36 % 
 2018-12-08 23:03:32  23 C   36 % 
 2018-12-08 22:44:22  23 C   35 % 
 2018-12-08 22:34:41  23 C   35 % 
 2018-12-08 22:25:05  23 C   35 % 
 2018-12-08 22:15:29  23 C   35 % 
 2018-12-08 22:05:53  23 C   35 % 
 2018-12-08 21:56:16  23 C   35 % 
 2018-12-08 21:46:38  23 C   36 % 
 2018-12-08 21:37:03  23 C   37 % 
 2018-12-08 21:27:31  23 C   37 % 
 2018-12-08 21:17:34  23 C   39 % 
 2018-12-08 21:07:55  23 C   42 % 
 2018-12-08 20:58:18  23 C   37 % 
 2018-12-08 20:48:44  23 C   39 % 
 2018-12-08 20:39:01  23 C   36 % 
 2018-12-08 20:29:27  23 C   36 % 
 2018-12-08 20:19:47  23 C   36 % 
 2018-12-08 20:10:12  23 C   36 % 
 2018-12-08 20:00:30  23 C   37 % 
 2018-12-08 19:50:52  23 C   38 % 
 2018-12-08 19:31:18  23 C   40 % 
 2018-12-08 19:12:02  23 C   41 % 
 2018-12-08 19:02:26  23 C   41 % 
 2018-12-08 18:52:49  23 C   41 % 
 2018-12-08 18:33:35  23 C   38 % 
 2018-12-08 18:23:58  23 C   38 % 
 2018-12-08 18:14:17  23 C   38 % 
 2018-12-08 18:04:42  23 C   38 % 
 2018-12-08 17:55:06  23 C   38 % 
 2018-12-08 17:45:30  23 C   38 % 
 2018-12-08 17:26:22  23 C   38 % 
 2018-12-08 17:16:35  23 C   38 % 
 2018-12-08 17:07:00  23 C   38 % 
 2018-12-08 16:57:24  23 C   38 % 
 2018-12-08 16:47:46  23 C   38 % 
 2018-12-08 16:38:12  23 C   38 % 
 2018-12-08 16:28:23  23 C   38 % 
 2018-12-08 16:18:48  23 C   38 % 
 2018-12-08 16:09:09  23 C   38 % 
 2018-12-08 15:59:33  23 C   38 % 
 2018-12-08 15:49:58  24 C   38 % 
 2018-12-08 15:40:23  24 C   38 % 
 2018-12-08 15:30:44  24 C   37 % 
 2018-12-08 15:11:28  24 C   38 % 
 2018-12-08 15:01:51  24 C   37 % 
 2018-12-08 14:52:16  24 C   37 % 
 2018-12-08 14:42:40  24 C   37 % 
 2018-12-08 14:33:04  25 C   37 % 
 2018-12-08 14:23:34  25 C   37 % 
 2018-12-08 14:13:30  25 C   36 % 
 2018-12-08 14:03:50  25 C   36 % 
 2018-12-08 13:54:16  25 C   35 % 
 2018-12-08 13:15:20  27 C   35 % 
 2018-12-08 13:05:44  28 C   35 % 
 2018-12-08 12:46:31  29 C   31 % 
 2018-12-08 12:36:59  28 C   36 % 
 2018-12-08 12:26:59  25 C   45 % 
 2018-12-08 12:17:07  22 C   39 % 
 2018-12-08 12:07:31  22 C   38 % 
 2018-12-08 11:57:56  22 C   38 % 
 2018-12-08 11:48:16  22 C   38 % 
 2018-12-08 11:38:42  22 C   38 % 
 2018-12-08 11:29:04  22 C   38 % 
 2018-12-08 11:19:31  22 C   38 % 
 2018-12-08 11:09:48  22 C   38 % 
 2018-12-08 11:00:02  22 C   38 % 
 2018-12-08 10:50:25  22 C   38 % 
 2018-12-08 10:40:49  22 C   38 % 
 2018-12-08 10:31:12  22 C   38 % 
 2018-12-08 10:11:48  22 C   38 % 
 2018-12-08 10:02:12  22 C   38 % 
 2018-12-08 09:52:37  22 C   38 % 
 2018-12-08 09:43:00  23 C   38 % 
 2018-12-08 09:33:07  23 C   38 % 
 2018-12-08 09:13:12  23 C   38 % 
 2018-12-08 09:03:36  23 C   38 % 
 2018-12-08 08:54:00  23 C   38 % 
 2018-12-08 08:44:21  23 C   38 % 
 2018-12-08 08:34:45  23 C   38 % 
 2018-12-08 08:25:14  23 C   38 % 
 2018-12-08 08:05:42  23 C   38 % 
 2018-12-08 07:55:58  23 C   38 % 
 2018-12-08 07:26:32  23 C   38 % 
 2018-12-08 07:16:48  23 C   38 % 
 2018-12-08 07:07:13  23 C   38 % 
 2018-12-08 06:37:21  23 C   38 % 
 2018-12-08 06:27:37  23 C   38 % 
 2018-12-08 06:07:49  24 C   38 % 
 2018-12-08 05:48:11  24 C   38 % 
 2018-12-08 05:38:34  24 C   38 % 
 2018-12-08 05:29:05  24 C   38 % 
 2018-12-08 05:19:01  24 C   38 % 
 2018-12-08 05:09:26  24 C   38 % 
 2018-12-08 04:50:07  24 C   38 % 
 2018-12-08 04:30:18  24 C   38 % 
 2018-12-08 04:20:41  24 C   38 % 
 2018-12-08 04:11:05  24 C   38 % 
 2018-12-08 03:31:38  24 C   37 % 
 2018-12-08 03:11:50  24 C   37 % 
 2018-12-08 03:02:09  24 C   37 % 
 2018-12-08 02:52:32  24 C   36 % 
 2018-12-08 02:33:20  25 C   36 % 
 2018-12-08 02:04:16  25 C   35 % 
 2018-12-08 01:54:36  25 C   35 % 
 2018-12-08 01:44:54  25 C   35 % 
 2018-12-08 01:25:14  25 C   35 % 
 2018-12-08 01:15:34  25 C   35 % 
 2018-12-08 01:05:57  24 C   35 % 
 2018-12-08 00:56:21  24 C   35 % 
 2018-12-08 00:37:08  24 C   35 % 
 2018-12-08 00:27:32  24 C   35 % 
 2018-12-08 00:17:55  24 C   35 % 
 2018-12-07 23:58:00  24 C   36 % 
 2018-12-07 23:48:23  24 C   37 % 
 2018-12-07 23:38:46  24 C   37 % 
 2018-12-07 23:29:11  24 C   36 % 
 2018-12-07 23:19:33  24 C   35 % 
 2018-12-07 23:09:57  24 C   35 % 
 2018-12-07 23:00:20  24 C   35 % 
 2018-12-07 22:50:43  24 C   35 % 
 2018-12-07 22:21:13  24 C   35 % 
 2018-12-07 22:11:40  24 C   35 % 
 2018-12-07 22:02:04  24 C   35 % 
 2018-12-07 21:52:27  24 C   34 % 
 2018-12-07 21:42:51  24 C   36 % 
 2018-12-07 21:13:11  24 C   37 % 
 2018-12-07 21:03:28  24 C   37 % 
 2018-12-07 20:53:52  24 C   38 % 
 2018-12-07 20:34:38  24 C   37 % 
 2018-12-07 20:25:01  24 C   37 % 
 2018-12-07 20:15:25  24 C   37 % 
 2018-12-07 20:05:53  24 C   37 % 
 2018-12-07 19:56:05  24 C   37 % 
 2018-12-07 19:46:27  24 C   37 % 
 2018-12-07 19:36:48  24 C   37 % 
 2018-12-07 19:27:10  24 C   37 % 
 2018-12-07 19:17:35  24 C   37 % 
 2018-12-07 19:07:46  24 C   37 % 
 2018-12-07 18:58:09  24 C   37 % 
 2018-12-07 18:48:42  23 C   38 % 
 2018-12-07 18:18:29  23 C   39 % 
 2018-12-07 18:08:53  23 C   39 % 
 2018-12-07 17:49:20  23 C   39 % 
 2018-12-07 17:39:44  23 C   39 % 
 2018-12-07 17:30:07  23 C   38 % 
 2018-12-07 17:20:30  23 C   38 % 
 2018-12-07 17:10:53  23 C   38 % 
 2018-12-07 16:50:55  23 C   38 % 
 2018-12-07 16:41:21  23 C   38 % 
 2018-12-07 16:31:41  23 C   38 % 
 2018-12-07 16:22:04  23 C   38 % 
 2018-12-07 16:12:28  23 C   38 % 
 2018-12-07 16:02:53  23 C   38 % 
 2018-12-07 15:53:13  23 C   38 % 
 2018-12-07 15:43:36  23 C   38 % 
 2018-12-07 15:34:07  23 C   38 % 
 2018-12-07 15:24:14  23 C   37 % 
 2018-12-07 15:14:38  23 C   37 % 
 2018-12-07 15:04:59  23 C   37 % 
 2018-12-07 14:55:23  23 C   37 % 
 2018-12-07 14:45:46  23 C   37 % 
 2018-12-07 14:36:08  23 C   37 % 
 2018-12-07 14:26:31  24 C   37 % 
 2018-12-07 14:16:56  24 C   37 % 
 2018-12-07 14:07:20  24 C   37 % 
 2018-12-07 13:57:42  24 C   37 % 
 2018-12-07 13:48:06  24 C   37 % 
 2018-12-07 13:38:27  24 C   37 % 
 2018-12-07 13:28:51  24 C   37 % 
 2018-12-07 13:09:38  24 C   37 % 
 2018-12-07 13:00:02  24 C   37 % 
 2018-12-07 12:50:31  24 C   36 % 
 2018-12-07 12:40:24  24 C   36 % 
 2018-12-07 12:30:48  24 C   36 % 
 2018-12-07 12:11:28  24 C   36 % 
 2018-12-07 12:02:00  24 C   36 % 
 2018-12-07 11:51:57  24 C   36 % 
 2018-12-07 11:42:20  24 C   36 % 
 2018-12-07 11:32:46  24 C   36 % 
 2018-12-07 11:23:05  24 C   36 % 
 2018-12-07 11:13:27  24 C   36 % 
 2018-12-07 11:03:39  24 C   36 % 
 2018-12-07 10:54:03  24 C   36 % 
 2018-12-07 10:44:25  24 C   37 % 
 2018-12-07 10:34:50  24 C   37 % 
 2018-12-07 10:15:28  24 C   37 % 
 2018-12-07 10:05:51  24 C   36 % 
 2018-12-07 09:56:15  24 C   36 % 
 2018-12-07 09:36:49  24 C   36 % 
 2018-12-07 09:17:02  24 C   37 % 
 2018-12-07 09:07:25  24 C   37 % 
 2018-12-07 08:57:49  24 C   37 % 
 2018-12-07 08:48:13  24 C   38 % 
 2018-12-07 08:38:37  25 C   38 % 
 2018-12-07 08:09:03  25 C   39 % 
 2018-12-07 07:49:47  24 C   41 % 
 2018-12-07 07:40:13  24 C   39 % 
 2018-12-07 07:30:34  24 C   39 % 
 2018-12-07 07:20:58  24 C   41 % 
 2018-12-07 06:51:24  24 C   39 % 
 2018-12-07 06:41:47  24 C   38 % 
 2018-12-07 06:32:10  24 C   38 % 
 2018-12-07 06:22:34  24 C   38 % 
 2018-12-07 06:12:56  24 C   38 % 
 2018-12-07 06:03:20  24 C   38 % 
 2018-12-07 05:34:13  24 C   38 % 
 2018-12-07 05:24:37  24 C   38 % 
 2018-12-07 05:15:02  24 C   38 % 
 2018-12-07 04:55:24  24 C   38 % 
 2018-12-07 04:45:48  24 C   37 % 
 2018-12-07 04:36:12  24 C   37 % 
 2018-12-07 04:26:35  24 C   37 % 
 2018-12-07 04:16:59  25 C   37 % 
 2018-12-07 04:07:23  25 C   37 % 
 2018-12-07 03:57:47  25 C   37 % 
 2018-12-07 02:59:01  25 C   37 % 
 2018-12-07 02:20:01  25 C   36 % 
 2018-12-07 00:33:07  25 C   36 % 
 2018-12-07 00:23:30  25 C   36 % 
 2018-12-06 23:44:26  25 C   36 % 
 2018-12-06 23:24:32  25 C   36 % 
 2018-12-06 22:54:50  25 C   36 % 
 2018-12-06 22:15:43  26 C   36 % 
 2018-12-06 21:46:22  25 C   36 % 
 2018-12-06 21:36:04  25 C   36 % 
 2018-12-06 21:26:22  25 C   36 % 
 2018-12-06 20:56:49  25 C   36 % 
 2018-12-06 20:47:08  25 C   36 % 
 2018-12-06 20:27:49  25 C   36 % 
 2018-12-06 20:18:12  25 C   36 % 
 2018-12-06 19:29:36  25 C   36 % 
 2018-12-06 19:19:59  25 C   35 % 
 2018-12-06 19:10:23  25 C   35 % 
 2018-12-06 19:00:45  25 C   35 % 
 2018-12-06 18:41:24  24 C   35 % 
 2018-12-06 18:31:49  24 C   35 % 
 2018-12-06 18:12:34  24 C   35 % 
 2018-12-06 18:03:02  24 C   35 % 
 2018-12-06 17:53:13  24 C   35 % 
 2018-12-06 17:43:37  24 C   35 % 
 2018-12-06 17:34:02  24 C   35 % 
 2018-12-06 17:24:24  24 C   34 % 
 2018-12-06 17:14:48  24 C   36 % 
 2018-12-06 17:05:13  24 C   40 % 
 2018-12-06 16:45:57  24 C   36 % 
 2018-12-06 16:16:35  24 C   37 % 
 2018-12-06 15:56:40  24 C   37 % 
 2018-12-06 15:07:56  23 C   37 % 
 2018-12-06 14:58:15  23 C   37 % 
 2018-12-06 14:28:57  24 C   37 % 
 2018-12-06 13:39:34  24 C   36 % 
 2018-12-06 13:29:57  24 C   36 % 
 2018-12-06 13:10:39  24 C   37 % 
 2018-12-06 13:01:04  24 C   37 % 
 2018-12-06 12:51:27  24 C   37 % 
 2018-12-06 12:41:50  24 C   37 % 
 2018-12-06 12:32:14  24 C   37 % 
 2018-12-06 12:02:38  24 C   37 % 
 2018-12-06 11:43:14  24 C   37 % 
 2018-12-06 11:23:43  24 C   37 % 
 2018-12-06 11:14:09  24 C   37 % 
 2018-12-06 11:04:29  24 C   37 % 
 2018-12-06 10:54:53  24 C   37 % 
 2018-12-06 10:45:11  24 C   37 % 
 2018-12-06 10:35:33  24 C   38 % 
 2018-12-06 10:25:56  23 C   38 % 
 2018-12-06 10:16:19  23 C   41 % 
 2018-12-06 10:06:43  23 C   41 % 
 2018-12-06 09:57:07  23 C   40 % 
 2018-12-06 09:47:29  23 C   40 % 
 2018-12-06 09:37:54  23 C   40 % 
 2018-12-06 09:28:16  23 C   40 % 
 2018-12-06 09:18:39  24 C   40 % 
 2018-12-06 09:09:02  24 C   41 % 
 2018-12-06 08:59:26  24 C   41 % 
 2018-12-06 08:49:49  24 C   41 % 
 2018-12-06 08:40:11  24 C   41 % 
 2018-12-06 08:30:38  24 C   41 % 
 2018-12-06 08:20:55  24 C   41 % 
 2018-12-06 08:01:27  24 C   40 % 
 2018-12-06 07:51:49  24 C   41 % 
 2018-12-06 07:42:12  24 C   40 % 
 2018-12-06 07:32:36  24 C   40 % 
 2018-12-06 07:23:00  24 C   40 % 
 2018-12-06 07:03:11  24 C   41 % 
 2018-12-06 06:53:22  24 C   41 % 
 2018-12-06 06:43:45  24 C   38 % 
 2018-12-06 06:34:08  24 C   38 % 
 2018-12-06 06:24:32  24 C   38 % 
 2018-12-06 06:14:57  24 C   38 % 
 2018-12-06 05:55:40  24 C   38 % 
 2018-12-06 05:46:04  24 C   38 % 
 2018-12-06 05:26:29  24 C   38 % 
 2018-12-06 05:16:53  24 C   38 % 
 2018-12-06 05:07:16  24 C   38 % 
 2018-12-06 04:57:44  24 C   38 % 
 2018-12-06 04:47:58  24 C   38 % 
 2018-12-06 04:09:25  25 C   37 % 
 2018-12-06 03:59:49  25 C   37 % 
 2018-12-06 03:40:18  25 C   37 % 
 2018-12-06 03:30:41  25 C   37 % 
 2018-12-06 03:21:04  25 C   37 % 
 2018-12-06 02:03:33  25 C   37 % 
 2018-12-06 01:53:56  25 C   37 % 
 2018-12-06 01:34:31  25 C   37 % 
 2018-12-06 01:24:53  25 C   37 % 
 2018-12-06 01:15:16  25 C   37 % 
 2018-12-06 00:56:00  25 C   37 % 
 2018-12-06 00:46:24  25 C   37 % 
 2018-12-06 00:27:58  25 C   37 % 
 2018-12-06 00:17:29  25 C   37 % 
 2018-12-05 23:58:20  25 C   37 % 
 2018-12-05 23:28:26  25 C   37 % 
 2018-12-05 23:18:46  25 C   37 % 
 2018-12-05 23:09:10  25 C   37 % 
 2018-12-05 22:49:26  25 C   36 % 
 2018-12-05 22:10:11  25 C   36 % 
 2018-12-05 21:30:21  25 C   37 % 
 2018-12-05 21:20:47  25 C   37 % 
 2018-12-05 21:11:06  25 C   37 % 
 2018-12-05 20:42:04  26 C   37 % 
 2018-12-05 20:32:29  26 C   37 % 
 2018-12-05 19:53:23  25 C   41 % 
 2018-12-05 19:33:51  25 C   37 % 
 2018-12-05 19:24:22  25 C   37 % 
 2018-12-05 19:14:25  25 C   37 % 
 2018-12-05 19:04:51  25 C   37 % 
 2018-12-05 18:45:16  25 C   38 % 
 2018-12-05 18:35:36  25 C   38 % 
 2018-12-05 18:16:20  25 C   39 % 
 2018-12-05 18:06:45  25 C   40 % 
 2018-12-05 17:46:55  25 C   40 % 
 2018-12-05 17:17:59  24 C   42 % 
 2018-12-05 17:08:23  24 C   38 % 
 2018-12-05 16:58:44  24 C   38 % 
 2018-12-05 16:49:09  24 C   38 % 
 2018-12-05 16:39:32  24 C   38 % 
 2018-12-05 16:29:57  24 C   38 % 
 2018-12-05 16:20:29  24 C   37 % 
 2018-12-05 16:10:03  24 C   37 % 
 2018-12-05 16:00:28  24 C   37 % 
 2018-12-05 15:50:55  24 C   38 % 
 2018-12-05 15:41:04  24 C   38 % 
 2018-12-05 15:31:28  24 C   38 % 
 2018-12-05 15:21:54  24 C   38 % 
 2018-12-05 15:02:34  24 C   37 % 
 2018-12-05 14:53:04  24 C   37 % 
 2018-12-05 14:43:07  24 C   37 % 
 2018-12-05 14:33:32  24 C   37 % 
 2018-12-05 14:23:54  24 C   38 % 
 2018-12-05 14:14:13  24 C   38 % 
 2018-12-05 14:04:37  24 C   38 % 
 2018-12-05 13:45:23  24 C   38 % 
 2018-12-05 13:35:50  24 C   38 % 
 2018-12-05 13:26:08  24 C   37 % 
 2018-12-05 13:16:33  23 C   38 % 
 2018-12-05 13:06:56  23 C   38 % 
 2018-12-05 12:57:20  23 C   38 % 
 2018-12-05 12:47:43  23 C   37 % 
 2018-12-05 12:38:07  23 C   37 % 
 2018-12-05 12:28:32  23 C   37 % 
 2018-12-05 12:18:53  23 C   37 % 
 2018-12-05 12:09:16  23 C   36 % 
 2018-12-05 11:59:40  23 C   36 % 
 2018-12-05 11:50:04  23 C   35 % 
 2018-12-05 11:40:26  23 C   35 % 
 2018-12-05 11:30:49  23 C   36 % 
 2018-12-05 11:21:13  23 C   37 % 
 2018-12-05 11:11:36  23 C   37 % 
 2018-12-05 11:01:59  23 C   38 % 
 2018-12-05 10:52:23  23 C   39 % 
 2018-12-05 10:42:47  23 C   40 % 
 2018-12-05 10:33:09  23 C   40 % 
 2018-12-05 10:23:33  23 C   40 % 
 2018-12-05 10:13:56  23 C   40 % 
 2018-12-05 10:04:24  23 C   40 % 
 2018-12-05 09:54:38  23 C   40 % 
 2018-12-05 09:45:02  23 C   40 % 
 2018-12-05 09:25:25  23 C   40 % 
 2018-12-05 09:15:48  23 C   39 % 
 2018-12-05 09:06:12  23 C   40 % 
 2018-12-05 08:56:36  23 C   40 % 
 2018-12-05 08:46:58  23 C   40 % 
 2018-12-05 08:37:23  23 C   40 % 
 2018-12-05 08:27:44  24 C   40 % 
 2018-12-05 08:18:09  24 C   41 % 
 2018-12-05 08:08:31  23 C   42 % 
 2018-12-05 07:58:53  23 C   42 % 
 2018-12-05 07:49:16  23 C   42 % 
 2018-12-05 07:39:39  23 C   41 % 
 2018-12-05 07:30:03  23 C   41 % 
 2018-12-05 07:20:25  23 C   42 % 
 2018-12-05 07:10:49  23 C   43 % 
 2018-12-05 07:01:12  23 C   43 % 
 2018-12-05 06:51:35  23 C   41 % 
 2018-12-05 06:41:59  23 C   40 % 
 2018-12-05 06:32:24  23 C   40 % 
 2018-12-05 06:13:04  23 C   40 % 
 2018-12-05 06:03:28  23 C   40 % 
 2018-12-05 05:53:52  23 C   40 % 
 2018-12-05 05:24:34  23 C   40 % 
 2018-12-05 05:04:45  23 C   40 % 
 2018-12-05 04:55:06  23 C   40 % 
 2018-12-05 04:45:38  23 C   39 % 
 2018-12-05 04:35:33  23 C   39 % 
 2018-12-05 04:25:40  23 C   39 % 
 2018-12-05 04:16:05  23 C   39 % 
 2018-12-05 04:06:29  23 C   39 % 
 2018-12-05 03:47:10  24 C   39 % 
 2018-12-05 03:37:34  24 C   39 % 
 2018-12-05 03:27:58  24 C   39 % 
 2018-12-05 03:08:42  24 C   39 % 
 2018-12-05 02:48:55  24 C   39 % 
 2018-12-05 02:39:18  24 C   39 % 
 2018-12-05 02:20:00  24 C   39 % 
 2018-12-05 02:10:22  24 C   39 % 
 2018-12-05 02:00:46  24 C   39 % 
 2018-12-05 01:51:09  24 C   39 % 
 2018-12-05 01:41:34  24 C   39 % 
 2018-12-05 01:31:58  24 C   39 % 
 2018-12-05 01:12:27  24 C   39 % 
 2018-12-05 01:02:54  24 C   39 % 
 2018-12-05 00:53:07  24 C   39 % 
 2018-12-05 00:43:32  25 C   39 % 
 2018-12-05 00:33:55  25 C   39 % 
 2018-12-05 00:24:17  25 C   39 % 
 2018-12-05 00:14:40  25 C   39 % 
 2018-12-05 00:05:03  25 C   39 % 
 2018-12-04 23:06:34  25 C   38 % 
 2018-12-04 22:47:18  25 C   38 % 
 2018-12-04 22:37:42  25 C   37 % 
 2018-12-04 22:18:25  25 C   37 % 
 2018-12-04 22:08:48  25 C   37 % 
 2018-12-04 21:59:12  25 C   37 % 
 2018-12-04 21:49:36  25 C   37 % 
 2018-12-04 21:39:59  25 C   37 % 
 2018-12-04 21:20:22  25 C   36 % 
 2018-12-04 21:00:42  25 C   35 % 
 2018-12-04 20:50:56  25 C   35 % 
 2018-12-04 20:41:11  25 C   34 % 
 2018-12-04 20:21:28  25 C   32 % 
 2018-12-04 20:11:49  25 C   32 % 
 2018-12-04 20:02:15  25 C   32 % 
 2018-12-04 19:52:32  25 C   33 % 
 2018-12-04 19:13:50  26 C   40 % 
 2018-12-04 19:04:14  25 C   41 % 
 2018-12-04 18:44:55  25 C   38 % 
 2018-12-04 18:16:01  25 C   38 % 
 2018-12-04 18:06:21  25 C   38 % 
 2018-12-04 17:16:57  25 C   38 % 
 2018-12-04 17:07:26  25 C   38 % 
 2018-12-04 16:57:35  24 C   38 % 
 2018-12-04 16:38:20  24 C   39 % 
 2018-12-04 16:28:43  24 C   39 % 
 2018-12-04 16:19:07  24 C   38 % 
 2018-12-04 15:50:02  24 C   38 % 
 2018-12-04 15:30:28  24 C   37 % 
 2018-12-04 15:20:50  24 C   36 % 
 2018-12-04 15:11:12  24 C   34 % 
 2018-12-04 15:01:37  24 C   33 % 
 2018-12-04 14:52:00  24 C   34 % 
 2018-12-04 14:42:24  24 C   34 % 
 2018-12-04 14:23:02  24 C   36 % 
 2018-12-04 14:13:29  24 C   38 % 
 2018-12-04 14:03:41  24 C   41 % 
 2018-12-04 13:53:59  24 C   40 % 
 2018-12-04 13:34:43  24 C   40 % 
 2018-12-04 13:25:07  24 C   40 % 
 2018-12-04 13:15:29  24 C   40 % 
 2018-12-04 13:05:52  25 C   40 % 
 2018-12-04 12:56:20  25 C   41 % 
 2018-12-04 12:36:02  25 C   41 % 
 2018-12-04 12:16:50  24 C   41 % 
 2018-12-04 12:07:11  24 C   41 % 
 2018-12-04 11:47:53  24 C   41 % 
 2018-12-04 11:28:16  24 C   41 % 
 2018-12-04 11:18:40  24 C   41 % 
 2018-12-04 11:09:01  24 C   41 % 
 2018-12-04 10:59:24  24 C   41 % 
 2018-12-04 10:49:50  24 C   41 % 
 2018-12-04 10:40:08  24 C   41 % 
 2018-12-04 10:30:31  24 C   41 % 
 2018-12-04 10:21:00  24 C   41 % 
 2018-12-04 10:11:12  24 C   42 % 
 2018-12-04 10:01:18  24 C   43 % 
 2018-12-04 09:51:39  24 C   43 % 
 2018-12-04 09:32:24  24 C   43 % 
 2018-12-04 09:22:47  24 C   43 % 
 2018-12-04 09:13:10  24 C   43 % 
 2018-12-04 09:03:33  24 C   43 % 
 2018-12-04 08:53:57  24 C   43 % 
 2018-12-04 08:34:36  24 C   43 % 
 2018-12-04 08:25:04  24 C   44 % 
 2018-12-04 08:15:16  24 C   44 % 
 2018-12-04 07:25:44  24 C   44 % 
 2018-12-04 07:16:17  24 C   45 % 
 2018-12-04 07:05:51  24 C   45 % 
 2018-12-04 06:46:26  24 C   43 % 
 2018-12-04 06:36:50  24 C   42 % 
 2018-12-04 06:17:20  24 C   42 % 
 2018-12-04 06:07:33  24 C   42 % 
 2018-12-04 05:57:58  24 C   42 % 
 2018-12-04 05:48:17  24 C   42 % 
 2018-12-04 05:38:33  24 C   42 % 
 2018-12-04 05:28:58  24 C   42 % 
 2018-12-04 05:08:58  24 C   42 % 
 2018-12-04 04:59:18  24 C   42 % 
 2018-12-04 04:49:43  25 C   41 % 
 2018-12-04 04:40:10  25 C   41 % 
 2018-12-04 04:11:07  25 C   41 % 
 2018-12-04 04:01:18  25 C   41 % 
 2018-12-04 03:51:46  25 C   41 % 
 2018-12-04 03:41:58  25 C   41 % 
 2018-12-04 03:22:41  25 C   41 % 
 2018-12-04 03:13:05  25 C   41 % 
 2018-12-04 02:53:11  25 C   41 % 
 2018-12-04 02:43:34  25 C   41 % 
 2018-12-04 02:14:47  25 C   41 % 
 2018-12-04 01:55:29  25 C   41 % 
 2018-12-04 01:26:35  25 C   41 % 
 2018-12-04 01:16:55  25 C   42 % 
 2018-12-04 00:57:42  25 C   42 % 
 2018-12-04 00:09:37  25 C   42 % 
 2018-12-03 23:59:57  25 C   42 % 
 2018-12-03 23:50:21  24 C   42 % 
 2018-12-03 23:40:50  24 C   42 % 
 2018-12-03 23:30:48  24 C   42 % 
 2018-12-03 23:21:11  24 C   42 % 
 2018-12-03 23:11:33  24 C   42 % 
 2018-12-03 22:52:07  24 C   42 % 
 2018-12-03 22:32:10  24 C   42 % 
 2018-12-03 22:03:20  25 C   42 % 
 2018-12-03 21:44:12  25 C   41 % 
 2018-12-03 20:26:06  25 C   41 % 
 2018-12-03 19:56:10  25 C   42 % 
 2018-12-03 19:36:23  25 C   42 % 
 2018-12-03 19:06:42  25 C   41 % 
 2018-12-03 17:38:26  24 C   42 % 
 2018-12-03 17:28:44  24 C   41 % 
 2018-12-03 17:09:28  23 C   41 % 
 2018-12-03 16:59:51  23 C   42 % 
 2018-12-03 16:50:14  23 C   41 % 
 2018-12-03 16:40:42  23 C   40 % 
 2018-12-03 16:30:43  23 C   40 % 
 2018-12-03 15:52:08  24 C   41 % 
 2018-12-03 15:42:31  24 C   41 % 
 2018-12-03 15:32:58  24 C   41 % 
 2018-12-03 15:23:15  24 C   41 % 
 2018-12-03 14:53:43  24 C   41 % 
 2018-12-03 14:44:03  24 C   41 % 
 2018-12-03 14:34:27  24 C   41 % 
 2018-12-03 14:24:52  24 C   42 % 
 2018-12-03 14:05:31  24 C   42 % 
 2018-12-03 13:55:55  24 C   42 % 
 2018-12-03 13:36:13  24 C   42 % 
 2018-12-03 13:26:37  24 C   42 % 
 2018-12-03 13:17:00  23 C   42 % 
 2018-12-03 13:07:24  23 C   42 % 
 2018-12-03 12:57:47  23 C   41 % 
 2018-12-03 12:48:12  23 C   41 % 
 2018-12-03 12:38:37  23 C   41 % 
 2018-12-03 12:28:55  23 C   41 % 
 2018-12-03 11:50:06  23 C   41 % 
 2018-12-03 11:30:46  23 C   41 % 
 2018-12-03 11:21:13  23 C   41 % 
 2018-12-03 11:11:11  23 C   41 % 
 2018-12-03 11:01:35  23 C   41 % 
 2018-12-03 10:51:59  23 C   41 % 
 2018-12-03 10:42:21  23 C   41 % 
 2018-12-03 10:32:47  23 C   42 % 
 2018-12-03 10:13:25  23 C   41 % 
 2018-12-03 10:03:48  23 C   42 % 
 2018-12-03 09:54:14  23 C   42 % 
 2018-12-03 09:44:34  23 C   42 % 
 2018-12-03 09:35:00  23 C   42 % 
 2018-12-03 09:25:19  23 C   45 % 
 2018-12-03 09:15:43  23 C   42 % 
 2018-12-03 09:06:08  23 C   42 % 
 2018-12-03 08:56:31  23 C   42 % 
 2018-12-03 08:46:50  23 C   42 % 
 2018-12-03 08:37:15  23 C   42 % 
 2018-12-03 08:27:38  23 C   42 % 
 2018-12-03 08:17:57  23 C   42 % 
 2018-12-03 08:08:21  23 C   42 % 
 2018-12-03 07:58:47  23 C   42 % 
 2018-12-03 07:49:04  23 C   42 % 
 2018-12-03 07:39:28  23 C   42 % 
 2018-12-03 07:29:51  23 C   42 % 
 2018-12-03 07:20:15  23 C   42 % 
 2018-12-03 07:10:39  23 C   42 % 
 2018-12-03 06:50:51  23 C   41 % 
 2018-12-03 06:41:19  23 C   41 % 
 2018-12-03 06:31:09  23 C   41 % 
 2018-12-03 06:21:28  23 C   41 % 
 2018-12-03 06:11:52  23 C   41 % 
 2018-12-03 06:02:17  23 C   41 % 
 2018-12-03 05:52:37  23 C   41 % 
 2018-12-03 05:43:01  23 C   41 % 
 2018-12-03 05:33:24  23 C   41 % 
 2018-12-03 05:23:48  23 C   41 % 
 2018-12-03 05:14:11  23 C   41 % 
 2018-12-03 05:04:34  23 C   41 % 
 2018-12-03 04:54:55  23 C   41 % 
 2018-12-03 04:35:38  23 C   41 % 
 2018-12-03 04:26:01  23 C   41 % 
 2018-12-03 04:16:25  24 C   41 % 
 2018-12-03 03:56:29  24 C   41 % 
 2018-12-03 03:46:51  24 C   41 % 
 2018-12-03 03:37:14  24 C   41 % 
 2018-12-03 03:27:37  24 C   41 % 
 2018-12-03 03:18:00  24 C   41 % 
 2018-12-03 02:48:56  24 C   40 % 
 2018-12-03 02:39:18  24 C   40 % 
 2018-12-03 02:29:43  24 C   40 % 
 2018-12-03 02:20:06  24 C   40 % 
 2018-12-03 02:00:55  24 C   40 % 
 2018-12-03 01:22:26  24 C   40 % 
 2018-12-03 01:12:47  24 C   40 % 
 2018-12-03 01:03:10  24 C   40 % 
 2018-12-03 00:44:00  24 C   40 % 
 2018-12-03 00:34:23  24 C   40 % 
 2018-12-03 00:24:40  24 C   40 % 
 2018-12-03 00:05:08  24 C   40 % 
 2018-12-02 23:55:33  24 C   40 % 
 2018-12-02 23:45:51  24 C   40 % 
 2018-12-02 23:16:18  23 C   40 % 
 2018-12-02 23:06:36  23 C   40 % 
 2018-12-02 22:57:04  23 C   40 % 
 2018-12-02 22:47:19  23 C   40 % 
 2018-12-02 22:37:41  23 C   41 % 
 2018-12-02 22:28:03  23 C   41 % 
 2018-12-02 22:18:32  23 C   41 % 
 2018-12-02 22:08:41  23 C   41 % 
 2018-12-02 21:39:47  23 C   41 % 
 2018-12-02 21:30:07  23 C   41 % 
 2018-12-02 21:20:32  23 C   41 % 
 2018-12-02 21:10:54  23 C   41 % 
 2018-12-02 21:01:16  23 C   41 % 
 2018-12-02 20:32:28  23 C   41 % 
 2018-12-02 20:22:42  24 C   41 % 
 2018-12-02 20:13:06  24 C   41 % 
 2018-12-02 19:53:45  24 C   40 % 
 2018-12-02 19:44:03  24 C   40 % 
 2018-12-02 19:34:27  24 C   40 % 
 2018-12-02 19:24:56  24 C   40 % 
 2018-12-02 19:15:06  24 C   40 % 
 2018-12-02 19:05:26  24 C   40 % 
 2018-12-02 18:55:50  24 C   39 % 
 2018-12-02 18:36:35  24 C   39 % 
 2018-12-02 18:26:58  24 C   39 % 
 2018-12-02 18:17:21  24 C   39 % 
 2018-12-02 18:07:45  24 C   39 % 
 2018-12-02 17:58:11  24 C   39 % 
 2018-12-02 17:48:29  24 C   39 % 
 2018-12-02 17:19:27  25 C   38 % 
 2018-12-02 17:09:52  25 C   38 % 
 2018-12-02 17:00:14  25 C   38 % 
 2018-12-02 16:50:39  25 C   38 % 
 2018-12-02 16:41:01  25 C   38 % 
 2018-12-02 16:31:25  25 C   38 % 
 2018-12-02 16:21:49  25 C   38 % 
 2018-12-02 16:02:37  26 C   37 % 
 2018-12-02 15:53:01  26 C   37 % 
 2018-12-02 15:43:26  26 C   37 % 
 2018-12-02 15:33:49  26 C   37 % 
 2018-12-02 15:14:37  27 C   36 % 
 2018-12-02 14:45:42  28 C   34 % 
 2018-12-02 14:26:02  29 C   33 % 
 2018-12-02 14:16:15  30 C   31 % 
 2018-12-02 14:06:38  31 C   30 % 
 2018-12-02 13:57:03  32 C   28 % 
 2018-12-02 13:47:29  35 C   26 % 
 2018-12-02 13:37:48  35 C   27 % 
 2018-12-02 13:27:57  25 C   44 % 
 2018-12-02 13:08:44  24 C   40 % 
 2018-12-02 12:59:14  24 C   40 % 
 2018-12-02 12:28:53  24 C   41 % 
 2018-12-02 12:19:15  24 C   41 % 
 2018-12-02 12:09:43  24 C   40 % 
 2018-12-02 11:39:38  24 C   40 % 
 2018-12-02 11:30:01  24 C   41 % 
 2018-12-02 11:20:22  24 C   41 % 
 2018-12-02 11:10:45  24 C   41 % 
 2018-12-02 11:01:07  24 C   41 % 
 2018-12-02 10:51:33  24 C   41 % 
 2018-12-02 10:41:56  24 C   41 % 
 2018-12-02 10:32:07  23 C   41 % 
 2018-12-02 10:22:31  24 C   41 % 
 2018-12-02 10:12:55  24 C   41 % 
 2018-12-02 09:53:34  24 C   41 % 
 2018-12-02 09:34:18  24 C   40 % 
 2018-12-02 09:24:42  24 C   40 % 
 2018-12-02 09:15:05  24 C   40 % 
 2018-12-02 09:05:29  24 C   40 % 
 2018-12-02 08:55:51  24 C   40 % 
 2018-12-02 08:46:15  24 C   40 % 
 2018-12-02 08:36:40  24 C   40 % 
 2018-12-02 08:06:51  24 C   40 % 
 2018-12-02 07:57:15  24 C   40 % 
 2018-12-02 07:47:41  24 C   40 % 
 2018-12-02 07:37:59  24 C   40 % 
 2018-12-02 07:28:23  24 C   40 % 
 2018-12-02 07:18:48  24 C   40 % 
 2018-12-02 06:58:50  24 C   40 % 
 2018-12-02 06:49:13  24 C   40 % 
 2018-12-02 06:29:44  24 C   40 % 
 2018-12-02 06:20:07  24 C   40 % 
 2018-12-02 06:10:31  24 C   40 % 
 2018-12-02 06:00:55  24 C   40 % 
 2018-12-02 05:51:16  24 C   40 % 
 2018-12-02 05:41:44  25 C   40 % 
 2018-12-02 05:21:49  25 C   40 % 
 2018-12-02 05:01:46  25 C   40 % 
 2018-12-02 04:52:15  25 C   40 % 
 2018-12-02 04:42:27  25 C   40 % 
 2018-12-02 04:32:35  25 C   40 % 
 2018-12-02 04:22:59  25 C   39 % 
 2018-12-02 03:53:27  25 C   39 % 
 2018-12-02 03:43:48  25 C   39 % 
 2018-12-02 03:34:11  25 C   40 % 
 2018-12-02 03:24:37  25 C   40 % 
 2018-12-02 02:55:12  25 C   40 % 
 2018-12-02 02:45:34  25 C   40 % 
 2018-12-02 02:35:56  25 C   40 % 
 2018-12-02 02:16:39  25 C   40 % 
 2018-12-02 02:06:57  25 C   40 % 
 2018-12-02 01:47:06  25 C   40 % 
 2018-12-02 01:37:30  25 C   40 % 
 2018-12-02 01:27:53  24 C   40 % 
 2018-12-02 01:18:12  24 C   40 % 
 2018-12-02 01:08:36  24 C   40 % 
 2018-12-02 00:58:59  24 C   40 % 
 2018-12-02 00:49:25  24 C   40 % 
 2018-12-02 00:30:10  24 C   40 % 
 2018-12-02 00:20:35  24 C   40 % 
 2018-12-02 00:01:13  24 C   40 % 
 2018-12-01 23:51:38  24 C   40 % 
 2018-12-01 23:42:01  24 C   40 % 
 2018-12-01 23:22:50  24 C   40 % 
 2018-12-01 23:03:20  24 C   40 % 
 2018-12-01 22:53:47  24 C   40 % 
 2018-12-01 22:13:29  24 C   39 % 
 2018-12-01 21:54:17  24 C   39 % 
 2018-12-01 21:35:05  24 C   40 % 
 2018-12-01 21:15:09  24 C   40 % 
 2018-12-01 21:05:31  24 C   40 % 
 2018-12-01 20:55:55  24 C   41 % 
 2018-12-01 20:26:59  24 C   41 % 
 2018-12-01 20:17:21  24 C   41 % 
 2018-12-01 20:07:46  24 C   41 % 
 2018-12-01 19:58:11  24 C   41 % 
 2018-12-01 19:38:54  24 C   41 % 
 2018-12-01 19:09:53  23 C   41 % 
 2018-12-01 18:40:51  23 C   42 % 
 2018-12-01 18:31:15  23 C   42 % 
 2018-12-01 18:02:23  23 C   42 % 
 2018-12-01 17:52:46  23 C   42 % 
 2018-12-01 17:32:52  23 C   42 % 
 2018-12-01 17:23:16  23 C   42 % 
 2018-12-01 17:13:40  23 C   42 % 
 2018-12-01 17:04:01  23 C   42 % 
 2018-12-01 16:54:25  23 C   42 % 
 2018-12-01 16:44:49  23 C   42 % 
 2018-12-01 16:35:13  23 C   42 % 
 2018-12-01 16:25:34  23 C   42 % 
 2018-12-01 16:15:57  23 C   42 % 
 2018-12-01 15:56:15  24 C   42 % 
 2018-12-01 15:46:40  24 C   42 % 
 2018-12-01 15:27:22  24 C   42 % 
 2018-12-01 15:17:47  24 C   42 % 
 2018-12-01 14:47:45  23 C   41 % 
 2018-12-01 14:38:09  23 C   41 % 
 2018-12-01 14:28:34  24 C   41 % 
 2018-12-01 14:18:56  24 C   41 % 
 2018-12-01 14:09:21  24 C   41 % 
 2018-12-01 13:59:42  24 C   41 % 
 2018-12-01 13:50:08  24 C   41 % 
 2018-12-01 13:30:30  23 C   41 % 
 2018-12-01 13:11:18  23 C   41 % 
 2018-12-01 12:42:05  23 C   41 % 
 2018-12-01 12:32:28  23 C   41 % 
 2018-12-01 12:23:01  23 C   42 % 
 2018-12-01 12:12:55  23 C   42 % 
 2018-12-01 12:03:21  23 C   42 % 
 2018-12-01 11:53:41  23 C   42 % 
 2018-12-01 11:44:06  23 C   41 % 
 2018-12-01 11:34:35  23 C   41 % 
 2018-12-01 11:14:34  23 C   42 % 
 2018-12-01 11:04:39  23 C   41 % 
 2018-12-01 10:35:04  22 C   40 % 
 2018-12-01 10:15:15  22 C   39 % 
 2018-12-01 10:05:36  22 C   39 % 
 2018-12-01 09:55:59  22 C   39 % 
 2018-12-01 09:36:44  22 C   39 % 
 2018-12-01 09:27:06  22 C   39 % 
 2018-12-01 09:17:30  22 C   39 % 
 2018-12-01 09:07:51  22 C   39 % 
 2018-12-01 08:58:16  23 C   39 % 
 2018-12-01 08:38:41  23 C   39 % 
 2018-12-01 08:19:26  23 C   39 % 
 2018-12-01 08:09:50  23 C   39 % 
 2018-12-01 08:00:10  23 C   39 % 
 2018-12-01 07:50:33  23 C   39 % 
 2018-12-01 07:40:55  23 C   39 % 
 2018-12-01 07:31:18  23 C   39 % 
 2018-12-01 07:21:42  23 C   39 % 
 2018-12-01 07:12:01  23 C   39 % 
 2018-12-01 07:02:25  23 C   38 % 
 2018-12-01 06:52:55  23 C   38 % 
 2018-12-01 06:43:04  23 C   38 % 
 2018-12-01 06:33:24  23 C   38 % 
 2018-12-01 06:23:48  23 C   38 % 
 2018-12-01 06:14:13  23 C   38 % 
 2018-12-01 05:44:19  23 C   38 % 
 2018-12-01 05:34:44  23 C   38 % 
 2018-12-01 04:54:56  24 C   38 % 
 2018-12-01 04:45:20  24 C   38 % 
 2018-12-01 04:35:42  24 C   38 % 
 2018-12-01 04:26:06  24 C   38 % 
 2018-12-01 04:06:34  24 C   38 % 
 2018-12-01 03:56:58  24 C   38 % 
 2018-12-01 03:47:21  24 C   38 % 
 2018-12-01 03:37:47  24 C   39 % 
 2018-12-01 03:17:48  24 C   38 % 
 2018-12-01 03:08:08  24 C   39 % 
 2018-12-01 02:28:59  24 C   39 % 
 2018-12-01 01:50:26  25 C   39 % 
 2018-12-01 01:31:09  25 C   39 % 
 2018-12-01 01:21:33  25 C   39 % 
 2018-12-01 00:52:45  25 C   39 % 
 2018-12-01 00:43:10  25 C   39 % 
 2018-12-01 00:33:32  25 C   39 % 
 2018-11-30 23:44:26  25 C   39 % 
 2018-11-30 23:14:53  25 C   39 % 
 2018-11-30 22:17:13  25 C   39 % 
 2018-11-30 22:07:37  25 C   38 % 
 2018-11-30 21:47:35  25 C   37 % 
 2018-11-30 21:38:00  26 C   38 % 
 2018-11-30 20:40:26  26 C   42 % 
 2018-11-30 20:30:19  26 C   42 % 
 2018-11-30 20:11:02  26 C   41 % 
 2018-11-30 19:41:40  26 C   40 % 
 2018-11-30 18:33:49  25 C   38 % 
 2018-11-30 18:24:10  25 C   39 % 
 2018-11-30 17:25:37  26 C   38 % 
 2018-11-30 17:15:33  26 C   37 % 
 2018-11-30 17:05:52  26 C   37 % 
 2018-11-30 16:56:14  27 C   37 % 
 2018-11-30 16:37:00  27 C   36 % 
 2018-11-30 16:17:54  28 C   35 % 
 2018-11-30 16:07:47  28 C   34 % 
 2018-11-30 15:58:13  29 C   34 % 
 2018-11-30 15:38:43  30 C   33 % 
 2018-11-30 15:28:58  28 C   38 % 
 2018-11-30 15:19:19  24 C   40 % 
 2018-11-30 14:49:40  24 C   40 % 
 2018-11-30 14:30:27  24 C   40 % 
 2018-11-30 14:20:51  24 C   40 % 
 2018-11-30 14:11:12  24 C   40 % 
 2018-11-30 13:42:04  24 C   40 % 
 2018-11-30 13:32:28  24 C   40 % 
 2018-11-30 13:22:51  24 C   40 % 
 2018-11-30 13:03:39  24 C   40 % 
 2018-11-30 12:54:02  24 C   40 % 
 2018-11-30 12:44:26  24 C   40 % 
 2018-11-30 12:34:49  24 C   40 % 
 2018-11-30 12:05:39  24 C   39 % 
 2018-11-30 11:45:42  24 C   40 % 
 2018-11-30 11:36:05  23 C   40 % 
 2018-11-30 11:26:26  23 C   40 % 
 2018-11-30 11:06:34  23 C   40 % 
 2018-11-30 10:47:18  23 C   40 % 
 2018-11-30 10:37:42  23 C   42 % 
 2018-11-30 10:17:44  23 C   40 % 
 2018-11-30 09:57:55  23 C   41 % 
 2018-11-30 09:48:18  23 C   41 % 
 2018-11-30 09:38:42  23 C   41 % 
 2018-11-30 09:09:28  23 C   41 % 
 2018-11-30 08:50:12  23 C   41 % 
 2018-11-30 08:30:15  23 C   42 % 
 2018-11-30 08:20:41  23 C   42 % 
 2018-11-30 07:51:14  23 C   42 % 
 2018-11-30 07:31:11  23 C   41 % 
 2018-11-30 07:21:35  23 C   40 % 
 2018-11-30 07:11:58  23 C   40 % 
 2018-11-30 06:52:25  23 C   40 % 
 2018-11-30 05:42:14  23 C   39 % 
 2018-11-30 05:12:52  23 C   39 % 
 2018-11-30 04:53:34  23 C   39 % 
 2018-11-30 04:43:55  23 C   39 % 
 2018-11-30 04:05:19  23 C   39 % 
 2018-11-30 03:55:44  23 C   39 % 
 2018-11-30 03:35:58  23 C   39 % 
 2018-11-30 03:16:03  23 C   39 % 
 2018-11-30 02:56:30  23 C   39 % 
 2018-11-30 02:46:16  24 C   39 % 
 2018-11-30 02:36:41  24 C   39 % 
 2018-11-30 02:27:05  24 C   39 % 
 2018-11-30 02:17:28  24 C   38 % 
 2018-11-30 02:07:54  24 C   38 % 
 2018-11-30 01:38:20  24 C   38 % 
 2018-11-30 01:28:41  24 C   38 % 
 2018-11-30 00:39:22  24 C   38 % 
 2018-11-29 23:11:19  24 C   38 % 
 2018-11-29 21:24:04  24 C   38 % 
 2018-11-29 21:14:11  24 C   38 % 
 2018-11-29 19:55:54  24 C   38 % 
 2018-11-29 19:36:30  24 C   39 % 
 2018-11-29 19:16:31  24 C   38 % 
 2018-11-29 19:06:57  24 C   38 % 
 2018-11-29 18:57:12  24 C   39 % 
 2018-11-29 18:47:35  24 C   38 % 
 2018-11-29 18:37:53  23 C   39 % 
 2018-11-29 18:08:18  23 C   42 % 
 2018-11-29 17:49:02  23 C   47 % 
 2018-11-29 17:39:26  23 C   52 % 
 2018-11-29 17:09:28  23 C   38 % 
 2018-11-29 16:50:12  22 C   38 % 
 2018-11-29 16:30:22  22 C   39 % 
 2018-11-29 16:20:42  22 C   38 % 
 2018-11-29 16:11:05  22 C   38 % 
 2018-11-29 16:01:29  22 C   38 % 
 2018-11-29 15:51:51  22 C   38 % 
 2018-11-29 15:42:14  22 C   38 % 
 2018-11-29 15:32:35  22 C   38 % 
 2018-11-29 15:22:59  21 C   38 % 
 2018-11-29 15:13:22  21 C   38 % 
 2018-11-29 15:03:46  21 C   38 % 
 2018-11-29 14:54:10  21 C   38 % 
 2018-11-29 14:34:53  21 C   39 % 
 2018-11-29 08:54:25  19 C   37 % 
 2018-11-29 08:34:43  19 C   37 % 
 2018-11-28 21:22:50  19 C   37 % 
 2018-11-28 20:53:56  19 C   36 % 
 2018-11-28 20:34:10  19 C   37 % 
 2018-11-28 19:35:17  19 C   37 % 
 2018-11-28 18:18:22  19 C   37 % 
 2018-11-28 15:50:57  19 C   37 % 
 2018-11-28 15:00:45  19 C   37 % 
 2018-11-28 14:00:52  19 C   37 % 
 2018-11-28 09:16:19  19 C   36 % 
 2018-11-28 02:26:33  19 C   37 % 
 2018-11-27 22:43:24  19 C   37 % 
 2018-11-27 22:23:47  19 C   37 % 
 2018-11-27 22:04:13  19 C   37 % 
 2018-11-27 21:25:29  19 C   37 % 
 2018-11-27 20:27:00  19 C   37 % 
 2018-11-27 20:07:34  19 C   37 % 
 2018-11-27 18:29:36  19 C   38 % 
 2018-11-27 18:00:46  19 C   38 % 
 2018-11-27 17:41:27  19 C   38 % 
 2018-11-27 17:02:55  19 C   38 % 
 2018-11-27 15:06:21  19 C   38 % 
 2018-11-27 12:39:27  19 C   38 % 
 2018-11-27 04:54:48  19 C   38 % 
 2018-11-26 22:16:01  19 C   39 % 
 2018-11-26 18:02:44  19 C   39 % 
 2018-11-26 17:43:31  19 C   39 % 
 2018-11-26 17:04:51  19 C   39 % 
 2018-11-26 16:35:41  20 C   39 % 
 2018-11-26 15:17:41  20 C   39 % 
 2018-11-26 13:30:13  20 C   39 % 
 2018-11-26 12:31:52  20 C   39 % 
 2018-11-26 10:07:17  20 C   39 % 
 2018-11-26 08:58:52  20 C   39 % 
 2018-11-26 08:01:08  20 C   39 % 
 2018-11-26 07:51:01  20 C   39 % 
 2018-11-26 07:22:03  20 C   39 % 
 2018-11-26 05:17:03  20 C   40 % 
 2018-11-26 04:19:21  20 C   40 % 
 2018-11-26 03:01:55  20 C   40 % 
 2018-11-26 01:34:36  20 C   40 % 
 2018-11-25 19:17:00  20 C   40 % 
 2018-11-25 16:41:10  20 C   40 % 
 2018-11-25 15:52:20  20 C   40 % 
 2018-11-25 15:42:42  20 C   40 % 
 2018-11-25 15:33:00  20 C   40 % 
 2018-11-25 15:13:52  20 C   40 % 
 2018-11-25 15:03:59  20 C   40 % 
 2018-11-25 14:53:52  20 C   40 % 
 2018-11-25 14:24:56  20 C   40 % 
 2018-11-25 14:15:14  20 C   40 % 
 2018-11-25 13:46:26  20 C   40 % 
 2018-11-25 13:27:09  20 C   40 % 
 2018-11-25 13:17:02  20 C   40 % 
 2018-11-25 10:13:27  20 C   39 % 
 2018-11-25 10:03:45  20 C   39 % 
 2018-11-25 09:34:57  20 C   39 % 
 2018-11-25 09:25:11  20 C   39 % 
 2018-11-25 09:15:23  20 C   39 % 
 2018-11-25 08:46:39  20 C   39 % 
 2018-11-25 06:41:12  20 C   39 % 
 2018-11-25 05:52:56  20 C   39 % 
 2018-11-25 04:44:59  20 C   39 % 
 2018-11-25 04:06:28  20 C   39 % 
 2018-11-25 03:08:17  20 C   39 % 
 2018-11-25 02:49:05  20 C   39 % 
 2018-11-25 02:29:20  20 C   39 % 
 2018-11-25 01:31:03  21 C   39 % 
 2018-11-25 01:21:16  20 C   39 % 
 2018-11-25 00:42:28  21 C   39 % 
 2018-11-25 00:33:00  21 C   39 % 
 2018-11-25 00:22:54  21 C   39 % 
 2018-11-25 00:13:16  21 C   39 % 
 2018-11-25 00:03:39  21 C   39 % 
 2018-11-24 23:44:18  21 C   39 % 
 2018-11-24 23:34:44  21 C   39 % 
 2018-11-24 23:15:32  21 C   39 % 
 2018-11-24 23:05:44  21 C   39 % 
 2018-11-24 22:55:46  21 C   39 % 
 2018-11-24 22:46:03  21 C   39 % 
 2018-11-24 22:17:17  21 C   39 % 
 2018-11-24 22:07:02  21 C   39 % 
 2018-11-24 21:47:43  21 C   39 % 
 2018-11-24 21:38:04  21 C   38 % 
 2018-11-24 21:18:52  21 C   38 % 
 2018-11-24 21:09:16  21 C   38 % 
 2018-11-24 20:59:39  21 C   38 % 
 2018-11-24 20:49:52  21 C   38 % 
 2018-11-24 20:39:58  21 C   38 % 
 2018-11-24 20:20:46  21 C   38 % 
 2018-11-24 20:11:12  21 C   38 % 
 2018-11-24 19:41:21  21 C   38 % 
 2018-11-24 19:31:44  21 C   38 % 
 2018-11-24 18:33:18  21 C   38 % 
 2018-11-24 18:13:33  21 C   38 % 
 2018-11-24 17:54:19  21 C   38 % 
 2018-11-24 17:35:05  21 C   38 % 
 2018-11-24 17:25:26  21 C   38 % 
 2018-11-24 17:06:11  21 C   39 % 
 2018-11-24 16:26:32  21 C   39 % 
 2018-11-24 16:16:50  21 C   39 % 
 2018-11-24 16:07:22  21 C   39 % 
 2018-11-24 15:47:34  22 C   39 % 
 2018-11-24 15:38:08  22 C   39 % 
 2018-11-24 15:28:01  22 C   39 % 
 2018-11-24 15:18:16  22 C   39 % 
 2018-11-24 15:08:43  22 C   39 % 
 2018-11-24 14:58:49  22 C   39 % 
 2018-11-24 14:39:37  22 C   39 % 
 2018-11-24 14:20:01  22 C   39 % 
 2018-11-24 14:10:30  22 C   39 % 
 2018-11-24 14:00:33  22 C   39 % 
 2018-11-24 13:50:55  22 C   39 % 
 2018-11-24 13:41:19  22 C   39 % 
 2018-11-24 13:31:46  22 C   39 % 
 2018-11-24 13:12:27  22 C   39 % 
 2018-11-24 13:02:50  22 C   39 % 
 2018-11-24 12:53:12  22 C   39 % 
 2018-11-24 12:43:36  22 C   39 % 
 2018-11-24 12:34:00  22 C   39 % 
 2018-11-24 12:24:24  22 C   39 % 
 2018-11-24 12:14:47  22 C   39 % 
 2018-11-24 12:05:10  22 C   39 % 
 2018-11-24 11:55:35  22 C   39 % 
 2018-11-24 11:46:00  22 C   39 % 
 2018-11-24 11:36:22  22 C   39 % 
 2018-11-24 11:07:05  22 C   39 % 
 2018-11-24 10:57:28  22 C   39 % 
 2018-11-24 10:47:53  22 C   39 % 
 2018-11-24 10:38:13  22 C   39 % 
 2018-11-24 10:28:41  22 C   39 % 
 2018-11-24 09:48:40  23 C   39 % 
 2018-11-24 09:28:48  23 C   39 % 
 2018-11-24 09:09:27  23 C   39 % 
 2018-11-24 08:59:51  23 C   39 % 
 2018-11-24 08:50:15  23 C   39 % 
 2018-11-24 08:40:46  23 C   39 % 
 2018-11-24 08:30:46  23 C   39 % 
 2018-11-24 08:21:11  23 C   39 % 
 2018-11-24 08:11:34  23 C   39 % 
 2018-11-24 08:01:55  23 C   39 % 
 2018-11-24 07:52:18  23 C   39 % 
 2018-11-24 07:42:42  23 C   39 % 
 2018-11-24 07:33:03  23 C   39 % 
 2018-11-24 07:23:28  23 C   39 % 
 2018-11-24 07:13:50  23 C   40 % 
 2018-11-24 07:04:15  23 C   40 % 
 2018-11-24 06:54:37  23 C   40 % 
 2018-11-24 06:45:01  23 C   40 % 
 2018-11-24 06:25:12  24 C   40 % 
 2018-11-24 06:05:36  24 C   39 % 
 2018-11-24 05:55:59  24 C   39 % 
 2018-11-24 05:46:23  24 C   39 % 
 2018-11-24 05:36:48  24 C   39 % 
 2018-11-24 05:27:10  24 C   39 % 
 2018-11-24 05:17:31  24 C   39 % 
 2018-11-24 05:07:54  24 C   39 % 
 2018-11-24 04:58:18  24 C   39 % 
 2018-11-24 04:48:42  24 C   39 % 
 2018-11-24 04:39:06  24 C   39 % 
 2018-11-24 04:29:29  24 C   39 % 
 2018-11-24 04:19:52  24 C   39 % 
 2018-11-24 04:10:16  24 C   39 % 
 2018-11-24 04:00:40  24 C   39 % 
 2018-11-24 03:51:06  24 C   39 % 
 2018-11-24 03:41:22  24 C   39 % 
 2018-11-24 03:31:47  24 C   39 % 
 2018-11-24 03:22:08  24 C   39 % 
 2018-11-24 03:12:32  25 C   38 % 
 2018-11-24 02:43:18  25 C   39 % 
 2018-11-24 02:33:37  25 C   39 % 
 2018-11-24 02:23:59  25 C   39 % 
 2018-11-24 02:04:03  25 C   38 % 
 2018-11-24 01:34:27  25 C   41 % 
 2018-11-24 01:24:52  25 C   42 % 
 2018-11-24 01:15:13  25 C   38 % 
 2018-11-24 00:45:23  25 C   39 % 
 2018-11-24 00:35:46  25 C   39 % 
 2018-11-24 00:26:10  25 C   39 % 
 2018-11-24 00:16:34  24 C   39 % 
 2018-11-24 00:06:56  24 C   39 % 
 2018-11-23 23:47:41  24 C   39 % 
 2018-11-23 23:28:05  24 C   37 % 
 2018-11-23 23:18:28  24 C   38 % 
 2018-11-23 23:08:55  24 C   38 % 
 2018-11-23 22:59:12  24 C   38 % 
 2018-11-23 22:49:37  24 C   38 % 
 2018-11-23 22:39:57  24 C   38 % 
 2018-11-23 22:30:20  24 C   38 % 
 2018-11-23 22:20:43  24 C   38 % 
 2018-11-23 22:11:09  24 C   38 % 
 2018-11-23 22:01:30  24 C   38 % 
 2018-11-23 21:42:16  24 C   39 % 
 2018-11-23 21:32:40  24 C   39 % 
 2018-11-23 21:23:05  24 C   39 % 
 2018-11-23 21:03:48  24 C   39 % 
 2018-11-23 20:54:12  24 C   39 % 
 2018-11-23 20:44:35  24 C   39 % 
 2018-11-23 20:34:57  24 C   40 % 
 2018-11-23 20:15:21  24 C   41 % 
 2018-11-23 20:05:30  24 C   40 % 
 2018-11-23 19:55:54  24 C   40 % 
 2018-11-23 19:46:18  23 C   39 % 
 2018-11-23 19:36:41  24 C   41 % 
 2018-11-23 19:27:04  23 C   40 % 
 2018-11-23 19:17:28  23 C   39 % 
 2018-11-23 19:07:51  23 C   39 % 
 2018-11-23 18:58:14  23 C   40 % 
 2018-11-23 18:48:38  23 C   40 % 
 2018-11-23 18:39:03  23 C   40 % 
 2018-11-23 18:29:24  23 C   40 % 
 2018-11-23 18:19:48  23 C   40 % 
 2018-11-23 18:10:11  23 C   39 % 
 2018-11-23 18:00:34  23 C   39 % 
 2018-11-23 17:50:59  23 C   40 % 
 2018-11-23 17:41:21  23 C   40 % 
 2018-11-23 17:31:43  23 C   39 % 
 2018-11-23 17:22:08  23 C   39 % 
 2018-11-23 17:12:31  23 C   39 % 
 2018-11-23 17:02:54  23 C   39 % 
 2018-11-23 16:53:18  23 C   39 % 
 2018-11-23 16:43:41  23 C   39 % 
 2018-11-23 16:34:05  23 C   39 % 
 2018-11-23 16:24:21  23 C   39 % 
 2018-11-23 16:14:44  23 C   39 % 
 2018-11-23 16:05:09  23 C   39 % 
 2018-11-23 15:55:30  23 C   39 % 
 2018-11-23 15:45:55  23 C   39 % 
 2018-11-23 15:36:18  23 C   39 % 
 2018-11-23 15:26:42  23 C   39 % 
 2018-11-23 15:17:05  23 C   39 % 
 2018-11-23 15:07:29  23 C   39 % 
 2018-11-23 14:57:52  23 C   38 % 
 2018-11-23 14:48:13  23 C   38 % 
 2018-11-23 14:38:45  23 C   40 % 
 2018-11-23 14:28:44  23 C   39 % 
 2018-11-23 14:19:08  23 C   39 % 
 2018-11-23 14:09:32  23 C   39 % 
 2018-11-23 13:49:58  23 C   39 % 
 2018-11-23 13:40:21  23 C   39 % 
 2018-11-23 13:30:44  23 C   39 % 
 2018-11-23 13:21:08  23 C   39 % 
 2018-11-23 13:11:33  23 C   39 % 
 2018-11-23 13:01:56  23 C   39 % 
 2018-11-23 12:52:19  23 C   39 % 
 2018-11-23 12:42:38  23 C   39 % 
 2018-11-23 12:33:00  23 C   39 % 
 2018-11-23 12:23:24  23 C   39 % 
 2018-11-23 12:13:47  23 C   39 % 
 2018-11-23 12:04:10  23 C   39 % 
 2018-11-23 11:54:30  23 C   39 % 
 2018-11-23 11:44:53  23 C   39 % 
 2018-11-23 11:35:13  23 C   39 % 
 2018-11-23 11:25:36  23 C   39 % 
 2018-11-23 11:06:22  23 C   39 % 
 2018-11-23 10:56:45  23 C   39 % 
 2018-11-23 10:37:33  23 C   39 % 
 2018-11-23 10:27:56  23 C   39 % 
 2018-11-23 10:18:20  23 C   39 % 
 2018-11-23 10:08:42  24 C   39 % 
 2018-11-23 09:59:05  24 C   40 % 
 2018-11-23 09:49:29  24 C   40 % 
 2018-11-23 09:39:52  24 C   40 % 
 2018-11-23 09:30:15  23 C   39 % 
 2018-11-23 09:20:39  23 C   39 % 
 2018-11-23 09:11:03  23 C   39 % 
 2018-11-23 09:01:26  23 C   40 % 
 2018-11-23 08:51:50  23 C   40 % 
 2018-11-23 08:42:14  23 C   40 % 
 2018-11-23 08:32:37  23 C   40 % 
 2018-11-23 08:23:01  23 C   40 % 
 2018-11-23 08:13:25  23 C   40 % 
 2018-11-23 08:03:47  23 C   41 % 
 2018-11-23 07:54:12  23 C   41 % 
 2018-11-23 07:34:35  22 C   41 % 
 2018-11-23 07:24:57  22 C   41 % 
 2018-11-23 07:15:22  22 C   41 % 
 2018-11-23 07:05:46  22 C   42 % 
 2018-11-23 06:56:08  22 C   42 % 
 2018-11-23 06:46:30  22 C   42 % 
 2018-11-23 06:36:55  22 C   41 % 
 2018-11-23 06:27:17  22 C   41 % 
 2018-11-23 06:17:41  22 C   41 % 
 2018-11-23 06:08:06  22 C   41 % 
 2018-11-23 05:58:27  22 C   41 % 
 2018-11-23 05:48:50  23 C   41 % 
 2018-11-23 05:39:13  23 C   40 % 
 2018-11-23 05:29:37  23 C   40 % 
 2018-11-23 05:20:04  23 C   41 % 
 2018-11-23 05:10:23  23 C   41 % 
 2018-11-23 05:00:44  23 C   41 % 
 2018-11-23 04:51:08  23 C   41 % 
 2018-11-23 04:41:33  23 C   40 % 
 2018-11-23 04:31:55  23 C   40 % 
 2018-11-23 04:22:19  23 C   40 % 
 2018-11-23 04:12:42  23 C   40 % 
 2018-11-23 04:03:05  23 C   40 % 
 2018-11-23 03:53:30  23 C   40 % 
 2018-11-23 03:43:52  23 C   40 % 
 2018-11-23 03:34:15  23 C   40 % 
 2018-11-23 03:24:40  23 C   40 % 
 2018-11-23 03:05:05  23 C   40 % 
 2018-11-23 02:55:28  23 C   40 % 
 2018-11-23 02:45:53  23 C   40 % 
 2018-11-23 02:36:15  23 C   40 % 
 2018-11-23 02:26:39  24 C   40 % 
 2018-11-23 02:17:02  24 C   40 % 
 2018-11-23 02:07:25  24 C   40 % 
 2018-11-23 01:57:50  24 C   40 % 
 2018-11-23 01:48:13  24 C   40 % 
 2018-11-23 01:38:27  24 C   40 % 
 2018-11-23 01:28:50  24 C   40 % 
 2018-11-23 01:19:13  24 C   40 % 
 2018-11-23 01:09:30  24 C   40 % 
 2018-11-23 00:59:58  24 C   40 % 
 2018-11-23 00:50:10  24 C   39 % 
 2018-11-23 00:40:34  24 C   39 % 
 2018-11-23 00:31:03  24 C   39 % 
 2018-11-23 00:21:12  24 C   39 % 
 2018-11-23 00:11:34  24 C   39 % 
 2018-11-23 00:01:57  24 C   39 % 
 2018-11-22 23:52:21  24 C   39 % 
 2018-11-22 23:33:04  24 C   39 % 
 2018-11-22 23:23:26  24 C   39 % 
 2018-11-22 23:13:49  24 C   39 % 
 2018-11-22 23:04:20  24 C   39 % 
 2018-11-22 22:54:25  24 C   39 % 
 2018-11-22 22:44:46  24 C   38 % 
 2018-11-22 22:35:08  24 C   38 % 
 2018-11-22 22:25:32  24 C   38 % 
 2018-11-22 22:16:01  24 C   38 % 
 2018-11-22 22:06:07  24 C   38 % 
 2018-11-22 21:56:32  24 C   38 % 
 2018-11-22 21:46:52  24 C   37 % 
 2018-11-22 21:27:00  24 C   37 % 
 2018-11-22 21:07:14  24 C   38 % 
 2018-11-22 20:57:37  24 C   39 % 
 2018-11-22 20:38:22  25 C   39 % 
 2018-11-22 20:28:46  25 C   39 % 
 2018-11-22 20:19:11  25 C   39 % 
 2018-11-22 20:09:32  25 C   39 % 
 2018-11-22 19:59:54  24 C   39 % 
 2018-11-22 19:31:03  24 C   40 % 
 2018-11-22 19:11:37  24 C   40 % 
 2018-11-22 18:52:24  24 C   39 % 
 2018-11-22 18:42:47  24 C   38 % 
 2018-11-22 18:03:44  24 C   37 % 
 2018-11-22 17:44:21  24 C   36 % 
 2018-11-22 17:34:45  24 C   35 % 
 2018-11-22 17:15:14  24 C   35 % 
 2018-11-22 16:25:40  25 C   36 % 
 2018-11-22 15:46:03  26 C   38 % 
 2018-11-22 15:36:14  24 C   66 % 
 2018-11-22 15:26:37  23 C   40 % 
 2018-11-22 15:17:00  23 C   40 % 
 2018-11-22 14:57:46  23 C   41 % 
 2018-11-22 14:48:02  23 C   41 % 
 2018-11-22 14:38:20  23 C   41 % 
 2018-11-22 14:28:44  23 C   41 % 
 2018-11-22 14:19:07  23 C   40 % 
 2018-11-22 14:09:31  23 C   40 % 
 2018-11-22 13:59:53  23 C   41 % 
 2018-11-22 13:50:17  23 C   41 % 
 2018-11-22 13:40:41  23 C   41 % 
 2018-11-22 13:21:34  23 C   40 % 
 2018-11-22 13:11:24  23 C   40 % 
 2018-11-22 13:01:45  23 C   40 % 
 2018-11-22 12:52:17  23 C   40 % 
 2018-11-22 12:42:31  23 C   40 % 
 2018-11-22 12:22:58  23 C   40 % 
 2018-11-22 12:13:23  23 C   40 % 
 2018-11-22 12:03:44  23 C   40 % 
 2018-11-22 11:54:09  23 C   40 % 
 2018-11-22 11:44:32  23 C   40 % 
 2018-11-22 11:34:54  23 C   40 % 
 2018-11-22 11:25:18  23 C   40 % 
 2018-11-22 11:06:03  23 C   40 % 
 2018-11-22 10:56:28  23 C   40 % 
 2018-11-22 10:46:48  23 C   40 % 
 2018-11-22 10:37:16  23 C   40 % 
 2018-11-22 10:27:28  23 C   40 % 
 2018-11-22 10:17:49  23 C   40 % 
 2018-11-22 09:58:36  23 C   40 % 
 2018-11-22 09:48:59  23 C   40 % 
 2018-11-22 09:39:23  23 C   40 % 
 2018-11-22 09:29:48  23 C   40 % 
 2018-11-22 09:20:17  23 C   40 % 
 2018-11-22 09:00:40  23 C   39 % 
 2018-11-22 08:51:00  23 C   37 % 
 2018-11-22 08:41:26  23 C   36 % 
 2018-11-22 08:31:40  23 C   43 % 
 2018-11-22 08:22:03  23 C   43 % 
 2018-11-22 07:53:11  24 C   43 % 
 2018-11-22 07:33:04  23 C   44 % 
 2018-11-22 07:23:29  23 C   44 % 
 2018-11-22 07:13:46  23 C   44 % 
 2018-11-22 07:04:09  23 C   44 % 
 2018-11-22 06:54:33  23 C   44 % 
 2018-11-22 06:44:58  23 C   43 % 
 2018-11-22 06:35:21  23 C   42 % 
 2018-11-22 06:16:07  23 C   42 % 
 2018-11-22 06:06:29  23 C   42 % 
 2018-11-22 05:56:51  23 C   42 % 
 2018-11-22 05:47:15  23 C   42 % 
 2018-11-22 05:37:38  23 C   42 % 
 2018-11-22 05:28:03  23 C   42 % 
 2018-11-22 05:18:25  23 C   42 % 
 2018-11-22 04:59:13  23 C   42 % 
 2018-11-22 04:49:35  23 C   42 % 
 2018-11-22 04:39:55  23 C   42 % 
 2018-11-22 04:30:18  23 C   42 % 
 2018-11-22 04:01:08  23 C   42 % 
 2018-11-22 03:51:33  23 C   42 % 
 2018-11-22 03:41:57  23 C   42 % 
 2018-11-22 03:32:21  23 C   42 % 
 2018-11-22 03:22:45  24 C   42 % 
 2018-11-22 03:13:07  24 C   42 % 
 2018-11-22 03:03:30  24 C   42 % 
 2018-11-22 02:53:50  24 C   42 % 
 2018-11-22 02:44:15  24 C   42 % 
 2018-11-22 02:34:39  24 C   42 % 
 2018-11-22 02:25:01  24 C   42 % 
 2018-11-22 02:15:24  24 C   42 % 
 2018-11-22 02:05:49  24 C   42 % 
 2018-11-22 01:35:46  24 C   42 % 
 2018-11-22 01:26:07  24 C   42 % 
 2018-11-22 01:16:31  24 C   42 % 
 2018-11-22 00:47:38  24 C   41 % 
 2018-11-22 00:38:01  24 C   42 % 
 2018-11-22 00:18:49  24 C   42 % 
 2018-11-21 23:59:32  24 C   42 % 
 2018-11-21 23:49:56  24 C   42 % 
 2018-11-21 23:20:58  24 C   42 % 
 2018-11-21 23:11:21  24 C   42 % 
 2018-11-21 23:01:44  24 C   42 % 
 2018-11-21 22:42:30  24 C   42 % 
 2018-11-21 22:32:50  24 C   42 % 
 2018-11-21 22:23:24  24 C   42 % 
 2018-11-21 22:13:08  24 C   42 % 
 2018-11-21 22:03:31  24 C   42 % 
 2018-11-21 21:53:56  24 C   42 % 
 2018-11-21 21:44:21  24 C   42 % 
 2018-11-21 21:34:39  24 C   41 % 
 2018-11-21 21:25:06  24 C   41 % 
 2018-11-21 21:15:30  24 C   41 % 
 2018-11-21 21:05:29  24 C   41 % 
 2018-11-21 20:55:37  24 C   41 % 
 2018-11-21 20:36:18  24 C   41 % 
 2018-11-21 20:26:43  24 C   41 % 
 2018-11-21 20:17:07  24 C   41 % 
 2018-11-21 20:07:22  24 C   41 % 
 2018-11-21 19:57:46  24 C   41 % 
 2018-11-21 19:48:09  24 C   41 % 
 2018-11-21 19:38:33  24 C   40 % 
 2018-11-21 19:28:56  24 C   41 % 
 2018-11-21 18:49:19  24 C   41 % 
 2018-11-21 18:19:47  24 C   42 % 
 2018-11-21 18:10:15  24 C   42 % 
 2018-11-21 17:40:24  23 C   47 % 
 2018-11-21 17:21:06  23 C   42 % 
 2018-11-21 17:11:32  23 C   41 % 
 2018-11-21 16:52:10  22 C   42 % 
 2018-11-21 16:22:51  22 C   42 % 
 2018-11-21 15:34:00  22 C   42 % 
 2018-11-21 15:24:24  22 C   42 % 
 2018-11-21 15:05:11  22 C   42 % 
 2018-11-21 14:55:35  22 C   42 % 
 2018-11-21 14:36:22  22 C   42 % 
 2018-11-21 14:26:52  22 C   42 % 
 2018-11-21 14:16:54  22 C   42 % 
 2018-11-21 14:07:18  22 C   42 % 
 2018-11-21 13:57:42  22 C   42 % 
 2018-11-21 13:48:06  22 C   42 % 
 2018-11-21 13:18:39  22 C   42 % 
 2018-11-21 13:09:01  23 C   42 % 
 2018-11-21 12:59:30  23 C   42 % 
 2018-11-21 12:49:36  23 C   42 % 
 2018-11-21 12:30:00  23 C   42 % 
 2018-11-21 12:00:36  23 C   41 % 
 2018-11-21 11:40:50  23 C   41 % 
 2018-11-21 11:31:10  23 C   41 % 
 2018-11-21 10:51:26  23 C   41 % 
 2018-11-21 10:41:49  23 C   41 % 
 2018-11-21 10:32:12  23 C   41 % 
 2018-11-21 10:12:40  23 C   41 % 
 2018-11-21 10:03:05  23 C   41 % 
 2018-11-21 09:13:08  23 C   42 % 
 2018-11-21 09:03:30  23 C   42 % 
 2018-11-21 08:53:53  23 C   42 % 
 2018-11-21 08:34:39  23 C   42 % 
 2018-11-21 08:04:57  23 C   42 % 
 2018-11-21 07:55:22  23 C   43 % 
 2018-11-21 07:25:59  23 C   44 % 
 2018-11-21 07:06:25  23 C   44 % 
 2018-11-21 06:46:50  23 C   44 % 
 2018-11-21 06:08:01  23 C   43 % 
 2018-11-21 05:58:26  23 C   43 % 
 2018-11-21 05:48:54  23 C   43 % 
 2018-11-21 05:09:05  23 C   43 % 
 2018-11-21 04:59:32  23 C   43 % 
 2018-11-21 04:39:52  23 C   43 % 
 2018-11-21 04:30:21  23 C   43 % 
 2018-11-21 04:20:31  23 C   43 % 
 2018-11-21 04:00:50  23 C   43 % 
 2018-11-21 03:40:59  23 C   43 % 
 2018-11-21 03:31:22  23 C   43 % 
 2018-11-21 02:52:11  23 C   43 % 
 2018-11-21 02:42:37  23 C   43 % 
 2018-11-21 02:23:20  23 C   43 % 
 2018-11-21 01:54:04  23 C   42 % 
 2018-11-21 01:24:59  23 C   43 % 
 2018-11-21 00:55:23  23 C   43 % 
 2018-11-21 00:25:51  24 C   42 % 
 2018-11-21 00:06:11  24 C   42 % 
 2018-11-20 23:36:50  24 C   42 % 
 2018-11-20 23:27:12  24 C   42 % 
 2018-11-20 23:17:40  24 C   42 % 
 2018-11-20 23:07:54  24 C   42 % 
 2018-11-20 22:48:40  24 C   42 % 
 2018-11-20 22:39:04  24 C   42 % 
 2018-11-20 21:50:11  24 C   42 % 
 2018-11-20 21:30:58  24 C   43 % 
 2018-11-20 20:52:14  24 C   43 % 
 2018-11-20 20:32:20  24 C   42 % 
 2018-11-20 20:13:05  24 C   43 % 
 2018-11-20 19:53:53  24 C   43 % 
 2018-11-20 19:44:17  24 C   43 % 
 2018-11-20 19:34:41  24 C   43 % 
 2018-11-20 18:06:18  24 C   43 % 
 2018-11-20 17:56:42  24 C   42 % 
 2018-11-20 17:27:52  23 C   42 % 
 2018-11-20 17:18:21  23 C   42 % 
 2018-11-20 17:08:38  23 C   42 % 
 2018-11-20 16:58:41  23 C   42 % 
 2018-11-20 16:49:04  23 C   42 % 
 2018-11-20 16:29:50  23 C   42 % 
 2018-11-20 16:20:12  23 C   42 % 
 2018-11-20 16:10:37  23 C   42 % 
 2018-11-20 16:00:59  23 C   44 % 
 2018-11-20 15:51:25  23 C   41 % 
 2018-11-20 15:41:45  23 C   41 % 
 2018-11-20 15:32:09  23 C   41 % 
 2018-11-20 14:52:25  23 C   42 % 
 2018-11-20 14:22:58  23 C   42 % 
 2018-11-20 14:13:22  23 C   42 % 
 2018-11-20 13:53:53  23 C   42 % 
 2018-11-20 13:44:11  23 C   42 % 
 2018-11-20 13:34:34  23 C   42 % 
 2018-11-20 13:24:58  23 C   42 % 
 2018-11-20 13:05:31  23 C   42 % 
 2018-11-20 12:55:54  23 C   42 % 
 2018-11-20 12:46:18  23 C   41 % 
 2018-11-20 12:16:40  23 C   41 % 
 2018-11-20 12:07:03  23 C   41 % 
 2018-11-20 11:57:27  23 C   41 % 
 2018-11-20 11:47:51  23 C   42 % 
 2018-11-20 11:28:30  23 C   41 % 
 2018-11-20 11:18:58  23 C   41 % 
 2018-11-20 10:59:32  23 C   42 % 
 2018-11-20 10:49:51  23 C   41 % 
 2018-11-20 10:40:15  23 C   41 % 
 2018-11-20 10:20:48  23 C   42 % 
 2018-11-20 10:01:32  23 C   42 % 
 2018-11-20 09:51:51  23 C   42 % 
 2018-11-20 09:42:14  23 C   42 % 
 2018-11-20 09:32:38  23 C   42 % 
 2018-11-20 09:23:01  23 C   42 % 
 2018-11-20 09:03:13  23 C   42 % 
 2018-11-20 08:53:37  23 C   42 % 
 2018-11-20 08:44:00  24 C   42 % 
 2018-11-20 08:34:24  24 C   42 % 
 2018-11-20 08:24:48  24 C   42 % 
 2018-11-20 08:15:07  24 C   42 % 
 2018-11-20 07:55:48  23 C   44 % 
 2018-11-20 07:46:10  23 C   44 % 
 2018-11-20 07:26:31  23 C   43 % 
 2018-11-20 07:06:39  23 C   44 % 
 2018-11-20 06:57:06  23 C   43 % 
 2018-11-20 06:37:36  23 C   43 % 
 2018-11-20 06:28:00  23 C   43 % 
 2018-11-20 06:18:23  23 C   43 % 
 2018-11-20 06:08:47  23 C   43 % 
 2018-11-20 05:48:58  23 C   43 % 
 2018-11-20 05:39:21  23 C   43 % 
 2018-11-20 05:29:46  23 C   43 % 
 2018-11-20 05:00:47  23 C   43 % 
 2018-11-20 04:51:07  23 C   43 % 
 2018-11-20 04:31:24  23 C   43 % 
 2018-11-20 04:21:48  23 C   43 % 
 2018-11-20 04:02:24  23 C   43 % 
 2018-11-20 03:52:48  23 C   43 % 
 2018-11-20 03:33:21  23 C   43 % 
 2018-11-20 03:23:42  23 C   43 % 
 2018-11-20 03:14:05  23 C   43 % 
 2018-11-20 02:44:44  23 C   43 % 
 2018-11-20 02:14:51  23 C   43 % 
 2018-11-20 02:05:12  23 C   43 % 
 2018-11-20 01:25:56  23 C   42 % 
 2018-11-20 01:06:43  24 C   42 % 
 2018-11-20 00:17:10  23 C   43 % 
 2018-11-20 00:07:32  23 C   43 % 
 2018-11-19 23:57:59  24 C   42 % 
 2018-11-19 23:18:46  23 C   43 % 
 2018-11-19 22:58:55  23 C   42 % 
 2018-11-19 22:29:24  24 C   42 % 
 2018-11-19 22:19:49  24 C   42 % 
 2018-11-19 22:09:33  24 C   42 % 
 2018-11-19 21:30:18  24 C   42 % 
 2018-11-19 21:20:46  23 C   42 % 
 2018-11-19 20:51:33  23 C   43 % 
 2018-11-19 20:41:55  23 C   43 % 
 2018-11-19 20:32:13  23 C   43 % 
 2018-11-19 19:53:10  23 C   43 % 
 2018-11-19 19:43:30  23 C   43 % 
 2018-11-19 19:33:54  23 C   44 % 
 2018-11-19 19:24:18  23 C   44 % 
 2018-11-19 19:14:43  23 C   44 % 
 2018-11-19 18:55:13  22 C   46 % 
 2018-11-19 18:45:36  22 C   47 % 
 2018-11-19 18:36:01  22 C   45 % 
 2018-11-19 18:26:22  22 C   43 % 
 2018-11-19 18:16:44  21 C   43 % 
 2018-11-19 18:07:08  21 C   44 % 
 2018-11-19 17:47:53  21 C   44 % 
 2018-11-19 17:38:16  21 C   44 % 
 2018-11-19 17:18:34  21 C   43 % 
 2018-11-19 17:08:56  21 C   44 % 
 2018-11-19 16:59:21  21 C   44 % 
 2018-11-19 16:49:44  21 C   44 % 
 2018-11-19 16:40:08  21 C   44 % 
 2018-11-19 16:30:27  21 C   44 % 
 2018-11-19 16:20:51  21 C   44 % 
 2018-11-19 16:11:14  21 C   44 % 
 2018-11-19 16:01:37  21 C   44 % 
 2018-11-19 15:52:00  21 C   44 % 
 2018-11-19 15:42:24  21 C   44 % 
 2018-11-19 15:32:45  21 C   44 % 
 2018-11-19 15:23:08  21 C   44 % 
 2018-11-19 15:13:33  21 C   44 % 
 2018-11-19 15:03:55  21 C   44 % 
 2018-11-19 14:54:16  21 C   44 % 
 2018-11-19 14:44:45  21 C   45 % 
 2018-11-19 14:34:56  21 C   45 % 
 2018-11-19 14:25:19  21 C   45 % 
 2018-11-19 14:15:43  21 C   45 % 
 2018-11-19 14:06:07  21 C   45 % 
 2018-11-19 13:56:31  21 C   45 % 
 2018-11-19 13:46:58  21 C   45 % 
 2018-11-19 13:37:15  21 C   45 % 
 2018-11-19 13:27:29  21 C   45 % 
 2018-11-19 13:17:51  21 C   46 % 
 2018-11-19 13:08:19  21 C   46 % 
 2018-11-19 12:58:33  21 C   46 % 
 2018-11-19 12:48:56  21 C   46 % 
 2018-11-19 12:39:20  21 C   46 % 
 2018-11-19 12:29:51  21 C   46 % 
 2018-11-19 12:19:45  21 C   46 % 
 2018-11-19 12:10:08  21 C   45 % 
 2018-11-19 12:00:32  21 C   45 % 
 2018-11-19 11:50:56  21 C   45 % 
 2018-11-19 11:41:18  21 C   45 % 
 2018-11-19 11:31:37  21 C   45 % 
 2018-11-19 11:22:00  21 C   45 % 
 2018-11-19 11:12:23  21 C   46 % 
 2018-11-19 11:02:46  21 C   45 % 
 2018-11-19 10:53:10  21 C   46 % 
 2018-11-19 10:43:23  21 C   46 % 
 2018-11-19 10:33:46  21 C   45 % 
 2018-11-19 10:24:09  21 C   45 % 
 2018-11-19 10:14:33  21 C   45 % 
 2018-11-19 10:04:56  21 C   45 % 
 2018-11-19 09:55:16  21 C   45 % 
 2018-11-19 09:45:43  21 C   45 % 
 2018-11-19 09:36:04  21 C   45 % 
 2018-11-19 09:26:25  21 C   45 % 
 2018-11-19 09:16:49  21 C   45 % 
 2018-11-19 09:07:10  21 C   45 % 
 2018-11-19 08:57:33  21 C   45 % 
 2018-11-19 08:47:55  21 C   45 % 
 2018-11-19 08:38:20  21 C   45 % 
 2018-11-19 08:28:43  21 C   45 % 
 2018-11-19 08:19:04  21 C   45 % 
 2018-11-19 07:59:48  21 C   45 % 
 2018-11-19 07:50:11  21 C   45 % 
 2018-11-19 07:40:34  21 C   45 % 
 2018-11-19 07:30:57  21 C   45 % 
 2018-11-19 07:21:20  21 C   45 % 
 2018-11-19 07:01:29  21 C   45 % 
 2018-11-19 06:51:43  21 C   45 % 
 2018-11-19 06:42:10  21 C   45 % 
 2018-11-19 06:32:21  21 C   45 % 
 2018-11-19 06:22:46  21 C   45 % 
 2018-11-19 06:13:08  21 C   45 % 
 2018-11-19 06:03:25  21 C   45 % 
 2018-11-19 05:53:50  21 C   45 % 
 2018-11-19 05:44:12  21 C   45 % 
 2018-11-19 05:34:34  21 C   45 % 
 2018-11-19 05:24:58  21 C   46 % 
 2018-11-19 05:15:22  21 C   46 % 
 2018-11-19 05:05:45  21 C   46 % 
 2018-11-19 04:56:09  21 C   46 % 
 2018-11-19 04:46:31  21 C   46 % 
 2018-11-19 04:36:55  21 C   46 % 
 2018-11-19 04:27:16  22 C   46 % 
 2018-11-19 04:17:41  21 C   46 % 
 2018-11-19 04:08:05  21 C   46 % 
 2018-11-19 03:58:38  21 C   46 % 
 2018-11-19 03:48:14  22 C   46 % 
 2018-11-19 03:38:41  22 C   46 % 
 2018-11-19 03:28:53  22 C   46 % 
 2018-11-19 03:19:14  22 C   46 % 
 2018-11-19 03:09:36  22 C   46 % 
 2018-11-19 02:50:23  22 C   46 % 
 2018-11-19 02:40:48  22 C   46 % 
 2018-11-19 02:31:11  22 C   46 % 
 2018-11-19 02:11:35  22 C   46 % 
 2018-11-19 02:02:00  22 C   46 % 
 2018-11-19 01:52:23  22 C   46 % 
 2018-11-19 01:42:44  22 C   46 % 
 2018-11-19 01:33:05  22 C   46 % 
 2018-11-19 01:23:30  22 C   46 % 
 2018-11-19 01:04:16  22 C   46 % 
 2018-11-19 00:44:44  22 C   46 % 
 2018-11-19 00:35:06  22 C   46 % 
 2018-11-19 00:15:53  22 C   46 % 
 2018-11-19 00:06:17  22 C   46 % 
 2018-11-18 23:56:41  22 C   46 % 
 2018-11-18 23:47:06  22 C   46 % 
 2018-11-18 23:37:27  22 C   46 % 
 2018-11-18 23:27:52  22 C   46 % 
 2018-11-18 23:18:12  22 C   46 % 
 2018-11-18 23:08:36  22 C   46 % 
 2018-11-18 22:39:41  22 C   46 % 
 2018-11-18 22:30:05  22 C   46 % 
 2018-11-18 22:20:31  22 C   47 % 
 2018-11-18 22:10:38  22 C   47 % 
 2018-11-18 22:01:03  22 C   47 % 
 2018-11-18 21:51:24  22 C   47 % 
 2018-11-18 21:41:55  22 C   47 % 
 2018-11-18 21:31:53  22 C   48 % 
 2018-11-18 21:22:17  22 C   48 % 
 2018-11-18 21:12:42  22 C   46 % 
 2018-11-18 21:03:00  22 C   47 % 
 2018-11-18 20:53:23  22 C   47 % 
 2018-11-18 20:43:47  22 C   47 % 
 2018-11-18 20:34:16  22 C   47 % 
 2018-11-18 20:24:30  22 C   47 % 
 2018-11-18 20:14:49  22 C   47 % 
 2018-11-18 20:05:16  22 C   46 % 
 2018-11-18 19:55:34  22 C   46 % 
 2018-11-18 19:45:58  22 C   46 % 
 2018-11-18 19:36:21  22 C   46 % 
 2018-11-18 19:26:46  22 C   46 % 
 2018-11-18 19:17:08  22 C   46 % 
 2018-11-18 19:07:31  22 C   46 % 
 2018-11-18 18:48:20  22 C   46 % 
 2018-11-18 18:38:43  22 C   46 % 
 2018-11-18 18:29:08  22 C   45 % 
 2018-11-18 18:19:30  22 C   45 % 
 2018-11-18 18:09:48  23 C   45 % 
 2018-11-18 17:10:43  24 C   42 % 
 2018-11-18 16:31:41  29 C   34 % 
 2018-11-18 16:22:07  32 C   30 % 
 2018-11-18 16:12:37  37 C   25 % 
 2018-11-18 16:02:45  34 C   32 % 
 2018-11-18 15:52:52  22 C   51 % 
 2018-11-18 15:43:15  21 C   49 % 
 2018-11-18 15:33:41  21 C   49 % 
 2018-11-18 15:23:59  21 C   49 % 
 2018-11-18 15:14:24  21 C   49 % 
 2018-11-18 14:55:09  21 C   49 % 
 2018-11-18 14:35:36  21 C   49 % 
 2018-11-18 14:15:59  21 C   49 % 
 2018-11-18 14:06:22  21 C   49 % 
 2018-11-18 13:56:45  21 C   49 % 
 2018-11-18 13:37:30  21 C   49 % 
 2018-11-18 13:27:52  21 C   49 % 
 2018-11-18 13:18:17  21 C   49 % 
 2018-11-18 12:58:51  21 C   49 % 
 2018-11-18 12:49:14  21 C   50 % 
 2018-11-18 12:39:38  21 C   50 % 
 2018-11-18 12:30:00  21 C   50 % 
 2018-11-18 12:20:24  21 C   50 % 
 2018-11-18 12:10:49  21 C   50 % 
 2018-11-18 12:01:12  22 C   49 % 
 2018-11-18 11:51:35  22 C   49 % 
 2018-11-18 11:32:22  21 C   49 % 
 2018-11-18 11:22:42  21 C   49 % 
 2018-11-18 11:13:02  21 C   48 % 
 2018-11-18 11:03:33  21 C   48 % 
 2018-11-18 10:53:37  21 C   48 % 
 2018-11-18 10:44:03  21 C   48 % 
 2018-11-18 10:24:46  21 C   48 % 
 2018-11-18 10:15:10  21 C   48 % 
 2018-11-18 10:05:34  21 C   48 % 
 2018-11-18 09:55:58  21 C   48 % 
 2018-11-18 09:46:22  21 C   48 % 
 2018-11-18 09:36:36  21 C   48 % 
 2018-11-18 09:27:00  21 C   48 % 
 2018-11-18 09:17:26  21 C   48 % 
 2018-11-18 08:57:20  21 C   48 % 
 2018-11-18 08:47:41  21 C   48 % 
 2018-11-18 08:38:05  21 C   48 % 
 2018-11-18 08:28:31  21 C   48 % 
 2018-11-18 08:18:49  22 C   48 % 
 2018-11-18 08:09:13  22 C   48 % 
 2018-11-18 07:59:39  22 C   48 % 
 2018-11-18 07:50:01  22 C   48 % 
 2018-11-18 07:40:23  22 C   48 % 
 2018-11-18 07:30:49  22 C   48 % 
 2018-11-18 07:21:06  22 C   48 % 
 2018-11-18 07:01:51  22 C   48 % 
 2018-11-18 06:52:13  22 C   48 % 
 2018-11-18 06:42:38  22 C   48 % 
 2018-11-18 06:32:59  22 C   48 % 
 2018-11-18 06:23:21  22 C   48 % 
 2018-11-18 06:13:50  22 C   48 % 
 2018-11-18 06:03:58  22 C   48 % 
 2018-11-18 05:54:20  22 C   48 % 
 2018-11-18 05:44:36  22 C   48 % 
 2018-11-18 05:34:58  22 C   48 % 
 2018-11-18 05:25:21  22 C   48 % 
 2018-11-18 05:15:45  22 C   48 % 
 2018-11-18 05:06:07  22 C   48 % 
 2018-11-18 04:56:30  22 C   48 % 
 2018-11-18 04:46:55  22 C   48 % 
 2018-11-18 04:37:15  22 C   48 % 
 2018-11-18 04:27:39  22 C   48 % 
 2018-11-18 04:18:02  22 C   48 % 
 2018-11-18 04:08:27  22 C   48 % 
 2018-11-18 03:58:47  22 C   48 % 
 2018-11-18 03:49:17  22 C   48 % 
 2018-11-18 03:39:26  22 C   48 % 
 2018-11-18 03:29:50  22 C   48 % 
 2018-11-18 03:20:14  22 C   48 % 
 2018-11-18 03:10:37  22 C   48 % 
 2018-11-18 03:01:00  22 C   48 % 
 2018-11-18 02:51:23  22 C   48 % 
 2018-11-18 02:41:47  22 C   48 % 
 2018-11-18 02:32:10  22 C   48 % 
 2018-11-18 02:22:35  22 C   48 % 
 2018-11-18 02:12:56  22 C   48 % 
 2018-11-18 02:03:21  22 C   48 % 
 2018-11-18 01:53:43  22 C   48 % 
 2018-11-18 01:44:05  22 C   48 % 
 2018-11-18 01:24:10  22 C   48 % 
 2018-11-18 01:14:39  22 C   48 % 
 2018-11-18 01:04:46  22 C   48 % 
 2018-11-18 00:55:10  22 C   48 % 
 2018-11-18 00:45:33  22 C   48 % 
 2018-11-18 00:35:59  22 C   48 % 
 2018-11-18 00:26:18  22 C   48 % 
 2018-11-18 00:16:42  22 C   48 % 
 2018-11-18 00:07:06  22 C   48 % 
 2018-11-17 23:57:30  22 C   48 % 
 2018-11-17 23:47:53  22 C   48 % 
 2018-11-17 23:38:17  22 C   48 % 
 2018-11-17 23:28:41  22 C   48 % 
 2018-11-17 22:20:27  22 C   48 % 
 2018-11-17 21:41:24  23 C   48 % 
 2018-11-17 21:31:46  23 C   48 % 
 2018-11-17 21:22:12  23 C   48 % 
 2018-11-17 21:12:29  23 C   48 % 
 2018-11-17 21:02:58  23 C   48 % 
 2018-11-17 20:43:09  23 C   48 % 
 2018-11-17 20:13:42  23 C   48 % 
 2018-11-17 19:25:35  22 C   48 % 
 2018-11-17 19:15:57  22 C   48 % 
 2018-11-17 18:47:06  22 C   48 % 
 2018-11-17 18:37:30  22 C   48 % 
 2018-11-17 18:27:56  22 C   48 % 
 2018-11-17 18:18:17  22 C   48 % 
 2018-11-17 18:08:41  22 C   48 % 
 2018-11-17 17:59:13  22 C   49 % 
 2018-11-17 17:19:58  22 C   49 % 
 2018-11-17 17:10:21  22 C   49 % 
 2018-11-17 16:51:05  22 C   49 % 
 2018-11-17 16:41:39  22 C   50 % 
 2018-11-17 16:31:29  22 C   49 % 
 2018-11-17 16:21:53  22 C   49 % 
 2018-11-17 16:12:23  22 C   49 % 
 2018-11-17 15:04:30  22 C   50 % 
 2018-11-17 14:55:00  22 C   50 % 
 2018-11-17 14:45:03  22 C   50 % 
 2018-11-17 14:35:28  22 C   50 % 
 2018-11-17 14:26:01  22 C   50 % 
 2018-11-17 13:26:13  22 C   49 % 
 2018-11-17 12:28:33  22 C   50 % 
 2018-11-17 12:18:55  22 C   49 % 
 2018-11-17 12:09:20  22 C   49 % 
 2018-11-17 11:59:43  22 C   50 % 
 2018-11-17 11:50:05  22 C   49 % 
 2018-11-17 11:40:23  22 C   49 % 
 2018-11-17 10:52:12  22 C   49 % 
 2018-11-17 10:23:17  22 C   49 % 
 2018-11-17 10:13:41  22 C   49 % 
 2018-11-17 09:43:34  22 C   49 % 
 2018-11-17 09:34:01  22 C   49 % 
 2018-11-17 08:55:23  22 C   49 % 
 2018-11-17 08:45:47  22 C   49 % 
 2018-11-17 08:16:36  22 C   49 % 
 2018-11-17 07:57:14  22 C   49 % 
 2018-11-17 07:47:40  22 C   49 % 
 2018-11-17 07:38:00  22 C   49 % 
 2018-11-17 07:18:49  22 C   49 % 
 2018-11-17 06:49:56  22 C   49 % 
 2018-11-17 06:40:18  22 C   49 % 
 2018-11-17 06:30:44  22 C   49 % 
 2018-11-17 06:11:26  22 C   49 % 
 2018-11-17 05:42:38  22 C   49 % 
 2018-11-17 05:32:58  22 C   49 % 
 2018-11-17 05:23:20  22 C   49 % 
 2018-11-17 04:43:57  22 C   49 % 
 2018-11-17 04:34:21  22 C   49 % 
 2018-11-17 03:55:34  22 C   49 % 
 2018-11-17 03:46:02  22 C   49 % 
 2018-11-17 03:06:06  22 C   49 % 
 2018-11-17 02:46:41  22 C   49 % 
 2018-11-17 02:27:26  22 C   49 % 
 2018-11-17 02:17:53  22 C   49 % 
 2018-11-17 01:09:58  23 C   49 % 
 2018-11-17 01:00:22  23 C   49 % 
 2018-11-17 00:30:34  22 C   49 % 
 2018-11-16 23:51:55  22 C   49 % 
 2018-11-16 23:42:19  22 C   49 % 
 2018-11-16 23:22:47  22 C   49 % 
 2018-11-16 23:13:10  22 C   50 % 
 2018-11-16 22:44:21  22 C   49 % 
 2018-11-16 22:25:03  22 C   50 % 
 2018-11-16 22:15:18  22 C   50 % 
 2018-11-16 22:05:40  22 C   50 % 
 2018-11-16 21:56:04  22 C   50 % 
 2018-11-16 21:36:16  22 C   50 % 
 2018-11-16 21:17:00  22 C   50 % 
 2018-11-16 20:37:50  22 C   50 % 
 2018-11-16 20:07:40  22 C   50 % 
 2018-11-16 19:58:07  22 C   50 % 
 2018-11-16 19:48:28  22 C   50 % 
 2018-11-16 19:38:55  22 C   50 % 
 2018-11-16 19:29:12  22 C   50 % 
 2018-11-16 19:19:36  22 C   51 % 
 2018-11-16 19:10:00  22 C   51 % 
 2018-11-16 19:00:24  22 C   51 % 
 2018-11-16 18:50:47  23 C   51 % 
 2018-11-16 18:41:09  23 C   51 % 
 2018-11-16 18:31:33  23 C   51 % 
 2018-11-16 18:12:05  22 C   51 % 
 2018-11-16 18:02:28  22 C   51 % 
 2018-11-16 17:52:51  22 C   51 % 
 2018-11-16 17:43:15  23 C   51 % 
 2018-11-16 17:33:39  22 C   51 % 
 2018-11-16 17:24:02  22 C   51 % 
 2018-11-16 17:14:28  22 C   51 % 
 2018-11-16 17:04:51  22 C   51 % 
 2018-11-16 16:55:14  22 C   51 % 
 2018-11-16 16:45:39  22 C   51 % 
 2018-11-16 16:36:02  22 C   51 % 
 2018-11-16 16:26:26  22 C   51 % 
 2018-11-16 16:16:49  22 C   50 % 
 2018-11-16 16:07:15  22 C   50 % 
 2018-11-16 15:57:44  22 C   50 % 
 2018-11-16 15:47:38  22 C   50 % 
 2018-11-16 15:38:05  22 C   50 % 
 2018-11-16 15:28:20  22 C   50 % 
 2018-11-16 15:18:44  22 C   50 % 
 2018-11-16 15:09:07  22 C   50 % 
 2018-11-16 14:59:31  22 C   50 % 
 2018-11-16 14:30:21  22 C   50 % 
 2018-11-16 14:20:45  22 C   50 % 
 2018-11-16 13:41:57  22 C   49 % 
 2018-11-16 13:32:21  22 C   48 % 
 2018-11-16 13:22:44  22 C   48 % 
 2018-11-16 13:13:08  22 C   50 % 
 2018-11-16 13:03:33  22 C   51 % 
 2018-11-16 12:53:56  22 C   50 % 
 2018-11-16 12:44:20  22 C   51 % 
 2018-11-16 12:25:07  22 C   51 % 
 2018-11-16 12:15:26  22 C   51 % 
 2018-11-16 12:05:49  22 C   51 % 
 2018-11-16 11:56:14  22 C   50 % 
 2018-11-16 11:46:37  22 C   50 % 
 2018-11-16 11:36:58  22 C   51 % 
 2018-11-16 11:27:22  22 C   50 % 
 2018-11-16 11:17:45  22 C   49 % 
 2018-11-16 11:08:10  22 C   49 % 
 2018-11-16 10:48:54  22 C   49 % 
 2018-11-16 10:39:19  22 C   50 % 
 2018-11-16 10:29:41  22 C   50 % 
 2018-11-16 10:10:28  22 C   50 % 
 2018-11-16 10:00:53  22 C   50 % 
 2018-11-16 09:51:16  22 C   50 % 
 2018-11-16 09:41:49  22 C   50 % 
 2018-11-16 09:31:48  22 C   50 % 
 2018-11-16 09:22:12  22 C   49 % 
 2018-11-16 09:12:35  22 C   50 % 
 2018-11-16 09:02:58  22 C   50 % 
 2018-11-16 08:53:23  22 C   50 % 
 2018-11-16 08:43:47  22 C   50 % 
 2018-11-16 08:34:09  22 C   49 % 
 2018-11-16 08:15:01  22 C   49 % 
 2018-11-16 08:05:14  22 C   49 % 
 2018-11-16 07:45:17  22 C   49 % 
 2018-11-16 07:35:41  22 C   50 % 
 2018-11-16 07:26:04  22 C   50 % 
 2018-11-16 07:16:29  22 C   50 % 
 2018-11-16 07:06:53  22 C   49 % 
 2018-11-16 06:57:16  22 C   49 % 
 2018-11-16 06:47:40  22 C   49 % 
 2018-11-16 06:38:03  22 C   49 % 
 2018-11-16 06:18:30  22 C   49 % 
 2018-11-16 06:08:54  22 C   50 % 
 2018-11-16 05:59:17  22 C   50 % 
 2018-11-16 05:49:41  22 C   50 % 
 2018-11-16 05:40:05  22 C   49 % 
 2018-11-16 05:30:30  22 C   49 % 
 2018-11-16 05:11:12  22 C   49 % 
 2018-11-16 05:01:34  22 C   49 % 
 2018-11-16 04:51:59  22 C   50 % 
 2018-11-16 04:42:26  22 C   50 % 
 2018-11-16 04:22:55  22 C   49 % 
 2018-11-16 04:13:19  22 C   49 % 
 2018-11-16 04:03:42  22 C   49 % 
 2018-11-16 03:54:03  22 C   50 % 
 2018-11-16 03:44:32  22 C   49 % 
 2018-11-16 03:25:03  22 C   49 % 
 2018-11-16 03:15:27  22 C   49 % 
 2018-11-16 03:05:51  22 C   49 % 
 2018-11-16 02:56:14  22 C   49 % 
 2018-11-16 02:27:11  22 C   49 % 
 2018-11-16 02:17:35  22 C   49 % 
 2018-11-16 02:07:57  22 C   49 % 
 2018-11-16 01:58:23  22 C   49 % 
 2018-11-16 01:48:48  22 C   49 % 
 2018-11-16 01:39:00  22 C   49 % 
 2018-11-16 01:29:24  22 C   49 % 
 2018-11-16 01:19:47  22 C   49 % 
 2018-11-16 01:10:10  23 C   49 % 
 2018-11-16 01:00:33  23 C   49 % 
 2018-11-16 00:41:00  23 C   49 % 
 2018-11-16 00:31:29  23 C   49 % 
 2018-11-15 23:52:11  23 C   49 % 
 2018-11-15 23:42:34  23 C   49 % 
 2018-11-15 23:32:55  23 C   49 % 
 2018-11-15 23:03:21  23 C   48 % 
 2018-11-15 22:53:45  23 C   48 % 
 2018-11-15 22:24:39  23 C   48 % 
 2018-11-15 22:05:13  23 C   47 % 
 2018-11-15 21:55:34  23 C   47 % 
 2018-11-15 21:36:22  24 C   47 % 
 2018-11-15 21:26:46  24 C   47 % 
 2018-11-15 20:57:25  24 C   46 % 
 2018-11-15 20:18:59  25 C   44 % 
 2018-11-15 19:49:44  26 C   42 % 
 2018-11-15 19:30:28  27 C   42 % 
 2018-11-15 19:20:45  24 C   54 % 
 2018-11-15 19:11:14  22 C   50 % 
 2018-11-15 19:01:35  22 C   50 % 
 2018-11-15 18:51:48  22 C   50 % 
 2018-11-15 18:42:13  22 C   50 % 
 2018-11-15 18:32:42  22 C   50 % 
 2018-11-15 18:22:40  22 C   50 % 
 2018-11-15 18:13:03  22 C   50 % 
 2018-11-15 18:03:29  22 C   50 % 
 2018-11-15 17:44:11  22 C   50 % 
 2018-11-15 17:24:53  22 C   50 % 
 2018-11-15 17:15:16  22 C   50 % 
 2018-11-15 17:05:39  22 C   50 % 
 2018-11-15 16:56:04  22 C   50 % 
 2018-11-15 16:46:25  22 C   50 % 
 2018-11-15 16:36:49  22 C   50 % 
 2018-11-15 16:27:14  22 C   50 % 
 2018-11-15 16:17:35  22 C   50 % 
 2018-11-15 16:07:58  22 C   50 % 
 2018-11-15 15:39:07  22 C   50 % 
 2018-11-15 15:29:33  22 C   50 % 
 2018-11-15 15:19:51  22 C   50 % 
 2018-11-15 15:10:16  22 C   50 % 
 2018-11-15 14:51:00  22 C   50 % 
 2018-11-15 14:41:24  22 C   51 % 
 2018-11-15 14:31:45  22 C   50 % 
 2018-11-15 14:12:33  22 C   50 % 
 2018-11-15 14:03:01  22 C   50 % 
 2018-11-15 13:53:16  22 C   50 % 
 2018-11-15 13:43:36  22 C   50 % 
 2018-11-15 13:33:57  22 C   50 % 
 2018-11-15 13:24:17  22 C   50 % 
 2018-11-15 13:14:42  22 C   50 % 
 2018-11-15 12:55:27  22 C   50 % 
 2018-11-15 12:45:52  22 C   50 % 
 2018-11-15 12:36:14  22 C   50 % 
 2018-11-15 12:26:38  22 C   50 % 
 2018-11-15 12:17:01  22 C   50 % 
 2018-11-15 12:07:26  22 C   51 % 
 2018-11-15 11:57:46  22 C   49 % 
 2018-11-15 11:48:06  22 C   49 % 
 2018-11-15 11:38:28  22 C   49 % 
 2018-11-15 11:19:15  22 C   49 % 
 2018-11-15 11:09:37  22 C   49 % 
 2018-11-15 10:40:42  22 C   49 % 
 2018-11-15 10:31:08  22 C   49 % 
 2018-11-15 10:21:30  22 C   49 % 
 2018-11-15 10:11:55  22 C   49 % 
 2018-11-15 10:02:08  22 C   48 % 
 2018-11-15 09:42:39  22 C   49 % 
 2018-11-15 09:32:37  22 C   49 % 
 2018-11-15 09:03:42  22 C   49 % 
 2018-11-15 08:54:06  22 C   49 % 
 2018-11-15 08:44:29  22 C   48 % 
 2018-11-15 08:34:56  22 C   48 % 
 2018-11-15 08:25:13  22 C   49 % 
 2018-11-15 08:05:26  22 C   48 % 
 2018-11-15 07:45:46  22 C   48 % 
 2018-11-15 07:35:57  22 C   48 % 
 2018-11-15 07:26:18  22 C   48 % 
 2018-11-15 07:16:40  22 C   48 % 
 2018-11-15 07:07:04  22 C   48 % 
 2018-11-15 06:57:23  22 C   49 % 
 2018-11-15 06:47:46  22 C   48 % 
 2018-11-15 06:38:09  22 C   48 % 
 2018-11-15 06:18:44  22 C   48 % 
 2018-11-15 06:08:55  22 C   48 % 
 2018-11-15 05:49:33  22 C   48 % 
 2018-11-15 05:39:56  22 C   48 % 
 2018-11-15 05:30:21  22 C   48 % 
 2018-11-15 05:20:42  22 C   48 % 
 2018-11-15 05:11:03  22 C   48 % 
 2018-11-15 05:01:23  22 C   48 % 
 2018-11-15 04:51:48  22 C   48 % 
 2018-11-15 04:42:12  22 C   48 % 
 2018-11-15 04:32:31  22 C   48 % 
 2018-11-15 04:13:09  22 C   48 % 
 2018-11-15 03:53:52  22 C   48 % 
 2018-11-15 03:44:15  22 C   48 % 
 2018-11-15 03:34:37  22 C   48 % 
 2018-11-15 03:25:02  22 C   48 % 
 2018-11-15 02:55:56  22 C   48 % 
 2018-11-15 02:46:19  22 C   48 % 
 2018-11-15 02:36:44  22 C   48 % 
 2018-11-15 02:17:26  22 C   48 % 
 2018-11-15 02:07:49  22 C   48 % 
 2018-11-15 01:28:49  22 C   48 % 
 2018-11-15 01:19:13  22 C   48 % 
 2018-11-15 00:59:48  22 C   48 % 
 2018-11-15 00:50:10  22 C   48 % 
 2018-11-15 00:40:33  22 C   48 % 
 2018-11-15 00:30:57  22 C   48 % 
 2018-11-15 00:21:20  22 C   48 % 
 2018-11-15 00:11:43  22 C   48 % 
 2018-11-15 00:02:08  22 C   48 % 
 2018-11-14 23:52:39  22 C   48 % 
 2018-11-14 23:42:37  22 C   48 % 
 2018-11-14 23:13:25  22 C   48 % 
 2018-11-14 23:03:50  22 C   48 % 
 2018-11-14 22:54:11  22 C   48 % 
 2018-11-14 22:44:36  22 C   48 % 
 2018-11-14 22:15:20  22 C   48 % 
 2018-11-14 22:05:44  22 C   48 % 
 2018-11-14 21:56:08  22 C   48 % 
 2018-11-14 21:46:33  22 C   48 % 
 2018-11-14 21:37:01  22 C   48 % 
 2018-11-14 21:17:41  22 C   48 % 
 2018-11-14 21:07:59  22 C   48 % 
 2018-11-14 20:58:23  22 C   48 % 
 2018-11-14 20:48:51  22 C   48 % 
 2018-11-14 20:39:04  22 C   48 % 
 2018-11-14 20:19:51  22 C   48 % 
 2018-11-14 20:00:11  22 C   48 % 
 2018-11-14 19:50:29  22 C   48 % 
 2018-11-14 19:30:33  22 C   49 % 
 2018-11-14 19:20:57  22 C   49 % 
 2018-11-14 19:11:24  22 C   49 % 
 2018-11-14 19:01:40  22 C   49 % 
 2018-11-14 18:52:04  22 C   49 % 
 2018-11-14 18:42:19  22 C   49 % 
 2018-11-14 18:22:49  22 C   49 % 
 2018-11-14 17:23:53  22 C   49 % 
 2018-11-14 17:14:19  22 C   49 % 
 2018-11-14 17:04:41  22 C   48 % 
 2018-11-14 16:45:20  22 C   49 % 
 2018-11-14 16:35:44  22 C   49 % 
 2018-11-14 16:16:36  22 C   49 % 
 2018-11-14 16:06:49  22 C   49 % 
 2018-11-14 15:47:03  22 C   49 % 
 2018-11-14 15:37:28  22 C   49 % 
 2018-11-14 15:27:48  22 C   49 % 
 2018-11-14 15:18:11  22 C   49 % 
 2018-11-14 15:08:35  22 C   49 % 
 2018-11-14 14:58:59  22 C   48 % 
 2018-11-14 14:39:25  22 C   48 % 
 2018-11-14 14:29:54  22 C   48 % 
 2018-11-14 14:00:48  22 C   48 % 
 2018-11-14 13:51:06  22 C   48 % 
 2018-11-14 13:41:27  22 C   48 % 
 2018-11-14 13:31:53  22 C   48 % 
 2018-11-14 13:22:13  22 C   48 % 
 2018-11-14 13:12:36  22 C   48 % 
 2018-11-14 13:03:01  22 C   48 % 
 2018-11-14 12:53:24  22 C   48 % 
 2018-11-14 12:43:48  22 C   49 % 
 2018-11-14 12:34:10  22 C   49 % 
 2018-11-14 12:14:36  22 C   49 % 
 2018-11-14 12:05:02  22 C   49 % 
 2018-11-14 11:24:52  22 C   49 % 
 2018-11-14 11:15:16  22 C   49 % 
 2018-11-14 11:05:44  22 C   49 % 
 2018-11-14 10:55:58  22 C   49 % 
 2018-11-14 10:46:19  22 C   49 % 
 2018-11-14 10:27:08  22 C   48 % 
 2018-11-14 10:17:27  22 C   48 % 
 2018-11-14 10:07:50  22 C   48 % 
 2018-11-14 09:48:05  22 C   49 % 
 2018-11-14 09:38:28  22 C   49 % 
 2018-11-14 09:28:53  22 C   49 % 
 2018-11-14 09:09:38  22 C   49 % 
 2018-11-14 09:00:01  22 C   48 % 
 2018-11-14 08:30:50  22 C   49 % 
 2018-11-14 08:21:12  22 C   49 % 
 2018-11-14 08:02:00  22 C   49 % 
 2018-11-14 07:52:21  22 C   49 % 
 2018-11-14 07:33:08  22 C   49 % 
 2018-11-14 07:23:32  22 C   49 % 
 2018-11-14 06:53:51  22 C   49 % 
 2018-11-14 06:44:15  22 C   49 % 
 2018-11-14 06:34:39  22 C   49 % 
 2018-11-14 06:04:49  22 C   49 % 
 2018-11-14 05:55:12  22 C   49 % 
 2018-11-14 05:45:35  22 C   49 % 
 2018-11-14 05:35:59  22 C   49 % 
 2018-11-14 05:26:22  22 C   49 % 
 2018-11-14 05:07:14  22 C   49 % 
 2018-11-14 04:57:26  22 C   49 % 
 2018-11-14 04:47:49  22 C   49 % 
 2018-11-14 04:38:11  22 C   49 % 
 2018-11-14 04:28:36  22 C   49 % 
 2018-11-14 04:18:58  22 C   49 % 
 2018-11-14 03:49:33  22 C   49 % 
 2018-11-14 03:30:15  22 C   49 % 
 2018-11-14 03:20:39  22 C   49 % 
 2018-11-14 03:11:02  22 C   49 % 
 2018-11-14 02:51:27  22 C   49 % 
 2018-11-14 02:41:46  22 C   49 % 
 2018-11-14 02:32:09  22 C   49 % 
 2018-11-14 02:12:49  22 C   49 % 
 2018-11-14 02:03:13  22 C   49 % 
 2018-11-14 01:43:59  22 C   49 % 
 2018-11-14 01:34:24  22 C   49 % 
 2018-11-14 01:24:37  22 C   49 % 
 2018-11-14 01:14:59  22 C   49 % 
 2018-11-14 01:05:27  22 C   49 % 
 2018-11-14 00:55:39  22 C   49 % 
 2018-11-14 00:36:12  22 C   49 % 
 2018-11-14 00:26:27  22 C   49 % 
 2018-11-14 00:16:50  22 C   49 % 
 2018-11-13 23:57:38  22 C   49 % 
 2018-11-13 23:48:02  22 C   49 % 
 2018-11-13 23:28:47  22 C   49 % 
 2018-11-13 23:09:35  22 C   49 % 
 2018-11-13 22:20:21  22 C   49 % 
 2018-11-13 21:50:41  22 C   49 % 
 2018-11-13 21:41:02  22 C   49 % 
 2018-11-13 21:12:16  22 C   49 % 
 2018-11-13 21:02:43  22 C   49 % 
 2018-11-13 20:42:44  22 C   49 % 
 2018-11-13 20:33:09  22 C   49 % 
 2018-11-13 20:23:33  22 C   49 % 
 2018-11-13 20:13:55  22 C   49 % 
 2018-11-13 20:04:19  22 C   49 % 
 2018-11-13 19:54:44  22 C   50 % 
 2018-11-13 19:35:38  22 C   50 % 
 2018-11-13 19:25:33  22 C   50 % 
 2018-11-13 19:05:45  22 C   50 % 
 2018-11-13 18:56:10  22 C   50 % 
 2018-11-13 18:36:55  22 C   50 % 
 2018-11-13 18:08:07  22 C   50 % 
 2018-11-13 17:58:01  22 C   50 % 
 2018-11-13 17:27:52  22 C   50 % 
 2018-11-13 17:08:34  22 C   49 % 
 2018-11-13 16:49:14  22 C   49 % 
 2018-11-13 16:39:37  22 C   49 % 
 2018-11-13 16:20:10  22 C   50 % 
 2018-11-13 16:10:34  22 C   50 % 
 2018-11-13 16:00:56  22 C   50 % 
 2018-11-13 15:51:20  22 C   50 % 
 2018-11-13 15:32:09  22 C   50 % 
 2018-11-13 15:22:34  22 C   50 % 
 2018-11-13 15:03:07  22 C   50 % 
 2018-11-13 14:53:30  22 C   50 % 
 2018-11-13 14:43:54  22 C   50 % 
 2018-11-13 14:34:20  22 C   50 % 
 2018-11-13 14:24:42  22 C   50 % 
 2018-11-13 14:15:07  22 C   50 % 
 2018-11-13 14:05:32  22 C   50 % 
 2018-11-13 13:55:54  22 C   50 % 
 2018-11-13 13:46:19  22 C   50 % 
 2018-11-13 13:26:21  22 C   50 % 
 2018-11-13 13:16:45  22 C   50 % 
 2018-11-13 13:07:16  22 C   50 % 
 2018-11-13 12:27:00  22 C   50 % 
 2018-11-13 12:17:22  22 C   50 % 
 2018-11-13 11:57:53  22 C   49 % 
 2018-11-13 11:38:41  22 C   49 % 
 2018-11-13 11:29:15  22 C   49 % 
 2018-11-13 11:19:01  22 C   49 % 
 2018-11-13 11:09:24  22 C   49 % 
 2018-11-13 10:50:17  22 C   49 % 
 2018-11-13 10:20:52  22 C   49 % 
 2018-11-13 10:11:08  22 C   49 % 
 2018-11-13 10:01:33  22 C   49 % 
 2018-11-13 09:31:52  22 C   49 % 
 2018-11-13 09:12:32  22 C   49 % 
 2018-11-13 09:02:44  22 C   49 % 
 2018-11-13 08:43:15  22 C   49 % 
 2018-11-13 08:33:39  22 C   49 % 
 2018-11-13 08:13:46  22 C   49 % 
 2018-11-13 07:44:21  22 C   49 % 
 2018-11-13 07:34:46  22 C   49 % 
 2018-11-13 06:25:13  22 C   49 % 
 2018-11-13 06:15:33  22 C   49 % 
 2018-11-13 06:06:02  22 C   49 % 
 2018-11-13 05:46:16  22 C   49 % 
 2018-11-13 05:36:47  22 C   49 % 
 2018-11-13 05:07:29  22 C   49 % 
 2018-11-13 04:37:54  22 C   49 % 
 2018-11-13 04:28:17  22 C   49 % 
 2018-11-13 04:18:40  22 C   49 % 
 2018-11-13 02:50:05  22 C   49 % 
 2018-11-13 02:19:56  22 C   49 % 
 2018-11-13 01:21:34  22 C   49 % 
 2018-11-13 01:11:49  22 C   49 % 
 2018-11-13 00:52:36  23 C   49 % 
 2018-11-13 00:42:56  23 C   49 % 
 2018-11-13 00:03:55  23 C   49 % 
 2018-11-12 23:44:34  23 C   49 % 
 2018-11-12 23:34:59  23 C   50 % 
 2018-11-12 23:06:06  23 C   50 % 
 2018-11-12 22:06:43  23 C   49 % 
 2018-11-12 21:27:13  23 C   50 % 
 2018-11-12 21:17:39  23 C   50 % 
 2018-11-12 20:58:18  23 C   50 % 
 2018-11-12 20:48:38  23 C   50 % 
 2018-11-12 20:39:02  23 C   50 % 
 2018-11-12 20:10:09  23 C   50 % 
 2018-11-12 20:00:33  23 C   50 % 
 2018-11-12 19:50:55  23 C   50 % 
 2018-11-12 19:11:27  23 C   50 % 
 2018-11-12 18:21:59  23 C   50 % 
 2018-11-12 17:52:53  23 C   50 % 
 2018-11-12 17:43:19  23 C   50 % 
 2018-11-12 16:44:00  23 C   50 % 
 2018-11-12 16:24:45  23 C   50 % 
 2018-11-12 16:15:06  23 C   50 % 
 2018-11-12 16:05:30  23 C   50 % 
 2018-11-12 15:55:53  23 C   49 % 
 2018-11-12 15:46:17  23 C   50 % 
 2018-11-12 15:36:41  23 C   49 % 
 2018-11-12 15:27:05  23 C   49 % 
 2018-11-12 15:07:17  23 C   49 % 
 2018-11-12 14:19:00  23 C   49 % 
 2018-11-12 13:30:10  23 C   49 % 
 2018-11-12 13:20:33  23 C   49 % 
 2018-11-12 12:51:39  23 C   49 % 
 2018-11-12 12:12:17  23 C   50 % 
 2018-11-12 11:43:07  23 C   49 % 
 2018-11-12 10:55:02  23 C   49 % 
 2018-11-12 10:35:44  23 C   49 % 
 2018-11-12 06:14:39  23 C   50 % 
 2018-11-12 05:04:31  23 C   50 % 
 2018-11-12 03:55:41  23 C   51 % 
 2018-11-12 03:35:57  23 C   51 % 
 2018-11-12 03:26:21  23 C   51 % 
 2018-11-12 03:16:45  23 C   51 % 
 2018-11-12 02:28:33  23 C   51 % 
 2018-11-12 01:59:44  23 C   51 % 
 2018-11-12 01:39:59  23 C   51 % 
 2018-11-12 01:10:33  23 C   51 % 
 2018-11-12 00:41:37  23 C   51 % 
 2018-11-12 00:32:01  23 C   51 % 
 2018-11-11 23:52:59  23 C   51 % 
 2018-11-11 23:24:11  23 C   51 % 
 2018-11-11 23:14:16  23 C   51 % 
 2018-11-11 22:45:24  23 C   52 % 
 2018-11-11 22:35:49  23 C   51 % 
 2018-11-11 22:26:13  23 C   51 % 
 2018-11-11 21:46:56  23 C   51 % 
 2018-11-11 21:37:20  23 C   51 % 
 2018-11-11 21:27:43  23 C   51 % 
 2018-11-11 21:18:04  23 C   51 % 
 2018-11-11 20:18:15  23 C   51 % 
 2018-11-11 20:08:39  23 C   51 % 
 2018-11-11 19:59:04  23 C   49 % 
 2018-11-11 19:49:28  23 C   49 % 
 2018-11-11 19:39:51  23 C   49 % 
 2018-11-11 19:30:16  23 C   49 % 
 2018-11-11 19:20:40  23 C   49 % 
 2018-11-11 19:11:05  23 C   49 % 
 2018-11-11 19:01:27  23 C   49 % 
 2018-11-11 18:51:50  23 C   50 % 
 2018-11-11 18:42:14  23 C   50 % 
 2018-11-11 18:32:38  23 C   49 % 
 2018-11-11 18:23:01  23 C   49 % 
 2018-11-11 18:13:25  23 C   50 % 
 2018-11-11 18:03:50  23 C   49 % 
 2018-11-11 17:54:16  23 C   49 % 
 2018-11-11 17:44:39  23 C   49 % 
 2018-11-11 17:35:05  23 C   49 % 
 2018-11-11 17:25:28  23 C   50 % 
 2018-11-11 17:15:53  23 C   50 % 
 2018-11-11 17:06:16  23 C   49 % 
 2018-11-11 16:56:42  23 C   50 % 
 2018-11-11 16:47:06  23 C   49 % 
 2018-11-11 16:37:29  23 C   49 % 
 2018-11-11 16:27:53  23 C   49 % 
 2018-11-11 16:18:16  23 C   49 % 
 2018-11-11 16:08:42  23 C   49 % 
 2018-11-11 15:59:06  23 C   49 % 
 2018-11-11 15:49:30  23 C   49 % 
 2018-11-11 15:39:55  23 C   49 % 
 2018-11-11 15:30:20  23 C   49 % 
 2018-11-11 15:11:01  23 C   49 % 
 2018-11-11 14:51:01  23 C   49 % 
 2018-11-11 13:03:14  23 C   49 % 
 2018-11-11 12:53:40  23 C   49 % 
 2018-11-11 12:24:35  23 C   49 % 
 2018-11-11 11:54:59  23 C   50 % 
 2018-11-11 11:25:22  23 C   50 % 
 2018-11-11 11:06:05  23 C   50 % 
 2018-11-11 10:37:04  22 C   49 % 
 2018-11-11 10:27:28  22 C   49 % 
 2018-11-11 09:57:52  22 C   49 % 
 2018-11-11 09:27:24  22 C   49 % 
 2018-11-11 09:08:09  22 C   49 % 
 2018-11-11 08:08:41  22 C   49 % 
 2018-11-11 07:20:08  22 C   49 % 
 2018-11-11 07:10:31  22 C   49 % 
 2018-11-11 07:00:56  22 C   49 % 
 2018-11-11 06:51:18  22 C   49 % 
 2018-11-11 06:41:40  22 C   49 % 
 2018-11-11 06:02:19  23 C   49 % 
 2018-11-11 05:32:54  23 C   49 % 
 2018-11-11 05:13:34  23 C   49 % 
 2018-11-11 05:03:59  23 C   49 % 
 2018-11-11 04:44:12  23 C   49 % 
 2018-11-11 04:34:19  23 C   49 % 
 2018-11-11 04:24:43  23 C   49 % 
 2018-11-11 04:15:06  23 C   49 % 
 2018-11-11 04:05:30  23 C   49 % 
 2018-11-11 03:55:56  23 C   49 % 
 2018-11-11 03:46:19  23 C   49 % 
 2018-11-11 03:36:44  23 C   49 % 
 2018-11-11 03:27:07  23 C   49 % 
 2018-11-11 03:17:32  23 C   49 % 
 2018-11-11 03:07:56  23 C   49 % 
 2018-11-11 02:58:21  23 C   49 % 
 2018-11-11 02:48:45  23 C   49 % 
 2018-11-11 02:39:10  23 C   49 % 
 2018-11-11 02:29:34  23 C   49 % 
 2018-11-11 02:19:58  23 C   49 % 
 2018-11-11 02:10:23  23 C   49 % 
 2018-11-11 02:00:43  23 C   49 % 
 2018-11-11 01:51:07  23 C   49 % 
 2018-11-11 01:41:31  23 C   49 % 
 2018-11-11 01:31:57  23 C   49 % 
 2018-11-11 01:22:18  23 C   49 % 
 2018-11-11 01:03:06  23 C   49 % 
 2018-11-11 00:53:30  23 C   49 % 
 2018-11-11 00:43:53  23 C   49 % 
 2018-11-11 00:34:18  23 C   49 % 
 2018-11-11 00:24:44  23 C   49 % 
 2018-11-11 00:15:04  23 C   49 % 
 2018-11-11 00:05:28  23 C   49 % 
 2018-11-10 23:55:52  23 C   49 % 
 2018-11-10 23:46:15  23 C   49 % 
 2018-11-10 23:36:41  23 C   49 % 
 2018-11-10 23:27:11  23 C   49 % 
 2018-11-10 23:17:21  23 C   49 % 
 2018-11-10 23:07:45  23 C   49 % 
 2018-11-10 22:58:09  23 C   49 % 
 2018-11-10 22:48:34  23 C   49 % 
 2018-11-10 22:38:59  23 C   49 % 
 2018-11-10 22:29:23  23 C   49 % 
 2018-11-10 21:50:13  23 C   49 % 
 2018-11-10 21:30:26  23 C   49 % 
 2018-11-10 21:20:49  23 C   49 % 
 2018-11-10 21:11:11  23 C   49 % 
 2018-11-10 21:01:30  23 C   48 % 
 2018-11-10 20:42:14  23 C   48 % 
 2018-11-10 20:32:45  23 C   48 % 
 2018-11-10 20:12:29  23 C   48 % 
 2018-11-10 18:55:29  23 C   48 % 
 2018-11-10 18:36:06  23 C   48 % 
 2018-11-10 18:26:29  23 C   48 % 
 2018-11-10 18:16:52  23 C   48 % 
 2018-11-10 17:19:04  23 C   49 % 
 2018-11-10 17:09:20  23 C   49 % 
 2018-11-10 16:50:04  23 C   49 % 
 2018-11-10 16:40:28  23 C   49 % 
 2018-11-10 16:21:08  23 C   49 % 
 2018-11-10 16:01:37  23 C   49 % 
 2018-11-10 15:52:01  23 C   49 % 
 2018-11-10 15:03:35  23 C   50 % 
 2018-11-10 14:34:38  23 C   50 % 
 2018-11-10 13:46:02  23 C   48 % 
 2018-11-10 13:26:28  23 C   48 % 
 2018-11-10 13:16:52  23 C   49 % 
 2018-11-10 12:57:09  23 C   49 % 
 2018-11-10 12:26:53  23 C   48 % 
 2018-11-10 11:27:51  23 C   49 % 
 2018-11-10 11:07:44  23 C   49 % 
 2018-11-10 10:58:03  23 C   50 % 
 2018-11-10 09:58:31  22 C   49 % 
 2018-11-10 09:48:49  22 C   49 % 
 2018-11-10 09:39:14  22 C   49 % 
 2018-11-10 09:00:30  22 C   50 % 
 2018-11-10 08:21:19  22 C   49 % 
 2018-11-10 07:03:07  22 C   48 % 
 2018-11-10 06:53:34  22 C   48 % 
 2018-11-10 06:43:53  22 C   48 % 
 2018-11-10 06:24:02  22 C   48 % 
 2018-11-10 06:03:58  22 C   49 % 
 2018-11-10 05:54:17  22 C   49 % 
 2018-11-10 05:44:42  22 C   48 % 
 2018-11-10 05:35:06  22 C   48 % 
 2018-11-10 05:15:07  22 C   49 % 
 2018-11-10 04:35:43  22 C   49 % 
 2018-11-10 04:16:08  23 C   48 % 
 2018-11-10 03:56:51  23 C   49 % 
 2018-11-10 03:37:23  23 C   49 % 
 2018-11-10 03:08:08  23 C   48 % 
 2018-11-10 02:58:15  23 C   48 % 
 2018-11-10 02:38:40  23 C   49 % 
 2018-11-10 02:29:05  23 C   48 % 
 2018-11-10 02:19:27  23 C   48 % 
 2018-11-10 01:59:32  23 C   48 % 
 2018-11-10 01:49:51  23 C   48 % 
 2018-11-10 00:51:09  23 C   48 % 
 2018-11-10 00:11:38  23 C   48 % 
 2018-11-10 00:02:00  23 C   48 % 
 2018-11-09 23:42:48  23 C   48 % 
 2018-11-09 23:33:08  23 C   48 % 
 2018-11-09 23:23:32  23 C   48 % 
 2018-11-09 23:13:55  23 C   48 % 
 2018-11-09 23:04:19  23 C   48 % 
 2018-11-09 22:54:42  23 C   48 % 
 2018-11-09 22:45:11  23 C   48 % 
 2018-11-09 22:25:40  23 C   48 % 
 2018-11-09 22:16:04  23 C   48 % 
 2018-11-09 22:06:28  23 C   48 % 
 2018-11-09 21:56:50  23 C   47 % 
 2018-11-09 21:47:17  23 C   47 % 
 2018-11-09 21:08:21  24 C   48 % 
 2018-11-09 20:58:44  24 C   48 % 
 2018-11-09 20:49:09  23 C   48 % 
 2018-11-09 20:39:30  23 C   49 % 
 2018-11-09 20:30:00  23 C   48 % 
 2018-11-09 20:20:02  23 C   47 % 
 2018-11-09 20:10:26  23 C   47 % 
 2018-11-09 20:00:54  23 C   47 % 
 2018-11-09 19:41:25  23 C   47 % 
 2018-11-09 19:31:48  23 C   47 % 
 2018-11-09 19:22:12  23 C   47 % 
 2018-11-09 19:12:37  23 C   47 % 
 2018-11-09 19:03:00  23 C   47 % 
 2018-11-09 18:53:26  23 C   47 % 
 2018-11-09 18:43:51  23 C   47 % 
 2018-11-09 18:34:16  23 C   47 % 
 2018-11-09 18:24:40  23 C   47 % 
 2018-11-09 18:15:04  23 C   47 % 
 2018-11-09 18:05:30  23 C   47 % 
 2018-11-09 17:55:53  23 C   47 % 
 2018-11-09 17:46:18  23 C   47 % 
 2018-11-09 17:36:41  23 C   47 % 
 2018-11-09 17:27:05  23 C   47 % 
 2018-11-09 17:17:29  23 C   47 % 
 2018-11-09 17:07:54  23 C   47 % 
 2018-11-09 16:58:18  23 C   47 % 
 2018-11-09 16:48:44  23 C   47 % 
 2018-11-09 16:39:07  23 C   46 % 
 2018-11-09 16:29:32  23 C   46 % 
 2018-11-09 16:19:56  23 C   46 % 
 2018-11-09 16:10:21  23 C   46 % 
 2018-11-09 16:00:44  23 C   46 % 
 2018-11-09 15:51:09  23 C   46 % 
 2018-11-09 15:41:33  23 C   45 % 
 2018-11-09 15:22:18  24 C   45 % 
 2018-11-09 15:12:42  24 C   45 % 
 2018-11-09 15:03:06  24 C   44 % 
 2018-11-09 14:53:30  24 C   44 % 
 2018-11-09 14:43:55  24 C   44 % 
 2018-11-09 14:34:19  25 C   43 % 
 2018-11-09 14:24:44  25 C   43 % 
 2018-11-09 14:15:11  25 C   42 % 
 2018-11-09 13:55:58  26 C   40 % 
 2018-11-09 13:46:25  27 C   39 % 
 2018-11-09 13:36:50  28 C   36 % 
 2018-11-09 13:27:17  30 C   33 % 
 2018-11-09 13:17:45  34 C   30 % 
 2018-11-09 13:08:06  34 C   30 % 
 2018-11-09 12:58:18  30 C   39 % 
 2018-11-09 12:48:38  23 C   47 % 
 2018-11-09 12:39:02  23 C   47 % 
 2018-11-09 12:29:26  23 C   47 % 
 2018-11-09 12:19:50  23 C   47 % 
 2018-11-09 12:10:13  23 C   48 % 
 2018-11-09 12:00:36  23 C   48 % 
 2018-11-09 11:50:59  23 C   48 % 
 2018-11-09 11:41:23  23 C   48 % 
 2018-11-09 11:31:52  23 C   48 % 
 2018-11-09 11:11:55  23 C   48 % 
 2018-11-09 10:52:16  23 C   48 % 
 2018-11-09 10:42:41  23 C   48 % 
 2018-11-09 10:33:01  23 C   48 % 
 2018-11-09 10:23:31  23 C   48 % 
 2018-11-09 10:13:41  23 C   48 % 
 2018-11-09 10:04:05  23 C   48 % 
 2018-11-09 09:54:39  23 C   48 % 
 2018-11-09 09:44:30  23 C   48 % 
 2018-11-09 09:34:38  23 C   48 % 
 2018-11-09 09:25:00  23 C   48 % 
 2018-11-09 09:15:23  23 C   48 % 
 2018-11-09 08:55:39  23 C   48 % 
 2018-11-09 08:45:58  23 C   48 % 
 2018-11-09 08:16:42  23 C   48 % 
 2018-11-09 07:57:06  23 C   48 % 
 2018-11-09 07:37:40  23 C   48 % 
 2018-11-09 07:17:55  23 C   48 % 
 2018-11-09 07:08:20  23 C   48 % 
 2018-11-09 06:58:41  23 C   48 % 
 2018-11-09 06:49:05  23 C   48 % 
 2018-11-09 06:39:27  23 C   48 % 
 2018-11-09 06:29:51  23 C   47 % 
 2018-11-09 06:20:15  23 C   47 % 
 2018-11-09 06:00:57  23 C   47 % 
 2018-11-09 05:51:21  23 C   47 % 
 2018-11-09 05:21:53  23 C   47 % 
 2018-11-09 05:01:38  23 C   47 % 
 2018-11-09 04:32:17  23 C   47 % 
 2018-11-09 04:22:40  23 C   47 % 
 2018-11-09 04:13:03  23 C   47 % 
 2018-11-09 03:43:20  23 C   47 % 
 2018-11-09 03:33:40  23 C   47 % 
 2018-11-09 03:14:01  23 C   47 % 
 2018-11-09 02:54:16  23 C   47 % 
 2018-11-09 02:24:30  23 C   47 % 
 2018-11-09 02:14:55  23 C   47 % 
 2018-11-09 02:05:18  23 C   47 % 
 2018-11-09 01:55:42  23 C   47 % 
 2018-11-09 01:46:05  23 C   47 % 
 2018-11-09 01:36:27  23 C   47 % 
 2018-11-09 01:26:50  23 C   47 % 
 2018-11-09 01:17:14  23 C   47 % 
 2018-11-09 01:07:36  23 C   47 % 
 2018-11-09 00:58:00  23 C   47 % 
 2018-11-09 00:38:43  23 C   46 % 
 2018-11-09 00:29:06  23 C   46 % 
 2018-11-09 00:19:31  23 C   46 % 
 2018-11-09 00:10:04  23 C   46 % 
 2018-11-08 23:59:58  23 C   46 % 
 2018-11-08 23:50:22  23 C   46 % 
 2018-11-08 23:40:47  23 C   46 % 
 2018-11-08 23:31:10  23 C   46 % 
 2018-11-08 23:21:35  23 C   46 % 
 2018-11-08 23:11:58  24 C   46 % 
 2018-11-08 23:02:21  24 C   45 % 
 2018-11-08 22:52:45  24 C   45 % 
 2018-11-08 22:43:10  24 C   45 % 
 2018-11-08 22:33:36  24 C   45 % 
 2018-11-08 22:23:57  24 C   45 % 
 2018-11-08 22:14:30  24 C   44 % 
 2018-11-08 22:04:22  24 C   44 % 
 2018-11-08 21:45:06  24 C   43 % 
 2018-11-08 21:35:31  25 C   43 % 
 2018-11-08 21:25:57  25 C   43 % 
 2018-11-08 21:16:18  25 C   42 % 
 2018-11-08 21:06:42  25 C   42 % 
 2018-11-08 20:57:07  26 C   41 % 
 2018-11-08 20:47:31  26 C   40 % 
 2018-11-08 20:37:56  27 C   39 % 
 2018-11-08 20:28:21  27 C   38 % 
 2018-11-08 20:18:47  29 C   36 % 
 2018-11-08 20:09:14  30 C   33 % 
 2018-11-08 19:59:42  33 C   30 % 
 2018-11-08 19:50:04  35 C   29 % 
 2018-11-08 19:40:16  27 C   43 % 
 2018-11-08 19:30:42  27 C   38 % 
 2018-11-08 19:21:07  28 C   36 % 
 2018-11-08 19:11:35  30 C   34 % 
 2018-11-08 19:02:04  33 C   30 % 
 2018-11-08 18:52:34  37 C   25 % 
 2018-11-08 18:42:56  40 C   25 % 
 2018-11-08 18:33:09  33 C   32 % 
 2018-11-08 18:23:21  23 C   51 % 
 2018-11-08 18:13:44  22 C   53 % 
 2018-11-08 18:04:10  22 C   48 % 
 2018-11-08 17:54:33  22 C   48 % 
 2018-11-08 17:45:01  22 C   48 % 
 2018-11-08 17:35:27  22 C   48 % 
 2018-11-08 17:25:45  22 C   48 % 
 2018-11-08 17:15:59  22 C   48 % 
 2018-11-08 17:06:20  22 C   48 % 
 2018-11-08 16:56:46  22 C   48 % 
 2018-11-08 16:37:33  22 C   48 % 
 2018-11-08 16:27:57  22 C   48 % 
 2018-11-08 16:18:23  22 C   48 % 
 2018-11-08 16:08:45  22 C   48 % 
 2018-11-08 15:58:53  22 C   48 % 
 2018-11-08 15:49:18  22 C   48 % 
 2018-11-08 15:39:43  22 C   48 % 
 2018-11-08 15:30:08  22 C   48 % 
 2018-11-08 15:20:33  22 C   48 % 
 2018-11-08 15:10:57  22 C   48 % 
 2018-11-08 15:01:21  22 C   48 % 
 2018-11-08 14:51:46  22 C   48 % 
 2018-11-08 14:42:09  22 C   48 % 
 2018-11-08 14:32:39  22 C   48 % 
 2018-11-08 14:22:50  22 C   48 % 
 2018-11-08 14:13:11  22 C   48 % 
 2018-11-08 14:03:35  22 C   48 % 
 2018-11-08 13:54:00  22 C   48 % 
 2018-11-08 13:44:25  22 C   48 % 
 2018-11-08 13:34:49  22 C   48 % 
 2018-11-08 13:25:14  22 C   47 % 
 2018-11-08 13:05:43  22 C   47 % 
 2018-11-08 12:56:08  22 C   47 % 
 2018-11-08 12:46:27  22 C   47 % 
 2018-11-08 12:36:50  22 C   47 % 
 2018-11-08 12:17:29  22 C   47 % 
 2018-11-08 12:07:50  22 C   47 % 
 2018-11-08 11:58:14  22 C   48 % 
 2018-11-08 11:48:38  22 C   48 % 
 2018-11-08 11:39:02  22 C   47 % 
 2018-11-08 11:29:27  22 C   48 % 
 2018-11-08 11:19:47  22 C   48 % 
 2018-11-08 11:10:11  22 C   48 % 
 2018-11-08 11:00:38  22 C   48 % 
 2018-11-08 10:50:54  22 C   48 % 
 2018-11-08 10:20:49  22 C   47 % 
 2018-11-08 10:01:04  22 C   48 % 
 2018-11-08 09:51:29  22 C   48 % 
 2018-11-08 09:41:51  22 C   48 % 
 2018-11-08 09:32:17  22 C   48 % 
 2018-11-08 09:22:36  22 C   48 % 
 2018-11-08 09:12:59  22 C   48 % 
 2018-11-08 08:53:12  22 C   48 % 
 2018-11-08 08:43:36  22 C   48 % 
 2018-11-08 08:34:00  22 C   48 % 
 2018-11-08 08:24:20  22 C   48 % 
 2018-11-08 08:14:51  22 C   48 % 
 2018-11-08 07:35:44  22 C   48 % 
 2018-11-08 07:16:08  22 C   48 % 
 2018-11-08 07:06:43  22 C   49 % 
 2018-11-08 06:56:21  22 C   49 % 
 2018-11-08 06:46:46  22 C   49 % 
 2018-11-08 06:37:07  22 C   49 % 
 2018-11-08 06:27:30  22 C   48 % 
 2018-11-08 06:17:52  22 C   48 % 
 2018-11-08 06:08:16  22 C   48 % 
 2018-11-08 05:58:39  22 C   48 % 
 2018-11-08 05:49:03  22 C   48 % 
 2018-11-08 05:39:26  22 C   48 % 
 2018-11-08 05:29:50  22 C   48 % 
 2018-11-08 05:20:14  22 C   48 % 
 2018-11-08 05:00:17  22 C   48 % 
 2018-11-08 04:50:40  22 C   48 % 
 2018-11-08 04:41:04  22 C   48 % 
 2018-11-08 04:31:29  22 C   48 % 
 2018-11-08 04:21:52  22 C   48 % 
 2018-11-08 04:02:23  22 C   48 % 
 2018-11-08 03:52:44  22 C   48 % 
 2018-11-08 03:43:09  22 C   47 % 
 2018-11-08 03:23:32  22 C   47 % 
 2018-11-08 03:13:54  22 C   47 % 
 2018-11-08 03:04:21  22 C   47 % 
 2018-11-08 02:54:37  22 C   47 % 
 2018-11-08 02:45:05  22 C   47 % 
 2018-11-08 02:35:18  22 C   48 % 
 2018-11-08 02:25:43  23 C   47 % 
 2018-11-08 02:16:06  23 C   47 % 
 2018-11-08 02:06:30  23 C   47 % 
 2018-11-08 01:56:53  23 C   47 % 
 2018-11-08 01:47:17  23 C   47 % 
 2018-11-08 01:37:41  23 C   47 % 
 2018-11-08 01:28:07  23 C   47 % 
 2018-11-08 01:18:29  23 C   47 % 
 2018-11-08 01:08:54  23 C   47 % 
 2018-11-08 00:59:18  23 C   47 % 
 2018-11-08 00:49:43  23 C   47 % 
 2018-11-08 00:40:06  23 C   47 % 
 2018-11-08 00:30:30  23 C   47 % 
 2018-11-08 00:20:54  23 C   47 % 
 2018-11-08 00:11:18  23 C   47 % 
 2018-11-08 00:01:42  23 C   47 % 
 2018-11-07 23:52:06  23 C   47 % 
 2018-11-07 23:42:31  23 C   47 % 
 2018-11-07 23:32:54  23 C   47 % 
 2018-11-07 23:23:18  23 C   47 % 
 2018-11-07 23:13:42  23 C   47 % 
 2018-11-07 23:04:07  23 C   47 % 
 2018-11-07 22:54:32  23 C   47 % 
 2018-11-07 22:44:54  23 C   47 % 
 2018-11-07 22:35:18  23 C   47 % 
 2018-11-07 22:25:43  23 C   47 % 
 2018-11-07 22:06:17  23 C   47 % 
 2018-11-07 21:56:41  23 C   47 % 
 2018-11-07 21:47:05  23 C   47 % 
 2018-11-07 21:37:29  23 C   47 % 
 2018-11-07 21:27:54  23 C   47 % 
 2018-11-07 21:18:17  23 C   47 % 
 2018-11-07 21:08:41  23 C   47 % 
 2018-11-07 20:59:04  23 C   47 % 
 2018-11-07 20:49:29  23 C   47 % 
 2018-11-07 20:39:52  23 C   47 % 
 2018-11-07 20:30:16  23 C   47 % 
 2018-11-07 20:20:39  23 C   47 % 
 2018-11-07 20:11:05  23 C   47 % 
 2018-11-07 20:01:27  23 C   47 % 
 2018-11-07 19:51:51  23 C   47 % 
 2018-11-07 19:42:16  23 C   47 % 
 2018-11-07 19:32:40  23 C   47 % 
 2018-11-07 19:23:04  23 C   47 % 
 2018-11-07 19:13:27  23 C   47 % 
 2018-11-07 19:03:51  23 C   47 % 
 2018-11-07 18:54:15  23 C   47 % 
 2018-11-07 18:44:39  23 C   47 % 
 2018-11-07 18:24:45  23 C   48 % 
 2018-11-07 18:15:10  23 C   47 % 
 2018-11-07 17:55:50  22 C   47 % 
 2018-11-07 17:46:14  23 C   47 % 
 2018-11-07 17:36:38  23 C   48 % 
 2018-11-07 17:27:02  23 C   49 % 
 2018-11-07 17:17:27  23 C   51 % 
 2018-11-07 17:07:53  22 C   48 % 
 2018-11-07 16:58:14  22 C   47 % 
 2018-11-07 16:48:39  22 C   47 % 
 2018-11-07 16:39:02  22 C   47 % 
 2018-11-07 16:29:26  22 C   47 % 
 2018-11-07 16:19:50  22 C   47 % 
 2018-11-07 16:10:15  22 C   47 % 
 2018-11-07 16:00:39  22 C   47 % 
 2018-11-07 15:51:05  22 C   47 % 
 2018-11-07 15:41:28  22 C   47 % 
 2018-11-07 15:31:52  22 C   47 % 
 2018-11-07 15:22:17  22 C   47 % 
 2018-11-07 15:12:41  22 C   47 % 
 2018-11-07 15:03:05  22 C   47 % 
 2018-11-07 14:53:29  22 C   47 % 
 2018-11-07 14:43:53  22 C   47 % 
 2018-11-07 14:34:18  22 C   47 % 
 2018-11-07 14:24:37  22 C   47 % 
 2018-11-07 14:14:53  22 C   47 % 
 2018-11-07 13:55:30  22 C   47 % 
 2018-11-07 13:45:55  22 C   47 % 
 2018-11-07 13:16:21  22 C   47 % 
 2018-11-07 13:06:27  22 C   47 % 
 2018-11-07 12:56:46  22 C   47 % 
 2018-11-07 12:47:11  22 C   47 % 
 2018-11-07 12:27:59  22 C   47 % 
 2018-11-07 12:18:25  22 C   47 % 
 2018-11-07 11:59:12  22 C   47 % 
 2018-11-07 11:49:34  22 C   47 % 
 2018-11-07 11:39:58  22 C   47 % 
 2018-11-07 11:30:22  22 C   47 % 
 2018-11-07 11:20:46  22 C   47 % 
 2018-11-07 11:11:09  22 C   47 % 
 2018-11-07 11:01:34  22 C   47 % 
 2018-11-07 10:51:58  22 C   47 % 
 2018-11-07 10:42:24  22 C   47 % 
 2018-11-07 10:32:46  22 C   47 % 
 2018-11-07 10:22:35  22 C   47 % 
 2018-11-07 10:12:58  22 C   47 % 
 2018-11-07 10:03:23  22 C   47 % 
 2018-11-07 09:53:46  22 C   47 % 
 2018-11-07 09:34:16  22 C   48 % 
 2018-11-07 09:24:39  22 C   48 % 
 2018-11-07 09:15:04  22 C   48 % 
 2018-11-07 09:05:17  22 C   48 % 
 2018-11-07 08:55:43  22 C   48 % 
 2018-11-07 08:45:53  22 C   48 % 
 2018-11-07 08:26:35  23 C   48 % 
 2018-11-07 08:17:06  23 C   48 % 
 2018-11-07 08:07:08  23 C   48 % 
 2018-11-07 07:57:24  23 C   49 % 
 2018-11-07 07:27:29  22 C   48 % 
 2018-11-07 07:07:31  22 C   49 % 
 2018-11-07 06:57:54  22 C   49 % 
 2018-11-07 06:48:18  22 C   48 % 
 2018-11-07 06:38:41  22 C   48 % 
 2018-11-07 06:29:04  22 C   48 % 
 2018-11-07 06:19:30  22 C   48 % 
 2018-11-07 06:00:16  22 C   48 % 
 2018-11-07 05:40:12  22 C   48 % 
 2018-11-07 05:30:37  22 C   48 % 
 2018-11-07 05:20:56  22 C   48 % 
 2018-11-07 05:11:20  22 C   48 % 
 2018-11-07 05:01:44  22 C   48 % 
 2018-11-07 04:52:06  22 C   48 % 
 2018-11-07 04:42:35  22 C   48 % 
 2018-11-07 04:32:46  22 C   48 % 
 2018-11-07 04:03:18  22 C   48 % 
 2018-11-07 03:53:41  22 C   48 % 
 2018-11-07 03:34:31  22 C   48 % 
 2018-11-07 03:24:33  22 C   48 % 
 2018-11-07 03:14:57  22 C   48 % 
 2018-11-07 03:05:20  22 C   48 % 
 2018-11-07 02:55:47  23 C   47 % 
 2018-11-07 02:36:27  23 C   48 % 
 2018-11-07 02:26:53  23 C   48 % 
 2018-11-07 02:17:23  23 C   48 % 
 2018-11-07 01:57:22  23 C   48 % 
 2018-11-07 01:47:48  23 C   48 % 
 2018-11-07 01:28:00  23 C   48 % 
 2018-11-07 01:18:24  23 C   48 % 
 2018-11-07 00:49:26  23 C   48 % 
 2018-11-07 00:39:50  23 C   48 % 
 2018-11-07 00:30:14  23 C   48 % 
 2018-11-07 00:20:39  23 C   48 % 
 2018-11-07 00:11:01  23 C   48 % 
 2018-11-06 23:51:49  23 C   47 % 
 2018-11-06 23:32:30  23 C   47 % 
 2018-11-06 23:13:03  23 C   47 % 
 2018-11-06 22:53:56  23 C   47 % 
 2018-11-06 22:44:12  23 C   47 % 
 2018-11-06 22:34:35  23 C   47 % 
 2018-11-06 22:15:19  23 C   47 % 
 2018-11-06 22:05:41  23 C   47 % 
 2018-11-06 21:56:06  23 C   47 % 
 2018-11-06 21:46:27  23 C   47 % 
 2018-11-06 21:36:52  23 C   47 % 
 2018-11-06 21:27:16  23 C   47 % 
 2018-11-06 21:17:38  23 C   47 % 
 2018-11-06 21:07:49  23 C   47 % 
 2018-11-06 20:58:12  23 C   47 % 
 2018-11-06 20:48:37  23 C   47 % 
 2018-11-06 20:38:59  23 C   47 % 
 2018-11-06 20:19:04  23 C   47 % 
 2018-11-06 20:09:28  23 C   47 % 
 2018-11-06 19:59:53  23 C   47 % 
 2018-11-06 19:50:24  23 C   48 % 
 2018-11-06 19:30:40  23 C   47 % 
 2018-11-06 19:11:24  23 C   46 % 
 2018-11-06 19:01:49  23 C   47 % 
 2018-11-06 18:51:54  23 C   46 % 
 2018-11-06 18:42:15  23 C   46 % 
 2018-11-06 18:32:37  22 C   47 % 
 2018-11-06 18:22:59  22 C   48 % 
 2018-11-06 18:13:23  22 C   47 % 
 2018-11-06 18:03:52  22 C   47 % 
 2018-11-06 17:54:03  22 C   47 % 
 2018-11-06 17:44:27  22 C   47 % 
 2018-11-06 17:34:51  22 C   47 % 
 2018-11-06 17:25:16  22 C   47 % 
 2018-11-06 17:15:39  22 C   47 % 
 2018-11-06 17:06:04  22 C   47 % 
 2018-11-06 16:56:28  22 C   47 % 
 2018-11-06 16:46:53  22 C   47 % 
 2018-11-06 16:37:19  22 C   47 % 
 2018-11-06 16:27:42  22 C   47 % 
 2018-11-06 16:18:06  22 C   47 % 
 2018-11-06 16:08:30  23 C   47 % 
 2018-11-06 15:58:53  22 C   47 % 
 2018-11-06 15:30:06  23 C   47 % 
 2018-11-06 15:20:31  23 C   47 % 
 2018-11-06 14:51:11  23 C   46 % 
 2018-11-06 14:41:36  23 C   47 % 
 2018-11-06 14:31:55  23 C   47 % 
 2018-11-06 14:12:43  23 C   47 % 
 2018-11-06 14:03:05  23 C   47 % 
 2018-11-06 13:53:30  23 C   47 % 
 2018-11-06 13:43:51  23 C   47 % 
 2018-11-06 13:34:15  23 C   47 % 
 2018-11-06 13:24:38  23 C   47 % 
 2018-11-06 13:15:01  23 C   47 % 
 2018-11-06 12:55:45  23 C   47 % 
 2018-11-06 12:46:09  23 C   47 % 
 2018-11-06 12:36:35  23 C   47 % 
 2018-11-06 12:26:54  23 C   47 % 
 2018-11-06 12:17:18  23 C   47 % 
 2018-11-06 12:07:43  23 C   47 % 
 2018-11-06 11:28:48  23 C   47 % 
 2018-11-06 10:38:49  23 C   47 % 
 2018-11-06 10:18:53  23 C   47 % 
 2018-11-06 09:59:01  23 C   47 % 
 2018-11-06 09:49:28  23 C   47 % 
 2018-11-06 09:39:46  23 C   47 % 
 2018-11-06 09:30:10  23 C   47 % 
 2018-11-06 09:10:24  23 C   47 % 
 2018-11-06 09:00:48  23 C   47 % 
 2018-11-06 08:51:13  23 C   47 % 
 2018-11-06 08:11:16  24 C   47 % 
 2018-11-06 07:41:17  24 C   48 % 
 2018-11-06 07:31:26  24 C   48 % 
 2018-11-06 07:01:59  24 C   48 % 
 2018-11-06 06:42:44  23 C   47 % 
 2018-11-06 06:13:50  23 C   47 % 
 2018-11-06 04:54:01  24 C   47 % 
 2018-11-06 04:44:25  24 C   47 % 
 2018-11-06 04:34:50  24 C   47 % 
 2018-11-06 04:15:22  24 C   47 % 
 2018-11-06 03:55:30  24 C   47 % 
 2018-11-06 03:45:54  24 C   47 % 
 2018-11-06 03:36:18  24 C   47 % 
 2018-11-06 03:26:43  24 C   47 % 
 2018-11-06 03:07:28  24 C   47 % 
 2018-11-06 02:47:42  24 C   47 % 
 2018-11-06 02:38:04  24 C   47 % 
 2018-11-06 02:28:28  24 C   47 % 
 2018-11-06 02:18:54  24 C   47 % 
 2018-11-06 02:09:14  24 C   47 % 
 2018-11-06 01:50:01  24 C   46 % 
 2018-11-06 01:30:42  24 C   46 % 
 2018-11-06 01:21:05  24 C   46 % 
 2018-11-06 01:01:47  24 C   46 % 
 2018-11-06 00:41:54  24 C   45 % 
 2018-11-06 00:02:31  24 C   46 % 
 2018-11-05 23:33:41  24 C   45 % 
 2018-11-05 23:04:51  24 C   45 % 
 2018-11-05 22:35:57  24 C   45 % 
 2018-11-05 22:16:05  24 C   45 % 
 2018-11-05 22:06:30  25 C   45 % 
 2018-11-05 21:47:21  25 C   45 % 
 2018-11-05 21:27:43  24 C   45 % 
 2018-11-05 19:02:16  25 C   49 % 
 2018-11-05 18:52:37  23 C   49 % 
 2018-11-05 18:42:54  23 C   46 % 
 2018-11-05 18:33:15  23 C   46 % 
 2018-11-05 17:33:08  22 C   46 % 
 2018-11-05 17:23:30  22 C   46 % 
 2018-11-05 17:13:55  22 C   46 % 
 2018-11-05 17:04:21  22 C   46 % 
 2018-11-05 15:27:13  22 C   47 % 
 2018-11-05 15:08:03  22 C   47 % 
 2018-11-05 14:58:11  22 C   47 % 
 2018-11-05 13:59:55  22 C   47 % 
 2018-11-05 13:50:06  22 C   47 % 
 2018-11-05 13:30:29  22 C   47 % 
 2018-11-05 13:11:14  22 C   47 % 
 2018-11-05 13:01:39  22 C   46 % 
 2018-11-05 12:21:59  22 C   46 % 
 2018-11-05 12:02:47  22 C   46 % 
 2018-11-05 11:53:11  22 C   46 % 
 2018-11-05 11:43:33  22 C   46 % 
 2018-11-05 11:33:57  22 C   45 % 
 2018-11-05 11:14:43  22 C   45 % 
 2018-11-05 10:54:44  22 C   44 % 
 2018-11-05 10:45:08  22 C   44 % 
 2018-11-05 10:35:34  22 C   44 % 
 2018-11-05 10:16:18  22 C   44 % 
 2018-11-05 09:57:00  22 C   44 % 
 2018-11-05 09:46:58  22 C   44 % 
 2018-11-05 08:58:16  22 C   44 % 
 2018-11-05 08:48:39  23 C   44 % 
 2018-11-05 08:39:02  23 C   44 % 
 2018-11-05 08:29:26  23 C   44 % 
 2018-11-05 08:19:48  23 C   44 % 
 2018-11-05 08:10:12  23 C   44 % 
 2018-11-05 08:00:36  23 C   44 % 
 2018-11-05 07:10:36  23 C   45 % 
 2018-11-05 06:41:24  23 C   45 % 
 2018-11-05 06:22:11  23 C   45 % 
 2018-11-05 06:02:20  23 C   45 % 
 2018-11-05 05:43:05  23 C   45 % 
 2018-11-05 05:03:48  23 C   45 % 
 2018-11-05 04:24:11  23 C   45 % 
 2018-11-05 03:45:03  23 C   45 % 
 2018-11-05 02:56:09  23 C   45 % 
 2018-11-05 02:17:43  23 C   45 % 
 2018-11-05 01:29:30  23 C   45 % 
 2018-11-05 01:19:56  23 C   45 % 
 2018-11-05 01:10:14  23 C   45 % 
 2018-11-05 00:22:11  23 C   45 % 
 2018-11-05 00:12:36  23 C   45 % 
 2018-11-05 00:02:52  23 C   45 % 
 2018-11-04 23:43:01  23 C   45 % 
 2018-11-04 23:33:17  23 C   45 % 
 2018-11-04 23:14:05  23 C   45 % 
 2018-11-04 22:35:37  23 C   45 % 
 2018-11-04 22:25:54  23 C   45 % 
 2018-11-04 22:16:18  23 C   45 % 
 2018-11-04 21:57:04  23 C   45 % 
 2018-11-04 21:47:30  23 C   45 % 
 2018-11-04 21:37:56  23 C   45 % 
 2018-11-04 21:18:32  23 C   45 % 
 2018-11-04 20:59:06  23 C   45 % 
 2018-11-04 20:49:28  23 C   45 % 
 2018-11-04 20:39:48  23 C   45 % 
 2018-11-04 20:30:10  23 C   45 % 
 2018-11-04 20:20:35  23 C   44 % 
 2018-11-04 20:01:20  23 C   44 % 
 2018-11-04 19:51:43  23 C   45 % 
 2018-11-04 19:12:50  23 C   45 % 
 2018-11-04 19:02:20  23 C   44 % 
 2018-11-04 18:23:34  23 C   44 % 
 2018-11-04 17:34:48  23 C   44 % 
 2018-11-04 17:25:11  23 C   44 % 
 2018-11-04 17:15:34  23 C   44 % 
 2018-11-04 17:05:58  23 C   44 % 
 2018-11-04 16:46:43  23 C   44 % 
 2018-11-04 16:17:21  23 C   44 % 
 2018-11-04 16:07:44  23 C   44 % 
 2018-11-04 15:58:06  23 C   44 % 
 2018-11-04 15:48:30  23 C   44 % 
 2018-11-04 15:38:54  23 C   44 % 
 2018-11-04 15:19:42  24 C   44 % 
 2018-11-04 14:21:26  24 C   43 % 
 2018-11-04 13:52:30  23 C   45 % 
 2018-11-04 13:42:53  23 C   45 % 
 2018-11-04 13:33:15  23 C   45 % 
 2018-11-04 13:23:38  23 C   45 % 
 2018-11-04 13:14:05  23 C   45 % 
 2018-11-04 12:54:43  23 C   45 % 
 2018-11-04 12:45:07  23 C   45 % 
 2018-11-04 12:35:32  23 C   45 % 
 2018-11-04 12:16:02  23 C   45 % 
 2018-11-04 10:57:52  23 C   45 % 
 2018-11-04 10:37:54  23 C   45 % 
 2018-11-04 10:28:17  23 C   45 % 
 2018-11-04 09:59:13  23 C   45 % 
 2018-11-04 09:49:36  23 C   45 % 
 2018-11-04 09:30:17  23 C   45 % 
 2018-11-04 09:20:38  23 C   44 % 
 2018-11-04 09:11:01  23 C   44 % 
 2018-11-04 08:51:53  23 C   45 % 
 2018-11-04 08:41:52  23 C   45 % 
 2018-11-04 08:32:16  23 C   44 % 
 2018-11-04 08:22:40  23 C   44 % 
 2018-11-04 08:13:03  23 C   44 % 
 2018-11-04 07:53:05  23 C   44 % 
 2018-11-04 07:43:29  23 C   44 % 
 2018-11-04 07:33:52  23 C   44 % 
 2018-11-04 07:24:16  23 C   44 % 
 2018-11-04 07:14:40  23 C   44 % 
 2018-11-04 07:05:02  23 C   44 % 
 2018-11-04 06:55:26  23 C   44 % 
 2018-11-04 06:36:14  23 C   44 % 
 2018-11-04 06:26:38  23 C   44 % 
 2018-11-04 05:47:38  24 C   44 % 
 2018-11-04 05:27:38  24 C   44 % 
 2018-11-04 05:18:00  24 C   44 % 
 2018-11-04 05:08:24  24 C   44 % 
 2018-11-04 04:49:07  24 C   44 % 
 2018-11-04 04:39:30  24 C   44 % 
 2018-11-04 04:10:34  24 C   44 % 
 2018-11-04 04:00:58  24 C   44 % 
 2018-11-04 03:32:05  24 C   44 % 
 2018-11-04 03:22:24  24 C   44 % 
 2018-11-04 03:03:08  24 C   44 % 
 2018-11-04 02:43:35  24 C   44 % 
 2018-11-04 02:33:59  24 C   44 % 
 2018-11-04 02:24:23  24 C   44 % 
 2018-11-04 01:14:54  24 C   44 % 
 2018-11-04 01:05:17  24 C   44 % 
 2018-11-04 00:35:35  24 C   44 % 
 2018-11-04 00:25:53  23 C   44 % 
 2018-11-04 00:06:38  23 C   44 % 
 2018-11-03 23:37:19  23 C   44 % 
 2018-11-03 23:27:41  23 C   44 % 
 2018-11-03 23:08:28  23 C   44 % 
 2018-11-03 22:38:52  23 C   44 % 
 2018-11-03 21:40:15  23 C   45 % 
 2018-11-03 21:30:47  23 C   45 % 
 2018-11-03 20:41:53  23 C   45 % 
 2018-11-03 20:22:21  22 C   45 % 
 2018-11-03 20:12:37  22 C   45 % 
 2018-11-03 19:52:45  22 C   45 % 
 2018-11-03 19:43:09  22 C   45 % 
 2018-11-03 19:33:31  22 C   45 % 
 2018-11-03 19:04:43  22 C   45 % 
 2018-11-03 18:54:51  22 C   45 % 
 2018-11-03 18:45:15  22 C   45 % 
 2018-11-03 18:16:24  22 C   45 % 
 2018-11-03 17:47:23  22 C   45 % 
 2018-11-03 17:37:46  22 C   45 % 
 2018-11-03 17:28:01  22 C   45 % 
 2018-11-03 17:18:27  22 C   45 % 
 2018-11-03 17:08:47  22 C   45 % 
 2018-11-03 16:39:24  22 C   45 % 
 2018-11-03 16:29:44  22 C   46 % 
 2018-11-03 16:10:30  22 C   45 % 
 2018-11-03 15:51:14  22 C   46 % 
 2018-11-03 15:31:41  22 C   46 % 
 2018-11-03 14:43:19  22 C   45 % 
 2018-11-03 14:04:36  22 C   45 % 
 2018-11-03 13:35:38  22 C   45 % 
 2018-11-03 12:47:14  22 C   44 % 
 2018-11-03 12:27:47  22 C   44 % 
 2018-11-03 11:58:44  22 C   44 % 
 2018-11-03 11:10:24  22 C   45 % 
 2018-11-03 10:31:23  22 C   44 % 
 2018-11-03 10:11:40  22 C   44 % 
 2018-11-03 10:02:10  22 C   44 % 
 2018-11-03 09:52:21  22 C   44 % 
 2018-11-03 09:23:28  22 C   44 % 
 2018-11-03 09:13:44  22 C   44 % 
 2018-11-03 08:54:29  22 C   44 % 
 2018-11-03 08:35:05  22 C   44 % 
 2018-11-03 08:25:27  22 C   44 % 
 2018-11-03 08:15:52  22 C   44 % 
 2018-11-03 08:06:16  22 C   44 % 
 2018-11-03 07:56:37  22 C   44 % 
 2018-11-03 07:47:02  22 C   44 % 
 2018-11-03 07:37:26  22 C   44 % 
 2018-11-03 07:27:47  22 C   44 % 
 2018-11-03 07:18:10  22 C   44 % 
 2018-11-03 07:08:34  22 C   44 % 
 2018-11-03 06:58:56  22 C   44 % 
 2018-11-03 06:49:22  22 C   44 % 
 2018-11-03 06:39:45  22 C   44 % 
 2018-11-03 06:30:07  22 C   44 % 
 2018-11-03 06:20:26  22 C   44 % 
 2018-11-03 06:01:10  22 C   44 % 
 2018-11-03 05:41:42  22 C   44 % 
 2018-11-03 05:32:04  22 C   44 % 
 2018-11-03 05:22:28  22 C   44 % 
 2018-11-03 05:02:33  22 C   44 % 
 2018-11-03 04:52:56  22 C   44 % 
 2018-11-03 04:43:22  22 C   44 % 
 2018-11-03 04:33:42  22 C   44 % 
 2018-11-03 04:24:06  22 C   44 % 
 2018-11-03 04:14:30  22 C   44 % 
 2018-11-03 04:04:54  22 C   44 % 
 2018-11-03 03:55:17  22 C   44 % 
 2018-11-03 03:45:42  22 C   44 % 
 2018-11-03 03:36:06  22 C   44 % 
 2018-11-03 03:16:28  22 C   44 % 
 2018-11-03 03:06:51  22 C   44 % 
 2018-11-03 02:37:47  22 C   44 % 
 2018-11-03 02:18:28  22 C   44 % 
 2018-11-03 02:08:52  22 C   44 % 
 2018-11-03 01:49:37  22 C   44 % 
 2018-11-03 01:30:22  22 C   44 % 
 2018-11-03 01:20:48  22 C   44 % 
 2018-11-03 01:01:23  22 C   44 % 
 2018-11-03 00:51:47  22 C   44 % 
 2018-11-03 00:32:32  22 C   44 % 
 2018-11-03 00:13:03  22 C   44 % 
 2018-11-03 00:03:26  22 C   44 % 
 2018-11-02 23:53:50  22 C   44 % 
 2018-11-02 23:44:15  22 C   44 % 
 2018-11-02 23:34:37  22 C   44 % 
 2018-11-02 23:25:07  22 C   44 % 
 2018-11-02 23:15:14  22 C   44 % 
 2018-11-02 22:26:26  22 C   44 % 
 2018-11-02 22:07:10  22 C   44 % 
 2018-11-02 21:57:33  22 C   44 % 
 2018-11-02 21:47:57  22 C   44 % 
 2018-11-02 21:38:21  22 C   44 % 
 2018-11-02 21:28:44  22 C   44 % 
 2018-11-02 21:19:09  22 C   44 % 
 2018-11-02 20:29:32  22 C   43 % 
 2018-11-02 20:09:32  22 C   44 % 
 2018-11-02 19:59:55  22 C   44 % 
 2018-11-02 19:40:25  22 C   43 % 
 2018-11-02 19:30:47  22 C   43 % 
 2018-11-02 19:21:11  22 C   44 % 
 2018-11-02 19:01:36  22 C   44 % 
 2018-11-02 18:52:02  22 C   44 % 
 2018-11-02 18:12:50  22 C   44 % 
 2018-11-02 17:52:54  22 C   44 % 
 2018-11-02 17:33:25  22 C   43 % 
 2018-11-02 17:23:29  23 C   43 % 
 2018-11-02 17:13:52  23 C   43 % 
 2018-11-02 16:16:11  23 C   41 % 
 2018-11-02 15:37:03  24 C   40 % 
 2018-11-02 15:17:30  25 C   39 % 
 2018-11-02 14:28:09  22 C   45 % 
 2018-11-02 14:08:58  22 C   44 % 
 2018-11-02 13:49:18  22 C   45 % 
 2018-11-02 13:39:16  22 C   44 % 
 2018-11-02 12:12:34  22 C   44 % 
 2018-11-02 11:53:27  22 C   44 % 
 2018-11-02 11:33:54  22 C   44 % 
 2018-11-02 11:14:40  22 C   44 % 
 2018-11-02 10:45:13  22 C   45 % 
 2018-11-02 10:25:59  22 C   44 % 
 2018-11-02 10:16:24  22 C   44 % 
 2018-11-02 10:06:50  21 C   44 % 
 2018-11-02 08:48:36  22 C   44 % 
 2018-11-02 08:00:01  22 C   44 % 
 2018-11-02 07:50:23  22 C   44 % 
 2018-11-02 07:00:19  22 C   44 % 
 2018-11-02 06:20:42  22 C   43 % 
 2018-11-02 06:01:14  22 C   43 % 
 2018-11-02 05:41:24  22 C   43 % 
 2018-11-02 05:21:57  22 C   43 % 
 2018-11-02 04:52:45  22 C   43 % 
 2018-11-02 04:43:09  22 C   43 % 
 2018-11-02 04:33:33  22 C   43 % 
 2018-11-02 04:14:01  22 C   43 % 
 2018-11-02 03:33:44  22 C   43 % 
 2018-11-02 03:24:07  22 C   43 % 
 2018-11-02 03:14:32  22 C   43 % 
 2018-11-02 02:54:37  22 C   43 % 
 2018-11-02 02:45:00  22 C   43 % 
 2018-11-02 02:35:22  22 C   43 % 
 2018-11-02 02:06:21  22 C   43 % 
 2018-11-02 01:56:43  22 C   43 % 
 2018-11-02 01:47:08  22 C   43 % 
 2018-11-02 01:27:34  22 C   44 % 
 2018-11-02 01:08:19  22 C   43 % 
 2018-11-02 00:58:42  22 C   43 % 
 2018-11-02 00:39:25  22 C   44 % 
 2018-11-02 00:29:50  22 C   44 % 
 2018-11-01 23:31:11  22 C   44 % 
 2018-11-01 23:11:25  22 C   44 % 
 2018-11-01 23:01:50  22 C   44 % 
 2018-11-01 22:32:23  22 C   44 % 
 2018-11-01 22:13:06  22 C   44 % 
 2018-11-01 22:03:23  22 C   44 % 
 2018-11-01 21:53:45  22 C   44 % 
 2018-11-01 21:34:31  22 C   44 % 
 2018-11-01 21:24:55  22 C   46 % 
 2018-11-01 21:05:25  22 C   45 % 
 2018-11-01 20:55:48  21 C   44 % 
 2018-11-01 20:46:06  21 C   44 % 
 2018-11-01 20:36:35  21 C   44 % 
 2018-11-01 20:26:45  21 C   44 % 
 2018-11-01 19:47:52  21 C   44 % 
 2018-11-01 19:38:06  21 C   44 % 
 2018-11-01 19:18:53  21 C   44 % 
 2018-11-01 18:59:35  21 C   44 % 
 2018-11-01 18:40:15  21 C   43 % 
 2018-11-01 18:30:40  21 C   43 % 
 2018-11-01 18:21:03  21 C   43 % 
 2018-11-01 18:01:29  21 C   43 % 
 2018-11-01 17:42:19  21 C   44 % 
 2018-11-01 17:03:12  21 C   44 % 
 2018-11-01 16:43:13  21 C   44 % 
 2018-11-01 16:33:38  21 C   44 % 
 2018-11-01 16:24:01  21 C   44 % 
 2018-11-01 16:14:23  21 C   44 % 
 2018-11-01 15:55:05  21 C   44 % 
 2018-11-01 15:35:11  21 C   44 % 
 2018-11-01 15:15:56  21 C   44 % 
 2018-11-01 14:56:31  21 C   44 % 
 2018-11-01 14:46:54  21 C   44 % 
 2018-11-01 14:37:18  21 C   45 % 
 2018-11-01 14:27:42  21 C   44 % 
 2018-11-01 14:08:26  21 C   44 % 
 2018-11-01 13:58:52  21 C   44 % 
 2018-11-01 13:39:01  21 C   44 % 
 2018-11-01 13:29:14  21 C   44 % 
 2018-11-01 13:19:35  21 C   44 % 
 2018-11-01 13:09:59  21 C   43 % 
 2018-11-01 13:00:23  21 C   43 % 
 2018-11-01 12:50:45  21 C   43 % 
 2018-11-01 12:41:09  21 C   43 % 
 2018-11-01 12:31:42  21 C   43 % 
 2018-11-01 12:11:53  21 C   43 % 
 2018-11-01 12:02:14  21 C   43 % 
 2018-11-01 11:52:38  21 C   43 % 
 2018-11-01 11:43:03  21 C   43 % 
 2018-11-01 11:33:22  21 C   43 % 
 2018-11-01 11:23:45  21 C   43 % 
 2018-11-01 11:04:23  21 C   43 % 
 2018-11-01 10:54:51  21 C   43 % 
 2018-11-01 10:45:06  21 C   43 % 
 2018-11-01 10:35:28  21 C   43 % 
 2018-11-01 10:25:50  21 C   43 % 
 2018-11-01 10:06:31  21 C   43 % 
 2018-11-01 09:56:55  21 C   43 % 
 2018-11-01 09:47:22  21 C   43 % 
 2018-11-01 09:37:32  21 C   43 % 
 2018-11-01 09:27:36  21 C   43 % 
 2018-11-01 09:17:57  21 C   43 % 
 2018-11-01 09:08:15  21 C   43 % 
 2018-11-01 08:58:38  21 C   43 % 
 2018-11-01 08:20:13  21 C   43 % 
 2018-11-01 08:10:37  21 C   43 % 
 2018-11-01 07:50:50  21 C   43 % 
 2018-11-01 07:41:17  21 C   43 % 
 2018-11-01 07:31:38  21 C   43 % 
 2018-11-01 07:21:51  21 C   43 % 
 2018-11-01 07:12:16  21 C   43 % 
 2018-11-01 07:02:37  21 C   43 % 
 2018-11-01 06:53:01  21 C   43 % 
 2018-11-01 06:43:05  21 C   43 % 
 2018-11-01 06:33:18  21 C   43 % 
 2018-11-01 06:23:40  21 C   43 % 
 2018-11-01 06:14:03  21 C   43 % 
 2018-11-01 06:04:26  21 C   43 % 
 2018-11-01 05:54:49  21 C   43 % 
 2018-11-01 05:45:09  21 C   43 % 
 2018-11-01 05:35:30  21 C   43 % 
 2018-11-01 05:25:57  21 C   43 % 
 2018-11-01 05:16:20  21 C   43 % 
 2018-11-01 05:06:27  21 C   43 % 
 2018-11-01 04:56:51  21 C   43 % 
 2018-11-01 04:47:16  21 C   43 % 
 2018-11-01 04:27:45  21 C   43 % 
 2018-11-01 04:18:09  21 C   43 % 
 2018-11-01 04:08:25  21 C   43 % 
 2018-11-01 03:58:48  21 C   43 % 
 2018-11-01 03:29:33  21 C   43 % 
 2018-11-01 03:00:39  21 C   43 % 
 2018-11-01 02:41:21  21 C   43 % 
 2018-11-01 02:31:47  21 C   43 % 
 2018-11-01 02:12:30  21 C   43 % 
 2018-11-01 02:02:48  21 C   43 % 
 2018-11-01 01:53:10  21 C   43 % 
 2018-11-01 01:43:31  21 C   43 % 
 2018-11-01 01:33:56  21 C   44 % 
 2018-11-01 01:04:50  21 C   44 % 
 2018-11-01 00:35:18  21 C   44 % 
 2018-11-01 00:16:00  21 C   44 % 
 2018-11-01 00:05:40  21 C   44 % 
 2018-10-31 23:46:22  21 C   44 % 
 2018-10-31 23:36:47  21 C   44 % 
 2018-10-31 22:37:41  21 C   44 % 
 2018-10-31 22:28:05  21 C   44 % 
 2018-10-31 22:18:29  21 C   44 % 
 2018-10-31 22:08:53  21 C   44 % 
 2018-10-31 21:59:18  21 C   44 % 
 2018-10-31 21:30:10  21 C   44 % 
 2018-10-31 21:20:35  21 C   44 % 
 2018-10-31 21:01:16  21 C   44 % 
 2018-10-31 20:51:31  21 C   45 % 
 2018-10-31 20:41:56  21 C   44 % 
 2018-10-31 20:32:17  21 C   45 % 
 2018-10-31 20:22:42  21 C   45 % 
 2018-10-31 20:13:01  21 C   44 % 
 2018-10-31 20:03:24  21 C   45 % 
 2018-10-31 19:53:47  21 C   44 % 
 2018-10-31 19:44:11  21 C   44 % 
 2018-10-31 19:34:35  21 C   45 % 
 2018-10-31 19:15:19  21 C   45 % 
 2018-10-31 19:05:41  21 C   45 % 
 2018-10-31 18:56:04  21 C   44 % 
 2018-10-31 18:46:27  21 C   45 % 
 2018-10-31 18:36:52  21 C   44 % 
 2018-10-31 18:27:22  21 C   43 % 
 2018-10-31 18:17:16  21 C   43 % 
 2018-10-31 18:07:39  21 C   43 % 
 2018-10-31 17:57:57  21 C   43 % 
 2018-10-31 17:38:42  21 C   43 % 
 2018-10-31 17:29:05  21 C   43 % 
 2018-10-31 17:19:28  21 C   43 % 
 2018-10-31 16:59:38  21 C   43 % 
 2018-10-31 16:49:56  21 C   43 % 
 2018-10-31 16:40:20  21 C   43 % 
 2018-10-31 16:30:43  21 C   43 % 
 2018-10-31 16:11:29  21 C   43 % 
 2018-10-31 16:01:49  21 C   43 % 
 2018-10-31 15:52:13  21 C   43 % 
 2018-10-31 15:32:19  21 C   43 % 
 2018-10-31 15:22:50  21 C   43 % 
 2018-10-31 15:13:00  21 C   43 % 
 2018-10-31 15:03:07  21 C   43 % 
 2018-10-31 14:43:50  21 C   43 % 
 2018-10-31 14:34:23  21 C   43 % 
 2018-10-31 14:24:18  21 C   43 % 
 2018-10-31 14:05:00  21 C   43 % 
 2018-10-31 13:55:25  21 C   43 % 
 2018-10-31 13:45:47  21 C   43 % 
 2018-10-31 13:36:09  21 C   43 % 
 2018-10-31 13:16:57  21 C   43 % 
 2018-10-31 13:07:19  21 C   43 % 
 2018-10-31 12:57:41  22 C   43 % 
 2018-10-31 12:48:02  22 C   43 % 
 2018-10-31 12:38:26  22 C   43 % 
 2018-10-31 12:28:52  22 C   43 % 
 2018-10-31 12:19:16  21 C   43 % 
 2018-10-31 12:09:35  21 C   43 % 
 2018-10-31 11:59:40  21 C   43 % 
 2018-10-31 11:40:28  21 C   43 % 
 2018-10-31 11:30:48  21 C   43 % 
 2018-10-31 11:11:43  21 C   43 % 
 2018-10-31 11:01:50  21 C   43 % 
 2018-10-31 10:52:11  21 C   44 % 
 2018-10-31 10:32:25  21 C   43 % 
 2018-10-31 10:22:33  21 C   43 % 
 2018-10-31 10:03:19  21 C   42 % 
 2018-10-31 09:53:42  21 C   42 % 
 2018-10-31 09:44:03  21 C   42 % 
 2018-10-31 09:34:26  21 C   42 % 
 2018-10-31 09:24:50  21 C   42 % 
 2018-10-31 08:55:13  21 C   42 % 
 2018-10-31 08:45:37  21 C   42 % 
 2018-10-31 08:36:00  21 C   42 % 
 2018-10-31 08:26:21  21 C   42 % 
 2018-10-31 08:16:43  21 C   42 % 
 2018-10-31 07:57:26  21 C   42 % 
 2018-10-31 07:47:57  21 C   42 % 
 2018-10-31 07:38:03  21 C   42 % 
 2018-10-31 07:28:23  21 C   42 % 
 2018-10-31 07:18:46  21 C   42 % 
 2018-10-31 07:09:10  21 C   42 % 
 2018-10-31 06:59:34  21 C   42 % 
 2018-10-31 06:49:56  21 C   42 % 
 2018-10-31 06:30:39  21 C   42 % 
 2018-10-31 06:21:01  21 C   42 % 
 2018-10-31 06:01:27  21 C   42 % 
 2018-10-31 05:42:16  21 C   42 % 
 2018-10-31 05:32:36  21 C   42 % 
 2018-10-31 05:23:01  21 C   42 % 
 2018-10-31 05:03:03  21 C   42 % 
 2018-10-31 04:53:29  21 C   42 % 
 2018-10-31 04:43:48  21 C   42 % 
 2018-10-31 04:34:15  21 C   42 % 
 2018-10-31 04:24:32  21 C   42 % 
 2018-10-31 03:55:33  21 C   42 % 
 2018-10-31 03:45:59  21 C   42 % 
 2018-10-31 03:36:17  21 C   42 % 
 2018-10-31 03:26:37  21 C   42 % 
 2018-10-31 03:17:02  21 C   42 % 
 2018-10-31 03:07:25  22 C   42 % 
 2018-10-31 02:57:50  21 C   42 % 
 2018-10-31 02:48:08  21 C   42 % 
 2018-10-31 02:28:52  21 C   42 % 
 2018-10-31 02:19:17  22 C   42 % 
 2018-10-31 01:59:32  22 C   42 % 
 2018-10-31 01:49:56  22 C   42 % 
 2018-10-31 01:40:25  22 C   42 % 
 2018-10-31 01:11:22  22 C   42 % 
 2018-10-31 01:01:47  22 C   42 % 
 2018-10-31 00:42:31  22 C   42 % 
 2018-10-31 00:32:55  22 C   42 % 
 2018-10-31 00:04:03  22 C   42 % 
 2018-10-30 23:54:27  22 C   42 % 
 2018-10-30 23:44:46  22 C   42 % 
 2018-10-30 23:35:11  22 C   42 % 
 2018-10-30 23:25:32  22 C   42 % 
 2018-10-30 23:16:02  22 C   42 % 
 2018-10-30 23:06:06  22 C   41 % 
 2018-10-30 22:56:29  22 C   41 % 
 2018-10-30 22:26:56  22 C   42 % 
 2018-10-30 22:17:17  22 C   41 % 
 2018-10-30 22:07:40  22 C   41 % 
 2018-10-30 21:58:04  22 C   41 % 
 2018-10-30 21:29:14  22 C   41 % 
 2018-10-30 21:09:57  22 C   42 % 
 2018-10-30 21:00:19  22 C   41 % 
 2018-10-30 20:50:44  22 C   41 % 
 2018-10-30 20:41:06  22 C   41 % 
 2018-10-30 20:31:27  22 C   41 % 
 2018-10-30 20:01:54  22 C   41 % 
 2018-10-30 19:52:18  22 C   41 % 
 2018-10-30 19:42:41  22 C   41 % 
 2018-10-30 19:23:00  22 C   41 % 
 2018-10-30 19:13:23  22 C   41 % 
 2018-10-30 18:54:10  22 C   41 % 
 2018-10-30 18:34:28  22 C   41 % 
 2018-10-30 18:24:53  22 C   41 % 
 2018-10-30 18:05:39  22 C   41 % 
 2018-10-30 17:56:03  22 C   41 % 
 2018-10-30 17:46:21  22 C   41 % 
 2018-10-30 17:36:45  22 C   41 % 
 2018-10-30 17:27:08  22 C   42 % 
 2018-10-30 17:17:31  22 C   42 % 
 2018-10-30 16:58:18  22 C   42 % 
 2018-10-30 16:48:42  22 C   42 % 
 2018-10-30 16:39:05  22 C   42 % 
 2018-10-30 16:29:29  22 C   42 % 
 2018-10-30 16:19:54  22 C   42 % 
 2018-10-30 16:10:16  22 C   42 % 
 2018-10-30 16:00:41  22 C   42 % 
 2018-10-30 15:51:03  22 C   43 % 
 2018-10-30 15:41:25  22 C   43 % 
 2018-10-30 15:31:46  22 C   42 % 
 2018-10-30 15:22:10  22 C   42 % 
 2018-10-30 15:12:33  22 C   41 % 
 2018-10-30 14:53:09  22 C   40 % 
 2018-10-30 14:43:32  22 C   40 % 
 2018-10-30 14:33:55  22 C   40 % 
 2018-10-30 14:24:22  21 C   40 % 
 2018-10-30 14:14:37  21 C   40 % 
 2018-10-30 14:05:00  21 C   40 % 
 2018-10-30 13:55:23  21 C   40 % 
 2018-10-30 13:35:28  21 C   40 % 
 2018-10-30 13:25:49  21 C   40 % 
 2018-10-30 13:16:12  21 C   41 % 
 2018-10-30 13:06:38  21 C   41 % 
 2018-10-30 12:57:00  21 C   41 % 
 2018-10-30 12:47:20  21 C   41 % 
 2018-10-30 12:37:43  21 C   41 % 
 2018-10-30 12:28:07  21 C   41 % 
 2018-10-30 12:18:30  21 C   42 % 
 2018-10-30 12:08:54  21 C   42 % 
 2018-10-30 11:59:19  21 C   41 % 
 2018-10-30 11:49:37  21 C   41 % 
 2018-10-30 11:40:01  21 C   41 % 
 2018-10-30 11:30:25  21 C   41 % 
 2018-10-30 11:20:50  21 C   41 % 
 2018-10-30 10:42:12  21 C   41 % 
 2018-10-30 10:32:12  21 C   41 % 
 2018-10-30 10:22:39  21 C   41 % 
 2018-10-30 10:03:08  21 C   41 % 
 2018-10-30 09:53:26  21 C   41 % 
 2018-10-30 09:43:51  21 C   41 % 
 2018-10-30 09:24:32  21 C   41 % 
 2018-10-30 09:14:53  21 C   41 % 
 2018-10-30 09:05:16  21 C   41 % 
 2018-10-30 08:55:48  21 C   41 % 
 2018-10-30 08:45:43  21 C   41 % 
 2018-10-30 08:36:06  21 C   41 % 
 2018-10-30 08:26:30  21 C   41 % 
 2018-10-30 08:16:53  21 C   41 % 
 2018-10-30 08:07:12  21 C   41 % 
 2018-10-30 07:57:35  21 C   41 % 
 2018-10-30 07:48:00  21 C   41 % 
 2018-10-30 07:28:41  21 C   40 % 
 2018-10-30 07:09:13  21 C   40 % 
 2018-10-30 06:59:38  21 C   41 % 
 2018-10-30 06:40:26  21 C   41 % 
 2018-10-30 06:30:29  21 C   40 % 
 2018-10-30 06:20:58  21 C   40 % 
 2018-10-30 06:11:12  21 C   41 % 
 2018-10-30 06:01:38  21 C   41 % 
 2018-10-30 05:51:52  21 C   41 % 
 2018-10-30 05:42:15  21 C   41 % 
 2018-10-30 05:32:37  21 C   41 % 
 2018-10-30 05:22:59  21 C   40 % 
 2018-10-30 05:13:23  21 C   41 % 
 2018-10-30 05:03:46  21 C   41 % 
 2018-10-30 04:54:12  21 C   41 % 
 2018-10-30 04:44:29  22 C   41 % 
 2018-10-30 04:34:53  22 C   40 % 
 2018-10-30 04:14:57  22 C   41 % 
 2018-10-30 03:55:44  22 C   41 % 
 2018-10-30 03:46:04  22 C   40 % 
 2018-10-30 03:26:52  22 C   40 % 
 2018-10-30 03:17:15  22 C   40 % 
 2018-10-30 03:07:39  22 C   41 % 
 2018-10-30 02:57:59  22 C   40 % 
 2018-10-30 02:38:44  22 C   40 % 
 2018-10-30 02:29:07  22 C   40 % 
 2018-10-30 02:19:30  22 C   40 % 
 2018-10-30 02:00:17  22 C   40 % 
 2018-10-30 01:50:41  22 C   40 % 
 2018-10-30 01:41:03  22 C   40 % 
 2018-10-30 01:02:06  22 C   40 % 
 2018-10-30 00:52:32  22 C   40 % 
 2018-10-29 23:32:48  22 C   40 % 
 2018-10-29 23:23:12  22 C   40 % 
 2018-10-29 23:13:36  23 C   40 % 
 2018-10-29 22:53:44  23 C   40 % 
 2018-10-29 22:24:27  23 C   40 % 
 2018-10-29 22:14:50  23 C   40 % 
 2018-10-29 21:36:18  23 C   40 % 
 2018-10-29 21:07:14  23 C   40 % 
 2018-10-29 20:37:53  23 C   39 % 
 2018-10-29 19:47:58  23 C   40 % 
 2018-10-29 19:28:09  23 C   40 % 
 2018-10-29 18:47:57  23 C   40 % 
 2018-10-29 17:10:19  23 C   42 % 
 2018-10-29 15:41:50  23 C   41 % 
 2018-10-29 14:23:17  23 C   41 % 
 2018-10-29 12:44:28  23 C   40 % 
 2018-10-29 11:27:16  23 C   40 % 
 2018-10-29 11:17:39  23 C   40 % 
 2018-10-29 07:33:37  23 C   44 % 
 2018-10-29 07:24:06  23 C   43 % 
 2018-10-29 06:05:50  23 C   42 % 
 2018-10-29 05:17:03  23 C   42 % 
 2018-10-29 04:48:11  23 C   42 % 
 2018-10-29 03:40:26  23 C   42 % 
 2018-10-29 02:32:41  23 C   42 % 
 2018-10-29 01:53:33  24 C   41 % 
 2018-10-29 01:44:00  24 C   41 % 
 2018-10-28 21:04:38  24 C   41 % 
 2018-10-28 19:38:06  23 C   42 % 
 2018-10-28 19:28:08  23 C   43 % 
 2018-10-28 19:08:52  23 C   41 % 
 2018-10-28 18:59:17  23 C   41 % 
 2018-10-28 18:11:18  23 C   41 % 
 2018-10-28 18:01:35  23 C   41 % 
 2018-10-28 17:42:24  23 C   41 % 
 2018-10-28 17:32:50  23 C   41 % 
 2018-10-28 17:23:18  23 C   41 % 
 2018-10-28 17:13:29  23 C   42 % 
 2018-10-28 16:54:18  23 C   41 % 
 2018-10-28 16:15:09  23 C   42 % 
 2018-10-28 16:05:37  23 C   43 % 
 2018-10-28 15:56:03  23 C   43 % 
 2018-10-28 15:36:44  23 C   43 % 
 2018-10-28 14:58:18  23 C   42 % 
 2018-10-28 14:38:57  23 C   42 % 
 2018-10-28 14:29:14  23 C   42 % 
 2018-10-28 14:19:40  23 C   42 % 
 2018-10-28 13:50:50  23 C   42 % 
 2018-10-28 13:31:38  23 C   41 % 
 2018-10-28 13:02:50  23 C   42 % 
 2018-10-28 12:33:24  23 C   43 % 
 2018-10-28 12:14:13  23 C   45 % 
 2018-10-28 11:54:34  22 C   46 % 
 2018-10-28 11:45:06  22 C   47 % 
 2018-10-28 11:35:14  22 C   44 % 
 2018-10-28 11:25:34  22 C   44 % 
 2018-10-28 11:15:59  22 C   44 % 
 2018-10-28 10:56:43  22 C   54 % 
 2018-10-28 10:47:08  22 C   46 % 
 2018-10-28 10:37:32  21 C   44 % 
 2018-10-28 10:27:51  21 C   42 % 
 2018-10-28 09:58:59  21 C   43 % 
 2018-10-28 09:49:25  21 C   43 % 
 2018-10-28 09:39:49  21 C   43 % 
 2018-10-28 09:30:08  21 C   42 % 
 2018-10-28 09:20:34  21 C   42 % 
 2018-10-28 09:10:53  21 C   42 % 
 2018-10-28 09:01:15  21 C   42 % 
 2018-10-28 08:51:36  21 C   42 % 
 2018-10-28 08:41:58  21 C   42 % 
 2018-10-28 08:32:19  21 C   42 % 
 2018-10-28 08:22:46  21 C   42 % 
 2018-10-28 08:13:06  21 C   42 % 
 2018-10-28 08:03:33  21 C   42 % 
 2018-10-28 07:53:54  21 C   42 % 
 2018-10-28 07:44:14  21 C   42 % 
 2018-10-28 07:34:41  21 C   42 % 
 2018-10-28 07:25:02  21 C   42 % 
 2018-10-28 07:15:25  21 C   42 % 
 2018-10-28 07:05:45  21 C   42 % 
 2018-10-28 06:56:08  21 C   42 % 
 2018-10-28 06:46:29  21 C   42 % 
 2018-10-28 06:36:51  21 C   42 % 
 2018-10-28 06:27:12  21 C   42 % 
 2018-10-28 06:17:35  22 C   42 % 
 2018-10-28 06:08:00  22 C   42 % 
 2018-10-28 05:58:24  22 C   42 % 
 2018-10-28 05:48:42  22 C   42 % 
 2018-10-28 05:39:04  22 C   42 % 
 2018-10-28 05:29:25  22 C   42 % 
 2018-10-28 05:19:45  22 C   42 % 
 2018-10-28 05:10:09  22 C   42 % 
 2018-10-28 05:00:30  22 C   43 % 
 2018-10-28 04:50:53  22 C   43 % 
 2018-10-28 04:41:13  22 C   43 % 
 2018-10-28 04:31:34  22 C   43 % 
 2018-10-28 04:21:56  22 C   43 % 
 2018-10-28 04:02:41  22 C   43 % 
 2018-10-28 03:53:04  22 C   42 % 
 2018-10-28 03:43:28  22 C   42 % 
 2018-10-28 03:33:47  22 C   42 % 
 2018-10-28 03:24:07  22 C   43 % 
 2018-10-28 03:14:30  22 C   43 % 
 2018-10-28 03:04:50  22 C   42 % 
 2018-10-28 02:55:10  22 C   42 % 
 2018-10-28 02:45:32  22 C   42 % 
 2018-10-28 02:35:54  22 C   42 % 
 2018-10-28 02:26:15  22 C   42 % 
 2018-10-28 02:16:36  22 C   42 % 
 2018-10-28 02:06:58  22 C   42 % 
 2018-10-28 02:57:24  22 C   42 % 
 2018-10-28 02:47:47  22 C   42 % 
 2018-10-28 02:38:10  22 C   42 % 
 2018-10-28 02:28:29  23 C   42 % 
 2018-10-28 02:18:50  23 C   42 % 
 2018-10-28 02:09:15  23 C   42 % 
 2018-10-28 01:59:35  23 C   42 % 
 2018-10-28 01:49:55  23 C   42 % 
 2018-10-28 01:40:21  23 C   42 % 
 2018-10-28 01:30:44  23 C   42 % 
 2018-10-28 01:21:03  23 C   42 % 
 2018-10-28 01:11:24  23 C   42 % 
 2018-10-28 01:01:45  23 C   42 % 
 2018-10-28 00:52:17  23 C   42 % 
 2018-10-28 00:42:26  23 C   42 % 
 2018-10-28 00:23:10  23 C   42 % 
 2018-10-28 00:03:56  23 C   42 % 
 2018-10-27 23:34:32  23 C   41 % 
 2018-10-27 23:24:54  23 C   41 % 
 2018-10-27 23:15:14  23 C   41 % 
 2018-10-27 22:36:41  23 C   41 % 
 2018-10-27 22:17:30  23 C   41 % 
 2018-10-27 21:57:44  23 C   42 % 
 2018-10-27 21:48:02  23 C   42 % 
 2018-10-27 21:28:31  23 C   42 % 
 2018-10-27 21:09:21  22 C   43 % 
 2018-10-27 20:59:26  22 C   42 % 
 2018-10-27 20:49:46  22 C   42 % 
 2018-10-27 20:40:07  22 C   42 % 
 2018-10-27 20:30:27  22 C   42 % 
 2018-10-27 20:20:49  22 C   42 % 
 2018-10-27 20:01:33  22 C   42 % 
 2018-10-27 19:51:55  22 C   42 % 
 2018-10-27 19:42:16  22 C   42 % 
 2018-10-27 19:32:37  22 C   42 % 
 2018-10-27 19:22:58  22 C   42 % 
 2018-10-27 19:13:19  22 C   42 % 
 2018-10-27 19:03:39  22 C   41 % 
 2018-10-27 18:54:02  22 C   41 % 
 2018-10-27 18:44:24  22 C   41 % 
 2018-10-27 18:34:45  22 C   41 % 
 2018-10-27 18:25:05  22 C   41 % 
 2018-10-27 18:15:26  22 C   41 % 
 2018-10-27 18:05:47  23 C   41 % 
 2018-10-27 17:56:13  23 C   41 % 
 2018-10-27 17:46:35  23 C   41 % 
 2018-10-27 17:36:53  23 C   41 % 
 2018-10-27 17:27:13  22 C   42 % 
 2018-10-27 17:07:58  22 C   43 % 
 2018-10-27 16:58:19  22 C   43 % 
 2018-10-27 16:48:40  22 C   43 % 
 2018-10-27 16:39:02  22 C   43 % 
 2018-10-27 16:29:23  22 C   43 % 
 2018-10-27 16:19:44  22 C   43 % 
 2018-10-27 16:10:07  22 C   43 % 
 2018-10-27 16:00:27  22 C   43 % 
 2018-10-27 15:50:52  22 C   43 % 
 2018-10-27 15:41:17  22 C   43 % 
 2018-10-27 15:31:36  22 C   43 % 
 2018-10-27 15:21:56  22 C   43 % 
 2018-10-27 15:12:17  22 C   44 % 
 2018-10-27 15:02:38  22 C   44 % 
 2018-10-27 14:53:03  22 C   43 % 
 2018-10-27 14:43:22  22 C   43 % 
 2018-10-27 14:33:43  22 C   43 % 
 2018-10-27 14:24:04  22 C   43 % 
 2018-10-27 14:14:26  22 C   43 % 
 2018-10-27 14:04:46  22 C   43 % 
 2018-10-27 13:55:07  22 C   43 % 
 2018-10-27 13:45:28  22 C   43 % 
 2018-10-27 13:35:49  22 C   43 % 
 2018-10-27 13:26:09  22 C   43 % 
 2018-10-27 13:16:31  22 C   43 % 
 2018-10-27 13:06:51  22 C   43 % 
 2018-10-27 12:57:12  22 C   43 % 
 2018-10-27 12:47:33  22 C   43 % 
 2018-10-27 12:37:53  22 C   44 % 
 2018-10-27 12:28:14  22 C   44 % 
 2018-10-27 12:18:35  22 C   45 % 
 2018-10-27 12:08:56  22 C   45 % 
 2018-10-27 11:59:18  22 C   45 % 
 2018-10-27 11:49:38  22 C   46 % 
 2018-10-27 11:39:59  22 C   46 % 
 2018-10-27 11:30:19  22 C   46 % 
 2018-10-27 11:20:40  22 C   47 % 
 2018-10-27 11:11:05  22 C   48 % 
 2018-10-27 11:01:27  22 C   50 % 
 2018-10-27 10:51:48  22 C   50 % 
 2018-10-27 10:42:09  22 C   50 % 
 2018-10-27 10:32:30  22 C   47 % 
 2018-10-27 10:22:51  22 C   45 % 
 2018-10-27 10:13:13  22 C   44 % 
 2018-10-27 10:03:33  22 C   44 % 
 2018-10-27 09:53:55  22 C   44 % 
 2018-10-27 09:44:21  22 C   44 % 
 2018-10-27 09:34:44  22 C   44 % 
 2018-10-27 09:25:03  22 C   44 % 
 2018-10-27 09:15:24  22 C   44 % 
 2018-10-27 09:05:46  22 C   43 % 
 2018-10-27 08:56:07  22 C   44 % 
 2018-10-27 08:46:28  22 C   43 % 
 2018-10-27 08:36:49  22 C   43 % 
 2018-10-27 08:27:11  22 C   43 % 
 2018-10-27 08:17:34  22 C   43 % 
 2018-10-27 08:07:56  22 C   43 % 
 2018-10-27 07:58:24  22 C   43 % 
 2018-10-27 07:48:41  22 C   43 % 
 2018-10-27 07:39:01  22 C   43 % 
 2018-10-27 07:29:23  22 C   43 % 
 2018-10-27 07:19:45  22 C   43 % 
 2018-10-27 07:10:05  22 C   43 % 
 2018-10-27 07:00:26  22 C   43 % 
 2018-10-27 06:50:47  22 C   43 % 
 2018-10-27 06:41:08  22 C   43 % 
 2018-10-27 06:31:29  22 C   43 % 
 2018-10-27 06:21:49  22 C   43 % 
 2018-10-27 06:12:11  22 C   43 % 
 2018-10-27 06:02:31  22 C   43 % 
 2018-10-27 05:52:52  22 C   43 % 
 2018-10-27 05:43:13  22 C   43 % 
 2018-10-27 05:33:34  22 C   43 % 
 2018-10-27 05:23:55  22 C   43 % 
 2018-10-27 05:14:17  22 C   43 % 
 2018-10-27 05:04:37  23 C   43 % 
 2018-10-27 04:54:58  23 C   43 % 
 2018-10-27 04:45:18  23 C   43 % 
 2018-10-27 04:35:44  23 C   43 % 
 2018-10-27 04:26:03  23 C   43 % 
 2018-10-27 04:16:29  23 C   43 % 
 2018-10-27 04:06:49  23 C   43 % 
 2018-10-27 03:57:10  23 C   43 % 
 2018-10-27 03:47:32  23 C   43 % 
 2018-10-27 03:37:54  23 C   43 % 
 2018-10-27 03:28:19  23 C   43 % 
 2018-10-27 03:18:38  23 C   43 % 
 2018-10-27 03:09:04  23 C   43 % 
 2018-10-27 02:59:28  23 C   43 % 
 2018-10-27 02:49:50  23 C   43 % 
 2018-10-27 02:40:09  23 C   44 % 
 2018-10-27 02:30:41  23 C   43 % 
 2018-10-27 02:20:50  23 C   43 % 
 2018-10-27 02:11:11  23 C   43 % 
 2018-10-27 02:01:33  23 C   43 % 
 2018-10-27 01:51:54  23 C   43 % 
 2018-10-27 01:42:15  23 C   43 % 
 2018-10-27 01:32:36  23 C   43 % 
 2018-10-27 01:23:02  23 C   43 % 
 2018-10-27 01:13:21  23 C   43 % 
 2018-10-27 00:53:56  23 C   44 % 
 2018-10-27 00:44:21  23 C   44 % 
 2018-10-27 00:34:44  23 C   44 % 
 2018-10-27 00:25:11  23 C   43 % 
 2018-10-27 00:15:28  23 C   43 % 
 2018-10-27 00:05:50  23 C   43 % 
 2018-10-26 23:56:12  23 C   43 % 
 2018-10-26 23:46:34  23 C   43 % 
 2018-10-26 23:37:03  23 C   43 % 
 2018-10-26 23:27:18  23 C   43 % 
 2018-10-26 23:17:40  23 C   43 % 
 2018-10-26 22:58:29  23 C   42 % 
 2018-10-26 22:48:51  23 C   42 % 
 2018-10-26 22:39:15  23 C   43 % 
 2018-10-26 22:29:33  23 C   43 % 
 2018-10-26 22:19:56  23 C   42 % 
 2018-10-26 22:10:16  23 C   42 % 
 2018-10-26 22:00:40  23 C   42 % 
 2018-10-26 21:51:00  23 C   42 % 
 2018-10-26 21:41:22  23 C   43 % 
 2018-10-26 21:31:41  23 C   41 % 
 2018-10-26 21:22:02  22 C   40 % 
 2018-10-26 21:12:23  22 C   42 % 
 2018-10-26 21:02:45  23 C   46 % 
 2018-10-26 20:53:06  23 C   54 % 
 2018-10-26 20:43:29  23 C   53 % 
 2018-10-26 20:33:49  23 C   52 % 
 2018-10-26 20:24:09  22 C   44 % 
 2018-10-26 20:14:30  22 C   44 % 
 2018-10-26 20:04:50  22 C   46 % 
 2018-10-26 19:55:10  22 C   43 % 
 2018-10-26 19:45:31  22 C   43 % 
 2018-10-26 19:35:52  22 C   43 % 
 2018-10-26 19:26:13  22 C   43 % 
 2018-10-26 19:16:34  22 C   43 % 
 2018-10-26 19:06:54  22 C   43 % 
 2018-10-26 18:57:14  22 C   44 % 
 2018-10-26 18:47:35  22 C   45 % 
 2018-10-26 18:37:56  21 C   42 % 
 2018-10-26 18:28:17  21 C   43 % 
 2018-10-26 18:18:38  21 C   43 % 
 2018-10-26 18:09:01  21 C   42 % 
 2018-10-26 17:59:29  21 C   42 % 
 2018-10-26 17:49:46  21 C   42 % 
 2018-10-26 17:40:07  21 C   42 % 
 2018-10-26 17:30:30  21 C   42 % 
 2018-10-26 17:20:57  21 C   41 % 
 2018-10-26 17:11:21  21 C   41 % 
 2018-10-26 17:01:42  21 C   41 % 
 2018-10-26 16:52:03  21 C   41 % 
 2018-10-26 16:42:26  21 C   41 % 
 2018-10-26 16:32:47  21 C   41 % 
 2018-10-26 16:23:14  21 C   40 % 
 2018-10-26 16:13:33  21 C   41 % 
 2018-10-26 16:03:56  21 C   41 % 
 2018-10-26 15:54:18  21 C   41 % 
 2018-10-26 15:44:39  21 C   40 % 
 2018-10-26 15:35:12  21 C   41 % 
 2018-10-26 15:15:45  21 C   44 % 
 2018-10-26 15:06:06  21 C   46 % 
 2018-10-26 14:56:33  21 C   46 % 
 2018-10-26 14:46:53  22 C   46 % 
 2018-10-26 14:37:14  21 C   46 % 
 2018-10-26 14:17:59  21 C   46 % 
 2018-10-26 13:58:49  22 C   46 % 
 2018-10-26 13:49:13  21 C   45 % 
 2018-10-26 13:39:33  21 C   45 % 
 2018-10-26 13:29:55  21 C   45 % 
 2018-10-26 13:20:16  21 C   45 % 
 2018-10-26 13:10:38  21 C   45 % 
 2018-10-26 13:01:00  21 C   45 % 
 2018-10-26 12:51:21  21 C   45 % 
 2018-10-26 12:41:42  21 C   45 % 
 2018-10-26 12:32:04  21 C   45 % 
 2018-10-26 12:22:43  21 C   45 % 
 2018-10-26 12:12:28  21 C   45 % 
 2018-10-26 12:02:50  21 C   45 % 
 2018-10-26 11:53:14  21 C   45 % 
 2018-10-26 11:43:34  21 C   46 % 
 2018-10-26 11:33:59  21 C   45 % 
 2018-10-26 11:24:23  21 C   46 % 
 2018-10-26 11:14:42  21 C   46 % 
 2018-10-26 11:05:04  21 C   46 % 
 2018-10-26 10:55:25  21 C   46 % 
 2018-10-26 10:45:47  21 C   46 % 
 2018-10-26 10:36:07  21 C   46 % 
 2018-10-26 10:26:29  21 C   46 % 
 2018-10-26 10:16:51  21 C   46 % 
 2018-10-26 10:07:11  21 C   46 % 
 2018-10-26 09:57:33  22 C   46 % 
 2018-10-26 09:47:54  22 C   46 % 
 2018-10-26 09:38:17  22 C   46 % 
 2018-10-26 09:28:38  22 C   46 % 
 2018-10-26 09:19:01  22 C   47 % 
 2018-10-26 09:09:26  22 C   47 % 
 2018-10-26 08:59:45  22 C   47 % 
 2018-10-26 08:50:06  22 C   47 % 
 2018-10-26 08:40:27  22 C   47 % 
 2018-10-26 08:30:49  22 C   47 % 
 2018-10-26 08:21:11  22 C   47 % 
 2018-10-26 08:11:31  22 C   47 % 
 2018-10-26 08:01:57  22 C   47 % 
 2018-10-26 07:52:17  22 C   47 % 
 2018-10-26 07:42:38  22 C   47 % 
 2018-10-26 07:32:59  22 C   46 % 
 2018-10-26 07:23:20  22 C   46 % 
 2018-10-26 07:13:45  22 C   46 % 
 2018-10-26 07:04:11  22 C   46 % 
 2018-10-26 06:54:28  22 C   48 % 
 2018-10-26 06:44:50  22 C   46 % 
 2018-10-26 06:35:18  22 C   46 % 
 2018-10-26 06:25:35  22 C   46 % 
 2018-10-26 06:15:58  22 C   46 % 
 2018-10-26 05:56:47  22 C   46 % 
 2018-10-26 05:47:05  22 C   46 % 
 2018-10-26 05:37:26  22 C   46 % 
 2018-10-26 05:27:47  22 C   46 % 
 2018-10-26 05:18:14  22 C   46 % 
 2018-10-26 05:08:32  22 C   46 % 
 2018-10-26 04:58:58  22 C   46 % 
 2018-10-26 04:49:22  22 C   46 % 
 2018-10-26 04:39:48  22 C   46 % 
 2018-10-26 04:30:15  22 C   46 % 
 2018-10-26 04:20:28  22 C   46 % 
 2018-10-26 04:10:52  22 C   46 % 
 2018-10-26 03:51:36  22 C   46 % 
 2018-10-26 03:41:57  22 C   46 % 
 2018-10-26 03:32:23  22 C   46 % 
 2018-10-26 03:22:42  22 C   46 % 
 2018-10-26 03:13:04  22 C   46 % 
 2018-10-26 03:03:26  22 C   46 % 
 2018-10-26 02:53:46  22 C   46 % 
 2018-10-26 02:44:08  22 C   46 % 
 2018-10-26 02:34:41  22 C   46 % 
 2018-10-26 02:24:50  22 C   46 % 
 2018-10-26 02:05:36  22 C   46 % 
 2018-10-26 01:55:57  22 C   46 % 
 2018-10-26 01:46:19  22 C   46 % 
 2018-10-26 01:36:41  22 C   46 % 
 2018-10-26 01:27:03  22 C   46 % 
 2018-10-26 01:17:25  22 C   46 % 
 2018-10-26 01:07:50  22 C   46 % 
 2018-10-26 00:58:09  22 C   47 % 
 2018-10-26 00:48:33  22 C   47 % 
 2018-10-26 00:39:04  22 C   46 % 
 2018-10-26 00:29:16  22 C   46 % 
 2018-10-26 00:19:43  22 C   47 % 
 2018-10-26 00:10:00  22 C   47 % 
 2018-10-26 00:00:22  22 C   47 % 
 2018-10-25 23:50:47  22 C   47 % 
 2018-10-25 23:41:05  22 C   47 % 
 2018-10-25 23:31:38  22 C   47 % 
 2018-10-25 23:21:49  22 C   47 % 
 2018-10-25 23:12:10  22 C   47 % 
 2018-10-25 23:02:36  22 C   47 % 
 2018-10-25 22:52:54  22 C   47 % 
 2018-10-25 22:43:16  22 C   47 % 
 2018-10-25 22:33:37  22 C   47 % 
 2018-10-25 22:24:03  22 C   47 % 
 2018-10-25 22:04:51  22 C   47 % 
 2018-10-25 21:55:09  22 C   47 % 
 2018-10-25 21:45:30  22 C   47 % 
 2018-10-25 21:35:51  22 C   47 % 
 2018-10-25 21:26:13  22 C   47 % 
 2018-10-25 21:16:33  22 C   47 % 
 2018-10-25 21:06:55  22 C   47 % 
 2018-10-25 20:57:19  22 C   47 % 
 2018-10-25 20:47:42  22 C   47 % 
 2018-10-25 20:38:05  22 C   47 % 
 2018-10-25 20:28:31  22 C   47 % 
 2018-10-25 20:18:51  22 C   47 % 
 2018-10-25 20:09:20  22 C   47 % 
 2018-10-25 19:59:36  22 C   47 % 
 2018-10-25 19:49:56  22 C   47 % 
 2018-10-25 19:40:18  22 C   47 % 
 2018-10-25 19:30:42  22 C   47 % 
 2018-10-25 19:21:02  22 C   48 % 
 2018-10-25 19:11:23  22 C   48 % 
 2018-10-25 19:01:45  22 C   48 % 
 2018-10-25 18:52:08  22 C   48 % 
 2018-10-25 18:42:29  22 C   48 % 
 2018-10-25 18:32:54  22 C   48 % 
 2018-10-25 18:13:36  22 C   48 % 
 2018-10-25 18:04:03  22 C   56 % 
 2018-10-25 17:54:25  22 C   48 % 
 2018-10-25 17:44:44  22 C   48 % 
 2018-10-25 17:35:08  22 C   48 % 
 2018-10-25 17:25:30  22 C   48 % 
 2018-10-25 17:15:52  22 C   48 % 
 2018-10-25 16:56:35  22 C   49 % 
 2018-10-25 16:46:57  21 C   49 % 
 2018-10-25 16:37:23  21 C   49 % 
 2018-10-25 16:27:43  22 C   49 % 
 2018-10-25 16:18:12  22 C   49 % 
 2018-10-25 16:08:29  22 C   49 % 
 2018-10-25 15:58:52  22 C   49 % 
 2018-10-25 15:49:19  22 C   49 % 
 2018-10-25 15:39:38  22 C   49 % 
 2018-10-25 15:29:58  21 C   50 % 
 2018-10-25 15:10:43  21 C   50 % 
 2018-10-25 15:01:11  21 C   50 % 
 2018-10-25 14:51:33  22 C   50 % 
 2018-10-25 14:41:59  22 C   50 % 
 2018-10-25 14:32:17  22 C   50 % 
 2018-10-25 14:22:38  22 C   49 % 
 2018-10-25 14:13:06  21 C   50 % 
 2018-10-25 14:03:24  21 C   50 % 
 2018-10-25 13:53:44  21 C   50 % 
 2018-10-25 13:44:09  21 C   49 % 
 2018-10-25 13:34:32  22 C   49 % 
 2018-10-25 13:24:52  22 C   48 % 
 2018-10-25 13:15:17  22 C   47 % 
 2018-10-25 12:56:00  21 C   47 % 
 2018-10-25 12:46:24  21 C   48 % 
 2018-10-25 12:36:44  21 C   48 % 
 2018-10-25 12:27:06  21 C   47 % 
 2018-10-25 12:17:27  21 C   48 % 
 2018-10-25 12:07:48  21 C   48 % 
 2018-10-25 11:58:09  21 C   48 % 
 2018-10-25 11:48:30  21 C   48 % 
 2018-10-25 11:38:53  21 C   48 % 
 2018-10-25 11:29:14  21 C   48 % 
 2018-10-25 11:19:41  21 C   48 % 
 2018-10-25 11:09:59  21 C   48 % 
 2018-10-25 11:00:22  21 C   48 % 
 2018-10-25 10:50:46  21 C   48 % 
 2018-10-25 10:41:06  22 C   48 % 
 2018-10-25 10:31:30  22 C   48 % 
 2018-10-25 10:21:51  22 C   48 % 
 2018-10-25 10:12:18  22 C   48 % 
 2018-10-25 10:02:38  21 C   49 % 
 2018-10-25 09:53:01  21 C   49 % 
 2018-10-25 09:43:21  21 C   49 % 
 2018-10-25 09:33:48  22 C   49 % 
 2018-10-25 09:24:10  22 C   49 % 
 2018-10-25 09:14:30  22 C   49 % 
 2018-10-25 09:04:55  22 C   49 % 
 2018-10-25 08:45:45  21 C   49 % 
 2018-10-25 08:36:06  21 C   49 % 
 2018-10-25 08:26:26  21 C   48 % 
 2018-10-25 08:16:49  22 C   49 % 
 2018-10-25 08:07:15  22 C   48 % 
 2018-10-25 07:57:34  22 C   48 % 
 2018-10-25 07:47:56  22 C   48 % 
 2018-10-25 07:38:16  22 C   48 % 
 2018-10-25 07:28:41  21 C   48 % 
 2018-10-25 07:19:02  21 C   49 % 
 2018-10-25 07:09:24  21 C   49 % 
 2018-10-25 06:59:44  21 C   48 % 
 2018-10-25 06:50:11  21 C   47 % 
 2018-10-25 06:40:32  21 C   46 % 
 2018-10-25 06:30:55  21 C   46 % 
 2018-10-25 06:21:16  21 C   46 % 
 2018-10-25 06:11:37  21 C   46 % 
 2018-10-25 06:01:58  21 C   46 % 
 2018-10-25 05:52:19  21 C   46 % 
 2018-10-25 05:42:41  21 C   46 % 
 2018-10-25 05:33:03  21 C   47 % 
 2018-10-25 05:23:23  21 C   46 % 
 2018-10-25 05:13:49  21 C   46 % 
 2018-10-25 05:04:08  21 C   46 % 
 2018-10-25 04:54:29  21 C   46 % 
 2018-10-25 04:44:55  21 C   46 % 
 2018-10-25 04:35:18  21 C   46 % 
 2018-10-25 04:25:37  21 C   46 % 
 2018-10-25 04:15:59  21 C   46 % 
 2018-10-25 04:06:24  21 C   46 % 
 2018-10-25 03:47:09  21 C   46 % 
 2018-10-25 03:37:29  21 C   46 % 
 2018-10-25 03:27:51  21 C   46 % 
 2018-10-25 03:18:17  21 C   46 % 
 2018-10-25 03:08:37  21 C   46 % 
 2018-10-25 02:58:59  22 C   46 % 
 2018-10-25 02:49:20  22 C   46 % 
 2018-10-25 02:39:41  22 C   46 % 
 2018-10-25 02:30:08  22 C   46 % 
 2018-10-25 02:20:27  22 C   46 % 
 2018-10-25 02:10:48  22 C   46 % 
 2018-10-25 02:01:09  22 C   46 % 
 2018-10-25 01:51:36  22 C   46 % 
 2018-10-25 01:41:58  22 C   46 % 
 2018-10-25 01:32:17  22 C   46 % 
 2018-10-25 01:22:38  22 C   46 % 
 2018-10-25 01:12:59  22 C   46 % 
 2018-10-25 01:03:20  22 C   46 % 
 2018-10-25 00:53:41  22 C   46 % 
 2018-10-25 00:44:05  22 C   46 % 
 2018-10-25 00:34:26  22 C   46 % 
 2018-10-25 00:24:47  22 C   46 % 
 2018-10-25 00:15:09  22 C   46 % 
 2018-10-25 00:05:32  22 C   46 % 
 2018-10-24 23:55:53  22 C   46 % 
 2018-10-24 23:46:26  22 C   46 % 
 2018-10-24 23:36:16  22 C   46 % 
 2018-10-24 23:26:37  22 C   46 % 
 2018-10-24 23:16:59  22 C   46 % 
 2018-10-24 23:07:22  22 C   46 % 
 2018-10-24 22:38:31  22 C   46 % 
 2018-10-24 22:28:55  22 C   46 % 
 2018-10-24 22:19:18  22 C   46 % 
 2018-10-24 22:00:11  22 C   46 % 
 2018-10-24 21:50:31  22 C   46 % 
 2018-10-24 21:40:50  22 C   46 % 
 2018-10-24 21:31:12  22 C   46 % 
 2018-10-24 21:21:33  22 C   46 % 
 2018-10-24 20:52:50  22 C   46 % 
 2018-10-24 20:43:06  22 C   46 % 
 2018-10-24 20:33:27  22 C   46 % 
 2018-10-24 20:23:55  22 C   46 % 
 2018-10-24 20:14:12  22 C   46 % 
 2018-10-24 19:54:58  22 C   46 % 
 2018-10-24 19:45:19  22 C   46 % 
 2018-10-24 19:35:42  22 C   46 % 
 2018-10-24 19:26:03  22 C   46 % 
 2018-10-24 19:16:24  22 C   47 % 
 2018-10-24 19:06:45  22 C   47 % 
 2018-10-24 18:57:10  22 C   47 % 
 2018-10-24 18:37:53  22 C   48 % 
 2018-10-24 18:28:13  22 C   48 % 
 2018-10-24 18:18:35  22 C   49 % 
 2018-10-24 18:08:56  22 C   49 % 
 2018-10-24 17:59:16  22 C   49 % 
 2018-10-24 17:49:38  22 C   48 % 
 2018-10-24 17:40:12  21 C   49 % 
 2018-10-24 17:30:16  21 C   47 % 
 2018-10-24 17:11:02  21 C   47 % 
 2018-10-24 17:01:22  21 C   47 % 
 2018-10-24 16:51:54  21 C   46 % 
 2018-10-24 16:42:07  21 C   47 % 
 2018-10-24 16:32:32  21 C   46 % 
 2018-10-24 16:22:56  21 C   46 % 
 2018-10-24 16:13:15  21 C   47 % 
 2018-10-24 16:03:36  21 C   46 % 
 2018-10-24 15:53:57  21 C   46 % 
 2018-10-24 15:44:19  21 C   46 % 
 2018-10-24 15:34:45  21 C   46 % 
 2018-10-24 15:25:08  21 C   46 % 
 2018-10-24 15:15:27  21 C   46 % 
 2018-10-24 15:05:48  21 C   46 % 
 2018-10-24 14:56:14  21 C   46 % 
 2018-10-24 14:46:34  21 C   46 % 
 2018-10-24 14:36:59  21 C   46 % 
 2018-10-24 14:27:22  21 C   46 % 
 2018-10-24 14:17:47  21 C   46 % 
 2018-10-24 13:58:30  21 C   46 % 
 2018-10-24 13:49:00  21 C   46 % 
 2018-10-24 13:39:14  21 C   46 % 
 2018-10-24 13:29:37  21 C   46 % 
 2018-10-24 13:20:03  21 C   46 % 
 2018-10-24 13:10:22  21 C   46 % 
 2018-10-24 13:00:49  21 C   46 % 
 2018-10-24 12:51:09  21 C   46 % 
 2018-10-24 12:41:30  21 C   46 % 
 2018-10-24 12:31:51  21 C   47 % 
 2018-10-24 12:22:12  21 C   47 % 
 2018-10-24 12:12:33  21 C   47 % 
 2018-10-24 12:02:58  21 C   47 % 
 2018-10-24 11:53:18  21 C   47 % 
 2018-10-24 11:43:45  21 C   47 % 
 2018-10-24 11:34:04  21 C   47 % 
 2018-10-24 11:24:25  21 C   46 % 
 2018-10-24 11:14:50  21 C   46 % 
 2018-10-24 11:05:10  21 C   46 % 
 2018-10-24 10:55:31  21 C   47 % 
 2018-10-24 10:46:00  21 C   47 % 
 2018-10-24 10:36:18  21 C   47 % 
 2018-10-24 10:26:39  21 C   47 % 
 2018-10-24 10:17:08  21 C   47 % 
 2018-10-24 10:07:26  21 C   47 % 
 2018-10-24 09:57:50  21 C   47 % 
 2018-10-24 09:48:08  21 C   47 % 
 2018-10-24 09:38:31  21 C   47 % 
 2018-10-24 09:28:56  21 C   47 % 
 2018-10-24 09:19:18  21 C   47 % 
 2018-10-24 09:09:43  21 C   47 % 
 2018-10-24 09:00:08  21 C   47 % 
 2018-10-24 08:50:27  21 C   47 % 
 2018-10-24 08:40:47  21 C   47 % 
 2018-10-24 08:31:08  21 C   47 % 
 2018-10-24 08:21:29  21 C   47 % 
 2018-10-24 08:11:51  21 C   47 % 
 2018-10-24 08:02:13  21 C   48 % 
 2018-10-24 07:52:33  21 C   48 % 
 2018-10-24 07:42:54  21 C   48 % 
 2018-10-24 07:33:19  21 C   48 % 
 2018-10-24 07:23:44  21 C   48 % 
 2018-10-24 07:04:24  21 C   48 % 
 2018-10-24 06:54:51  21 C   48 % 
 2018-10-24 06:45:12  21 C   48 % 
 2018-10-24 06:35:36  21 C   47 % 
 2018-10-24 06:25:56  21 C   47 % 
 2018-10-24 06:16:26  21 C   47 % 
 2018-10-24 05:57:07  21 C   47 % 
 2018-10-24 05:47:32  21 C   47 % 
 2018-10-24 05:37:52  21 C   48 % 
 2018-10-24 05:28:14  21 C   47 % 
 2018-10-24 05:18:35  21 C   47 % 
 2018-10-24 05:08:56  21 C   48 % 
 2018-10-24 04:59:19  21 C   47 % 
 2018-10-24 04:40:04  21 C   48 % 
 2018-10-24 04:30:25  21 C   48 % 
 2018-10-24 04:20:47  21 C   48 % 
 2018-10-24 04:11:14  21 C   48 % 
 2018-10-24 04:01:38  21 C   47 % 
 2018-10-24 03:52:02  21 C   48 % 
 2018-10-24 03:42:24  21 C   48 % 
 2018-10-24 03:32:43  21 C   48 % 
 2018-10-24 03:23:05  21 C   47 % 
 2018-10-24 03:13:26  21 C   47 % 
 2018-10-24 03:03:51  21 C   47 % 
 2018-10-24 02:54:11  21 C   47 % 
 2018-10-24 02:44:33  21 C   47 % 
 2018-10-24 02:34:54  21 C   48 % 
 2018-10-24 02:25:18  21 C   48 % 
 2018-10-24 02:15:40  21 C   48 % 
 2018-10-24 01:56:24  21 C   48 % 
 2018-10-24 01:46:51  21 C   48 % 
 2018-10-24 01:37:09  21 C   48 % 
 2018-10-24 01:27:30  21 C   47 % 
 2018-10-24 01:17:52  21 C   48 % 
 2018-10-24 01:08:15  21 C   47 % 
 2018-10-24 00:58:38  21 C   48 % 
 2018-10-24 00:48:59  21 C   48 % 
 2018-10-24 00:29:44  22 C   48 % 
 2018-10-24 00:20:05  22 C   48 % 
 2018-10-24 00:10:29  22 C   48 % 
 2018-10-24 00:00:54  22 C   48 % 
 2018-10-23 23:51:17  22 C   48 % 
 2018-10-23 23:41:38  22 C   48 % 
 2018-10-23 23:32:00  22 C   48 % 
 2018-10-23 23:22:22  22 C   48 % 
 2018-10-23 23:12:43  22 C   48 % 
 2018-10-23 23:03:17  22 C   48 % 
 2018-10-23 22:53:26  22 C   48 % 
 2018-10-23 22:43:46  22 C   48 % 
 2018-10-23 22:34:11  22 C   48 % 
 2018-10-23 22:24:31  22 C   48 % 
 2018-10-23 22:14:58  22 C   48 % 
 2018-10-23 21:46:03  22 C   48 % 
 2018-10-23 21:36:24  22 C   48 % 
 2018-10-23 21:26:47  22 C   48 % 
 2018-10-23 21:07:50  22 C   48 % 
 2018-10-23 20:57:39  22 C   48 % 
 2018-10-23 20:47:58  22 C   48 % 
 2018-10-23 20:38:22  22 C   48 % 
 2018-10-23 20:28:43  22 C   48 % 
 2018-10-23 20:19:08  22 C   49 % 
 2018-10-23 20:09:31  22 C   49 % 
 2018-10-23 19:50:14  22 C   49 % 
 2018-10-23 19:40:36  22 C   49 % 
 2018-10-23 19:30:58  22 C   49 % 
 2018-10-23 19:21:23  22 C   49 % 
 2018-10-23 19:11:44  22 C   48 % 
 2018-10-23 19:02:15  22 C   49 % 
 2018-10-23 18:52:38  22 C   47 % 
 2018-10-23 18:42:48  22 C   46 % 
 2018-10-23 18:33:11  22 C   46 % 
 2018-10-23 18:23:37  22 C   45 % 
 2018-10-23 18:14:07  22 C   45 % 
 2018-10-23 18:04:20  21 C   44 % 
 2018-10-23 17:54:52  21 C   43 % 
 2018-10-23 17:45:01  21 C   43 % 
 2018-10-23 17:35:25  21 C   42 % 
 2018-10-23 17:25:48  21 C   41 % 
 2018-10-23 17:16:09  22 C   48 % 
 2018-10-23 17:06:31  22 C   49 % 
 2018-10-23 16:56:59  22 C   49 % 
 2018-10-23 16:47:22  22 C   49 % 
 2018-10-23 16:37:53  22 C   49 % 
 2018-10-23 16:28:04  22 C   49 % 
 2018-10-23 16:18:31  22 C   49 % 
 2018-10-23 16:08:49  22 C   49 % 
 2018-10-23 15:59:12  22 C   49 % 
 2018-10-23 15:49:36  22 C   49 % 
 2018-10-23 15:39:55  22 C   48 % 
 2018-10-23 15:30:22  22 C   49 % 
 2018-10-23 15:20:46  22 C   49 % 
 2018-10-23 14:42:17  22 C   48 % 
 2018-10-23 14:32:39  22 C   48 % 
 2018-10-23 14:23:00  22 C   48 % 
 2018-10-23 14:13:21  22 C   47 % 
 2018-10-23 13:54:09  23 C   46 % 
 2018-10-23 13:44:31  24 C   44 % 
 2018-10-23 13:24:50  22 C   49 % 
 2018-10-23 13:15:11  22 C   49 % 
 2018-10-23 13:05:36  22 C   49 % 
 2018-10-23 12:55:57  22 C   48 % 
 2018-10-23 12:36:49  22 C   48 % 
 2018-10-23 12:27:10  22 C   48 % 
 2018-10-23 12:17:35  22 C   48 % 
 2018-10-23 11:58:27  22 C   48 % 
 2018-10-23 11:48:43  22 C   48 % 
 2018-10-23 11:29:30  22 C   48 % 
 2018-10-23 11:19:55  22 C   48 % 
 2018-10-23 11:10:19  22 C   48 % 
 2018-10-23 10:51:08  22 C   48 % 
 2018-10-23 10:41:31  22 C   48 % 
 2018-10-23 10:31:49  22 C   48 % 
 2018-10-23 10:22:10  22 C   48 % 
 2018-10-23 10:12:32  22 C   48 % 
 2018-10-23 10:02:53  22 C   48 % 
 2018-10-23 09:53:25  22 C   48 % 
 2018-10-23 09:43:45  22 C   48 % 
 2018-10-23 09:33:54  22 C   48 % 
 2018-10-23 09:24:18  22 C   48 % 
 2018-10-23 09:14:47  22 C   48 % 
 2018-10-23 09:05:09  22 C   48 % 
 2018-10-23 08:55:35  22 C   48 % 
 2018-10-23 08:46:01  22 C   48 % 
 2018-10-23 08:36:19  22 C   48 % 
 2018-10-23 08:26:42  22 C   48 % 
 2018-10-23 08:17:13  22 C   48 % 
 2018-10-23 07:57:59  22 C   48 % 
 2018-10-23 07:48:21  22 C   49 % 
 2018-10-23 07:38:50  22 C   48 % 
 2018-10-23 07:19:32  22 C   49 % 
 2018-10-23 07:09:57  22 C   49 % 
 2018-10-23 07:00:22  22 C   49 % 
 2018-10-23 06:50:47  22 C   50 % 
 2018-10-23 06:31:38  22 C   49 % 
 2018-10-23 06:12:22  22 C   49 % 
 2018-10-23 06:02:52  22 C   49 % 
 2018-10-23 05:53:13  22 C   49 % 
 2018-10-23 05:43:39  22 C   49 % 
 2018-10-23 05:24:29  22 C   49 % 
 2018-10-23 05:14:50  22 C   49 % 
 2018-10-23 05:05:20  22 C   49 % 
 2018-10-23 04:55:42  22 C   49 % 
 2018-10-23 04:46:07  22 C   49 % 
 2018-10-23 04:26:57  22 C   49 % 
 2018-10-23 04:07:42  22 C   49 % 
 2018-10-23 03:48:33  22 C   49 % 
 2018-10-23 03:38:49  22 C   49 % 
 2018-10-23 03:29:13  22 C   49 % 
 2018-10-23 03:19:32  22 C   49 % 
 2018-10-23 03:09:59  22 C   49 % 
 2018-10-23 03:00:18  22 C   49 % 
 2018-10-23 02:50:42  22 C   49 % 
 2018-10-23 02:41:02  22 C   49 % 
 2018-10-23 02:31:24  22 C   49 % 
 2018-10-23 02:21:46  22 C   49 % 
 2018-10-23 02:12:08  22 C   49 % 
 2018-10-23 02:02:29  22 C   49 % 
 2018-10-23 01:52:56  22 C   49 % 
 2018-10-23 01:43:15  22 C   49 % 
 2018-10-23 01:33:47  22 C   49 % 
 2018-10-23 01:24:09  22 C   49 % 
 2018-10-23 01:14:22  22 C   49 % 
 2018-10-23 00:55:09  22 C   49 % 
 2018-10-23 00:45:29  22 C   49 % 
 2018-10-23 00:26:14  22 C   49 % 
 2018-10-23 00:16:35  22 C   49 % 
 2018-10-23 00:07:00  22 C   49 % 
 2018-10-22 23:57:20  22 C   49 % 
 2018-10-22 23:47:42  22 C   49 % 
 2018-10-22 23:38:02  22 C   49 % 
 2018-10-22 23:28:23  22 C   49 % 
 2018-10-22 23:18:46  22 C   48 % 
 2018-10-22 23:09:07  22 C   48 % 
 2018-10-22 22:59:28  22 C   48 % 
 2018-10-22 22:49:49  22 C   48 % 
 2018-10-22 22:40:10  22 C   48 % 
 2018-10-22 22:30:31  22 C   48 % 
 2018-10-22 22:20:52  22 C   48 % 
 2018-10-22 22:11:14  22 C   48 % 
 2018-10-22 22:01:35  22 C   48 % 
 2018-10-22 21:51:56  22 C   48 % 
 2018-10-22 21:42:21  22 C   48 % 
 2018-10-22 21:32:41  22 C   48 % 
 2018-10-22 21:23:10  22 C   48 % 
 2018-10-22 21:13:27  22 C   48 % 
 2018-10-22 21:03:55  22 C   48 % 
 2018-10-22 20:54:16  22 C   48 % 
 2018-10-22 20:44:36  22 C   48 % 
 2018-10-22 20:35:01  22 C   48 % 
 2018-10-22 20:25:27  22 C   48 % 
 2018-10-22 20:15:50  22 C   48 % 
 2018-10-22 20:06:14  22 C   48 % 
 2018-10-22 19:47:01  22 C   47 % 
 2018-10-22 19:37:25  22 C   45 % 
 2018-10-22 19:27:44  23 C   51 % 
 2018-10-22 19:18:05  22 C   50 % 
 2018-10-22 19:08:33  22 C   50 % 
 2018-10-22 18:49:25  22 C   52 % 
 2018-10-22 18:39:39  22 C   51 % 
 2018-10-22 18:29:58  22 C   51 % 
 2018-10-22 18:20:20  22 C   50 % 
 2018-10-22 18:10:41  22 C   50 % 
 2018-10-22 18:01:01  22 C   50 % 
 2018-10-22 17:51:22  22 C   49 % 
 2018-10-22 17:41:43  22 C   50 % 
 2018-10-22 17:32:05  22 C   50 % 
 2018-10-22 17:12:49  22 C   50 % 
 2018-10-22 17:03:10  22 C   50 % 
 2018-10-22 16:53:31  22 C   49 % 
 2018-10-22 16:43:51  22 C   49 % 
 2018-10-22 16:34:13  22 C   49 % 
 2018-10-22 16:24:34  22 C   49 % 
 2018-10-22 16:14:58  22 C   49 % 
 2018-10-22 16:05:23  22 C   49 % 
 2018-10-22 15:55:46  22 C   49 % 
 2018-10-22 15:46:06  22 C   49 % 
 2018-10-22 15:36:31  22 C   49 % 
 2018-10-22 15:26:54  22 C   49 % 
 2018-10-22 15:17:17  22 C   49 % 
 2018-10-22 15:07:37  22 C   49 % 
 2018-10-22 14:58:04  22 C   49 % 
 2018-10-22 14:48:23  22 C   49 % 
 2018-10-22 14:38:44  22 C   49 % 
 2018-10-22 14:29:06  22 C   49 % 
 2018-10-22 14:19:27  22 C   49 % 
 2018-10-22 14:09:50  22 C   49 % 
 2018-10-22 14:00:11  22 C   49 % 
 2018-10-22 13:50:32  22 C   49 % 
 2018-10-22 13:40:59  22 C   49 % 
 2018-10-22 13:31:22  22 C   49 % 
 2018-10-22 13:21:42  22 C   49 % 
 2018-10-22 13:12:03  22 C   49 % 
 2018-10-22 13:02:24  22 C   49 % 
 2018-10-22 12:52:49  22 C   49 % 
 2018-10-22 12:43:09  22 C   48 % 
 2018-10-22 12:33:30  22 C   49 % 
 2018-10-22 12:14:30  22 C   49 % 
 2018-10-22 12:04:27  22 C   49 % 
 2018-10-22 11:54:53  22 C   49 % 
 2018-10-22 11:45:11  22 C   49 % 
 2018-10-22 11:35:32  22 C   49 % 
 2018-10-22 11:25:54  22 C   49 % 
 2018-10-22 11:16:15  22 C   49 % 
 2018-10-22 11:06:35  22 C   50 % 
 2018-10-22 10:56:57  22 C   50 % 
 2018-10-22 10:47:18  22 C   50 % 
 2018-10-22 10:37:40  22 C   50 % 
 2018-10-22 10:28:01  22 C   50 % 
 2018-10-22 10:18:22  22 C   50 % 
 2018-10-22 10:08:46  22 C   50 % 
 2018-10-22 09:59:07  22 C   50 % 
 2018-10-22 09:49:27  22 C   49 % 
 2018-10-22 09:39:50  22 C   50 % 
 2018-10-22 09:30:11  22 C   50 % 
 2018-10-22 09:20:37  22 C   50 % 
 2018-10-22 09:10:57  22 C   49 % 
 2018-10-22 09:01:18  22 C   49 % 
 2018-10-22 08:51:39  22 C   49 % 
 2018-10-22 08:42:00  22 C   49 % 
 2018-10-22 08:32:22  22 C   49 % 
 2018-10-22 08:22:42  22 C   50 % 
 2018-10-22 08:13:07  22 C   50 % 
 2018-10-22 08:03:27  22 C   50 % 
 2018-10-22 07:53:54  22 C   50 % 
 2018-10-22 07:44:17  22 C   50 % 
 2018-10-22 07:34:36  22 C   50 % 
 2018-10-22 07:24:57  22 C   50 % 
 2018-10-22 07:15:22  22 C   50 % 
 2018-10-22 07:05:42  22 C   50 % 
 2018-10-22 06:56:03  22 C   50 % 
 2018-10-22 06:46:24  22 C   50 % 
 2018-10-22 06:36:45  22 C   50 % 
 2018-10-22 06:27:10  22 C   50 % 
 2018-10-22 06:17:30  22 C   50 % 
 2018-10-22 05:58:15  22 C   50 % 
 2018-10-22 05:48:36  22 C   50 % 
 2018-10-22 05:38:57  22 C   50 % 
 2018-10-22 05:29:23  22 C   50 % 
 2018-10-22 05:19:42  22 C   50 % 
 2018-10-22 05:10:04  22 C   50 % 
 2018-10-22 05:00:26  22 C   50 % 
 2018-10-22 04:50:47  22 C   50 % 
 2018-10-22 04:41:09  22 C   50 % 
 2018-10-22 04:31:29  22 C   50 % 
 2018-10-22 04:21:55  22 C   50 % 
 2018-10-22 03:53:02  22 C   50 % 
 2018-10-22 03:43:23  22 C   50 % 
 2018-10-22 03:33:44  22 C   50 % 
 2018-10-22 03:24:05  22 C   50 % 
 2018-10-22 03:14:25  22 C   50 % 
 2018-10-22 03:04:46  22 C   50 % 
 2018-10-22 02:55:07  22 C   50 % 
 2018-10-22 02:45:27  22 C   50 % 
 2018-10-22 02:35:49  22 C   50 % 
 2018-10-22 02:26:10  22 C   50 % 
 2018-10-22 02:16:35  22 C   50 % 
 2018-10-22 01:57:18  22 C   50 % 
 2018-10-22 01:47:39  22 C   50 % 
 2018-10-22 01:38:00  22 C   50 % 
 2018-10-22 01:28:21  22 C   50 % 
 2018-10-22 01:18:42  22 C   50 % 
 2018-10-22 01:09:03  22 C   50 % 
 2018-10-22 00:59:24  22 C   50 % 
 2018-10-22 00:49:44  22 C   50 % 
 2018-10-22 00:40:10  22 C   50 % 
 2018-10-22 00:30:32  22 C   50 % 
 2018-10-22 00:20:51  22 C   50 % 
 2018-10-22 00:11:12  22 C   50 % 
 2018-10-22 00:01:33  23 C   50 % 
 2018-10-21 23:51:57  23 C   50 % 
 2018-10-21 23:42:17  23 C   50 % 
 2018-10-21 23:32:37  23 C   50 % 
 2018-10-21 23:13:30  23 C   50 % 
 2018-10-21 23:03:47  23 C   50 % 
 2018-10-21 22:54:08  23 C   50 % 
 2018-10-21 22:44:28  23 C   50 % 
 2018-10-21 22:34:49  23 C   50 % 
 2018-10-21 22:25:12  23 C   50 % 
 2018-10-21 22:15:32  23 C   50 % 
 2018-10-21 21:56:16  23 C   50 % 
 2018-10-21 21:46:41  23 C   50 % 
 2018-10-21 21:37:00  23 C   50 % 
 2018-10-21 21:27:22  23 C   50 % 
 2018-10-21 21:17:42  23 C   50 % 
 2018-10-21 21:08:07  23 C   50 % 
 2018-10-21 20:48:50  23 C   50 % 
 2018-10-21 20:39:12  23 C   50 % 
 2018-10-21 20:19:40  23 C   50 % 
 2018-10-21 20:00:23  23 C   50 % 
 2018-10-21 19:50:49  23 C   50 % 
 2018-10-21 19:41:14  23 C   50 % 
 2018-10-21 19:31:31  23 C   50 % 
 2018-10-21 19:21:53  23 C   50 % 
 2018-10-21 19:12:14  23 C   51 % 
 2018-10-21 19:02:43  23 C   51 % 
 2018-10-21 18:52:54  23 C   51 % 
 2018-10-21 18:43:13  22 C   51 % 
 2018-10-21 18:33:34  22 C   51 % 
 2018-10-21 18:24:00  22 C   51 % 
 2018-10-21 18:14:23  22 C   52 % 
 2018-10-21 18:04:41  22 C   53 % 
 2018-10-21 17:55:03  22 C   54 % 
 2018-10-21 17:45:23  22 C   55 % 
 2018-10-21 17:35:49  22 C   56 % 
 2018-10-21 17:26:12  22 C   51 % 
 2018-10-21 17:16:32  22 C   51 % 
 2018-10-21 17:06:57  22 C   51 % 
 2018-10-21 16:57:20  22 C   51 % 
 2018-10-21 16:47:45  22 C   51 % 
 2018-10-21 16:38:05  22 C   51 % 
 2018-10-21 16:18:56  22 C   51 % 
 2018-10-21 16:09:18  22 C   51 % 
 2018-10-21 15:59:42  22 C   51 % 
 2018-10-21 15:50:01  22 C   51 % 
 2018-10-21 15:40:25  22 C   51 % 
 2018-10-21 15:30:45  22 C   51 % 
 2018-10-21 15:21:08  22 C   51 % 
 2018-10-21 15:11:40  22 C   51 % 
 2018-10-21 14:42:37  22 C   51 % 
 2018-10-21 14:32:59  22 C   51 % 
 2018-10-21 14:23:23  22 C   51 % 
 2018-10-21 14:13:42  22 C   51 % 
 2018-10-21 13:44:39  21 C   50 % 
 2018-10-21 13:35:06  21 C   50 % 
 2018-10-21 13:06:24  21 C   50 % 
 2018-10-21 12:46:58  21 C   50 % 
 2018-10-21 12:37:19  21 C   50 % 
 2018-10-21 11:58:52  21 C   50 % 
 2018-10-21 11:49:20  21 C   49 % 
 2018-10-21 11:30:02  21 C   49 % 
 2018-10-21 11:10:48  21 C   49 % 
 2018-10-21 11:01:10  21 C   49 % 
 2018-10-21 10:51:37  21 C   49 % 
 2018-10-21 10:42:06  21 C   49 % 
 2018-10-21 10:32:16  21 C   49 % 
 2018-10-21 10:22:41  21 C   49 % 
 2018-10-21 10:13:01  21 C   49 % 
 2018-10-21 09:44:16  21 C   49 % 
 2018-10-21 09:34:34  21 C   49 % 
 2018-10-21 09:24:56  21 C   49 % 
 2018-10-21 09:15:16  21 C   49 % 
 2018-10-21 09:05:43  21 C   49 % 
 2018-10-21 08:56:02  21 C   49 % 
 2018-10-21 08:46:29  21 C   49 % 
 2018-10-21 08:36:48  21 C   49 % 
 2018-10-21 08:27:09  21 C   49 % 
 2018-10-21 08:17:31  21 C   49 % 
 2018-10-21 08:07:52  21 C   49 % 
 2018-10-21 07:58:15  21 C   49 % 
 2018-10-21 07:48:35  21 C   49 % 
 2018-10-21 07:39:00  21 C   49 % 
 2018-10-21 07:29:27  21 C   49 % 
 2018-10-21 07:19:44  21 C   49 % 
 2018-10-21 07:10:10  21 C   49 % 
 2018-10-21 07:00:29  21 C   49 % 
 2018-10-21 06:50:51  21 C   49 % 
 2018-10-21 06:41:15  21 C   49 % 
 2018-10-21 06:31:36  21 C   49 % 
 2018-10-21 06:21:57  21 C   49 % 
 2018-10-21 06:12:19  21 C   49 % 
 2018-10-21 06:02:42  21 C   49 % 
 2018-10-21 05:53:02  21 C   49 % 
 2018-10-21 05:43:24  21 C   49 % 
 2018-10-21 05:33:50  21 C   49 % 
 2018-10-21 05:24:13  21 C   49 % 
 2018-10-21 05:14:34  21 C   49 % 
 2018-10-21 05:04:58  21 C   49 % 
 2018-10-21 04:55:17  21 C   49 % 
 2018-10-21 04:45:39  21 C   49 % 
 2018-10-21 04:36:00  21 C   49 % 
 2018-10-21 04:26:22  21 C   49 % 
 2018-10-21 04:16:43  21 C   49 % 
 2018-10-21 04:07:09  21 C   49 % 
 2018-10-21 03:57:33  21 C   49 % 
 2018-10-21 03:47:57  21 C   49 % 
 2018-10-21 03:38:22  21 C   49 % 
 2018-10-21 03:28:47  21 C   49 % 
 2018-10-21 03:19:05  21 C   49 % 
 2018-10-21 03:09:30  21 C   49 % 
 2018-10-21 02:59:53  21 C   49 % 
 2018-10-21 02:50:17  21 C   49 % 
 2018-10-21 02:40:38  21 C   49 % 
 2018-10-21 02:31:00  21 C   49 % 
 2018-10-21 02:21:25  21 C   49 % 
 2018-10-21 02:11:49  21 C   49 % 
 2018-10-21 02:02:08  21 C   49 % 
 2018-10-21 01:52:32  21 C   49 % 
 2018-10-21 01:42:56  21 C   49 % 
 2018-10-21 01:33:17  21 C   49 % 
 2018-10-21 01:23:37  21 C   49 % 
 2018-10-21 01:13:58  21 C   49 % 
 2018-10-21 01:04:19  21 C   49 % 
 2018-10-21 00:54:40  21 C   49 % 
 2018-10-21 00:45:02  21 C   49 % 
 2018-10-21 00:35:31  21 C   49 % 
 2018-10-21 00:25:48  21 C   49 % 
 2018-10-21 00:16:12  21 C   49 % 
 2018-10-21 00:06:33  21 C   49 % 
 2018-10-20 23:56:56  21 C   49 % 
 2018-10-20 23:47:17  21 C   49 % 
 2018-10-20 23:37:43  21 C   49 % 
 2018-10-20 23:18:29  21 C   49 % 
 2018-10-20 23:08:49  21 C   49 % 
 2018-10-20 22:49:34  21 C   49 % 
 2018-10-20 22:40:00  21 C   49 % 
 2018-10-20 22:30:24  21 C   49 % 
 2018-10-20 22:20:43  21 C   49 % 
 2018-10-20 22:11:09  21 C   49 % 
 2018-10-20 22:01:32  21 C   49 % 
 2018-10-20 21:51:52  21 C   49 % 
 2018-10-20 21:42:13  21 C   49 % 
 2018-10-20 21:32:38  21 C   49 % 
 2018-10-20 21:23:02  21 C   49 % 
 2018-10-20 21:13:28  21 C   50 % 
 2018-10-20 21:03:47  21 C   50 % 
 2018-10-20 20:44:04  21 C   50 % 
 2018-10-20 20:15:16  21 C   50 % 
 2018-10-20 20:05:35  21 C   50 % 
 2018-10-20 19:46:25  21 C   49 % 
 2018-10-20 19:36:57  21 C   49 % 
 2018-10-20 19:27:00  21 C   49 % 
 2018-10-20 19:17:21  21 C   49 % 
 2018-10-20 18:58:06  21 C   49 % 
 2018-10-20 18:48:31  21 C   48 % 
 2018-10-20 18:38:55  21 C   48 % 
 2018-10-20 18:29:13  21 C   48 % 
 2018-10-20 18:19:34  21 C   48 % 
 2018-10-20 18:09:55  21 C   48 % 
 2018-10-20 18:00:17  21 C   48 % 
 2018-10-20 17:50:40  21 C   48 % 
 2018-10-20 17:41:00  21 C   48 % 
 2018-10-20 17:31:22  21 C   49 % 
 2018-10-20 17:21:48  21 C   49 % 
 2018-10-20 17:12:08  21 C   48 % 
 2018-10-20 17:02:28  21 C   49 % 
 2018-10-20 16:52:53  21 C   49 % 
 2018-10-20 16:43:17  21 C   49 % 
 2018-10-20 16:33:41  21 C   49 % 
 2018-10-20 16:24:02  21 C   49 % 
 2018-10-20 16:14:26  21 C   49 % 
 2018-10-20 16:04:50  21 C   49 % 
 2018-10-20 15:55:10  21 C   49 % 
 2018-10-20 15:45:34  21 C   49 % 
 2018-10-20 15:26:08  21 C   49 % 
 2018-10-20 15:16:30  21 C   48 % 
 2018-10-20 15:06:52  21 C   48 % 
 2018-10-20 14:57:19  21 C   48 % 
 2018-10-20 14:47:40  21 C   49 % 
 2018-10-20 14:37:59  21 C   48 % 
 2018-10-20 14:28:21  21 C   49 % 
 2018-10-20 14:18:42  21 C   49 % 
 2018-10-20 14:09:04  21 C   50 % 
 2018-10-20 13:49:52  21 C   47 % 
 2018-10-20 13:40:13  21 C   47 % 
 2018-10-20 13:30:34  21 C   47 % 
 2018-10-20 13:20:55  21 C   47 % 
 2018-10-20 13:01:45  21 C   48 % 
 2018-10-20 12:52:05  21 C   48 % 
 2018-10-20 12:42:30  21 C   48 % 
 2018-10-20 12:23:19  21 C   48 % 
 2018-10-20 12:13:42  21 C   48 % 
 2018-10-20 12:04:01  21 C   48 % 
 2018-10-20 11:54:35  21 C   48 % 
 2018-10-20 11:44:44  21 C   48 % 
 2018-10-20 11:35:19  21 C   48 % 
 2018-10-20 11:25:22  21 C   48 % 
 2018-10-20 11:15:44  21 C   48 % 
 2018-10-20 11:06:10  21 C   48 % 
 2018-10-20 10:46:55  21 C   48 % 
 2018-10-20 10:37:20  21 C   48 % 
 2018-10-20 10:27:46  21 C   49 % 
 2018-10-20 10:17:59  21 C   49 % 
 2018-10-20 09:58:52  21 C   48 % 
 2018-10-20 09:39:25  21 C   48 % 
 2018-10-20 09:29:47  21 C   48 % 
 2018-10-20 09:20:10  21 C   48 % 
 2018-10-20 09:10:34  21 C   48 % 
 2018-10-20 09:00:57  21 C   48 % 
 2018-10-20 08:51:22  21 C   48 % 
 2018-10-20 08:32:10  21 C   48 % 
 2018-10-20 08:22:31  21 C   48 % 
 2018-10-20 08:12:52  21 C   48 % 
 2018-10-20 07:53:37  21 C   48 % 
 2018-10-20 07:44:03  21 C   48 % 
 2018-10-20 07:34:21  21 C   48 % 
 2018-10-20 07:24:51  21 C   48 % 
 2018-10-20 07:15:07  21 C   48 % 
 2018-10-20 07:05:33  21 C   48 % 
 2018-10-20 06:55:52  21 C   48 % 
 2018-10-20 06:46:17  21 C   48 % 
 2018-10-20 06:36:37  21 C   48 % 
 2018-10-20 06:26:58  21 C   48 % 
 2018-10-20 06:17:25  21 C   48 % 
 2018-10-20 06:07:47  21 C   48 % 
 2018-10-20 05:58:09  21 C   48 % 
 2018-10-20 05:48:33  21 C   48 % 
 2018-10-20 05:29:22  21 C   48 % 
 2018-10-20 05:19:43  21 C   48 % 
 2018-10-20 05:10:05  21 C   48 % 
 2018-10-20 05:00:31  21 C   48 % 
 2018-10-20 04:50:50  21 C   48 % 
 2018-10-20 04:41:20  21 C   48 % 
 2018-10-20 04:31:39  21 C   48 % 
 2018-10-20 04:21:59  21 C   48 % 
 2018-10-20 04:12:30  21 C   48 % 
 2018-10-20 04:02:45  21 C   48 % 
 2018-10-20 03:53:07  21 C   48 % 
 2018-10-20 03:43:35  21 C   48 % 
 2018-10-20 03:33:51  21 C   48 % 
 2018-10-20 03:24:17  21 C   48 % 
 2018-10-20 03:14:36  21 C   48 % 
 2018-10-20 03:05:05  21 C   48 % 
 2018-10-20 02:55:20  21 C   48 % 
 2018-10-20 02:45:47  21 C   48 % 
 2018-10-20 02:36:10  21 C   48 % 
 2018-10-20 02:26:31  21 C   48 % 
 2018-10-20 02:16:51  21 C   49 % 
 2018-10-20 02:07:20  21 C   49 % 
 2018-10-20 01:48:03  21 C   49 % 
 2018-10-20 01:00:00  21 C   49 % 
 2018-10-20 00:50:30  21 C   49 % 
 2018-10-20 00:31:25  20 C   49 % 
 2018-10-20 00:11:46  20 C   48 % 
 2018-10-20 00:02:11  20 C   48 % 
 2018-10-19 23:42:59  20 C   48 % 
 2018-10-19 23:33:22  20 C   48 % 
 2018-10-19 23:23:56  20 C   48 % 
 2018-10-19 23:13:58  20 C   49 % 
 2018-10-19 23:04:22  20 C   48 % 
 2018-10-19 22:54:46  20 C   48 % 
 2018-10-19 22:45:10  21 C   48 % 
 2018-10-19 22:25:57  21 C   48 % 
 2018-10-19 21:57:08  21 C   49 % 
 2018-10-19 21:47:29  21 C   49 % 
 2018-10-19 21:37:53  21 C   48 % 
 2018-10-19 21:28:19  21 C   48 % 
 2018-10-19 21:18:39  21 C   48 % 
 2018-10-19 20:40:05  21 C   49 % 
 2018-10-19 20:21:00  21 C   49 % 
 2018-10-19 20:11:14  21 C   48 % 
 2018-10-19 20:01:40  21 C   48 % 
 2018-10-19 19:52:00  21 C   48 % 
 2018-10-19 18:53:34  21 C   49 % 
 2018-10-19 18:15:06  21 C   49 % 
 2018-10-19 18:05:38  21 C   49 % 
 2018-10-19 17:55:51  21 C   49 % 
 2018-10-19 17:46:18  21 C   49 % 
 2018-10-19 17:36:30  21 C   49 % 
 2018-10-19 17:26:55  21 C   49 % 
 2018-10-19 17:17:19  21 C   49 % 
 2018-10-19 17:07:37  21 C   49 % 
 2018-10-19 16:58:02  21 C   49 % 
 2018-10-19 16:48:30  21 C   49 % 
 2018-10-19 16:29:12  21 C   49 % 
 2018-10-19 16:19:34  21 C   49 % 
 2018-10-19 16:00:21  21 C   49 % 
 2018-10-19 15:50:48  21 C   49 % 
 2018-10-19 15:41:05  21 C   49 % 
 2018-10-19 15:31:31  21 C   49 % 
 2018-10-19 15:21:53  21 C   49 % 
 2018-10-19 15:12:22  21 C   49 % 
 2018-10-19 15:02:39  21 C   49 % 
 2018-10-19 14:53:02  21 C   49 % 
 2018-10-19 14:43:29  21 C   49 % 
 2018-10-19 14:33:48  21 C   49 % 
 2018-10-19 14:24:15  21 C   50 % 
 2018-10-19 14:14:31  21 C   50 % 
 2018-10-19 14:04:51  21 C   50 % 
 2018-10-19 13:55:14  21 C   50 % 
 2018-10-19 13:45:39  21 C   50 % 
 2018-10-19 13:35:59  21 C   50 % 
 2018-10-19 13:26:35  21 C   50 % 
 2018-10-19 13:07:01  21 C   50 % 
 2018-10-19 12:57:25  21 C   50 % 
 2018-10-19 12:47:46  21 C   50 % 
 2018-10-19 12:38:20  21 C   51 % 
 2018-10-19 12:18:47  21 C   50 % 
 2018-10-19 12:09:13  21 C   50 % 
 2018-10-19 11:59:38  21 C   50 % 
 2018-10-19 11:50:02  21 C   50 % 
 2018-10-19 11:40:20  21 C   50 % 
 2018-10-19 11:30:45  21 C   50 % 
 2018-10-19 11:11:41  21 C   50 % 
 2018-10-19 11:01:38  21 C   50 % 
 2018-10-19 10:13:42  21 C   49 % 
 2018-10-19 09:54:18  21 C   49 % 
 2018-10-19 09:15:51  21 C   49 % 
 2018-10-19 09:06:16  21 C   49 % 
 2018-10-19 08:47:01  21 C   49 % 
 2018-10-19 08:37:25  21 C   49 % 
 2018-10-19 08:27:44  21 C   49 % 
 2018-10-19 08:18:11  21 C   49 % 
 2018-10-19 08:08:31  21 C   49 % 
 2018-10-19 07:59:03  21 C   49 % 
 2018-10-19 07:49:12  21 C   49 % 
 2018-10-19 07:39:37  21 C   49 % 
 2018-10-19 07:20:21  21 C   49 % 
 2018-10-19 07:10:50  21 C   49 % 
 2018-10-19 07:00:59  21 C   49 % 
 2018-10-19 06:51:25  21 C   49 % 
 2018-10-19 06:32:13  21 C   49 % 
 2018-10-19 06:22:36  21 C   49 % 
 2018-10-19 06:12:57  21 C   49 % 
 2018-10-19 06:03:20  21 C   49 % 
 2018-10-19 05:53:44  21 C   49 % 
 2018-10-19 05:44:04  21 C   49 % 
 2018-10-19 05:34:24  21 C   49 % 
 2018-10-19 05:24:46  21 C   49 % 
 2018-10-19 05:15:11  21 C   49 % 
 2018-10-19 05:05:31  21 C   49 % 
 2018-10-19 04:55:58  21 C   49 % 
 2018-10-19 04:46:20  21 C   49 % 
 2018-10-19 04:36:39  21 C   49 % 
 2018-10-19 04:27:01  21 C   49 % 
 2018-10-19 04:17:26  21 C   49 % 
 2018-10-19 04:07:46  21 C   49 % 
 2018-10-19 03:58:07  21 C   49 % 
 2018-10-19 03:48:28  21 C   49 % 
 2018-10-19 03:38:49  21 C   49 % 
 2018-10-19 03:29:11  21 C   49 % 
 2018-10-19 03:19:36  21 C   49 % 
 2018-10-19 03:09:55  21 C   49 % 
 2018-10-19 03:00:17  21 C   49 % 
 2018-10-19 02:50:42  21 C   49 % 
 2018-10-19 02:41:01  21 C   49 % 
 2018-10-19 02:31:23  21 C   49 % 
 2018-10-19 02:21:43  22 C   49 % 
 2018-10-19 02:12:09  22 C   49 % 
 2018-10-19 02:02:28  22 C   49 % 
 2018-10-19 01:52:49  22 C   49 % 
 2018-10-19 01:43:11  22 C   49 % 
 2018-10-19 01:33:32  22 C   49 % 
 2018-10-19 01:23:58  22 C   49 % 
 2018-10-19 01:14:17  22 C   49 % 
 2018-10-19 01:04:39  22 C   49 % 
 2018-10-19 00:55:00  22 C   49 % 
 2018-10-19 00:45:21  22 C   49 % 
 2018-10-19 00:35:42  22 C   49 % 
 2018-10-19 00:26:07  22 C   49 % 
 2018-10-19 00:16:31  22 C   49 % 
 2018-10-19 00:06:50  22 C   49 % 
 2018-10-18 23:57:17  22 C   49 % 
 2018-10-18 23:37:53  22 C   49 % 
 2018-10-18 23:28:14  22 C   49 % 
 2018-10-18 23:18:35  22 C   49 % 
 2018-10-18 23:08:56  22 C   49 % 
 2018-10-18 22:59:17  22 C   49 % 
 2018-10-18 22:49:38  22 C   49 % 
 2018-10-18 22:40:04  22 C   49 % 
 2018-10-18 22:30:22  22 C   49 % 
 2018-10-18 22:20:43  22 C   49 % 
 2018-10-18 22:11:04  22 C   49 % 
 2018-10-18 22:01:24  22 C   49 % 
 2018-10-18 21:51:45  22 C   49 % 
 2018-10-18 21:42:05  22 C   49 % 
 2018-10-18 21:32:31  22 C   50 % 
 2018-10-18 21:22:49  22 C   50 % 
 2018-10-18 21:13:11  22 C   51 % 
 2018-10-18 20:53:55  22 C   51 % 
 2018-10-18 20:44:16  22 C   50 % 
 2018-10-18 20:34:38  22 C   50 % 
 2018-10-18 20:24:59  22 C   50 % 
 2018-10-18 20:15:20  22 C   50 % 
 2018-10-18 20:05:41  22 C   50 % 
 2018-10-18 19:46:30  22 C   50 % 
 2018-10-18 19:36:54  22 C   50 % 
 2018-10-18 19:27:17  22 C   50 % 
 2018-10-18 19:17:36  22 C   50 % 
 2018-10-18 19:07:58  22 C   50 % 
 2018-10-18 18:58:25  22 C   50 % 
 2018-10-18 18:39:07  22 C   50 % 
 2018-10-18 18:29:33  22 C   50 % 
 2018-10-18 18:19:51  22 C   50 % 
 2018-10-18 18:10:12  22 C   50 % 
 2018-10-18 18:00:34  22 C   50 % 
 2018-10-18 17:50:55  22 C   50 % 
 2018-10-18 17:41:21  22 C   50 % 
 2018-10-18 17:31:41  22 C   50 % 
 2018-10-18 17:22:04  22 C   50 % 
 2018-10-18 17:12:24  22 C   50 % 
 2018-10-18 17:02:45  22 C   50 % 
 2018-10-18 16:53:09  22 C   50 % 
 2018-10-18 16:43:29  22 C   50 % 
 2018-10-18 16:33:50  22 C   50 % 
 2018-10-18 16:24:17  22 C   50 % 
 2018-10-18 16:14:40  22 C   50 % 
 2018-10-18 16:04:59  22 C   50 % 
 2018-10-18 15:55:22  22 C   50 % 
 2018-10-18 15:45:42  22 C   50 % 
 2018-10-18 15:36:04  22 C   50 % 
 2018-10-18 15:26:25  22 C   50 % 
 2018-10-18 15:16:46  22 C   50 % 
 2018-10-18 15:07:12  22 C   49 % 
 2018-10-18 14:57:31  22 C   49 % 
 2018-10-18 14:47:52  22 C   49 % 
 2018-10-18 14:38:15  22 C   48 % 
 2018-10-18 14:28:37  23 C   48 % 
 2018-10-18 14:18:58  23 C   47 % 
 2018-10-18 14:09:20  24 C   46 % 
 2018-10-18 13:59:43  24 C   45 % 
 2018-10-18 13:50:02  24 C   46 % 
 2018-10-18 13:40:20  22 C   51 % 
 2018-10-18 13:20:49  22 C   50 % 
 2018-10-18 13:11:08  22 C   50 % 
 2018-10-18 13:01:37  22 C   50 % 
 2018-10-18 12:51:58  22 C   50 % 
 2018-10-18 12:42:17  22 C   50 % 
 2018-10-18 12:13:13  22 C   50 % 
 2018-10-18 11:34:09  22 C   49 % 
 2018-10-18 11:14:51  21 C   49 % 
 2018-10-18 11:05:12  21 C   49 % 
 2018-10-18 10:55:33  22 C   49 % 
 2018-10-18 10:36:11  22 C   49 % 
 2018-10-18 10:26:43  22 C   49 % 
 2018-10-18 10:16:52  22 C   49 % 
 2018-10-18 10:07:14  22 C   49 % 
 2018-10-18 09:48:07  22 C   49 % 
 2018-10-18 09:08:46  22 C   50 % 
 2018-10-18 08:59:12  22 C   50 % 
 2018-10-18 08:49:33  22 C   50 % 
 2018-10-18 08:39:59  22 C   50 % 
 2018-10-18 08:10:33  22 C   51 % 
 2018-10-18 07:51:23  22 C   51 % 
 2018-10-18 07:32:12  22 C   51 % 
 2018-10-18 07:22:37  22 C   51 % 
 2018-10-18 07:12:50  22 C   51 % 
 2018-10-18 07:03:20  22 C   51 % 
 2018-10-18 06:53:31  22 C   51 % 
 2018-10-18 06:24:40  22 C   51 % 
 2018-10-18 06:14:59  22 C   51 % 
 2018-10-18 06:05:24  22 C   51 % 
 2018-10-18 05:55:46  22 C   51 % 
 2018-10-18 05:46:06  22 C   51 % 
 2018-10-18 05:36:35  22 C   51 % 
 2018-10-18 05:26:59  22 C   51 % 
 2018-10-18 04:57:58  22 C   52 % 
 2018-10-18 04:29:07  22 C   52 % 
 2018-10-18 04:19:32  22 C   52 % 
 2018-10-18 04:09:55  22 C   52 % 
 2018-10-18 04:00:19  22 C   52 % 
 2018-10-18 03:50:38  22 C   52 % 
 2018-10-18 03:41:00  22 C   52 % 
 2018-10-18 03:31:22  22 C   52 % 
 2018-10-18 03:21:45  22 C   52 % 
 2018-10-18 03:12:12  22 C   52 % 
 2018-10-18 03:02:33  22 C   52 % 
 2018-10-18 02:52:58  22 C   52 % 
 2018-10-18 02:43:17  22 C   52 % 
 2018-10-18 02:24:02  22 C   52 % 
 2018-10-18 02:04:53  22 C   52 % 
 2018-10-18 01:55:14  22 C   52 % 
 2018-10-18 01:45:33  22 C   53 % 
 2018-10-18 01:35:59  22 C   53 % 
 2018-10-18 01:26:20  22 C   53 % 
 2018-10-18 01:16:41  22 C   53 % 
 2018-10-18 00:57:21  22 C   53 % 
 2018-10-18 00:47:53  22 C   53 % 
 2018-10-18 00:38:03  22 C   53 % 
 2018-10-18 00:28:35  22 C   53 % 
 2018-10-18 00:18:50  22 C   53 % 
 2018-10-17 23:59:17  22 C   53 % 
 2018-10-17 23:49:44  22 C   53 % 
 2018-10-17 23:40:01  22 C   53 % 
 2018-10-17 23:30:22  22 C   53 % 
 2018-10-17 23:20:44  22 C   53 % 
 2018-10-17 23:11:19  22 C   53 % 
 2018-10-17 23:01:18  22 C   53 % 
 2018-10-17 22:51:43  22 C   53 % 
 2018-10-17 22:42:06  22 C   53 % 
 2018-10-17 22:32:30  22 C   53 % 
 2018-10-17 22:22:52  22 C   53 % 
 2018-10-17 22:03:31  22 C   53 % 
 2018-10-17 21:44:22  22 C   53 % 
 2018-10-17 21:25:08  22 C   53 % 
 2018-10-17 21:15:35  22 C   53 % 
 2018-10-17 21:05:54  22 C   53 % 
 2018-10-17 20:46:39  22 C   53 % 
 2018-10-17 20:37:00  22 C   53 % 
 2018-10-17 20:27:22  22 C   53 % 
 2018-10-17 20:17:45  22 C   53 % 
 2018-10-17 20:08:05  22 C   53 % 
 2018-10-17 19:58:26  22 C   53 % 
 2018-10-17 19:48:48  22 C   53 % 
 2018-10-17 19:39:10  22 C   53 % 
 2018-10-17 19:29:36  22 C   53 % 
 2018-10-17 19:19:55  22 C   53 % 
 2018-10-17 19:00:40  22 C   53 % 
 2018-10-17 18:41:24  22 C   53 % 
 2018-10-17 18:12:03  22 C   53 % 
 2018-10-17 18:02:22  22 C   54 % 
 2018-10-17 17:52:49  22 C   54 % 
 2018-10-17 17:43:06  22 C   54 % 
 2018-10-17 17:33:26  22 C   54 % 
 2018-10-17 17:23:47  22 C   54 % 
 2018-10-17 17:14:10  22 C   54 % 
 2018-10-17 17:04:45  22 C   54 % 
 2018-10-17 16:54:46  22 C   54 % 
 2018-10-17 16:45:12  22 C   54 % 
 2018-10-17 16:35:32  22 C   54 % 
 2018-10-17 16:15:50  22 C   54 % 
 2018-10-17 15:56:34  22 C   53 % 
 2018-10-17 15:47:03  22 C   53 % 
 2018-10-17 15:37:24  22 C   53 % 
 2018-10-17 15:27:45  22 C   53 % 
 2018-10-17 15:08:28  22 C   53 % 
 2018-10-17 14:58:50  22 C   52 % 
 2018-10-17 14:49:15  22 C   52 % 
 2018-10-17 14:39:37  22 C   53 % 
 2018-10-17 14:30:02  22 C   53 % 
 2018-10-17 14:20:32  22 C   53 % 
 2018-10-17 13:51:30  22 C   52 % 
 2018-10-17 13:41:55  22 C   52 % 
 2018-10-17 13:32:20  22 C   52 % 
 2018-10-17 13:03:26  22 C   52 % 
 2018-10-17 12:53:54  22 C   52 % 
 2018-10-17 12:34:39  22 C   52 % 
 2018-10-17 12:25:09  22 C   52 % 
 2018-10-17 12:15:24  22 C   52 % 
 2018-10-17 12:05:44  22 C   52 % 
 2018-10-17 11:56:05  22 C   52 % 
 2018-10-17 11:46:27  22 C   52 % 
 2018-10-17 11:36:54  22 C   52 % 
 2018-10-17 11:27:11  22 C   52 % 
 2018-10-17 11:17:39  22 C   52 % 
 2018-10-17 11:08:01  22 C   52 % 
 2018-10-17 10:58:25  22 C   52 % 
 2018-10-17 10:39:11  22 C   52 % 
 2018-10-17 10:29:33  22 C   51 % 
 2018-10-17 10:10:20  22 C   51 % 
 2018-10-17 10:00:44  22 C   51 % 
 2018-10-17 09:51:09  22 C   51 % 
 2018-10-17 09:41:34  22 C   51 % 
 2018-10-17 09:31:48  22 C   51 % 
 2018-10-17 09:22:14  22 C   51 % 
 2018-10-17 09:12:33  22 C   51 % 
 2018-10-17 08:53:21  22 C   51 % 
 2018-10-17 08:34:09  22 C   51 % 
 2018-10-17 08:24:34  22 C   51 % 
 2018-10-17 08:05:20  22 C   51 % 
 2018-10-17 07:55:42  22 C   51 % 
 2018-10-17 07:46:02  22 C   51 % 
 2018-10-17 07:36:28  22 C   51 % 
 2018-10-17 07:26:47  22 C   51 % 
 2018-10-17 07:17:08  22 C   51 % 
 2018-10-17 07:07:29  22 C   51 % 
 2018-10-17 06:57:57  22 C   51 % 
 2018-10-17 06:48:13  22 C   51 % 
 2018-10-17 06:38:41  22 C   51 % 
 2018-10-17 06:28:58  22 C   51 % 
 2018-10-17 06:19:20  22 C   51 % 
 2018-10-17 06:09:42  22 C   51 % 
 2018-10-17 06:00:03  22 C   51 % 
 2018-10-17 05:50:27  22 C   51 % 
 2018-10-17 05:40:47  22 C   51 % 
 2018-10-17 05:31:08  22 C   50 % 
 2018-10-17 05:21:34  22 C   50 % 
 2018-10-17 05:11:53  22 C   50 % 
 2018-10-17 05:02:15  22 C   50 % 
 2018-10-17 04:42:57  22 C   50 % 
 2018-10-17 04:33:18  22 C   50 % 
 2018-10-17 04:23:44  22 C   50 % 
 2018-10-17 04:14:11  22 C   50 % 
 2018-10-17 04:04:24  22 C   50 % 
 2018-10-17 03:54:47  22 C   50 % 
 2018-10-17 03:45:06  22 C   50 % 
 2018-10-17 03:35:28  22 C   50 % 
 2018-10-17 03:25:51  22 C   50 % 
 2018-10-17 03:16:17  23 C   50 % 
 2018-10-17 03:06:34  23 C   50 % 
 2018-10-17 02:56:55  23 C   50 % 
 2018-10-17 02:37:39  23 C   49 % 
 2018-10-17 02:18:30  23 C   49 % 
 2018-10-17 01:49:36  23 C   49 % 
 2018-10-17 01:40:01  23 C   48 % 
 2018-10-17 01:01:22  24 C   47 % 
 2018-10-17 00:42:11  24 C   47 % 
 2018-10-17 00:13:30  25 C   45 % 
 2018-10-16 22:46:44  22 C   52 % 
 2018-10-16 22:37:04  22 C   51 % 
 2018-10-16 22:17:19  22 C   51 % 
 2018-10-16 21:58:04  22 C   51 % 
 2018-10-16 21:48:25  22 C   51 % 
 2018-10-16 21:29:06  22 C   51 % 
 2018-10-16 21:19:27  22 C   51 % 
 2018-10-16 21:09:48  22 C   51 % 
 2018-10-16 21:00:13  22 C   51 % 
 2018-10-16 20:41:00  22 C   52 % 
 2018-10-16 20:31:19  22 C   52 % 
 2018-10-16 20:21:44  22 C   52 % 
 2018-10-16 20:12:17  22 C   52 % 
 2018-10-16 20:02:23  22 C   52 % 
 2018-10-16 19:52:43  22 C   52 % 
 2018-10-16 19:43:09  22 C   52 % 
 2018-10-16 19:33:28  22 C   52 % 
 2018-10-16 19:23:50  22 C   52 % 
 2018-10-16 19:14:15  22 C   52 % 
 2018-10-16 18:54:57  22 C   52 % 
 2018-10-16 18:45:18  22 C   52 % 
 2018-10-16 18:35:41  22 C   52 % 
 2018-10-16 18:26:08  22 C   52 % 
 2018-10-16 18:16:30  22 C   52 % 
 2018-10-16 18:06:53  22 C   52 % 
 2018-10-16 17:57:12  22 C   52 % 
 2018-10-16 17:27:18  22 C   52 % 
 2018-10-16 17:17:40  22 C   52 % 
 2018-10-16 17:08:00  22 C   52 % 
 2018-10-16 16:48:45  22 C   52 % 
 2018-10-16 16:39:11  22 C   52 % 
 2018-10-16 16:29:31  22 C   52 % 
 2018-10-16 16:19:52  22 C   52 % 
 2018-10-16 16:10:17  22 C   52 % 
 2018-10-16 15:41:23  22 C   53 % 
 2018-10-16 15:31:45  22 C   53 % 
 2018-10-16 15:22:08  22 C   53 % 
 2018-10-16 15:12:28  22 C   53 % 
 2018-10-16 14:14:46  22 C   53 % 
 2018-10-16 13:17:02  23 C   54 % 
 2018-10-16 12:48:10  23 C   54 % 
 2018-10-16 12:28:55  23 C   54 % 
 2018-10-16 12:00:12  23 C   52 % 
 2018-10-16 11:50:26  23 C   52 % 
 2018-10-16 11:02:02  23 C   52 % 
 2018-10-16 10:42:51  23 C   52 % 
 2018-10-16 10:13:05  23 C   52 % 
 2018-10-16 09:15:01  23 C   52 % 
 2018-10-16 09:05:26  23 C   52 % 
 2018-10-16 08:55:49  23 C   52 % 
 2018-10-16 08:46:09  23 C   52 % 
 2018-10-16 08:36:29  23 C   52 % 
 2018-10-16 08:26:54  23 C   52 % 
 2018-10-16 08:17:14  23 C   52 % 
 2018-10-16 08:07:40  23 C   52 % 
 2018-10-16 07:58:00  23 C   52 % 
 2018-10-16 07:48:32  23 C   52 % 
 2018-10-16 07:38:42  23 C   52 % 
 2018-10-16 07:29:02  23 C   52 % 
 2018-10-16 07:19:26  23 C   52 % 
 2018-10-16 07:09:45  23 C   52 % 
 2018-10-16 06:50:31  23 C   52 % 
 2018-10-16 06:41:03  23 C   52 % 
 2018-10-16 06:31:17  23 C   52 % 
 2018-10-16 06:11:55  23 C   52 % 
 2018-10-16 06:02:18  23 C   52 % 
 2018-10-16 05:52:38  23 C   53 % 
 2018-10-16 05:43:04  23 C   53 % 
 2018-10-16 05:33:25  23 C   53 % 
 2018-10-16 05:23:49  23 C   53 % 
 2018-10-16 05:14:13  23 C   53 % 
 2018-10-16 05:04:34  23 C   53 % 
 2018-10-16 04:54:54  23 C   53 % 
 2018-10-16 04:45:14  23 C   53 % 
 2018-10-16 04:35:38  23 C   53 % 
 2018-10-16 04:26:03  23 C   53 % 
 2018-10-16 04:16:24  23 C   53 % 
 2018-10-16 03:57:13  23 C   53 % 
 2018-10-16 03:47:38  23 C   53 % 
 2018-10-16 03:38:00  23 C   53 % 
 2018-10-16 03:28:18  23 C   53 % 
 2018-10-16 03:18:45  23 C   53 % 
 2018-10-16 03:09:03  23 C   53 % 
 2018-10-16 02:49:48  23 C   53 % 
 2018-10-16 02:10:43  24 C   53 % 
 2018-10-16 02:01:02  24 C   53 % 
 2018-10-16 01:42:01  24 C   53 % 
 2018-10-16 01:22:07  24 C   53 % 
 2018-10-16 01:12:35  24 C   53 % 
 2018-10-16 00:53:21  24 C   53 % 
 2018-10-16 00:43:29  24 C   53 % 
 2018-10-16 00:33:51  24 C   53 % 
 2018-10-15 22:57:15  24 C   54 % 
 2018-10-15 22:47:40  24 C   54 % 
 2018-10-15 22:38:04  24 C   54 % 
 2018-10-15 22:28:26  24 C   54 % 
 2018-10-15 22:18:53  24 C   54 % 
 2018-10-15 21:50:01  24 C   54 % 
 2018-10-15 21:40:25  24 C   54 % 
 2018-10-15 21:30:48  24 C   54 % 
 2018-10-15 21:21:09  24 C   54 % 
 2018-10-15 21:11:30  24 C   54 % 
 2018-10-15 21:01:55  24 C   54 % 
 2018-10-15 20:42:38  24 C   54 % 
 2018-10-15 20:23:30  24 C   54 % 
 2018-10-15 19:54:33  24 C   54 % 
 2018-10-15 19:44:54  24 C   54 % 
 2018-10-15 19:16:03  24 C   54 % 
 2018-10-15 19:06:23  24 C   54 % 
 2018-10-15 18:56:44  24 C   54 % 
 2018-10-15 18:37:35  24 C   54 % 
 2018-10-15 17:49:33  24 C   55 % 
 2018-10-15 17:39:56  24 C   55 % 
 2018-10-15 17:10:58  24 C   55 % 
 2018-10-15 16:23:04  24 C   55 % 
 2018-10-15 15:53:51  24 C   55 % 
 2018-10-15 15:34:36  24 C   54 % 
 2018-10-15 15:25:03  24 C   54 % 
 2018-10-15 15:15:25  24 C   54 % 
 2018-10-15 14:56:07  24 C   54 % 
 2018-10-15 14:17:44  24 C   54 % 
 2018-10-15 13:38:53  24 C   54 % 
 2018-10-15 13:29:09  24 C   54 % 
 2018-10-15 13:09:19  24 C   54 % 
 2018-10-15 12:59:39  24 C   54 % 
 2018-10-15 12:50:01  24 C   54 % 
 2018-10-15 12:40:23  24 C   54 % 
 2018-10-15 12:11:37  24 C   55 % 
 2018-10-15 12:01:53  24 C   55 % 
 2018-10-15 11:42:37  24 C   55 % 
 2018-10-15 11:22:41  24 C   55 % 
 2018-10-15 11:13:04  24 C   55 % 
 2018-10-15 11:03:27  24 C   54 % 
 2018-10-15 10:53:50  24 C   55 % 
 2018-10-15 10:44:09  24 C   55 % 
 2018-10-15 10:34:37  24 C   55 % 
 2018-10-15 10:24:56  24 C   55 % 
 2018-10-15 09:36:55  24 C   55 % 
 2018-10-15 07:50:58  24 C   54 % 
 2018-10-15 07:41:24  24 C   54 % 
 2018-10-15 07:12:14  24 C   54 % 
 2018-10-15 07:02:30  24 C   54 % 
 2018-10-15 06:52:54  24 C   54 % 
 2018-10-15 06:33:41  24 C   54 % 
 2018-10-15 06:24:08  24 C   54 % 
 2018-10-15 06:14:25  24 C   54 % 
 2018-10-15 05:55:15  24 C   54 % 
 2018-10-15 05:45:33  24 C   54 % 
 2018-10-15 05:36:00  24 C   54 % 
 2018-10-15 05:26:19  24 C   54 % 
 2018-10-15 05:06:39  24 C   54 % 
 2018-10-15 04:47:18  24 C   54 % 
 2018-10-15 04:18:28  24 C   54 % 
 2018-10-15 04:08:53  24 C   54 % 
 2018-10-15 03:59:16  24 C   54 % 
 2018-10-15 03:49:42  24 C   54 % 
 2018-10-15 03:20:50  24 C   54 % 
 2018-10-15 03:01:29  24 C   54 % 
 2018-10-15 02:32:23  24 C   54 % 
 2018-10-15 02:22:49  24 C   54 % 
 2018-10-15 01:05:58  25 C   54 % 
 2018-10-14 22:32:22  25 C   54 % 
 2018-10-14 21:43:45  25 C   54 % 
 2018-10-14 20:55:36  25 C   53 % 
 2018-10-14 20:16:43  25 C   53 % 
 2018-10-14 20:07:03  24 C   54 % 
 2018-10-14 19:47:55  24 C   53 % 
 2018-10-14 18:59:50  24 C   54 % 
 2018-10-14 18:30:54  24 C   54 % 
 2018-10-14 18:21:20  24 C   54 % 
 2018-10-14 17:23:20  24 C   54 % 
 2018-10-14 16:54:30  24 C   54 % 
 2018-10-14 16:25:12  24 C   54 % 
 2018-10-14 15:27:32  24 C   54 % 
 2018-10-14 15:17:58  24 C   54 % 
 2018-10-14 14:09:47  24 C   53 % 
 2018-10-14 13:11:32  24 C   53 % 
 2018-10-14 13:01:54  24 C   53 % 
 2018-10-14 12:52:14  24 C   53 % 
 2018-10-14 12:42:38  24 C   55 % 
 2018-10-14 12:32:58  24 C   55 % 
 2018-10-14 12:23:19  24 C   55 % 
 2018-10-14 12:13:40  24 C   55 % 
 2018-10-14 12:04:01  24 C   55 % 
 2018-10-14 11:54:22  24 C   55 % 
 2018-10-14 11:44:48  24 C   55 % 
 2018-10-14 11:25:30  24 C   55 % 
 2018-10-14 11:15:58  24 C   56 % 
 2018-10-14 10:56:41  24 C   56 % 
 2018-10-14 10:47:00  24 C   56 % 
 2018-10-14 10:27:26  24 C   56 % 
 2018-10-14 10:17:44  24 C   55 % 
 2018-10-14 10:08:02  24 C   55 % 
 2018-10-14 09:58:23  24 C   55 % 
 2018-10-14 09:48:50  24 C   54 % 
 2018-10-14 09:39:14  24 C   54 % 
 2018-10-14 09:19:30  24 C   54 % 
 2018-10-14 09:09:55  24 C   54 % 
 2018-10-14 09:00:16  24 C   54 % 
 2018-10-14 08:50:41  24 C   54 % 
 2018-10-14 08:41:01  24 C   54 % 
 2018-10-14 08:31:28  24 C   54 % 
 2018-10-14 08:21:46  24 C   54 % 
 2018-10-14 08:02:31  24 C   54 % 
 2018-10-14 07:52:52  24 C   54 % 
 2018-10-14 07:43:13  24 C   54 % 
 2018-10-14 07:33:34  24 C   54 % 
 2018-10-14 07:23:59  24 C   54 % 
 2018-10-14 07:04:42  24 C   54 % 
 2018-10-14 06:55:09  24 C   54 % 
 2018-10-14 06:45:28  24 C   54 % 
 2018-10-14 06:26:14  24 C   54 % 
 2018-10-14 05:56:42  24 C   54 % 
 2018-10-14 05:47:03  24 C   54 % 
 2018-10-14 05:27:52  24 C   54 % 
 2018-10-14 05:18:16  24 C   54 % 
 2018-10-14 04:58:58  24 C   54 % 
 2018-10-14 04:49:30  24 C   54 % 
 2018-10-14 03:51:19  25 C   54 % 
 2018-10-14 03:21:55  25 C   54 % 
 2018-10-14 03:02:37  25 C   54 % 
 2018-10-14 02:33:13  25 C   54 % 
 2018-10-14 02:23:31  25 C   54 % 
 2018-10-14 01:45:05  25 C   54 % 
 2018-10-14 00:56:10  25 C   53 % 
 2018-10-14 00:46:35  25 C   53 % 
 2018-10-13 23:47:33  25 C   53 % 
 2018-10-13 22:59:30  25 C   53 % 
 2018-10-13 22:40:17  25 C   53 % 
 2018-10-13 22:11:35  25 C   53 % 
 2018-10-13 21:31:30  25 C   53 % 
 2018-10-13 21:21:52  25 C   53 % 
 2018-10-13 20:04:08  25 C   53 % 
 2018-10-13 19:54:30  25 C   53 % 
 2018-10-13 18:37:36  25 C   52 % 
 2018-10-13 18:18:24  26 C   50 % 
 2018-10-13 17:59:11  27 C   47 % 
 2018-10-13 17:40:00  29 C   45 % 
 2018-10-13 17:30:19  29 C   45 % 
 2018-10-13 17:01:16  28 C   47 % 
 2018-10-13 15:53:47  24 C   53 % 
 2018-10-13 15:34:29  24 C   53 % 
 2018-10-13 15:05:38  24 C   52 % 
 2018-10-13 14:56:03  24 C   52 % 
 2018-10-13 14:46:18  24 C   52 % 
 2018-10-13 14:36:41  24 C   52 % 
 2018-10-13 14:17:33  24 C   52 % 
 2018-10-13 13:48:29  24 C   52 % 
 2018-10-13 13:29:14  24 C   52 % 
 2018-10-13 13:19:38  24 C   52 % 
 2018-10-13 13:10:04  24 C   52 % 
 2018-10-13 12:50:40  24 C   52 % 
 2018-10-13 12:31:24  24 C   52 % 
 2018-10-13 12:21:52  24 C   52 % 
 2018-10-13 12:12:09  24 C   53 % 
 2018-10-13 12:02:31  24 C   53 % 
 2018-10-13 11:53:01  24 C   53 % 
 2018-10-13 11:43:13  23 C   53 % 
 2018-10-13 11:33:34  23 C   53 % 
 2018-10-13 11:23:57  23 C   53 % 
 2018-10-13 11:14:16  23 C   52 % 
 2018-10-13 11:04:37  23 C   52 % 
 2018-10-13 10:55:00  23 C   52 % 
 2018-10-13 10:45:21  23 C   53 % 
 2018-10-13 10:26:09  23 C   53 % 
 2018-10-13 10:16:28  23 C   53 % 
 2018-10-13 10:06:55  23 C   53 % 
 2018-10-13 09:47:39  23 C   53 % 
 2018-10-13 09:38:03  23 C   54 % 
 2018-10-13 09:28:24  23 C   53 % 
 2018-10-13 09:18:52  23 C   52 % 
 2018-10-13 09:09:11  23 C   52 % 
 2018-10-13 08:59:36  23 C   52 % 
 2018-10-13 08:49:55  23 C   52 % 
 2018-10-13 08:40:20  23 C   52 % 
 2018-10-13 08:30:39  23 C   52 % 
 2018-10-13 08:21:00  23 C   52 % 
 2018-10-13 08:11:20  23 C   52 % 
 2018-10-13 08:01:44  23 C   52 % 
 2018-10-13 07:52:08  23 C   52 % 
 2018-10-13 07:42:28  23 C   52 % 
 2018-10-13 07:32:49  23 C   52 % 
 2018-10-13 07:23:26  23 C   52 % 
 2018-10-13 07:13:17  23 C   52 % 
 2018-10-13 07:03:39  23 C   52 % 
 2018-10-13 06:54:00  23 C   52 % 
 2018-10-13 06:44:20  23 C   52 % 
 2018-10-13 06:34:45  23 C   52 % 
 2018-10-13 06:25:04  23 C   52 % 
 2018-10-13 06:15:24  23 C   52 % 
 2018-10-13 06:05:46  23 C   52 % 
 2018-10-13 05:56:10  23 C   52 % 
 2018-10-13 05:46:29  23 C   52 % 
 2018-10-13 05:36:51  23 C   52 % 
 2018-10-13 05:27:16  23 C   52 % 
 2018-10-13 05:17:35  23 C   52 % 
 2018-10-13 05:07:56  23 C   52 % 
 2018-10-13 04:58:25  23 C   52 % 
 2018-10-13 04:48:39  23 C   52 % 
 2018-10-13 04:39:00  23 C   52 % 
 2018-10-13 04:29:22  23 C   51 % 
 2018-10-13 04:19:42  23 C   51 % 
 2018-10-13 04:10:04  23 C   51 % 
 2018-10-13 04:00:25  23 C   51 % 
 2018-10-13 03:50:45  23 C   51 % 
 2018-10-13 03:41:07  23 C   51 % 
 2018-10-13 03:21:41  23 C   51 % 
 2018-10-13 03:12:07  23 C   51 % 
 2018-10-13 03:02:25  23 C   51 % 
 2018-10-13 02:32:58  23 C   51 % 
 2018-10-13 01:44:52  23 C   50 % 
 2018-10-13 01:25:45  24 C   50 % 
 2018-10-13 01:06:22  24 C   50 % 
 2018-10-13 00:56:40  24 C   50 % 
 2018-10-13 00:47:07  24 C   50 % 
 2018-10-13 00:37:28  24 C   50 % 
 2018-10-13 00:27:49  24 C   50 % 
 2018-10-13 00:08:33  24 C   49 % 
 2018-10-12 23:59:01  24 C   49 % 
 2018-10-12 23:49:15  24 C   49 % 
 2018-10-12 23:39:40  24 C   49 % 
 2018-10-12 23:30:04  24 C   49 % 
 2018-10-12 23:20:28  24 C   48 % 
 2018-10-12 23:10:54  24 C   48 % 
 2018-10-12 23:01:06  25 C   48 % 
 2018-10-12 22:51:29  25 C   48 % 
 2018-10-12 22:41:54  25 C   47 % 
 2018-10-12 22:32:19  25 C   47 % 
 2018-10-12 22:22:36  25 C   47 % 
 2018-10-12 22:12:57  25 C   47 % 
 2018-10-12 22:03:25  25 C   46 % 
 2018-10-12 21:33:41  26 C   45 % 
 2018-10-12 21:14:26  26 C   44 % 
 2018-10-12 20:07:15  30 C   39 % 
 2018-10-12 19:38:11  24 C   49 % 
 2018-10-12 19:28:29  23 C   52 % 
 2018-10-12 19:18:50  23 C   52 % 
 2018-10-12 19:09:13  23 C   52 % 
 2018-10-12 18:59:35  23 C   51 % 
 2018-10-12 18:49:55  23 C   51 % 
 2018-10-12 18:40:18  23 C   51 % 
 2018-10-12 18:30:38  23 C   51 % 
 2018-10-12 18:20:59  22 C   51 % 
 2018-10-12 18:11:24  22 C   51 % 
 2018-10-12 18:01:43  22 C   51 % 
 2018-10-12 17:52:11  23 C   51 % 
 2018-10-12 17:42:31  23 C   51 % 
 2018-10-12 17:32:55  23 C   51 % 
 2018-10-12 17:23:20  23 C   51 % 
 2018-10-12 17:13:42  23 C   51 % 
 2018-10-12 17:04:01  23 C   51 % 
 2018-10-12 16:54:26  23 C   51 % 
 2018-10-12 16:44:46  23 C   51 % 
 2018-10-12 16:35:11  23 C   51 % 
 2018-10-12 16:25:34  23 C   51 % 
 2018-10-12 16:15:54  23 C   51 % 
 2018-10-12 15:56:39  23 C   51 % 
 2018-10-12 15:37:26  23 C   51 % 
 2018-10-12 15:27:47  23 C   51 % 
 2018-10-12 15:18:08  23 C   51 % 
 2018-10-12 15:08:29  23 C   51 % 
 2018-10-12 14:58:54  23 C   51 % 
 2018-10-12 14:49:14  23 C   50 % 
 2018-10-12 14:39:37  23 C   50 % 
 2018-10-12 14:29:59  23 C   50 % 
 2018-10-12 14:20:31  23 C   51 % 
 2018-10-12 14:10:41  23 C   51 % 
 2018-10-12 13:51:25  23 C   50 % 
 2018-10-12 13:41:48  23 C   50 % 
 2018-10-12 13:32:11  23 C   50 % 
 2018-10-12 13:22:36  23 C   50 % 
 2018-10-12 13:13:07  23 C   50 % 
 2018-10-12 13:03:26  23 C   51 % 
 2018-10-12 12:53:32  23 C   51 % 
 2018-10-12 12:43:54  23 C   51 % 
 2018-10-12 12:34:14  23 C   51 % 
 2018-10-12 12:05:24  23 C   51 % 
 2018-10-12 11:55:54  23 C   51 % 
 2018-10-12 11:46:08  23 C   51 % 
 2018-10-12 11:36:28  23 C   51 % 
 2018-10-12 11:27:00  23 C   51 % 
 2018-10-12 11:17:10  23 C   51 % 
 2018-10-12 11:07:31  23 C   51 % 
 2018-10-12 10:57:52  23 C   51 % 
 2018-10-12 10:48:13  23 C   51 % 
 2018-10-12 10:28:57  23 C   51 % 
 2018-10-12 10:19:19  23 C   51 % 
 2018-10-12 10:09:40  23 C   51 % 
 2018-10-12 10:00:05  23 C   51 % 
 2018-10-12 09:50:25  23 C   51 % 
 2018-10-12 09:21:28  23 C   51 % 
 2018-10-12 09:11:50  23 C   51 % 
 2018-10-12 09:02:11  23 C   51 % 
 2018-10-12 08:52:31  23 C   51 % 
 2018-10-12 08:42:57  23 C   51 % 
 2018-10-12 08:33:16  23 C   51 % 
 2018-10-12 08:23:36  23 C   51 % 
 2018-10-12 08:13:57  23 C   52 % 
 2018-10-12 07:54:53  23 C   51 % 
 2018-10-12 07:45:04  23 C   51 % 
 2018-10-12 07:35:30  23 C   51 % 
 2018-10-12 07:25:49  23 C   52 % 
 2018-10-12 07:16:14  23 C   51 % 
 2018-10-12 07:06:38  23 C   52 % 
 2018-10-12 06:56:56  23 C   52 % 
 2018-10-12 06:47:17  23 C   52 % 
 2018-10-12 06:37:42  23 C   51 % 
 2018-10-12 06:28:06  23 C   51 % 
 2018-10-12 06:18:24  23 C   51 % 
 2018-10-12 06:08:45  23 C   51 % 
 2018-10-12 05:59:07  23 C   51 % 
 2018-10-12 05:49:32  23 C   51 % 
 2018-10-12 05:39:51  23 C   51 % 
 2018-10-12 05:30:11  23 C   51 % 
 2018-10-12 05:20:36  23 C   51 % 
 2018-10-12 05:10:57  23 C   51 % 
 2018-10-12 05:01:23  23 C   51 % 
 2018-10-12 04:51:54  23 C   51 % 
 2018-10-12 04:42:08  23 C   51 % 
 2018-10-12 04:32:28  23 C   51 % 
 2018-10-12 04:22:48  23 C   51 % 
 2018-10-12 04:13:13  23 C   51 % 
 2018-10-12 04:03:37  23 C   51 % 
 2018-10-12 03:53:55  23 C   51 % 
 2018-10-12 03:44:19  23 C   51 % 
 2018-10-12 03:34:38  23 C   51 % 
 2018-10-12 03:24:59  23 C   51 % 
 2018-10-12 03:15:19  23 C   51 % 
 2018-10-12 03:05:40  23 C   51 % 
 2018-10-12 02:56:01  23 C   51 % 
 2018-10-12 02:46:24  23 C   51 % 
 2018-10-12 02:36:46  23 C   51 % 
 2018-10-12 02:27:06  23 C   51 % 
 2018-10-12 02:17:32  23 C   51 % 
 2018-10-12 02:07:53  23 C   51 % 
 2018-10-12 01:58:17  23 C   51 % 
 2018-10-12 01:48:36  23 C   51 % 
 2018-10-12 01:39:01  23 C   51 % 
 2018-10-12 01:29:20  23 C   52 % 
 2018-10-12 01:19:40  23 C   52 % 
 2018-10-12 01:10:07  23 C   52 % 
 2018-10-12 01:00:24  23 C   52 % 
 2018-10-12 00:50:45  23 C   52 % 
 2018-10-12 00:41:06  23 C   52 % 
 2018-10-12 00:31:26  23 C   51 % 
 2018-10-12 00:21:47  23 C   52 % 
 2018-10-12 00:12:08  23 C   52 % 
 2018-10-12 00:02:28  23 C   52 % 
 2018-10-11 23:52:49  23 C   52 % 
 2018-10-11 23:43:10  23 C   52 % 
 2018-10-11 23:33:37  23 C   51 % 
 2018-10-11 23:23:55  23 C   51 % 
 2018-10-11 23:14:15  23 C   51 % 
 2018-10-11 23:04:41  24 C   51 % 
 2018-10-11 22:55:00  24 C   51 % 
 2018-10-11 22:45:26  24 C   51 % 
 2018-10-11 22:35:44  24 C   51 % 
 2018-10-11 22:26:09  24 C   51 % 
 2018-10-11 22:16:33  24 C   51 % 
 2018-10-11 22:06:51  24 C   50 % 
 2018-10-11 21:57:12  24 C   50 % 
 2018-10-11 21:47:33  24 C   50 % 
 2018-10-11 21:37:55  24 C   50 % 
 2018-10-11 21:28:15  24 C   50 % 
 2018-10-11 21:18:36  24 C   50 % 
 2018-10-11 20:59:19  24 C   50 % 
 2018-10-11 20:49:40  24 C   51 % 
 2018-10-11 20:40:03  24 C   51 % 
 2018-10-11 20:30:23  24 C   51 % 
 2018-10-11 20:20:43  24 C   51 % 
 2018-10-11 20:11:09  24 C   51 % 
 2018-10-11 20:01:28  24 C   51 % 
 2018-10-11 19:51:53  24 C   51 % 
 2018-10-11 19:42:16  24 C   52 % 
 2018-10-11 19:13:04  23 C   52 % 
 2018-10-11 19:03:26  23 C   51 % 
 2018-10-11 18:53:52  23 C   51 % 
 2018-10-11 18:44:14  23 C   51 % 
 2018-10-11 18:34:35  23 C   51 % 
 2018-10-11 18:24:55  23 C   51 % 
 2018-10-11 18:15:16  23 C   51 % 
 2018-10-11 18:05:42  23 C   51 % 
 2018-10-11 17:56:01  23 C   51 % 
 2018-10-11 17:46:21  23 C   51 % 
 2018-10-11 17:36:42  23 C   51 % 
 2018-10-11 17:27:06  23 C   51 % 
 2018-10-11 17:07:49  23 C   51 % 
 2018-10-11 16:58:10  23 C   51 % 
 2018-10-11 16:48:36  23 C   51 % 
 2018-10-11 16:38:55  23 C   51 % 
 2018-10-11 16:29:16  23 C   51 % 
 2018-10-11 16:09:59  23 C   51 % 
 2018-10-11 16:00:20  23 C   51 % 
 2018-10-11 15:50:42  23 C   51 % 
 2018-10-11 15:41:07  23 C   51 % 
 2018-10-11 15:31:26  23 C   51 % 
 2018-10-11 15:21:46  23 C   51 % 
 2018-10-11 15:12:07  23 C   51 % 
 2018-10-11 15:02:28  23 C   51 % 
 2018-10-11 14:52:49  23 C   51 % 
 2018-10-11 14:33:34  23 C   51 % 
 2018-10-11 14:24:00  23 C   51 % 
 2018-10-11 14:14:21  23 C   51 % 
 2018-10-11 14:04:41  23 C   51 % 
 2018-10-11 13:55:02  23 C   51 % 
 2018-10-11 13:45:24  23 C   51 % 
 2018-10-11 13:35:49  23 C   51 % 
 2018-10-11 13:26:07  23 C   51 % 
 2018-10-11 13:06:51  23 C   51 % 
 2018-10-11 12:57:13  23 C   51 % 
 2018-10-11 12:47:35  23 C   51 % 
 2018-10-11 12:38:00  23 C   51 % 
 2018-10-11 12:28:18  23 C   51 % 
 2018-10-11 12:18:39  23 C   51 % 
 2018-10-11 12:09:05  23 C   51 % 
 2018-10-11 11:59:23  23 C   51 % 
 2018-10-11 11:49:44  23 C   51 % 
 2018-10-11 11:40:07  23 C   51 % 
 2018-10-11 11:30:31  23 C   51 % 
 2018-10-11 11:20:50  23 C   52 % 
 2018-10-11 11:11:10  23 C   52 % 
 2018-10-11 11:01:31  23 C   52 % 
 2018-10-11 10:51:57  23 C   52 % 
 2018-10-11 10:32:01  23 C   52 % 
 2018-10-11 10:22:22  23 C   52 % 
 2018-10-11 10:12:42  23 C   52 % 
 2018-10-11 10:03:08  23 C   52 % 
 2018-10-11 09:53:27  23 C   52 % 
 2018-10-11 09:43:54  23 C   52 % 
 2018-10-11 09:24:40  23 C   52 % 
 2018-10-11 09:14:58  23 C   52 % 
 2018-10-11 09:05:18  23 C   52 % 
 2018-10-11 08:55:40  23 C   52 % 
 2018-10-11 08:46:01  23 C   52 % 
 2018-10-11 08:36:25  23 C   52 % 
 2018-10-11 08:26:45  23 C   52 % 
 2018-10-11 08:17:10  23 C   52 % 
 2018-10-11 08:07:31  23 C   52 % 
 2018-10-11 07:57:51  23 C   52 % 
 2018-10-11 07:48:13  23 C   52 % 
 2018-10-11 07:38:36  23 C   53 % 
 2018-10-11 07:29:00  23 C   53 % 
 2018-10-11 07:19:19  23 C   52 % 
 2018-10-11 07:09:39  23 C   53 % 
 2018-10-11 07:00:08  23 C   52 % 
 2018-10-11 06:50:27  23 C   53 % 
 2018-10-11 06:40:48  23 C   52 % 
 2018-10-11 06:31:08  23 C   52 % 
 2018-10-11 06:21:34  23 C   52 % 
 2018-10-11 06:11:53  23 C   52 % 
 2018-10-11 06:02:13  23 C   52 % 
 2018-10-11 05:52:37  23 C   52 % 
 2018-10-11 05:43:03  23 C   52 % 
 2018-10-11 05:33:19  23 C   52 % 
 2018-10-11 05:23:43  23 C   52 % 
 2018-10-11 05:14:06  23 C   51 % 
 2018-10-11 04:54:55  23 C   51 % 
 2018-10-11 04:35:23  23 C   52 % 
 2018-10-11 04:25:44  23 C   52 % 
 2018-10-11 04:16:11  23 C   52 % 
 2018-10-11 04:06:27  23 C   51 % 
 2018-10-11 03:56:49  23 C   51 % 
 2018-10-11 03:47:09  23 C   51 % 
 2018-10-11 03:37:30  23 C   51 % 
 2018-10-11 03:27:51  23 C   51 % 
 2018-10-11 03:18:12  23 C   51 % 
 2018-10-11 03:08:35  23 C   51 % 
 2018-10-11 02:58:59  23 C   51 % 
 2018-10-11 02:49:22  23 C   51 % 
 2018-10-11 02:39:40  23 C   51 % 
 2018-10-11 02:30:02  23 C   51 % 
 2018-10-11 02:20:23  23 C   51 % 
 2018-10-11 02:10:44  23 C   51 % 
 2018-10-11 02:01:10  23 C   51 % 
 2018-10-11 01:51:28  23 C   51 % 
 2018-10-11 01:41:51  23 C   51 % 
 2018-10-11 01:32:11  23 C   51 % 
 2018-10-11 01:22:33  23 C   51 % 
 2018-10-11 01:12:58  23 C   51 % 
 2018-10-11 01:03:19  23 C   51 % 
 2018-10-11 00:53:44  24 C   51 % 
 2018-10-11 00:44:02  24 C   51 % 
 2018-10-11 00:34:25  24 C   51 % 
 2018-10-11 00:14:55  24 C   51 % 
 2018-10-11 00:05:18  24 C   51 % 
 2018-10-10 23:55:43  24 C   51 % 
 2018-10-10 23:46:16  24 C   51 % 
 2018-10-10 23:36:20  24 C   51 % 
 2018-10-10 23:26:41  24 C   51 % 
 2018-10-10 23:17:05  24 C   51 % 
 2018-10-10 23:07:26  24 C   51 % 
 2018-10-10 22:57:51  24 C   51 % 
 2018-10-10 22:48:11  24 C   51 % 
 2018-10-10 22:38:32  24 C   51 % 
 2018-10-10 22:19:22  24 C   51 % 
 2018-10-10 22:09:40  24 C   51 % 
 2018-10-10 22:00:05  24 C   50 % 
 2018-10-10 21:40:54  24 C   50 % 
 2018-10-10 21:31:13  24 C   50 % 
 2018-10-10 21:21:43  24 C   50 % 
 2018-10-10 20:52:08  24 C   50 % 
 2018-10-10 20:42:28  24 C   49 % 
 2018-10-10 20:32:49  24 C   49 % 
 2018-10-10 20:23:14  24 C   49 % 
 2018-10-10 20:13:39  24 C   49 % 
 2018-10-10 20:04:06  25 C   50 % 
 2018-10-10 19:54:20  25 C   52 % 
 2018-10-10 19:44:42  24 C   52 % 
 2018-10-10 19:35:02  24 C   52 % 
 2018-10-10 19:25:28  24 C   52 % 
 2018-10-10 19:15:51  24 C   52 % 
 2018-10-10 18:56:18  24 C   53 % 
 2018-10-10 18:46:39  24 C   53 % 
 2018-10-10 18:27:25  24 C   53 % 
 2018-10-10 18:17:45  24 C   54 % 
 2018-10-10 18:08:06  24 C   56 % 
 2018-10-10 17:58:27  24 C   58 % 
 2018-10-10 17:48:50  23 C   53 % 
 2018-10-10 17:39:09  23 C   53 % 
 2018-10-10 17:29:29  23 C   52 % 
 2018-10-10 17:19:53  23 C   52 % 
 2018-10-10 17:10:12  23 C   52 % 
 2018-10-10 17:00:35  23 C   52 % 
 2018-10-10 16:50:55  23 C   52 % 
 2018-10-10 16:31:50  23 C   52 % 
 2018-10-10 16:22:09  23 C   52 % 
 2018-10-10 15:52:20  23 C   52 % 
 2018-10-10 15:42:57  23 C   53 % 
 2018-10-10 15:32:50  23 C   53 % 
 2018-10-10 15:23:16  23 C   52 % 
 2018-10-10 15:13:34  23 C   53 % 
 2018-10-10 15:03:54  23 C   53 % 
 2018-10-10 14:54:15  23 C   52 % 
 2018-10-10 14:44:35  23 C   52 % 
 2018-10-10 14:35:02  23 C   52 % 
 2018-10-10 14:25:23  23 C   52 % 
 2018-10-10 14:15:43  23 C   52 % 
 2018-10-10 14:06:04  23 C   51 % 
 2018-10-10 13:56:27  24 C   51 % 
 2018-10-10 13:46:48  24 C   51 % 
 2018-10-10 13:27:36  24 C   50 % 
 2018-10-10 13:18:00  24 C   50 % 
 2018-10-10 13:08:20  24 C   50 % 
 2018-10-10 12:58:40  24 C   50 % 
 2018-10-10 12:49:00  24 C   50 % 
 2018-10-10 12:29:32  24 C   50 % 
 2018-10-10 12:09:52  24 C   50 % 
 2018-10-10 12:00:10  24 C   50 % 
 2018-10-10 11:50:39  24 C   50 % 
 2018-10-10 11:41:00  24 C   50 % 
 2018-10-10 11:31:18  24 C   50 % 
 2018-10-10 11:21:38  24 C   50 % 
 2018-10-10 11:12:04  24 C   50 % 
 2018-10-10 11:02:23  24 C   50 % 
 2018-10-10 10:52:44  24 C   50 % 
 2018-10-10 10:43:05  24 C   50 % 
 2018-10-10 10:33:25  24 C   50 % 
 2018-10-10 10:23:51  24 C   51 % 
 2018-10-10 10:14:13  24 C   50 % 
 2018-10-10 10:04:40  24 C   50 % 
 2018-10-10 09:54:58  24 C   50 % 
 2018-10-10 09:45:20  24 C   50 % 
 2018-10-10 09:35:40  24 C   50 % 
 2018-10-10 09:26:04  24 C   50 % 
 2018-10-10 09:16:28  24 C   50 % 
 2018-10-10 09:06:55  24 C   50 % 
 2018-10-10 08:57:11  24 C   50 % 
 2018-10-10 08:47:32  24 C   50 % 
 2018-10-10 08:37:58  24 C   50 % 
 2018-10-10 08:18:41  24 C   50 % 
 2018-10-10 08:09:04  24 C   50 % 
 2018-10-10 07:49:52  24 C   50 % 
 2018-10-10 07:30:33  24 C   52 % 
 2018-10-10 07:21:03  24 C   51 % 
 2018-10-10 07:11:22  24 C   51 % 
 2018-10-10 07:01:42  24 C   51 % 
 2018-10-10 06:52:01  24 C   51 % 
 2018-10-10 06:42:24  24 C   51 % 
 2018-10-10 06:32:47  23 C   51 % 
 2018-10-10 06:12:59  23 C   51 % 
 2018-10-10 06:03:27  24 C   51 % 
 2018-10-10 05:53:46  24 C   51 % 
 2018-10-10 05:44:10  24 C   51 % 
 2018-10-10 05:34:34  24 C   51 % 
 2018-10-10 05:05:39  24 C   51 % 
 2018-10-10 04:36:23  24 C   51 % 
 2018-10-10 04:26:42  24 C   51 % 
 2018-10-10 04:17:03  24 C   51 % 
 2018-10-10 04:07:24  24 C   51 % 
 2018-10-10 03:57:49  24 C   51 % 
 2018-10-10 03:48:08  24 C   51 % 
 2018-10-10 03:38:35  24 C   51 % 
 2018-10-10 03:19:17  24 C   51 % 
 2018-10-10 03:09:40  24 C   51 % 
 2018-10-10 02:59:58  24 C   51 % 
 2018-10-10 02:50:24  24 C   51 % 
 2018-10-10 02:40:45  24 C   51 % 
 2018-10-10 02:31:11  24 C   51 % 
 2018-10-10 02:21:29  24 C   51 % 
 2018-10-10 02:11:56  24 C   51 % 
 2018-10-10 01:52:49  24 C   51 % 
 2018-10-10 01:42:59  24 C   51 % 
 2018-10-10 01:33:20  24 C   51 % 
 2018-10-10 01:23:54  24 C   51 % 
 2018-10-10 01:13:57  24 C   51 % 
 2018-10-10 01:04:18  24 C   51 % 
 2018-10-10 00:54:45  24 C   51 % 
 2018-10-10 00:45:04  24 C   51 % 
 2018-10-10 00:35:29  24 C   51 % 
 2018-10-09 23:56:29  24 C   51 % 
 2018-10-09 23:46:52  24 C   51 % 
 2018-10-09 23:37:21  24 C   51 % 
 2018-10-09 23:17:54  24 C   51 % 
 2018-10-09 23:08:16  24 C   51 % 
 2018-10-09 22:58:38  24 C   51 % 
 2018-10-09 22:39:28  24 C   51 % 
 2018-10-09 21:51:28  24 C   51 % 
 2018-10-09 21:32:14  24 C   51 % 
 2018-10-09 21:13:00  24 C   51 % 
 2018-10-09 20:34:31  24 C   51 % 
 2018-10-09 20:24:52  24 C   51 % 
 2018-10-09 20:05:38  24 C   52 % 
 2018-10-09 19:56:04  24 C   52 % 
 2018-10-09 19:46:29  24 C   52 % 
 2018-10-09 19:36:43  24 C   53 % 
 2018-10-09 19:27:03  24 C   53 % 
 2018-10-09 19:17:26  24 C   53 % 
 2018-10-09 19:07:51  24 C   52 % 
 2018-10-09 18:58:10  24 C   54 % 
 2018-10-09 18:48:30  24 C   50 % 
 2018-10-09 18:38:59  23 C   50 % 
 2018-10-09 18:29:16  23 C   50 % 
 2018-10-09 18:19:36  23 C   50 % 
 2018-10-09 18:09:57  23 C   50 % 
 2018-10-09 18:00:24  23 C   50 % 
 2018-10-09 17:50:51  23 C   50 % 
 2018-10-09 17:31:18  23 C   50 % 
 2018-10-09 17:21:35  23 C   50 % 
 2018-10-09 17:11:57  23 C   50 % 
 2018-10-09 17:02:18  23 C   50 % 
 2018-10-09 16:52:39  23 C   50 % 
 2018-10-09 16:33:16  23 C   50 % 
 2018-10-09 16:23:35  23 C   50 % 
 2018-10-09 16:13:58  23 C   49 % 
 2018-10-09 16:04:23  23 C   49 % 
 2018-10-09 15:54:42  23 C   49 % 
 2018-10-09 15:45:03  23 C   50 % 
 2018-10-09 15:25:48  23 C   49 % 
 2018-10-09 15:16:10  23 C   49 % 
 2018-10-09 15:06:35  23 C   49 % 
 2018-10-09 14:56:56  23 C   49 % 
 2018-10-09 14:37:28  23 C   49 % 
 2018-10-09 14:27:53  23 C   49 % 
 2018-10-09 14:18:13  23 C   49 % 
 2018-10-09 14:08:39  23 C   49 % 
 2018-10-09 13:59:01  23 C   49 % 
 2018-10-09 13:39:43  23 C   49 % 
 2018-10-09 13:20:30  23 C   50 % 
 2018-10-09 13:01:14  24 C   49 % 
 2018-10-09 12:51:35  24 C   49 % 
 2018-10-09 12:42:01  24 C   49 % 
 2018-10-09 12:32:20  24 C   49 % 
 2018-10-09 12:22:45  24 C   49 % 
 2018-10-09 12:13:03  24 C   49 % 
 2018-10-09 12:03:24  24 C   48 % 
 2018-10-09 11:53:56  24 C   49 % 
 2018-10-09 11:44:14  24 C   49 % 
 2018-10-09 11:34:35  24 C   49 % 
 2018-10-09 11:24:56  24 C   48 % 
 2018-10-09 11:15:16  24 C   48 % 
 2018-10-09 11:05:45  24 C   48 % 
 2018-10-09 10:46:25  24 C   48 % 
 2018-10-09 10:36:52  24 C   48 % 
 2018-10-09 10:17:33  24 C   48 % 
 2018-10-09 10:07:58  24 C   48 % 
 2018-10-09 09:58:17  24 C   48 % 
 2018-10-09 09:48:42  24 C   48 % 
 2018-10-09 09:29:06  24 C   48 % 
 2018-10-09 09:19:26  24 C   48 % 
 2018-10-09 09:09:54  24 C   47 % 
 2018-10-09 09:00:11  24 C   48 % 
 2018-10-09 08:50:37  24 C   48 % 
 2018-10-09 08:31:19  24 C   48 % 
 2018-10-09 08:21:37  24 C   48 % 
 2018-10-09 08:12:04  24 C   48 % 
 2018-10-09 08:02:23  24 C   49 % 
 2018-10-09 07:52:48  24 C   49 % 
 2018-10-09 07:43:06  24 C   50 % 
 2018-10-09 07:33:27  23 C   50 % 
 2018-10-09 07:23:55  23 C   50 % 
 2018-10-09 07:04:31  23 C   50 % 
 2018-10-09 06:54:56  23 C   50 % 
 2018-10-09 06:45:20  23 C   49 % 
 2018-10-09 06:25:42  23 C   49 % 
 2018-10-09 06:15:55  23 C   49 % 
 2018-10-09 05:56:13  23 C   49 % 
 2018-10-09 05:46:39  23 C   49 % 
 2018-10-09 05:36:58  23 C   49 % 
 2018-10-09 05:27:20  23 C   48 % 
 2018-10-09 05:17:41  23 C   48 % 
 2018-10-09 04:58:26  23 C   48 % 
 2018-10-09 04:29:38  23 C   48 % 
 2018-10-09 04:19:58  23 C   48 % 
 2018-10-09 03:50:51  23 C   48 % 
 2018-10-09 03:41:05  23 C   48 % 
 2018-10-09 03:31:30  23 C   48 % 
 2018-10-09 03:21:48  23 C   48 % 
 2018-10-09 03:12:08  23 C   48 % 
 2018-10-09 03:02:29  23 C   48 % 
 2018-10-09 02:52:49  23 C   48 % 
 2018-10-09 02:43:10  23 C   48 % 
 2018-10-09 02:33:36  23 C   48 % 
 2018-10-09 02:23:55  23 C   48 % 
 2018-10-09 02:14:21  23 C   48 % 
 2018-10-09 02:04:43  23 C   48 % 
 2018-10-09 01:25:26  23 C   48 % 
 2018-10-09 01:15:46  24 C   48 % 
 2018-10-09 01:06:11  24 C   48 % 
 2018-10-09 00:56:31  24 C   48 % 
 2018-10-09 00:46:54  24 C   48 % 
 2018-10-09 00:37:15  24 C   48 % 
 2018-10-09 00:17:35  24 C   48 % 
 2018-10-09 00:07:53  24 C   48 % 
 2018-10-08 23:58:22  24 C   48 % 
 2018-10-08 23:48:42  24 C   48 % 
 2018-10-08 23:39:13  24 C   48 % 
 2018-10-08 23:29:23  24 C   48 % 
 2018-10-08 23:10:09  24 C   48 % 
 2018-10-08 23:00:30  24 C   48 % 
 2018-10-08 22:50:54  24 C   48 % 
 2018-10-08 22:31:42  24 C   48 % 
 2018-10-08 22:12:25  24 C   48 % 
 2018-10-08 22:02:52  24 C   48 % 
 2018-10-08 21:53:23  24 C   49 % 
 2018-10-08 21:14:31  24 C   48 % 
 2018-10-08 21:04:57  24 C   49 % 
 2018-10-08 20:36:09  24 C   50 % 
 2018-10-08 19:57:26  24 C   47 % 
 2018-10-08 19:38:11  23 C   48 % 
 2018-10-08 18:59:20  23 C   48 % 
 2018-10-08 18:30:10  23 C   47 % 
 2018-10-08 18:20:32  23 C   48 % 
 2018-10-08 18:00:50  23 C   47 % 
 2018-10-08 17:50:59  23 C   47 % 
 2018-10-08 17:11:59  23 C   46 % 
 2018-10-08 17:02:19  23 C   46 % 
 2018-10-08 16:52:41  23 C   45 % 
 2018-10-08 16:43:02  23 C   45 % 
 2018-10-08 16:33:24  23 C   43 % 
 2018-10-08 16:23:44  23 C   46 % 
 2018-10-08 16:14:08  23 C   45 % 
 2018-10-08 15:54:50  23 C   48 % 
 2018-10-08 15:45:12  23 C   48 % 
 2018-10-08 15:35:32  23 C   48 % 
 2018-10-08 15:25:53  23 C   47 % 
 2018-10-08 15:16:21  23 C   47 % 
 2018-10-08 15:06:38  23 C   47 % 
 2018-10-08 14:56:59  23 C   47 % 
 2018-10-08 14:47:26  23 C   48 % 
 2018-10-08 14:37:51  23 C   48 % 
 2018-10-08 14:28:06  23 C   48 % 
 2018-10-08 14:08:42  23 C   48 % 
 2018-10-08 13:49:27  23 C   48 % 
 2018-10-08 13:39:49  23 C   48 % 
 2018-10-08 13:30:09  23 C   47 % 
 2018-10-08 13:20:33  23 C   47 % 
 2018-10-08 13:01:19  23 C   47 % 
 2018-10-08 12:51:47  23 C   47 % 
 2018-10-08 12:32:27  23 C   47 % 
 2018-10-08 12:13:12  22 C   47 % 
 2018-10-08 11:53:59  22 C   48 % 
 2018-10-08 11:44:32  22 C   48 % 
 2018-10-08 11:34:44  22 C   46 % 
 2018-10-08 11:24:59  22 C   46 % 
 2018-10-08 11:15:24  22 C   46 % 
 2018-10-08 10:55:53  22 C   47 % 
 2018-10-08 10:46:13  22 C   47 % 
 2018-10-08 10:36:39  22 C   46 % 
 2018-10-08 10:16:51  22 C   46 % 
 2018-10-08 10:07:10  22 C   46 % 
 2018-10-08 09:57:31  22 C   46 % 
 2018-10-08 09:47:51  22 C   46 % 
 2018-10-08 09:38:17  22 C   46 % 
 2018-10-08 09:28:40  22 C   46 % 
 2018-10-08 09:18:59  22 C   46 % 
 2018-10-08 08:50:11  22 C   46 % 
 2018-10-08 08:40:37  22 C   46 % 
 2018-10-08 08:02:15  22 C   46 % 
 2018-10-08 07:43:04  22 C   46 % 
 2018-10-08 07:33:27  22 C   46 % 
 2018-10-08 07:23:52  22 C   46 % 
 2018-10-08 07:14:18  22 C   46 % 
 2018-10-08 07:04:46  22 C   46 % 
 2018-10-08 06:55:09  22 C   46 % 
 2018-10-08 06:45:34  22 C   46 % 
 2018-10-08 06:35:57  22 C   46 % 
 2018-10-08 06:07:12  22 C   46 % 
 2018-10-08 05:48:01  22 C   46 % 
 2018-10-08 05:38:24  22 C   46 % 
 2018-10-08 05:28:52  22 C   46 % 
 2018-10-08 05:19:15  22 C   46 % 
 2018-10-08 05:09:40  22 C   46 % 
 2018-10-08 05:00:06  22 C   46 % 
 2018-10-08 04:50:26  22 C   46 % 
 2018-10-08 04:21:41  22 C   47 % 
 2018-10-08 04:02:23  22 C   47 % 
 2018-10-08 03:43:07  22 C   47 % 
 2018-10-08 03:23:41  22 C   47 % 
 2018-10-08 03:04:05  22 C   47 % 
 2018-10-08 02:54:27  22 C   47 % 
 2018-10-08 02:44:48  22 C   47 % 
 2018-10-08 02:35:09  22 C   47 % 
 2018-10-08 02:25:35  22 C   47 % 
 2018-10-08 02:15:52  22 C   47 % 
 2018-10-08 02:06:13  22 C   47 % 
 2018-10-08 01:56:36  22 C   47 % 
 2018-10-08 01:46:57  22 C   47 % 
 2018-10-08 01:37:23  22 C   47 % 
 2018-10-08 01:27:41  22 C   48 % 
 2018-10-08 01:18:05  22 C   48 % 
 2018-10-08 01:08:29  22 C   48 % 
 2018-10-08 00:58:48  22 C   48 % 
 2018-10-08 00:49:12  22 C   48 % 
 2018-10-08 00:39:32  22 C   48 % 
 2018-10-08 00:29:53  22 C   48 % 
 2018-10-08 00:20:13  22 C   48 % 
 2018-10-08 00:10:40  22 C   48 % 
 2018-10-08 00:00:58  22 C   48 % 
 2018-10-07 23:41:49  22 C   48 % 
 2018-10-07 23:22:14  22 C   48 % 
 2018-10-07 22:43:11  22 C   48 % 
 2018-10-07 22:33:33  22 C   48 % 
 2018-10-07 22:23:55  22 C   47 % 
 2018-10-07 21:54:55  22 C   47 % 
 2018-10-07 21:45:20  22 C   47 % 
 2018-10-07 21:35:39  22 C   47 % 
 2018-10-07 21:06:36  22 C   47 % 
 2018-10-07 20:56:46  22 C   47 % 
 2018-10-07 20:27:51  22 C   47 % 
 2018-10-07 20:18:13  22 C   47 % 
 2018-10-07 20:08:46  22 C   47 % 
 2018-10-07 19:58:53  22 C   47 % 
 2018-10-07 19:49:14  22 C   47 % 
 2018-10-07 19:39:40  22 C   47 % 
 2018-10-07 19:20:30  22 C   47 % 
 2018-10-07 19:10:46  22 C   47 % 
 2018-10-07 18:51:30  22 C   47 % 
 2018-10-07 18:41:59  22 C   47 % 
 2018-10-07 18:32:19  22 C   47 % 
 2018-10-07 18:22:44  22 C   47 % 
 2018-10-07 18:13:04  22 C   48 % 
 2018-10-07 17:53:13  22 C   48 % 
 2018-10-07 17:33:58  22 C   48 % 
 2018-10-07 17:14:46  22 C   48 % 
 2018-10-07 17:05:07  22 C   48 % 
 2018-10-07 16:25:59  22 C   48 % 
 2018-10-07 16:16:24  22 C   48 % 
 2018-10-07 16:06:45  22 C   49 % 
 2018-10-07 15:57:06  22 C   60 % 
 2018-10-07 15:47:32  22 C   47 % 
 2018-10-07 15:37:51  22 C   47 % 
 2018-10-07 15:28:18  22 C   47 % 
 2018-10-07 15:09:00  22 C   47 % 
 2018-10-07 14:59:21  22 C   48 % 
 2018-10-07 14:49:56  22 C   47 % 
 2018-10-07 14:30:05  22 C   47 % 
 2018-10-07 14:20:27  22 C   46 % 
 2018-10-07 14:11:01  22 C   46 % 
 2018-10-07 14:01:06  22 C   45 % 
 2018-10-07 13:51:27  23 C   45 % 
 2018-10-07 13:41:49  23 C   45 % 
 2018-10-07 13:32:20  23 C   45 % 
 2018-10-07 13:02:28  23 C   45 % 
 2018-10-07 12:52:49  23 C   44 % 
 2018-10-07 12:43:10  23 C   44 % 
 2018-10-07 12:33:36  23 C   44 % 
 2018-10-07 12:14:18  24 C   43 % 
 2018-10-07 12:04:39  24 C   43 % 
 2018-10-07 11:35:25  24 C   42 % 
 2018-10-07 11:15:57  22 C   51 % 
 2018-10-07 11:06:18  22 C   47 % 
 2018-10-07 10:47:04  22 C   47 % 
 2018-10-07 10:37:24  22 C   46 % 
 2018-10-07 10:27:48  22 C   46 % 
 2018-10-07 10:18:08  22 C   46 % 
 2018-10-07 10:08:31  22 C   46 % 
 2018-10-07 09:58:52  22 C   46 % 
 2018-10-07 09:49:14  22 C   46 % 
 2018-10-07 09:19:48  22 C   47 % 
 2018-10-07 09:10:14  22 C   47 % 
 2018-10-07 09:00:31  22 C   46 % 
 2018-10-07 08:50:54  22 C   46 % 
 2018-10-07 08:41:22  22 C   45 % 
 2018-10-07 08:31:41  22 C   45 % 
 2018-10-07 08:22:05  22 C   45 % 
 2018-10-07 08:02:20  22 C   45 % 
 2018-10-07 07:52:40  22 C   45 % 
 2018-10-07 07:43:04  22 C   45 % 
 2018-10-07 07:33:23  22 C   45 % 
 2018-10-07 07:23:46  22 C   45 % 
 2018-10-07 07:14:09  22 C   45 % 
 2018-10-07 07:04:33  22 C   45 % 
 2018-10-07 06:54:51  22 C   45 % 
 2018-10-07 05:56:17  22 C   45 % 
 2018-10-07 05:46:43  22 C   45 % 
 2018-10-07 05:37:02  22 C   45 % 
 2018-10-07 05:27:22  22 C   45 % 
 2018-10-07 05:17:44  22 C   45 % 
 2018-10-07 05:08:04  22 C   45 % 
 2018-10-07 04:58:27  22 C   45 % 
 2018-10-07 04:48:47  22 C   45 % 
 2018-10-07 04:39:10  22 C   45 % 
 2018-10-07 04:19:58  22 C   45 % 
 2018-10-07 04:10:24  22 C   45 % 
 2018-10-07 04:00:45  22 C   45 % 
 2018-10-07 03:51:12  22 C   45 % 
 2018-10-07 03:41:28  22 C   45 % 
 2018-10-07 03:31:49  22 C   45 % 
 2018-10-07 03:22:12  22 C   45 % 
 2018-10-07 03:12:39  22 C   45 % 
 2018-10-07 03:02:57  22 C   45 % 
 2018-10-07 02:53:23  22 C   45 % 
 2018-10-07 02:43:45  22 C   45 % 
 2018-10-07 02:34:08  22 C   45 % 
 2018-10-07 02:24:34  22 C   45 % 
 2018-10-07 02:14:51  22 C   45 % 
 2018-10-07 02:05:18  22 C   45 % 
 2018-10-07 01:36:27  23 C   45 % 
 2018-10-07 01:26:47  23 C   45 % 
 2018-10-07 01:17:09  22 C   45 % 
 2018-10-07 00:58:00  23 C   45 % 
 2018-10-07 00:38:49  23 C   45 % 
 2018-10-07 00:29:11  23 C   45 % 
 2018-10-07 00:00:17  23 C   45 % 
 2018-10-06 23:50:47  23 C   45 % 
 2018-10-06 23:22:04  23 C   45 % 
 2018-10-06 23:11:53  23 C   45 % 
 2018-10-06 22:52:50  23 C   45 % 
 2018-10-06 22:42:58  23 C   45 % 
 2018-10-06 22:33:21  23 C   45 % 
 2018-10-06 22:13:35  23 C   45 % 
 2018-10-06 21:34:37  23 C   45 % 
 2018-10-06 21:15:23  23 C   45 % 
 2018-10-06 20:56:13  23 C   45 % 
 2018-10-06 20:46:31  23 C   45 % 
 2018-10-06 20:36:56  23 C   44 % 
 2018-10-06 20:07:50  23 C   44 % 
 2018-10-06 19:58:11  23 C   43 % 
 2018-10-06 19:19:34  22 C   46 % 
 2018-10-06 19:09:57  22 C   46 % 
 2018-10-06 19:00:21  22 C   47 % 
 2018-10-06 18:50:42  22 C   46 % 
 2018-10-06 18:41:02  22 C   46 % 
 2018-10-06 18:31:22  22 C   46 % 
 2018-10-06 18:21:44  22 C   46 % 
 2018-10-06 18:12:05  22 C   46 % 
 2018-10-06 18:02:30  22 C   46 % 
 2018-10-06 17:52:50  22 C   46 % 
 2018-10-06 17:43:16  22 C   46 % 
 2018-10-06 17:33:37  22 C   46 % 
 2018-10-06 17:23:59  22 C   46 % 
 2018-10-06 17:04:43  22 C   46 % 
 2018-10-06 16:55:04  22 C   46 % 
 2018-10-06 16:26:08  22 C   46 % 
 2018-10-06 16:06:54  22 C   46 % 
 2018-10-06 15:57:15  22 C   46 % 
 2018-10-06 15:47:36  22 C   46 % 
 2018-10-06 15:28:03  22 C   46 % 
 2018-10-06 15:18:25  22 C   46 % 
 2018-10-06 15:08:46  22 C   46 % 
 2018-10-06 14:49:28  22 C   46 % 
 2018-10-06 14:30:13  22 C   46 % 
 2018-10-06 14:20:34  22 C   46 % 
 2018-10-06 14:11:00  22 C   46 % 
 2018-10-06 14:01:25  22 C   46 % 
 2018-10-06 13:51:45  22 C   46 % 
 2018-10-06 13:42:19  22 C   46 % 
 2018-10-06 13:32:28  22 C   46 % 
 2018-10-06 13:22:44  22 C   46 % 
 2018-10-06 13:13:08  22 C   46 % 
 2018-10-06 13:03:28  22 C   46 % 
 2018-10-06 12:53:50  22 C   46 % 
 2018-10-06 12:44:13  22 C   46 % 
 2018-10-06 12:24:59  22 C   46 % 
 2018-10-06 11:46:37  22 C   46 % 
 2018-10-06 11:36:55  22 C   46 % 
 2018-10-06 11:17:51  22 C   46 % 
 2018-10-06 10:58:23  22 C   46 % 
 2018-10-06 10:39:13  22 C   46 % 
 2018-10-06 10:29:32  22 C   46 % 
 2018-10-06 10:10:19  22 C   46 % 
 2018-10-06 09:51:04  22 C   47 % 
 2018-10-06 09:41:28  22 C   46 % 
 2018-10-06 09:31:52  22 C   46 % 
 2018-10-06 09:12:30  22 C   46 % 
 2018-10-06 09:03:01  22 C   46 % 
 2018-10-06 08:53:12  22 C   46 % 
 2018-10-06 08:43:32  22 C   46 % 
 2018-10-06 08:33:57  22 C   46 % 
 2018-10-06 08:14:25  22 C   46 % 
 2018-10-06 08:04:46  22 C   46 % 
 2018-10-06 07:55:06  22 C   46 % 
 2018-10-06 07:45:35  22 C   46 % 
 2018-10-06 07:26:25  22 C   46 % 
 2018-10-06 07:16:36  22 C   46 % 
 2018-10-06 07:07:04  22 C   46 % 
 2018-10-06 06:57:25  22 C   47 % 
 2018-10-06 06:47:47  22 C   47 % 
 2018-10-06 06:38:06  22 C   46 % 
 2018-10-06 06:18:54  22 C   46 % 
 2018-10-06 06:09:18  22 C   46 % 
 2018-10-06 05:59:50  22 C   47 % 
 2018-10-06 05:49:55  22 C   47 % 
 2018-10-06 05:30:32  22 C   47 % 
 2018-10-06 05:20:58  22 C   47 % 
 2018-10-06 05:11:19  22 C   47 % 
 2018-10-06 05:01:40  22 C   47 % 
 2018-10-06 04:52:00  22 C   47 % 
 2018-10-06 04:42:23  22 C   47 % 
 2018-10-06 04:32:48  22 C   47 % 
 2018-10-06 04:23:08  22 C   47 % 
 2018-10-06 04:13:38  22 C   47 % 
 2018-10-06 04:03:57  22 C   47 % 
 2018-10-06 03:54:24  22 C   47 % 
 2018-10-06 03:25:21  22 C   47 % 
 2018-10-06 03:05:45  22 C   47 % 
 2018-10-06 02:56:17  22 C   47 % 
 2018-10-06 02:46:28  22 C   47 % 
 2018-10-06 02:37:02  22 C   47 % 
 2018-10-06 02:27:09  22 C   47 % 
 2018-10-06 02:17:26  22 C   47 % 
 2018-10-06 02:07:49  22 C   47 % 
 2018-10-06 01:58:09  22 C   47 % 
 2018-10-06 01:48:43  22 C   47 % 
 2018-10-06 01:38:49  22 C   48 % 
 2018-10-06 01:09:44  22 C   48 % 
 2018-10-06 01:00:13  22 C   48 % 
 2018-10-06 00:50:42  22 C   48 % 
 2018-10-06 00:40:51  22 C   48 % 
 2018-10-06 00:31:07  22 C   48 % 
 2018-10-06 00:21:28  22 C   48 % 
 2018-10-06 00:11:54  22 C   48 % 
 2018-10-06 00:02:13  22 C   48 % 
 2018-10-05 23:52:35  22 C   48 % 
 2018-10-05 23:23:22  22 C   48 % 
 2018-10-05 23:13:44  22 C   48 % 
 2018-10-05 23:04:10  22 C   48 % 
 2018-10-05 22:54:28  22 C   48 % 
 2018-10-05 22:44:50  22 C   48 % 
 2018-10-05 22:35:12  22 C   48 % 
 2018-10-05 22:25:40  22 C   48 % 
 2018-10-05 22:06:21  22 C   48 % 
 2018-10-05 21:47:21  22 C   48 % 
 2018-10-05 21:37:18  22 C   48 % 
 2018-10-05 21:18:22  22 C   48 % 
 2018-10-05 20:48:03  22 C   48 % 
 2018-10-05 20:28:49  22 C   49 % 
 2018-10-05 19:59:50  22 C   49 % 
 2018-10-05 19:30:53  22 C   49 % 
 2018-10-05 19:11:22  22 C   49 % 
 2018-10-05 18:32:53  22 C   48 % 
 2018-10-05 18:23:18  22 C   48 % 
 2018-10-05 18:13:38  22 C   48 % 
 2018-10-05 18:04:04  22 C   47 % 
 2018-10-05 17:54:28  22 C   47 % 
 2018-10-05 17:44:47  22 C   47 % 
 2018-10-05 17:35:09  22 C   47 % 
 2018-10-05 17:25:32  22 C   47 % 
 2018-10-05 16:56:16  22 C   46 % 
 2018-10-05 16:46:43  22 C   46 % 
 2018-10-05 16:37:03  22 C   46 % 
 2018-10-05 16:27:26  22 C   46 % 
 2018-10-05 16:17:52  22 C   46 % 
 2018-10-05 15:48:32  22 C   45 % 
 2018-10-05 15:19:47  22 C   45 % 
 2018-10-05 15:10:10  22 C   45 % 
 2018-10-05 15:00:29  22 C   45 % 
 2018-10-05 14:50:49  22 C   45 % 
 2018-10-05 14:41:10  22 C   45 % 
 2018-10-05 14:31:32  22 C   45 % 
 2018-10-05 14:21:57  22 C   44 % 
 2018-10-05 14:02:43  22 C   44 % 
 2018-10-05 13:53:12  22 C   44 % 
 2018-10-05 13:43:19  22 C   44 % 
 2018-10-05 13:33:51  22 C   44 % 
 2018-10-05 13:24:04  22 C   44 % 
 2018-10-05 13:14:27  22 C   44 % 
 2018-10-05 12:55:16  22 C   43 % 
 2018-10-05 12:45:35  22 C   43 % 
 2018-10-05 12:35:58  22 C   43 % 
 2018-10-05 12:26:18  22 C   42 % 
 2018-10-05 12:07:07  22 C   41 % 
 2018-10-05 11:57:27  22 C   41 % 
 2018-10-05 11:47:49  22 C   40 % 
 2018-10-05 11:38:14  22 C   39 % 
 2018-10-05 11:28:33  22 C   38 % 
 2018-10-05 11:18:53  22 C   36 % 
 2018-10-05 11:09:20  22 C   37 % 
 2018-10-05 10:59:46  22 C   38 % 
 2018-10-05 10:50:07  22 C   39 % 
 2018-10-05 10:40:33  22 C   42 % 
 2018-10-05 10:30:51  22 C   47 % 
 2018-10-05 10:21:12  22 C   47 % 
 2018-10-05 10:11:40  22 C   47 % 
 2018-10-05 09:42:25  23 C   47 % 
 2018-10-05 09:32:48  23 C   47 % 
 2018-10-05 09:13:25  22 C   47 % 
 2018-10-05 08:53:57  22 C   47 % 
 2018-10-05 08:44:23  22 C   47 % 
 2018-10-05 08:34:42  22 C   46 % 
 2018-10-05 08:25:19  23 C   46 % 
 2018-10-05 08:15:21  23 C   46 % 
 2018-10-05 07:35:59  22 C   46 % 
 2018-10-05 07:26:26  22 C   46 % 
 2018-10-05 07:16:46  23 C   46 % 
 2018-10-05 07:07:07  23 C   46 % 
 2018-10-05 06:57:29  23 C   46 % 
 2018-10-05 06:38:13  23 C   46 % 
 2018-10-05 05:59:06  23 C   46 % 
 2018-10-05 05:49:27  23 C   46 % 
 2018-10-05 05:20:15  23 C   46 % 
 2018-10-05 05:00:52  23 C   46 % 
 2018-10-05 04:51:15  23 C   46 % 
 2018-10-05 04:32:01  23 C   46 % 
 2018-10-05 04:22:24  23 C   46 % 
 2018-10-05 04:12:46  23 C   46 % 
 2018-10-05 03:53:22  23 C   46 % 
 2018-10-05 03:43:52  23 C   46 % 
 2018-10-05 03:24:37  23 C   46 % 
 2018-10-05 03:15:06  23 C   46 % 
 2018-10-05 02:55:07  23 C   46 % 
 2018-10-05 02:45:27  23 C   46 % 
 2018-10-05 02:36:02  23 C   46 % 
 2018-10-05 02:26:01  23 C   46 % 
 2018-10-05 02:06:45  23 C   46 % 
 2018-10-05 01:57:25  22 C   46 % 
 2018-10-05 01:47:08  23 C   46 % 
 2018-10-05 01:37:30  23 C   45 % 
 2018-10-05 01:27:51  23 C   45 % 
 2018-10-05 00:58:59  22 C   45 % 
 2018-10-05 00:49:24  22 C   45 % 
 2018-10-05 00:20:31  23 C   45 % 
 2018-10-05 00:10:53  23 C   45 % 
 2018-10-05 00:01:25  23 C   45 % 
 2018-10-04 23:51:32  23 C   45 % 
 2018-10-04 23:42:02  23 C   45 % 
 2018-10-04 22:33:53  23 C   45 % 
 2018-10-04 22:24:18  23 C   45 % 
 2018-10-04 22:14:45  23 C   45 % 
 2018-10-04 21:35:48  23 C   45 % 
 2018-10-04 21:26:08  23 C   46 % 
 2018-10-04 21:16:35  22 C   46 % 
 2018-10-04 20:47:44  22 C   45 % 
 2018-10-04 19:58:30  22 C   46 % 
 2018-10-04 19:48:50  22 C   46 % 
 2018-10-04 19:39:12  22 C   46 % 
 2018-10-04 19:19:58  22 C   46 % 
 2018-10-04 19:10:26  22 C   46 % 
 2018-10-04 19:00:45  22 C   46 % 
 2018-10-04 18:51:07  22 C   46 % 
 2018-10-04 18:02:43  21 C   46 % 
 2018-10-04 17:23:42  21 C   47 % 
 2018-10-04 17:14:03  21 C   47 % 
 2018-10-04 16:25:40  21 C   47 % 
 2018-10-04 14:59:07  21 C   47 % 
 2018-10-04 11:56:15  21 C   47 % 
 2018-10-04 11:27:24  21 C   47 % 
 2018-10-04 11:17:48  21 C   47 % 
 2018-10-04 11:08:07  21 C   47 % 
 2018-10-04 10:48:58  21 C   47 % 
 2018-10-04 10:29:23  21 C   47 % 
 2018-10-04 09:11:45  21 C   46 % 
 2018-10-04 08:52:34  21 C   46 % 
 2018-10-04 07:54:39  21 C   46 % 
 2018-10-04 07:35:35  21 C   46 % 
 2018-10-04 06:56:21  21 C   46 % 
 2018-10-04 05:38:25  21 C   46 % 
 2018-10-04 05:09:18  21 C   46 % 
 2018-10-04 04:59:51  21 C   46 % 
 2018-10-04 04:40:04  21 C   46 % 
 2018-10-04 04:20:21  21 C   46 % 
 2018-10-04 04:10:46  21 C   46 % 
 2018-10-04 04:01:11  21 C   46 % 
 2018-10-04 03:51:33  21 C   46 % 
 2018-10-04 02:53:49  21 C   47 % 
 2018-10-04 02:05:29  21 C   47 % 
 2018-10-04 01:55:56  21 C   47 % 
 2018-10-03 23:59:43  21 C   47 % 
 2018-10-03 23:40:20  22 C   47 % 
 2018-10-03 23:21:11  22 C   47 % 
 2018-10-03 23:01:59  21 C   47 % 
 2018-10-03 22:42:29  21 C   47 % 
 2018-10-03 22:23:21  22 C   47 % 
 2018-10-03 21:14:44  22 C   47 % 
 2018-10-03 21:05:11  22 C   47 % 
 2018-10-03 20:55:21  22 C   47 % 
 2018-10-03 20:45:51  22 C   47 % 
 2018-10-03 18:59:25  21 C   47 % 
 2018-10-03 18:01:37  21 C   47 % 
 2018-10-03 14:17:51  21 C   47 % 
 2018-10-03 13:10:22  21 C   48 % 
 2018-10-03 12:51:19  21 C   48 % 
 2018-10-03 12:22:07  21 C   48 % 
 2018-10-03 12:03:02  21 C   48 % 
 2018-10-03 11:04:40  21 C   48 % 
 2018-10-03 10:45:30  21 C   48 % 
 2018-10-03 10:35:49  21 C   48 % 
 2018-10-03 10:26:09  21 C   48 % 
 2018-10-03 10:16:39  21 C   51 % 
 2018-10-03 09:47:05  21 C   47 % 
 2018-10-03 08:58:36  21 C   47 % 
 2018-10-03 08:29:07  21 C   47 % 
 2018-10-03 08:00:17  21 C   47 % 
 2018-10-03 07:50:43  21 C   47 % 
 2018-10-03 07:31:13  21 C   47 % 
 2018-10-03 07:11:29  21 C   46 % 
 2018-10-03 06:13:47  21 C   46 % 
 2018-10-03 05:54:28  21 C   46 % 
 2018-10-03 05:44:46  21 C   46 % 
 2018-10-03 05:35:11  21 C   46 % 
 2018-10-03 04:47:13  21 C   46 % 
 2018-10-03 04:27:50  21 C   46 % 
 2018-10-03 04:18:02  21 C   46 % 
 2018-10-03 03:58:52  21 C   46 % 
 2018-10-03 03:49:10  21 C   46 % 
 2018-10-03 03:29:55  21 C   46 % 
 2018-10-03 03:20:25  21 C   46 % 
 2018-10-03 02:51:26  22 C   46 % 
 2018-10-03 01:24:29  22 C   46 % 
 2018-10-03 00:54:58  22 C   46 % 
 2018-10-03 00:45:11  22 C   46 % 
 2018-10-03 00:06:30  22 C   46 % 
 2018-10-02 23:37:39  22 C   46 % 
 2018-10-02 23:28:00  22 C   46 % 
 2018-10-02 23:18:22  22 C   46 % 
 2018-10-02 23:08:51  22 C   46 % 
 2018-10-02 22:59:11  22 C   46 % 
 2018-10-02 22:49:30  22 C   46 % 
 2018-10-02 22:39:58  22 C   46 % 
 2018-10-02 22:30:17  22 C   46 % 
 2018-10-02 21:51:13  22 C   46 % 
 2018-10-02 21:32:04  22 C   46 % 
 2018-10-02 21:12:45  22 C   46 % 
 2018-10-02 21:03:10  22 C   46 % 
 2018-10-02 20:53:29  22 C   46 % 
 2018-10-02 20:43:52  22 C   46 % 
 2018-10-02 20:24:37  22 C   46 % 
 2018-10-02 19:16:37  22 C   47 % 
 2018-10-02 18:47:45  22 C   47 % 
 2018-10-02 18:28:31  21 C   47 % 
 2018-10-02 17:11:01  21 C   47 % 
 2018-10-02 16:23:06  21 C   47 % 
 2018-10-02 14:55:20  21 C   48 % 
 2018-10-02 13:09:44  21 C   48 % 
 2018-10-02 12:50:06  21 C   49 % 
 2018-10-02 12:40:27  21 C   49 % 
 2018-10-02 12:30:48  21 C   49 % 
 2018-10-02 12:21:15  22 C   48 % 
 2018-10-02 12:02:01  21 C   50 % 
 2018-10-02 11:42:46  21 C   47 % 
 2018-10-02 11:33:06  21 C   47 % 
 2018-10-02 11:03:38  21 C   47 % 
 2018-10-02 10:44:31  21 C   47 % 
 2018-10-02 10:34:57  21 C   47 % 
 2018-10-02 10:05:20  21 C   47 % 
 2018-10-02 09:16:37  21 C   47 % 
 2018-10-02 09:07:01  21 C   47 % 
 2018-10-02 08:47:52  21 C   47 % 
 2018-10-02 08:09:14  21 C   47 % 
 2018-10-02 07:49:59  21 C   47 % 
 2018-10-02 07:40:26  21 C   47 % 
 2018-10-02 07:21:21  21 C   47 % 
 2018-10-02 07:01:53  21 C   47 % 
 2018-10-02 06:52:20  21 C   47 % 
 2018-10-02 06:42:43  21 C   47 % 
 2018-10-02 06:33:06  21 C   47 % 
 2018-10-02 06:13:55  21 C   47 % 
 2018-10-02 05:54:38  21 C   47 % 
 2018-10-02 05:44:47  21 C   47 % 
 2018-10-02 05:35:04  21 C   47 % 
 2018-10-02 05:25:28  21 C   47 % 
 2018-10-02 05:05:36  21 C   47 % 
 2018-10-02 04:26:55  21 C   47 % 
 2018-10-02 04:17:23  21 C   47 % 
 2018-10-02 04:07:47  22 C   47 % 
 2018-10-02 03:58:13  22 C   47 % 
 2018-10-02 03:28:56  22 C   47 % 
 2018-10-02 03:19:27  22 C   47 % 
 2018-10-02 02:40:25  22 C   47 % 
 2018-10-02 02:30:23  22 C   47 % 
 2018-10-02 02:20:56  22 C   47 % 
 2018-10-02 02:11:08  22 C   47 % 
 2018-10-02 01:51:54  22 C   47 % 
 2018-10-02 01:03:21  22 C   47 % 
 2018-10-02 00:24:34  22 C   47 % 
 2018-10-01 23:55:41  22 C   47 % 
 2018-10-01 23:46:09  22 C   47 % 
 2018-10-01 23:36:27  22 C   47 % 
 2018-10-01 23:26:49  22 C   47 % 
 2018-10-01 22:58:16  22 C   47 % 
 2018-10-01 22:38:39  23 C   47 % 
 2018-10-01 22:18:49  23 C   47 % 
 2018-10-01 21:10:41  24 C   46 % 
 2018-10-01 21:01:08  24 C   46 % 
 2018-10-01 20:51:29  24 C   48 % 
 2018-10-01 20:41:56  24 C   51 % 
 2018-10-01 20:22:39  22 C   47 % 
 2018-10-01 19:05:53  22 C   47 % 
 2018-10-01 18:56:06  22 C   47 % 
 2018-10-01 18:46:30  22 C   47 % 
 2018-10-01 18:36:59  22 C   47 % 
 2018-10-01 18:17:38  22 C   47 % 
 2018-10-01 17:58:32  22 C   47 % 
 2018-10-01 17:19:56  22 C   47 % 
 2018-10-01 17:10:17  22 C   48 % 
 2018-10-01 16:51:11  22 C   47 % 
 2018-10-01 16:12:23  22 C   47 % 
 2018-10-01 16:02:43  22 C   47 % 
 2018-10-01 15:33:40  22 C   47 % 
 2018-10-01 15:23:51  22 C   47 % 
 2018-10-01 15:14:16  22 C   47 % 
 2018-10-01 13:47:29  22 C   47 % 
 2018-10-01 13:28:13  22 C   47 % 
 2018-10-01 12:29:52  22 C   48 % 
 2018-10-01 11:31:51  22 C   48 % 
 2018-10-01 11:12:23  22 C   48 % 
 2018-10-01 10:53:09  22 C   48 % 
 2018-10-01 10:34:01  22 C   48 % 
 2018-10-01 10:05:11  22 C   48 % 
 2018-10-01 09:45:52  22 C   48 % 
 2018-10-01 08:57:16  22 C   47 % 
 2018-10-01 08:47:42  22 C   47 % 
 2018-10-01 08:37:48  22 C   47 % 
 2018-10-01 08:18:39  22 C   48 % 
 2018-10-01 08:08:51  22 C   48 % 
 2018-10-01 07:59:10  22 C   48 % 
 2018-10-01 06:50:35  22 C   48 % 
 2018-10-01 06:31:26  22 C   48 % 
 2018-10-01 06:12:03  22 C   48 % 
 2018-10-01 05:04:11  22 C   48 % 
 2018-10-01 04:54:31  22 C   48 % 
 2018-10-01 04:44:57  22 C   48 % 
 2018-10-01 03:56:43  22 C   48 % 
 2018-10-01 03:47:10  22 C   48 % 
 2018-10-01 03:27:56  22 C   48 % 
 2018-10-01 03:18:24  22 C   49 % 
 2018-10-01 02:58:55  22 C   49 % 
 2018-10-01 02:49:19  22 C   49 % 
 2018-10-01 02:39:43  22 C   49 % 
 2018-10-01 02:30:07  22 C   49 % 
 2018-10-01 02:20:25  22 C   49 % 
 2018-10-01 02:10:55  22 C   49 % 
 2018-10-01 02:01:17  22 C   49 % 
 2018-10-01 01:51:36  22 C   49 % 
 2018-10-01 01:42:04  22 C   49 % 
 2018-10-01 01:32:26  22 C   49 % 
 2018-10-01 01:22:45  22 C   49 % 
 2018-10-01 01:13:11  22 C   49 % 
 2018-10-01 01:03:29  22 C   49 % 
 2018-10-01 00:53:53  22 C   49 % 
 2018-10-01 00:44:18  22 C   49 % 
 2018-10-01 00:34:43  22 C   49 % 
 2018-10-01 00:15:24  22 C   49 % 
 2018-10-01 00:05:45  22 C   49 % 
 2018-09-30 23:56:06  22 C   49 % 
 2018-09-30 23:07:41  22 C   49 % 
 2018-09-30 22:58:04  22 C   49 % 
 2018-09-30 22:48:23  22 C   49 % 
 2018-09-30 22:38:49  22 C   49 % 
 2018-09-30 22:19:32  22 C   49 % 
 2018-09-30 21:39:51  22 C   49 % 
 2018-09-30 21:30:09  22 C   49 % 
 2018-09-30 21:00:17  22 C   49 % 
 2018-09-30 20:41:06  22 C   49 % 
 2018-09-30 20:31:25  22 C   49 % 
 2018-09-30 20:21:55  22 C   50 % 
 2018-09-30 19:43:13  22 C   50 % 
 2018-09-30 18:35:13  22 C   50 % 
 2018-09-30 18:25:32  22 C   50 % 
 2018-09-30 18:05:53  22 C   50 % 
 2018-09-30 17:56:18  22 C   50 % 
 2018-09-30 17:37:05  22 C   50 % 
 2018-09-30 17:27:25  22 C   50 % 
 2018-09-30 17:17:45  22 C   50 % 
 2018-09-30 16:48:54  22 C   50 % 
 2018-09-30 16:39:16  22 C   50 % 
 2018-09-30 16:29:36  22 C   50 % 
 2018-09-30 16:20:01  22 C   50 % 
 2018-09-30 16:10:21  22 C   50 % 
 2018-09-30 16:00:47  22 C   50 % 
 2018-09-30 15:41:33  22 C   49 % 
 2018-09-30 15:22:15  22 C   49 % 
 2018-09-30 15:12:39  22 C   49 % 
 2018-09-30 15:02:59  22 C   49 % 
 2018-09-30 14:53:23  22 C   49 % 
 2018-09-30 14:43:45  22 C   49 % 
 2018-09-30 14:34:06  22 C   49 % 
 2018-09-30 14:24:27  22 C   49 % 
 2018-09-30 13:55:34  22 C   49 % 
 2018-09-30 13:45:52  22 C   49 % 
 2018-09-30 13:36:13  22 C   49 % 
 2018-09-30 13:26:36  22 C   49 % 
 2018-09-30 13:17:08  22 C   49 % 
 2018-09-30 13:07:25  22 C   49 % 
 2018-09-30 12:57:44  22 C   49 % 
 2018-09-30 12:48:02  22 C   49 % 
 2018-09-30 12:38:23  22 C   49 % 
 2018-09-30 12:28:44  22 C   49 % 
 2018-09-30 11:59:43  22 C   49 % 
 2018-09-30 11:21:20  22 C   49 % 
 2018-09-30 11:11:34  22 C   49 % 
 2018-09-30 10:33:02  22 C   49 % 
 2018-09-30 10:04:00  22 C   49 % 
 2018-09-30 09:54:27  22 C   49 % 
 2018-09-30 09:44:45  22 C   49 % 
 2018-09-30 09:35:14  22 C   49 % 
 2018-09-30 09:25:24  22 C   49 % 
 2018-09-30 09:06:17  22 C   49 % 
 2018-09-30 08:56:34  22 C   49 % 
 2018-09-30 08:47:02  22 C   49 % 
 2018-09-30 08:37:31  22 C   49 % 
 2018-09-30 08:27:39  22 C   49 % 
 2018-09-30 08:08:27  22 C   49 % 
 2018-09-30 07:49:15  21 C   49 % 
 2018-09-30 07:20:05  21 C   49 % 
 2018-09-30 07:00:54  21 C   49 % 
 2018-09-30 06:41:17  21 C   49 % 
 2018-09-30 05:14:18  22 C   49 % 
 2018-09-30 04:25:24  22 C   49 % 
 2018-09-30 04:06:01  22 C   49 % 
 2018-09-30 02:58:49  22 C   49 % 
 2018-09-30 02:49:04  22 C   49 % 
 2018-09-30 02:39:26  22 C   49 % 
 2018-09-30 02:29:54  22 C   49 % 
 2018-09-30 02:20:13  22 C   49 % 
 2018-09-30 01:32:13  22 C   49 % 
 2018-09-30 01:22:33  22 C   49 % 
 2018-09-30 00:44:06  22 C   49 % 
 2018-09-30 00:24:58  22 C   50 % 
 2018-09-30 00:05:38  22 C   50 % 
 2018-09-29 23:36:47  22 C   50 % 
 2018-09-29 23:07:53  22 C   50 % 
 2018-09-29 22:48:40  22 C   50 % 
 2018-09-29 22:29:03  22 C   50 % 
 2018-09-29 22:09:09  22 C   50 % 
 2018-09-29 21:49:55  22 C   50 % 
 2018-09-29 21:30:40  22 C   50 % 
 2018-09-29 20:42:38  22 C   51 % 
 2018-09-29 20:33:01  22 C   50 % 
 2018-09-29 20:13:44  22 C   50 % 
 2018-09-29 19:25:41  22 C   50 % 
 2018-09-29 19:06:27  22 C   50 % 
 2018-09-29 18:37:24  22 C   51 % 
 2018-09-29 18:18:09  22 C   51 % 
 2018-09-29 18:08:34  22 C   51 % 
 2018-09-29 17:58:57  22 C   51 % 
 2018-09-29 17:49:16  22 C   50 % 
 2018-09-29 17:20:26  22 C   50 % 
 2018-09-29 17:10:46  22 C   51 % 
 2018-09-29 16:51:36  22 C   51 % 
 2018-09-29 16:41:54  22 C   51 % 
 2018-09-29 16:32:19  22 C   51 % 
 2018-09-29 16:13:08  22 C   50 % 
 2018-09-29 15:53:50  22 C   50 % 
 2018-09-29 15:15:21  22 C   50 % 
 2018-09-29 14:46:23  22 C   50 % 
 2018-09-29 14:07:55  22 C   51 % 
 2018-09-29 13:48:47  22 C   51 % 
 2018-09-29 13:39:03  22 C   51 % 
 2018-09-29 13:29:28  22 C   51 % 
 2018-09-29 13:10:09  22 C   51 % 
 2018-09-29 12:41:19  22 C   51 % 
 2018-09-29 12:31:43  22 C   51 % 
 2018-09-29 12:02:05  22 C   50 % 
 2018-09-29 11:42:46  22 C   50 % 
 2018-09-29 11:23:25  22 C   51 % 
 2018-09-29 10:06:34  22 C   48 % 
 2018-09-29 09:37:48  22 C   48 % 
 2018-09-29 09:08:53  22 C   48 % 
 2018-09-29 08:59:18  22 C   48 % 
 2018-09-29 08:49:32  22 C   48 % 
 2018-09-29 07:51:53  22 C   48 % 
 2018-09-29 07:03:15  22 C   48 % 
 2018-09-29 06:53:30  22 C   48 % 
 2018-09-29 06:14:59  22 C   48 % 
 2018-09-29 05:26:15  22 C   48 % 
 2018-09-29 05:07:08  22 C   48 % 
 2018-09-29 03:40:19  22 C   48 % 
 2018-09-29 03:21:04  22 C   48 % 
 2018-09-29 03:11:23  22 C   48 % 
 2018-09-29 03:01:46  22 C   48 % 
 2018-09-29 02:52:06  22 C   48 % 
 2018-09-29 02:42:33  22 C   48 % 
 2018-09-29 02:32:52  22 C   48 % 
 2018-09-29 02:23:15  22 C   48 % 
 2018-09-29 02:13:36  22 C   48 % 
 2018-09-29 02:03:57  22 C   48 % 
 2018-09-29 01:54:19  22 C   48 % 
 2018-09-29 01:44:40  22 C   48 % 
 2018-09-29 01:35:01  22 C   48 % 
 2018-09-29 01:25:25  22 C   48 % 
 2018-09-29 01:15:46  22 C   48 % 
 2018-09-29 00:46:24  23 C   48 % 
 2018-09-29 00:27:12  23 C   48 % 
 2018-09-29 00:08:03  23 C   48 % 
 2018-09-28 23:58:20  23 C   48 % 
 2018-09-28 23:48:41  23 C   48 % 
 2018-09-28 23:39:10  23 C   48 % 
 2018-09-28 23:29:27  23 C   47 % 
 2018-09-28 23:20:00  23 C   47 % 
 2018-09-28 23:10:16  23 C   47 % 
 2018-09-28 23:00:34  23 C   47 % 
 2018-09-28 22:41:23  23 C   47 % 
 2018-09-28 22:31:42  23 C   47 % 
 2018-09-28 22:22:11  23 C   47 % 
 2018-09-28 22:12:37  23 C   47 % 
 2018-09-28 22:02:59  23 C   47 % 
 2018-09-28 21:53:23  24 C   46 % 
 2018-09-28 21:34:17  24 C   46 % 
 2018-09-28 21:24:27  24 C   46 % 
 2018-09-28 20:35:54  24 C   46 % 
 2018-09-28 20:26:08  23 C   49 % 
 2018-09-28 20:16:30  23 C   50 % 
 2018-09-28 20:06:59  22 C   50 % 
 2018-09-28 19:57:21  22 C   50 % 
 2018-09-28 19:38:05  22 C   51 % 
 2018-09-28 19:28:29  22 C   50 % 
 2018-09-28 19:18:49  22 C   49 % 
 2018-09-28 19:09:15  22 C   49 % 
 2018-09-28 18:49:25  22 C   49 % 
 2018-09-28 18:39:52  22 C   49 % 
 2018-09-28 18:20:32  22 C   49 % 
 2018-09-28 18:10:52  22 C   49 % 
 2018-09-28 18:01:13  22 C   49 % 
 2018-09-28 17:41:59  22 C   50 % 
 2018-09-28 17:32:20  22 C   50 % 
 2018-09-28 17:12:29  22 C   50 % 
 2018-09-28 17:02:51  22 C   50 % 
 2018-09-28 16:43:37  22 C   49 % 
 2018-09-28 16:34:00  22 C   49 % 
 2018-09-28 16:24:17  22 C   49 % 
 2018-09-28 16:14:39  22 C   49 % 
 2018-09-28 16:05:06  22 C   49 % 
 2018-09-28 15:55:30  22 C   49 % 
 2018-09-28 15:45:53  22 C   49 % 
 2018-09-28 15:26:23  22 C   49 % 
 2018-09-28 15:16:51  22 C   49 % 
 2018-09-28 15:07:07  22 C   49 % 
 2018-09-28 14:57:27  22 C   49 % 
 2018-09-28 14:48:03  22 C   49 % 
 2018-09-28 14:38:05  22 C   49 % 
 2018-09-28 14:28:26  22 C   49 % 
 2018-09-28 14:09:08  22 C   49 % 
 2018-09-28 13:59:24  22 C   49 % 
 2018-09-28 13:49:47  22 C   49 % 
 2018-09-28 13:40:07  22 C   49 % 
 2018-09-28 13:11:16  22 C   49 % 
 2018-09-28 13:01:38  22 C   49 % 
 2018-09-28 12:51:58  22 C   49 % 
 2018-09-28 12:42:19  22 C   49 % 
 2018-09-28 12:32:41  22 C   49 % 
 2018-09-28 12:13:26  22 C   50 % 
 2018-09-28 12:03:55  22 C   50 % 
 2018-09-28 11:54:16  22 C   50 % 
 2018-09-28 11:44:37  22 C   50 % 
 2018-09-28 11:25:11  22 C   50 % 
 2018-09-28 11:15:33  22 C   50 % 
 2018-09-28 10:56:24  22 C   50 % 
 2018-09-28 10:46:40  22 C   50 % 
 2018-09-28 10:37:05  22 C   50 % 
 2018-09-28 10:27:24  22 C   50 % 
 2018-09-28 09:48:30  22 C   50 % 
 2018-09-28 09:38:52  22 C   50 % 
 2018-09-28 09:29:18  22 C   50 % 
 2018-09-28 09:19:46  22 C   50 % 
 2018-09-28 09:10:05  22 C   50 % 
 2018-09-28 08:40:59  22 C   50 % 
 2018-09-28 08:31:21  23 C   50 % 
 2018-09-28 08:21:48  22 C   50 % 
 2018-09-28 08:12:08  23 C   51 % 
 2018-09-28 07:33:02  22 C   50 % 
 2018-09-28 07:23:18  22 C   51 % 
 2018-09-28 07:13:40  22 C   51 % 
 2018-09-28 06:24:22  22 C   50 % 
 2018-09-28 06:04:53  22 C   50 % 
 2018-09-28 05:45:03  22 C   50 % 
 2018-09-28 05:35:23  22 C   50 % 
 2018-09-28 05:25:44  22 C   50 % 
 2018-09-28 05:16:04  22 C   50 % 
 2018-09-28 05:06:34  22 C   50 % 
 2018-09-28 04:47:16  22 C   50 % 
 2018-09-28 04:27:48  22 C   50 % 
 2018-09-28 04:08:32  22 C   50 % 
 2018-09-28 03:58:54  22 C   50 % 
 2018-09-28 03:49:15  22 C   50 % 
 2018-09-28 03:39:40  22 C   50 % 
 2018-09-28 03:30:15  22 C   50 % 
 2018-09-28 03:20:17  22 C   50 % 
 2018-09-28 03:00:51  22 C   50 % 
 2018-09-28 02:41:01  22 C   50 % 
 2018-09-28 02:21:27  22 C   50 % 
 2018-09-28 01:32:25  22 C   50 % 
 2018-09-28 01:22:49  22 C   50 % 
 2018-09-28 01:13:12  22 C   50 % 
 2018-09-28 01:03:32  22 C   50 % 
 2018-09-28 00:44:10  22 C   50 % 
 2018-09-28 00:24:41  23 C   50 % 
 2018-09-28 00:05:31  23 C   50 % 
 2018-09-27 23:27:01  23 C   50 % 
 2018-09-27 22:39:01  23 C   50 % 
 2018-09-27 21:39:12  23 C   49 % 
 2018-09-27 21:20:04  23 C   49 % 
 2018-09-27 21:00:54  23 C   50 % 
 2018-09-27 20:12:10  23 C   50 % 
 2018-09-27 19:24:05  23 C   51 % 
 2018-09-27 18:26:17  23 C   51 % 
 2018-09-27 16:56:53  22 C   49 % 
 2018-09-27 16:47:14  22 C   49 % 
 2018-09-27 16:37:35  22 C   49 % 
 2018-09-27 16:27:58  22 C   48 % 
 2018-09-27 15:49:13  22 C   47 % 
 2018-09-27 15:39:34  22 C   47 % 
 2018-09-27 14:51:03  22 C   50 % 
 2018-09-27 13:23:38  23 C   50 % 
 2018-09-27 13:14:00  23 C   50 % 
 2018-09-27 13:04:25  23 C   50 % 
 2018-09-27 12:45:08  23 C   50 % 
 2018-09-27 11:57:12  23 C   50 % 
 2018-09-27 11:28:17  23 C   51 % 
 2018-09-27 11:09:03  23 C   50 % 
 2018-09-27 10:40:22  23 C   50 % 
 2018-09-27 10:30:17  23 C   50 % 
 2018-09-27 10:20:43  23 C   50 % 
 2018-09-27 09:22:04  23 C   51 % 
 2018-09-27 08:52:42  23 C   50 % 
 2018-09-27 08:43:09  23 C   50 % 
 2018-09-27 07:24:58  23 C   48 % 
 2018-09-27 06:17:12  23 C   50 % 
 2018-09-27 04:11:43  23 C   50 % 
 2018-09-26 19:39:17  22 C   50 % 
 2018-09-26 19:00:47  22 C   50 % 
 2018-09-26 18:02:39  22 C   49 % 
 2018-09-26 17:23:32  22 C   49 % 
 2018-09-26 17:13:58  22 C   50 % 
 2018-09-26 17:04:17  22 C   50 % 
 2018-09-26 16:54:44  22 C   50 % 
 2018-09-26 16:35:29  22 C   50 % 
 2018-09-26 16:25:49  22 C   50 % 
 2018-09-26 16:16:15  22 C   50 % 
 2018-09-26 16:06:41  22 C   49 % 
 2018-09-26 15:57:01  22 C   50 % 
 2018-09-26 15:47:22  22 C   50 % 
 2018-09-26 15:37:42  22 C   50 % 
 2018-09-26 15:18:28  22 C   50 % 
 2018-09-26 14:49:19  22 C   50 % 
 2018-09-26 14:30:09  22 C   50 % 
 2018-09-26 14:20:27  22 C   50 % 
 2018-09-26 14:10:49  22 C   50 % 
 2018-09-26 14:01:11  22 C   50 % 
 2018-09-26 13:41:50  22 C   50 % 
 2018-09-26 13:21:56  22 C   50 % 
 2018-09-26 13:12:23  22 C   50 % 
 2018-09-26 12:43:08  22 C   50 % 
 2018-09-26 11:44:38  22 C   51 % 
 2018-09-26 11:25:11  22 C   51 % 
 2018-09-26 10:56:20  22 C   51 % 
 2018-09-26 09:58:07  22 C   51 % 
 2018-09-26 09:28:45  22 C   51 % 
 2018-09-26 08:21:04  23 C   51 % 
 2018-09-26 07:41:52  22 C   51 % 
 2018-09-26 07:22:38  22 C   51 % 
 2018-09-26 07:13:05  22 C   51 % 
 2018-09-26 07:03:30  22 C   52 % 
 2018-09-26 06:53:56  22 C   50 % 
 2018-09-26 06:44:12  22 C   50 % 
 2018-09-26 06:34:38  22 C   50 % 
 2018-09-26 05:16:09  22 C   50 % 
 2018-09-26 05:06:28  22 C   50 % 
 2018-09-26 04:47:14  22 C   51 % 
 2018-09-26 04:37:35  22 C   50 % 
 2018-09-26 04:28:01  22 C   50 % 
 2018-09-26 04:18:32  22 C   50 % 
 2018-09-26 04:08:40  22 C   50 % 
 2018-09-26 03:59:02  22 C   50 % 
 2018-09-26 03:49:24  22 C   50 % 
 2018-09-26 03:10:05  22 C   50 % 
 2018-09-26 02:41:13  22 C   51 % 
 2018-09-26 02:31:40  22 C   51 % 
 2018-09-26 02:02:47  22 C   51 % 
 2018-09-26 01:43:22  22 C   51 % 
 2018-09-26 01:33:48  22 C   51 % 
 2018-09-26 01:24:07  22 C   51 % 
 2018-09-25 23:55:33  22 C   51 % 
 2018-09-25 21:48:50  23 C   50 % 
 2018-09-25 20:03:12  22 C   51 % 
 2018-09-25 19:15:07  22 C   51 % 
 2018-09-25 18:55:50  22 C   52 % 
 2018-09-25 18:46:16  22 C   51 % 
 2018-09-25 18:26:56  22 C   52 % 
 2018-09-25 18:17:12  22 C   54 % 
 2018-09-25 15:33:22  22 C   50 % 
 2018-09-25 14:54:29  22 C   50 % 
 2018-09-25 14:25:33  22 C   50 % 
 2018-09-25 09:07:25  22 C   50 % 
 2018-09-25 08:19:22  22 C   51 % 
 2018-09-25 08:09:44  22 C   52 % 
 2018-09-25 07:40:41  22 C   51 % 
 2018-09-25 07:01:05  21 C   52 % 
 2018-09-25 06:22:28  21 C   51 % 
 2018-09-25 06:12:32  21 C   51 % 
 2018-09-25 05:53:24  21 C   51 % 
 2018-09-25 05:34:10  21 C   51 % 
 2018-09-25 04:45:12  21 C   51 % 
 2018-09-25 04:25:50  21 C   51 % 
 2018-09-25 04:16:15  21 C   51 % 
 2018-09-25 03:07:12  21 C   51 % 
 2018-09-25 02:57:41  21 C   51 % 
 2018-09-25 02:09:30  21 C   52 % 
 2018-09-25 00:42:21  21 C   52 % 
 2018-09-24 22:45:29  21 C   53 % 
 2018-09-24 22:16:30  21 C   53 % 
 2018-09-24 21:57:13  21 C   53 % 
 2018-09-24 21:47:39  21 C   53 % 
 2018-09-24 21:38:08  21 C   53 % 
 2018-09-24 21:28:32  21 C   53 % 
 2018-09-24 21:18:46  22 C   53 % 
 2018-09-24 20:00:25  22 C   53 % 
 2018-09-24 19:31:34  22 C   54 % 
 2018-09-24 19:21:54  22 C   55 % 
 2018-09-24 11:16:20  20 C   50 % 
 2018-09-24 10:57:09  20 C   50 % 
 2018-09-24 09:49:31  20 C   50 % 
 2018-09-24 08:03:43  20 C   49 % 
 2018-09-24 06:17:55  20 C   49 % 
 2018-09-24 05:49:11  20 C   49 % 
 2018-09-24 05:01:00  21 C   49 % 
 2018-09-24 04:31:57  21 C   49 % 
 2018-09-24 03:34:09  21 C   49 % 
 2018-09-24 03:24:23  21 C   49 % 
 2018-09-24 02:45:43  21 C   49 % 
 2018-09-23 23:52:40  22 C   49 % 
 2018-09-23 23:43:01  22 C   48 % 
 2018-09-23 23:04:07  22 C   48 % 
 2018-09-23 22:34:44  23 C   47 % 
 2018-09-23 22:25:08  23 C   47 % 
 2018-09-23 22:15:31  23 C   47 % 
 2018-09-23 21:27:30  24 C   45 % 
 2018-09-23 21:17:56  24 C   45 % 
 2018-09-23 20:00:59  28 C   47 % 
 2018-09-23 19:41:39  21 C   51 % 
 2018-09-23 19:32:10  21 C   51 % 
 2018-09-23 19:22:19  21 C   51 % 
 2018-09-23 18:34:14  21 C   51 % 
 2018-09-23 18:24:35  21 C   51 % 
 2018-09-23 18:15:09  21 C   50 % 
 2018-09-23 18:05:14  21 C   51 % 
 2018-09-23 17:55:41  21 C   51 % 
 2018-09-23 17:36:35  21 C   51 % 
 2018-09-23 17:26:42  21 C   50 % 
 2018-09-23 17:17:03  21 C   50 % 
 2018-09-23 17:07:27  21 C   50 % 
 2018-09-23 16:57:48  21 C   50 % 
 2018-09-23 16:48:09  21 C   50 % 
 2018-09-23 16:19:23  21 C   48 % 
 2018-09-23 16:00:02  21 C   51 % 
 2018-09-23 15:50:30  21 C   50 % 
 2018-09-23 15:30:48  21 C   50 % 
 2018-09-23 15:21:10  21 C   50 % 
 2018-09-23 15:11:30  21 C   50 % 
 2018-09-23 15:01:56  21 C   50 % 
 2018-09-23 14:52:20  21 C   50 % 
 2018-09-23 14:42:39  21 C   50 % 
 2018-09-23 14:33:06  21 C   50 % 
 2018-09-23 14:23:28  21 C   50 % 
 2018-09-23 14:13:51  21 C   50 % 
 2018-09-23 14:04:09  21 C   50 % 
 2018-09-23 13:54:35  21 C   50 % 
 2018-09-23 13:44:57  21 C   50 % 
 2018-09-23 13:35:21  21 C   50 % 
 2018-09-23 13:25:40  21 C   51 % 
 2018-09-23 13:16:06  21 C   51 % 
 2018-09-23 13:06:25  21 C   50 % 
 2018-09-23 12:56:51  21 C   50 % 
 2018-09-23 12:47:12  21 C   50 % 
 2018-09-23 12:27:43  21 C   50 % 
 2018-09-23 12:08:28  21 C   50 % 
 2018-09-23 11:58:49  21 C   50 % 
 2018-09-23 11:49:11  21 C   50 % 
 2018-09-23 11:39:33  21 C   50 % 
 2018-09-23 11:19:47  21 C   50 % 
 2018-09-23 11:10:09  21 C   51 % 
 2018-09-23 11:00:30  21 C   51 % 
 2018-09-23 10:50:52  21 C   51 % 
 2018-09-23 10:41:17  21 C   51 % 
 2018-09-23 10:31:40  21 C   51 % 
 2018-09-23 10:22:00  21 C   51 % 
 2018-09-23 10:12:24  21 C   51 % 
 2018-09-23 10:02:47  21 C   51 % 
 2018-09-23 09:53:10  21 C   51 % 
 2018-09-23 09:33:58  21 C   51 % 
 2018-09-23 09:24:17  21 C   51 % 
 2018-09-23 09:14:43  21 C   51 % 
 2018-09-23 09:05:02  21 C   50 % 
 2018-09-23 08:55:29  21 C   51 % 
 2018-09-23 08:45:52  21 C   51 % 
 2018-09-23 08:36:16  21 C   51 % 
 2018-09-23 08:16:59  21 C   51 % 
 2018-09-23 08:07:28  21 C   51 % 
 2018-09-23 07:57:51  21 C   51 % 
 2018-09-23 07:38:40  21 C   51 % 
 2018-09-23 07:28:55  21 C   51 % 
 2018-09-23 07:19:18  21 C   51 % 
 2018-09-23 06:59:59  21 C   51 % 
 2018-09-23 06:40:45  21 C   51 % 
 2018-09-23 06:31:09  21 C   51 % 
 2018-09-23 06:21:29  21 C   51 % 
 2018-09-23 06:02:06  21 C   51 % 
 2018-09-23 05:52:29  21 C   51 % 
 2018-09-23 05:42:50  21 C   51 % 
 2018-09-23 05:33:11  21 C   51 % 
 2018-09-23 05:13:30  21 C   51 % 
 2018-09-23 04:54:13  21 C   51 % 
 2018-09-23 04:44:39  21 C   51 % 
 2018-09-23 04:35:02  22 C   51 % 
 2018-09-23 04:25:22  22 C   51 % 
 2018-09-23 04:15:42  22 C   51 % 
 2018-09-23 04:06:05  21 C   51 % 
 2018-09-23 03:46:56  22 C   51 % 
 2018-09-23 03:37:22  22 C   51 % 
 2018-09-23 03:27:44  22 C   51 % 
 2018-09-23 03:08:31  22 C   51 % 
 2018-09-23 02:49:18  22 C   51 % 
 2018-09-23 02:39:40  22 C   51 % 
 2018-09-23 02:20:23  22 C   51 % 
 2018-09-23 02:10:44  22 C   51 % 
 2018-09-23 02:01:10  22 C   51 % 
 2018-09-23 01:51:33  22 C   51 % 
 2018-09-23 01:41:55  22 C   51 % 
 2018-09-23 01:32:16  22 C   51 % 
 2018-09-23 01:22:36  22 C   51 % 
 2018-09-23 01:13:02  22 C   51 % 
 2018-09-23 01:03:21  22 C   51 % 
 2018-09-23 00:53:42  22 C   51 % 
 2018-09-23 00:34:32  22 C   51 % 
 2018-09-23 00:24:55  22 C   51 % 
 2018-09-23 00:15:13  22 C   51 % 
 2018-09-23 00:05:36  22 C   51 % 
 2018-09-22 23:56:02  22 C   51 % 
 2018-09-22 23:46:20  22 C   51 % 
 2018-09-22 23:36:41  22 C   51 % 
 2018-09-22 23:27:02  22 C   51 % 
 2018-09-22 23:17:23  22 C   51 % 
 2018-09-22 23:07:44  22 C   51 % 
 2018-09-22 22:58:05  22 C   51 % 
 2018-09-22 22:48:26  22 C   51 % 
 2018-09-22 22:38:52  22 C   51 % 
 2018-09-22 22:29:15  22 C   51 % 
 2018-09-22 22:19:38  22 C   51 % 
 2018-09-22 22:10:01  22 C   51 % 
 2018-09-22 22:00:22  22 C   51 % 
 2018-09-22 21:50:43  22 C   51 % 
 2018-09-22 21:41:08  22 C   51 % 
 2018-09-22 21:31:28  22 C   51 % 
 2018-09-22 21:21:49  22 C   51 % 
 2018-09-22 21:12:11  22 C   51 % 
 2018-09-22 21:02:32  22 C   51 % 
 2018-09-22 20:52:56  22 C   51 % 
 2018-09-22 20:43:17  22 C   51 % 
 2018-09-22 20:33:37  22 C   51 % 
 2018-09-22 20:14:21  22 C   51 % 
 2018-09-22 19:55:07  21 C   51 % 
 2018-09-22 19:45:31  21 C   51 % 
 2018-09-22 19:36:03  21 C   51 % 
 2018-09-22 19:16:35  22 C   51 % 
 2018-09-22 19:06:57  22 C   51 % 
 2018-09-22 18:57:25  22 C   51 % 
 2018-09-22 18:47:36  21 C   51 % 
 2018-09-22 18:38:02  22 C   51 % 
 2018-09-22 18:28:22  22 C   51 % 
 2018-09-22 18:09:07  22 C   51 % 
 2018-09-22 17:59:28  22 C   51 % 
 2018-09-22 17:49:52  22 C   51 % 
 2018-09-22 17:40:12  22 C   51 % 
 2018-09-22 17:30:43  22 C   51 % 
 2018-09-22 17:20:59  22 C   51 % 
 2018-09-22 17:01:47  22 C   51 % 
 2018-09-22 16:52:09  22 C   51 % 
 2018-09-22 16:42:33  22 C   51 % 
 2018-09-22 16:32:53  22 C   51 % 
 2018-09-22 16:13:38  22 C   51 % 
 2018-09-22 15:54:33  22 C   52 % 
 2018-09-22 15:44:49  22 C   52 % 
 2018-09-22 15:35:11  22 C   52 % 
 2018-09-22 15:25:36  22 C   52 % 
 2018-09-22 15:16:03  22 C   52 % 
 2018-09-22 14:56:38  22 C   52 % 
 2018-09-22 14:47:03  22 C   52 % 
 2018-09-22 14:27:48  22 C   52 % 
 2018-09-22 14:18:17  22 C   52 % 
 2018-09-22 14:08:38  22 C   52 % 
 2018-09-22 13:49:24  22 C   52 % 
 2018-09-22 13:20:38  22 C   52 % 
 2018-09-22 13:11:01  22 C   52 % 
 2018-09-22 13:01:11  22 C   52 % 
 2018-09-22 12:51:40  22 C   52 % 
 2018-09-22 12:41:55  22 C   52 % 
 2018-09-22 12:32:21  21 C   52 % 
 2018-09-22 12:22:57  21 C   52 % 
 2018-09-22 12:03:18  21 C   52 % 
 2018-09-22 11:53:41  21 C   52 % 
 2018-09-22 11:34:40  21 C   52 % 
 2018-09-22 11:24:29  21 C   52 % 
 2018-09-22 11:14:49  21 C   52 % 
 2018-09-22 10:36:22  21 C   52 % 
 2018-09-22 10:26:47  21 C   52 % 
 2018-09-22 10:07:36  22 C   52 % 
 2018-09-22 09:57:54  22 C   52 % 
 2018-09-22 09:48:21  22 C   52 % 
 2018-09-22 09:29:02  21 C   52 % 
 2018-09-22 09:00:17  22 C   52 % 
 2018-09-22 08:41:15  22 C   52 % 
 2018-09-22 08:21:00  22 C   52 % 
 2018-09-22 08:01:55  22 C   52 % 
 2018-09-22 07:41:50  22 C   52 % 
 2018-09-22 07:32:19  22 C   52 % 
 2018-09-22 07:22:41  22 C   52 % 
 2018-09-22 07:12:50  22 C   52 % 
 2018-09-22 07:03:11  22 C   52 % 
 2018-09-22 06:34:21  22 C   52 % 
 2018-09-22 06:24:41  22 C   52 % 
 2018-09-22 06:15:02  22 C   52 % 
 2018-09-22 06:05:31  22 C   52 % 
 2018-09-22 05:46:10  22 C   52 % 
 2018-09-22 05:16:52  22 C   52 % 
 2018-09-22 05:07:18  22 C   52 % 
 2018-09-22 04:57:37  22 C   52 % 
 2018-09-22 04:38:24  22 C   53 % 
 2018-09-22 04:28:52  22 C   53 % 
 2018-09-22 04:09:35  22 C   53 % 
 2018-09-22 03:59:54  22 C   53 % 
 2018-09-22 03:50:15  22 C   53 % 
 2018-09-22 03:40:41  22 C   53 % 
 2018-09-22 03:31:01  22 C   53 % 
 2018-09-22 03:21:26  22 C   53 % 
 2018-09-22 03:11:45  22 C   53 % 
 2018-09-22 03:02:11  22 C   53 % 
 2018-09-22 02:52:29  22 C   53 % 
 2018-09-22 02:42:59  22 C   53 % 
 2018-09-22 02:13:25  22 C   53 % 
 2018-09-22 02:03:50  22 C   53 % 
 2018-09-22 01:54:19  22 C   53 % 
 2018-09-22 01:44:30  22 C   53 % 
 2018-09-22 01:34:53  22 C   53 % 
 2018-09-22 01:25:16  22 C   53 % 
 2018-09-22 01:15:36  22 C   53 % 
 2018-09-22 00:46:14  22 C   53 % 
 2018-09-22 00:36:38  22 C   53 % 
 2018-09-22 00:27:10  22 C   53 % 
 2018-09-22 00:17:12  22 C   53 % 
 2018-09-22 00:07:32  22 C   53 % 
 2018-09-21 23:57:55  22 C   53 % 
 2018-09-21 23:48:18  22 C   53 % 
 2018-09-21 23:38:38  22 C   53 % 
 2018-09-21 23:29:03  22 C   53 % 
 2018-09-21 22:40:59  22 C   53 % 
 2018-09-21 22:31:25  23 C   53 % 
 2018-09-21 22:12:12  23 C   53 % 
 2018-09-21 21:23:31  22 C   50 % 
 2018-09-21 21:13:56  22 C   50 % 
 2018-09-21 20:54:42  23 C   58 % 
 2018-09-21 20:25:32  22 C   57 % 
 2018-09-21 20:06:13  22 C   54 % 
 2018-09-21 19:56:39  22 C   54 % 
 2018-09-21 19:37:22  22 C   55 % 
 2018-09-21 19:27:55  22 C   55 % 
 2018-09-21 18:58:55  22 C   55 % 
 2018-09-21 18:20:18  22 C   54 % 
 2018-09-21 17:51:22  23 C   54 % 
 2018-09-21 17:31:20  23 C   54 % 
 2018-09-21 17:11:56  23 C   54 % 
 2018-09-21 17:02:24  22 C   54 % 
 2018-09-21 16:52:41  23 C   54 % 
 2018-09-21 16:33:28  23 C   54 % 
 2018-09-21 16:13:57  23 C   54 % 
 2018-09-21 15:44:36  23 C   54 % 
 2018-09-21 14:46:22  23 C   53 % 
 2018-09-21 13:47:26  23 C   52 % 
 2018-09-21 13:37:52  23 C   52 % 
 2018-09-21 13:28:11  23 C   51 % 
 2018-09-21 13:18:39  23 C   51 % 
 2018-09-21 13:09:08  23 C   51 % 
 2018-09-21 12:49:40  22 C   53 % 
 2018-09-21 12:39:59  22 C   52 % 
 2018-09-21 12:30:21  22 C   52 % 
 2018-09-21 12:10:50  22 C   52 % 
 2018-09-21 12:01:10  22 C   53 % 
 2018-09-21 11:51:36  22 C   53 % 
 2018-09-21 11:41:56  22 C   52 % 
 2018-09-21 11:22:22  22 C   53 % 
 2018-09-21 11:03:08  22 C   53 % 
 2018-09-21 10:43:55  23 C   53 % 
 2018-09-21 10:15:01  23 C   53 % 
 2018-09-21 10:05:28  22 C   51 % 
 2018-09-21 09:46:16  23 C   51 % 
 2018-09-21 09:36:34  23 C   51 % 
 2018-09-21 09:27:01  23 C   51 % 
 2018-09-21 09:17:19  23 C   51 % 
 2018-09-21 08:58:03  23 C   51 % 
 2018-09-21 08:38:25  23 C   51 % 
 2018-09-21 08:28:50  23 C   51 % 
 2018-09-21 08:19:08  23 C   51 % 
 2018-09-21 07:40:20  23 C   51 % 
 2018-09-21 07:30:50  23 C   51 % 
 2018-09-21 07:11:33  23 C   51 % 
 2018-09-21 07:01:48  23 C   51 % 
 2018-09-21 06:52:08  23 C   51 % 
 2018-09-21 06:23:23  23 C   51 % 
 2018-09-21 06:03:44  23 C   51 % 
 2018-09-21 05:54:07  23 C   51 % 
 2018-09-21 05:34:55  23 C   51 % 
 2018-09-21 05:25:16  23 C   51 % 
 2018-09-21 05:06:01  23 C   51 % 
 2018-09-21 04:56:22  23 C   51 % 
 2018-09-21 04:37:07  23 C   51 % 
 2018-09-21 04:27:28  23 C   50 % 
 2018-09-21 04:18:06  23 C   50 % 
 2018-09-21 04:07:58  23 C   50 % 
 2018-09-21 03:48:44  23 C   50 % 
 2018-09-21 03:39:04  23 C   50 % 
 2018-09-21 03:29:29  23 C   50 % 
 2018-09-21 03:19:51  24 C   50 % 
 2018-09-21 03:10:11  24 C   50 % 
 2018-09-21 03:00:39  24 C   50 % 
 2018-09-21 02:50:58  24 C   50 % 
 2018-09-21 02:22:07  24 C   50 % 
 2018-09-21 02:02:56  24 C   49 % 
 2018-09-21 01:53:16  24 C   49 % 
 2018-09-21 01:13:58  24 C   49 % 
 2018-09-21 00:06:39  25 C   47 % 
 2018-09-20 23:09:03  27 C   42 % 
 2018-09-20 22:59:21  28 C   41 % 
 2018-09-20 22:40:10  31 C   36 % 
 2018-09-20 22:30:34  33 C   33 % 
 2018-09-20 22:21:01  37 C   28 % 
 2018-09-20 22:11:34  42 C   22 % 
 2018-09-20 22:01:51  44 C   22 % 
 2018-09-20 21:52:01  43 C   25 % 
 2018-09-20 21:42:06  30 C   47 % 
 2018-09-20 12:53:03  23 C   44 % 
 2018-09-20 12:33:47  23 C   42 % 
 2018-09-20 11:16:57  23 C   43 % 
 2018-09-20 11:07:20  23 C   43 % 
 2018-09-20 08:52:48  24 C   54 % 
 2018-09-20 07:55:05  24 C   54 % 
 2018-09-20 06:09:19  24 C   55 % 
 2018-09-20 03:45:10  24 C   55 % 
 2018-09-19 23:44:47  24 C   56 % 
 2018-09-19 22:37:29  24 C   56 % 
 2018-09-19 18:37:13  24 C   55 % 
 2018-09-19 18:17:57  24 C   55 % 
 2018-09-19 17:39:29  24 C   54 % 
 2018-09-19 16:22:40  24 C   55 % 
 2018-09-19 15:53:47  24 C   55 % 
 2018-09-19 15:15:20  24 C   55 % 
 2018-09-19 14:36:31  24 C   54 % 
 2018-09-19 14:17:25  24 C   54 % 
 2018-09-19 13:38:41  24 C   55 % 
 2018-09-19 13:00:03  24 C   55 % 
 2018-09-19 12:50:27  24 C   55 % 
 2018-09-19 12:12:02  24 C   55 % 
 2018-09-19 12:02:15  24 C   55 % 
 2018-09-19 11:42:59  24 C   55 % 
 2018-09-19 11:33:19  24 C   55 % 
 2018-09-19 09:38:13  24 C   56 % 
 2018-09-19 08:40:00  24 C   55 % 
 2018-09-19 07:51:56  23 C   55 % 
 2018-09-19 03:03:33  23 C   56 % 
 2018-09-19 02:53:52  23 C   56 % 
 2018-09-19 02:06:00  23 C   56 % 
 2018-09-19 01:56:02  23 C   56 % 
 2018-09-19 00:38:07  23 C   56 % 
 2018-09-19 00:18:58  23 C   56 % 
 2018-09-18 23:59:47  23 C   56 % 
 2018-09-18 16:37:26  23 C   56 % 
 2018-09-18 16:08:28  23 C   56 % 
 2018-09-18 15:49:13  23 C   56 % 
 2018-09-17 16:05:54  23 C   52 % 
 2018-09-17 14:48:52  23 C   52 % 
 2018-09-17 11:36:30  23 C   53 % 
 2018-09-17 10:38:52  23 C   52 % 
 2018-09-17 09:12:16  24 C   53 % 
 2018-09-17 08:53:06  24 C   53 % 
 2018-09-17 07:26:32  23 C   55 % 
 2018-09-17 04:23:50  23 C   55 % 
 2018-09-17 02:09:11  23 C   55 % 
 2018-09-17 00:52:18  23 C   55 % 
 2018-09-17 00:04:12  24 C   55 % 
 2018-09-16 23:35:18  24 C   55 % 
 2018-09-16 23:16:05  24 C   54 % 
 2018-09-16 22:56:52  24 C   54 % 
 2018-09-16 19:35:01  24 C   50 % 
 2018-09-16 19:25:24  24 C   50 % 
 2018-09-16 19:15:50  24 C   48 % 
 2018-09-16 19:06:11  24 C   48 % 
 2018-09-16 18:18:06  24 C   46 % 
 2018-09-16 18:08:24  23 C   47 % 
 2018-09-16 17:58:47  23 C   47 % 
 2018-09-16 17:49:12  23 C   47 % 
 2018-09-16 17:39:36  23 C   47 % 
 2018-09-16 17:29:54  23 C   46 % 
 2018-09-16 17:20:16  23 C   46 % 
 2018-09-16 17:10:36  23 C   46 % 
 2018-09-16 17:00:57  23 C   46 % 
 2018-09-16 16:51:18  23 C   46 % 
 2018-09-16 16:41:41  23 C   46 % 
 2018-09-16 16:32:01  23 C   45 % 
 2018-09-16 16:22:29  23 C   45 % 
 2018-09-16 16:12:50  23 C   45 % 
 2018-09-16 16:03:08  23 C   45 % 
 2018-09-16 15:53:29  23 C   44 % 
 2018-09-16 15:43:50  23 C   44 % 
 2018-09-16 15:34:10  23 C   44 % 
 2018-09-16 15:24:32  23 C   44 % 
 2018-09-16 15:05:16  23 C   43 % 
 2018-09-16 14:55:41  23 C   43 % 
 2018-09-16 14:46:01  23 C   43 % 
 2018-09-16 14:36:22  23 C   43 % 
 2018-09-16 14:26:42  23 C   43 % 
 2018-09-16 14:17:03  23 C   43 % 
 2018-09-16 14:07:24  23 C   43 % 
 2018-09-16 13:38:02  23 C   44 % 
 2018-09-16 13:28:31  24 C   44 % 
 2018-09-16 13:08:48  24 C   43 % 
 2018-09-16 12:59:18  24 C   43 % 
 2018-09-16 12:49:26  24 C   42 % 
 2018-09-16 12:39:45  23 C   43 % 
 2018-09-16 12:30:20  23 C   42 % 
 2018-09-16 12:20:22  23 C   40 % 
 2018-09-16 12:10:48  23 C   41 % 
 2018-09-16 12:01:08  23 C   44 % 
 2018-09-16 11:51:29  23 C   50 % 
 2018-09-16 11:41:49  23 C   50 % 
 2018-09-16 11:32:10  23 C   50 % 
 2018-09-16 11:22:31  23 C   50 % 
 2018-09-16 11:12:52  23 C   51 % 
 2018-09-16 11:03:18  23 C   51 % 
 2018-09-16 10:53:35  23 C   53 % 
 2018-09-16 10:43:56  23 C   51 % 
 2018-09-16 10:34:16  23 C   51 % 
 2018-09-16 10:24:38  23 C   51 % 
 2018-09-16 10:14:59  23 C   51 % 
 2018-09-16 10:05:19  23 C   51 % 
 2018-09-16 09:55:43  23 C   51 % 
 2018-09-16 09:46:02  23 C   51 % 
 2018-09-16 09:36:23  23 C   51 % 
 2018-09-16 09:26:46  23 C   51 % 
 2018-09-16 09:17:11  23 C   50 % 
 2018-09-16 09:07:31  23 C   50 % 
 2018-09-16 08:57:51  23 C   50 % 
 2018-09-16 08:48:13  23 C   50 % 
 2018-09-16 08:38:33  23 C   50 % 
 2018-09-16 08:28:54  23 C   51 % 
 2018-09-16 08:19:15  23 C   51 % 
 2018-09-16 08:09:36  23 C   50 % 
 2018-09-16 07:59:56  23 C   50 % 
 2018-09-16 07:40:46  23 C   50 % 
 2018-09-16 07:31:05  23 C   50 % 
 2018-09-16 07:21:31  23 C   50 % 
 2018-09-16 07:11:49  23 C   50 % 
 2018-09-16 07:02:10  23 C   50 % 
 2018-09-16 06:52:39  23 C   50 % 
 2018-09-16 06:42:54  23 C   50 % 
 2018-09-16 06:23:39  23 C   50 % 
 2018-09-16 06:14:09  23 C   50 % 
 2018-09-16 06:04:22  23 C   50 % 
 2018-09-16 05:54:46  23 C   50 % 
 2018-09-16 05:45:10  23 C   50 % 
 2018-09-16 05:35:35  23 C   50 % 
 2018-09-16 05:16:21  23 C   50 % 
 2018-09-16 05:06:44  23 C   50 % 
 2018-09-16 04:57:01  23 C   50 % 
 2018-09-16 04:47:29  23 C   50 % 
 2018-09-16 04:37:45  23 C   50 % 
 2018-09-16 04:28:11  23 C   50 % 
 2018-09-16 04:08:53  23 C   50 % 
 2018-09-16 03:59:20  23 C   50 % 
 2018-09-16 03:49:40  23 C   50 % 
 2018-09-16 03:40:00  23 C   50 % 
 2018-09-16 03:30:26  23 C   50 % 
 2018-09-16 03:20:48  23 C   50 % 
 2018-09-16 03:11:12  23 C   50 % 
 2018-09-16 02:51:54  23 C   50 % 
 2018-09-16 02:42:18  23 C   50 % 
 2018-09-16 02:32:47  23 C   50 % 
 2018-09-16 02:22:55  23 C   49 % 
 2018-09-16 02:13:16  23 C   49 % 
 2018-09-16 02:03:41  24 C   49 % 
 2018-09-16 01:44:24  24 C   49 % 
 2018-09-16 01:34:45  24 C   50 % 
 2018-09-16 01:25:11  24 C   50 % 
 2018-09-16 01:15:30  24 C   50 % 
 2018-09-16 01:05:53  24 C   50 % 
 2018-09-16 00:56:13  24 C   50 % 
 2018-09-16 00:46:43  24 C   50 % 
 2018-09-16 00:36:58  24 C   50 % 
 2018-09-16 00:27:19  24 C   50 % 
 2018-09-16 00:17:43  24 C   50 % 
 2018-09-16 00:08:13  24 C   50 % 
 2018-09-15 23:48:40  24 C   50 % 
 2018-09-15 23:39:02  24 C   50 % 
 2018-09-15 23:29:27  24 C   50 % 
 2018-09-15 23:00:39  24 C   50 % 
 2018-09-15 22:51:09  24 C   50 % 
 2018-09-15 22:41:09  24 C   50 % 
 2018-09-15 22:21:51  24 C   51 % 
 2018-09-15 22:12:16  24 C   50 % 
 2018-09-15 21:52:52  24 C   49 % 
 2018-09-15 21:43:16  24 C   48 % 
 2018-09-15 21:14:23  24 C   47 % 
 2018-09-15 21:04:49  24 C   46 % 
 2018-09-15 20:55:07  24 C   45 % 
 2018-09-15 20:45:31  24 C   46 % 
 2018-09-15 20:26:17  24 C   47 % 
 2018-09-15 20:07:12  24 C   51 % 
 2018-09-15 19:47:43  23 C   51 % 
 2018-09-15 19:38:04  23 C   50 % 
 2018-09-15 19:28:36  23 C   50 % 
 2018-09-15 19:18:46  23 C   49 % 
 2018-09-15 19:09:09  23 C   49 % 
 2018-09-15 18:59:31  23 C   49 % 
 2018-09-15 18:49:55  23 C   49 % 
 2018-09-15 18:40:14  23 C   49 % 
 2018-09-15 18:30:36  23 C   49 % 
 2018-09-15 18:20:56  23 C   49 % 
 2018-09-15 18:11:16  23 C   49 % 
 2018-09-15 18:01:42  23 C   48 % 
 2018-09-15 17:52:06  23 C   48 % 
 2018-09-15 17:42:24  23 C   48 % 
 2018-09-15 17:32:50  23 C   48 % 
 2018-09-15 17:23:10  23 C   47 % 
 2018-09-15 17:13:31  23 C   47 % 
 2018-09-15 17:03:52  23 C   47 % 
 2018-09-15 16:54:25  23 C   46 % 
 2018-09-15 16:44:39  23 C   45 % 
 2018-09-15 16:34:57  23 C   45 % 
 2018-09-15 16:25:17  23 C   43 % 
 2018-09-15 16:06:08  23 C   45 % 
 2018-09-15 15:46:45  23 C   51 % 
 2018-09-15 15:37:07  23 C   51 % 
 2018-09-15 15:27:31  23 C   51 % 
 2018-09-15 15:17:51  23 C   51 % 
 2018-09-15 15:08:13  23 C   51 % 
 2018-09-15 14:58:40  23 C   51 % 
 2018-09-15 14:48:58  23 C   51 % 
 2018-09-15 14:39:23  23 C   51 % 
 2018-09-15 14:29:42  23 C   51 % 
 2018-09-15 14:20:02  23 C   51 % 
 2018-09-15 14:00:47  23 C   50 % 
 2018-09-15 13:51:10  23 C   50 % 
 2018-09-15 13:41:30  23 C   48 % 
 2018-09-15 13:12:42  23 C   53 % 
 2018-09-15 13:03:01  23 C   54 % 
 2018-09-15 12:53:30  23 C   53 % 
 2018-09-15 12:43:40  23 C   52 % 
 2018-09-15 12:24:24  23 C   52 % 
 2018-09-15 12:14:53  23 C   52 % 
 2018-09-15 12:05:04  23 C   52 % 
 2018-09-15 11:55:24  23 C   52 % 
 2018-09-15 11:45:46  23 C   52 % 
 2018-09-15 11:36:07  23 C   52 % 
 2018-09-15 11:26:31  23 C   52 % 
 2018-09-15 11:16:56  23 C   52 % 
 2018-09-15 10:57:39  23 C   52 % 
 2018-09-15 10:48:09  23 C   52 % 
 2018-09-15 10:28:47  23 C   52 % 
 2018-09-15 10:09:32  23 C   52 % 
 2018-09-15 09:59:53  23 C   52 % 
 2018-09-15 09:50:14  23 C   52 % 
 2018-09-15 09:40:40  23 C   52 % 
 2018-09-15 09:31:07  23 C   52 % 
 2018-09-15 09:21:21  23 C   52 % 
 2018-09-15 09:11:49  23 C   52 % 
 2018-09-15 09:02:05  23 C   53 % 
 2018-09-15 08:52:26  23 C   53 % 
 2018-09-15 08:33:02  23 C   53 % 
 2018-09-15 08:23:20  23 C   53 % 
 2018-09-15 07:53:49  23 C   52 % 
 2018-09-15 07:44:16  23 C   52 % 
 2018-09-15 07:34:34  23 C   52 % 
 2018-09-15 07:25:01  23 C   52 % 
 2018-09-15 07:15:18  23 C   52 % 
 2018-09-15 07:05:40  23 C   52 % 
 2018-09-15 06:56:02  23 C   52 % 
 2018-09-15 06:46:22  23 C   52 % 
 2018-09-15 06:36:43  23 C   52 % 
 2018-09-15 06:27:15  23 C   52 % 
 2018-09-15 06:17:31  23 C   52 % 
 2018-09-15 05:58:21  23 C   52 % 
 2018-09-15 05:48:35  23 C   52 % 
 2018-09-15 05:38:56  23 C   52 % 
 2018-09-15 05:29:23  23 C   52 % 
 2018-09-15 05:19:40  23 C   52 % 
 2018-09-15 05:00:25  23 C   52 % 
 2018-09-15 04:50:46  23 C   52 % 
 2018-09-15 04:41:14  23 C   52 % 
 2018-09-15 04:31:31  23 C   52 % 
 2018-09-15 04:21:52  23 C   52 % 
 2018-09-15 04:12:13  23 C   52 % 
 2018-09-15 04:02:34  23 C   52 % 
 2018-09-15 03:52:57  23 C   52 % 
 2018-09-15 03:43:17  23 C   52 % 
 2018-09-15 03:33:37  23 C   52 % 
 2018-09-15 03:24:06  23 C   52 % 
 2018-09-15 03:14:18  23 C   52 % 
 2018-09-15 02:54:53  23 C   52 % 
 2018-09-15 02:45:19  23 C   52 % 
 2018-09-15 02:35:42  23 C   52 % 
 2018-09-15 02:16:26  24 C   52 % 
 2018-09-15 01:57:16  24 C   52 % 
 2018-09-15 01:47:38  24 C   52 % 
 2018-09-15 01:37:57  24 C   52 % 
 2018-09-15 01:28:21  24 C   52 % 
 2018-09-15 01:18:42  24 C   52 % 
 2018-09-15 01:09:03  24 C   52 % 
 2018-09-15 00:30:41  24 C   52 % 
 2018-09-15 00:20:55  24 C   52 % 
 2018-09-14 23:04:02  24 C   51 % 
 2018-09-14 22:54:23  24 C   51 % 
 2018-09-14 22:44:48  24 C   51 % 
 2018-09-14 22:25:34  24 C   52 % 
 2018-09-14 22:16:03  24 C   52 % 
 2018-09-14 21:08:41  24 C   52 % 
 2018-09-14 20:59:01  24 C   53 % 
 2018-09-14 20:09:55  23 C   52 % 
 2018-09-14 19:50:41  23 C   51 % 
 2018-09-14 19:41:04  23 C   51 % 
 2018-09-14 19:31:31  23 C   51 % 
 2018-09-14 19:21:52  23 C   51 % 
 2018-09-14 19:12:14  23 C   51 % 
 2018-09-14 19:02:38  23 C   51 % 
 2018-09-14 18:52:56  23 C   51 % 
 2018-09-14 18:24:08  23 C   51 % 
 2018-09-14 18:14:29  23 C   51 % 
 2018-09-14 18:04:54  23 C   50 % 
 2018-09-14 17:55:25  23 C   50 % 
 2018-09-14 17:45:45  23 C   50 % 
 2018-09-14 17:35:49  23 C   50 % 
 2018-09-14 17:26:10  23 C   50 % 
 2018-09-14 17:16:35  23 C   50 % 
 2018-09-14 17:06:56  23 C   49 % 
 2018-09-14 16:57:16  23 C   49 % 
 2018-09-14 16:47:37  23 C   48 % 
 2018-09-14 16:38:04  23 C   48 % 
 2018-09-14 16:18:45  23 C   47 % 
 2018-09-14 15:59:35  23 C   45 % 
 2018-09-14 15:49:55  23 C   44 % 
 2018-09-14 15:40:19  23 C   44 % 
 2018-09-14 15:30:46  23 C   46 % 
 2018-09-14 15:21:09  23 C   49 % 
 2018-09-14 15:11:27  23 C   53 % 
 2018-09-14 15:01:52  23 C   53 % 
 2018-09-14 14:52:10  23 C   53 % 
 2018-09-14 14:42:32  23 C   53 % 
 2018-09-14 14:23:18  23 C   53 % 
 2018-09-14 14:13:39  23 C   53 % 
 2018-09-14 14:04:04  23 C   53 % 
 2018-09-14 13:44:39  23 C   53 % 
 2018-09-14 13:35:00  23 C   53 % 
 2018-09-14 13:05:58  23 C   53 % 
 2018-09-14 12:27:30  23 C   53 % 
 2018-09-14 12:08:06  23 C   53 % 
 2018-09-14 11:58:27  23 C   53 % 
 2018-09-14 11:48:48  23 C   53 % 
 2018-09-14 11:39:10  23 C   53 % 
 2018-09-14 11:10:25  23 C   53 % 
 2018-09-14 11:00:53  23 C   54 % 
 2018-09-14 10:51:06  23 C   54 % 
 2018-09-14 10:12:33  23 C   54 % 
 2018-09-14 10:03:07  23 C   54 % 
 2018-09-14 09:43:38  23 C   54 % 
 2018-09-14 09:34:04  23 C   54 % 
 2018-09-14 09:24:24  23 C   54 % 
 2018-09-14 08:45:57  23 C   54 % 
 2018-09-14 08:36:15  23 C   55 % 
 2018-09-14 08:17:00  23 C   55 % 
 2018-09-14 08:07:21  23 C   56 % 
 2018-09-14 07:57:51  23 C   56 % 
 2018-09-14 07:48:07  23 C   56 % 
 2018-09-14 07:38:27  23 C   56 % 
 2018-09-14 07:28:50  23 C   56 % 
 2018-09-14 07:19:09  23 C   55 % 
 2018-09-14 07:09:33  23 C   55 % 
 2018-09-14 06:59:53  23 C   55 % 
 2018-09-14 06:40:38  23 C   54 % 
 2018-09-14 06:31:05  23 C   53 % 
 2018-09-14 06:21:28  23 C   53 % 
 2018-09-14 06:11:51  23 C   53 % 
 2018-09-14 06:02:09  23 C   53 % 
 2018-09-14 05:52:30  23 C   53 % 
 2018-09-14 05:42:51  23 C   54 % 
 2018-09-14 05:23:36  23 C   53 % 
 2018-09-14 05:13:57  23 C   53 % 
 2018-09-14 05:04:30  23 C   53 % 
 2018-09-14 04:54:39  23 C   53 % 
 2018-09-14 04:45:01  23 C   53 % 
 2018-09-14 04:35:23  23 C   53 % 
 2018-09-14 04:06:33  23 C   53 % 
 2018-09-14 03:47:16  23 C   53 % 
 2018-09-14 03:37:34  23 C   53 % 
 2018-09-14 03:18:26  23 C   53 % 
 2018-09-14 03:08:49  23 C   53 % 
 2018-09-14 02:49:27  23 C   53 % 
 2018-09-14 02:39:53  23 C   53 % 
 2018-09-14 02:30:16  23 C   53 % 
 2018-09-14 02:20:38  23 C   53 % 
 2018-09-14 02:10:57  23 C   53 % 
 2018-09-14 02:01:18  23 C   53 % 
 2018-09-14 01:32:15  23 C   53 % 
 2018-09-14 01:22:35  23 C   53 % 
 2018-09-14 01:12:56  23 C   53 % 
 2018-09-13 19:25:25  24 C   52 % 
 2018-09-13 19:06:08  24 C   52 % 
 2018-09-13 18:37:22  24 C   52 % 
 2018-09-13 17:49:17  24 C   55 % 
 2018-09-13 17:29:59  23 C   53 % 
 2018-09-13 16:51:33  23 C   51 % 
 2018-09-13 16:22:44  23 C   51 % 
 2018-09-13 16:03:31  23 C   51 % 
 2018-09-13 15:53:59  23 C   51 % 
 2018-09-13 15:34:45  23 C   51 % 
 2018-09-13 15:25:05  23 C   51 % 
 2018-09-13 15:15:25  23 C   51 % 
 2018-09-13 14:46:35  23 C   49 % 
 2018-09-13 14:37:01  23 C   49 % 
 2018-09-13 14:17:46  23 C   48 % 
 2018-09-13 13:19:36  23 C   44 % 
 2018-09-13 12:41:13  23 C   51 % 
 2018-09-13 12:31:36  23 C   51 % 
 2018-09-13 12:21:57  23 C   51 % 
 2018-09-13 12:12:19  23 C   51 % 
 2018-09-13 12:02:44  23 C   51 % 
 2018-09-13 11:24:14  23 C   51 % 
 2018-09-13 10:45:49  23 C   51 % 
 2018-09-13 09:57:17  24 C   51 % 
 2018-09-13 09:28:16  24 C   51 % 
 2018-09-13 09:18:38  24 C   50 % 
 2018-09-13 08:59:29  24 C   50 % 
 2018-09-13 08:49:50  24 C   51 % 
 2018-09-13 08:40:05  24 C   56 % 
 2018-09-13 08:01:34  23 C   52 % 
 2018-09-13 07:51:56  23 C   52 % 
 2018-09-13 07:42:16  23 C   52 % 
 2018-09-13 07:03:30  23 C   53 % 
 2018-09-13 06:53:51  22 C   53 % 
 2018-09-13 06:34:15  22 C   53 % 
 2018-09-13 06:24:22  22 C   53 % 
 2018-09-13 06:14:43  22 C   53 % 
 2018-09-13 06:05:05  22 C   53 % 
 2018-09-13 05:55:26  22 C   53 % 
 2018-09-13 05:45:47  22 C   53 % 
 2018-09-13 05:36:15  22 C   53 % 
 2018-09-13 05:26:35  22 C   53 % 
 2018-09-13 05:16:54  22 C   53 % 
 2018-09-13 04:57:42  22 C   53 % 
 2018-09-13 04:48:01  22 C   53 % 
 2018-09-13 04:38:24  23 C   53 % 
 2018-09-13 04:28:48  23 C   53 % 
 2018-09-13 04:19:08  23 C   53 % 
 2018-09-13 04:09:33  23 C   53 % 
 2018-09-13 04:00:00  23 C   53 % 
 2018-09-13 03:50:19  23 C   53 % 
 2018-09-13 03:40:39  23 C   53 % 
 2018-09-13 03:31:02  23 C   53 % 
 2018-09-13 03:21:28  23 C   53 % 
 2018-09-13 03:11:46  23 C   53 % 
 2018-09-13 02:52:30  23 C   53 % 
 2018-09-13 02:42:52  23 C   53 % 
 2018-09-13 02:23:42  23 C   53 % 
 2018-09-13 02:14:08  23 C   54 % 
 2018-09-13 02:04:33  23 C   54 % 
 2018-09-13 01:35:42  23 C   54 % 
 2018-09-13 01:16:26  23 C   54 % 
 2018-09-13 01:06:42  23 C   53 % 
 2018-09-13 00:47:29  23 C   53 % 
 2018-09-13 00:37:53  23 C   53 % 
 2018-09-13 00:18:48  23 C   52 % 
 2018-09-13 00:09:00  23 C   52 % 
 2018-09-12 23:59:26  23 C   52 % 
 2018-09-12 23:40:12  23 C   52 % 
 2018-09-12 23:30:29  23 C   52 % 
 2018-09-12 23:20:58  23 C   52 % 
 2018-09-12 23:11:13  23 C   51 % 
 2018-09-12 23:01:34  23 C   51 % 
 2018-09-12 22:42:28  23 C   50 % 
 2018-09-12 22:32:44  23 C   49 % 
 2018-09-12 22:23:05  23 C   54 % 
 2018-09-12 22:13:35  23 C   54 % 
 2018-09-12 21:54:17  23 C   54 % 
 2018-09-12 20:55:35  23 C   56 % 
 2018-09-12 20:45:56  23 C   56 % 
 2018-09-12 20:07:34  22 C   54 % 
 2018-09-12 19:48:13  22 C   54 % 
 2018-09-12 19:38:32  22 C   54 % 
 2018-09-12 18:50:29  23 C   54 % 
 2018-09-12 18:40:50  23 C   54 % 
 2018-09-12 18:31:18  23 C   54 % 
 2018-09-12 18:02:25  23 C   54 % 
 2018-09-12 17:14:20  22 C   54 % 
 2018-09-12 16:55:03  22 C   55 % 
 2018-09-12 16:45:27  22 C   55 % 
 2018-09-12 16:35:53  22 C   55 % 
 2018-09-12 16:26:13  22 C   55 % 
 2018-09-12 16:16:35  22 C   55 % 
 2018-09-12 15:57:25  22 C   55 % 
 2018-09-12 15:38:07  22 C   55 % 
 2018-09-12 15:28:28  22 C   55 % 
 2018-09-12 15:18:49  22 C   55 % 
 2018-09-12 15:09:15  22 C   55 % 
 2018-09-12 14:59:34  22 C   55 % 
 2018-09-12 14:49:55  22 C   55 % 
 2018-09-12 14:40:16  22 C   55 % 
 2018-09-12 14:30:38  22 C   55 % 
 2018-09-12 14:20:58  22 C   55 % 
 2018-09-12 14:11:20  22 C   55 % 
 2018-09-12 14:01:41  22 C   55 % 
 2018-09-12 13:42:24  22 C   56 % 
 2018-09-12 13:32:45  22 C   56 % 
 2018-09-12 13:23:06  22 C   56 % 
 2018-09-12 13:13:31  22 C   56 % 
 2018-09-12 13:03:56  22 C   56 % 
 2018-09-12 12:54:14  22 C   56 % 
 2018-09-12 12:44:35  22 C   56 % 
 2018-09-12 12:25:21  22 C   56 % 
 2018-09-12 12:15:41  22 C   56 % 
 2018-09-12 11:56:32  22 C   56 % 
 2018-09-12 11:46:50  22 C   56 % 
 2018-09-12 11:37:14  22 C   56 % 
 2018-09-12 11:27:34  22 C   56 % 
 2018-09-12 11:17:57  22 C   56 % 
 2018-09-12 11:08:28  22 C   55 % 
 2018-09-12 10:58:32  22 C   55 % 
 2018-09-12 10:48:53  22 C   55 % 
 2018-09-12 10:39:14  22 C   54 % 
 2018-09-12 10:29:39  22 C   54 % 
 2018-09-12 10:19:57  22 C   54 % 
 2018-09-12 10:10:19  22 C   54 % 
 2018-09-12 10:00:40  22 C   54 % 
 2018-09-12 09:51:02  22 C   55 % 
 2018-09-12 09:41:23  22 C   54 % 
 2018-09-12 09:31:45  22 C   54 % 
 2018-09-12 09:22:08  22 C   55 % 
 2018-09-12 09:12:34  22 C   55 % 
 2018-09-12 08:34:07  22 C   54 % 
 2018-09-12 08:24:35  22 C   54 % 
 2018-09-12 08:14:50  22 C   54 % 
 2018-09-12 08:05:14  22 C   54 % 
 2018-09-12 07:46:04  22 C   54 % 
 2018-09-12 07:17:10  22 C   54 % 
 2018-09-12 06:48:26  22 C   54 % 
 2018-09-12 06:38:48  22 C   54 % 
 2018-09-12 06:29:17  22 C   54 % 
 2018-09-12 06:19:32  22 C   54 % 
 2018-09-12 06:00:13  22 C   54 % 
 2018-09-12 05:50:40  22 C   54 % 
 2018-09-12 05:41:01  22 C   54 % 
 2018-09-12 05:31:27  22 C   54 % 
 2018-09-12 05:21:48  22 C   54 % 
 2018-09-12 05:12:15  22 C   54 % 
 2018-09-12 05:02:37  22 C   54 % 
 2018-09-12 04:53:02  22 C   54 % 
 2018-09-12 04:43:19  22 C   54 % 
 2018-09-12 04:24:05  22 C   54 % 
 2018-09-12 04:14:34  22 C   54 % 
 2018-09-12 04:04:55  22 C   54 % 
 2018-09-12 03:55:14  22 C   54 % 
 2018-09-12 03:45:43  22 C   54 % 
 2018-09-12 03:36:05  22 C   54 % 
 2018-09-12 03:26:24  22 C   54 % 
 2018-09-12 03:07:13  22 C   54 % 
 2018-09-12 02:57:32  22 C   54 % 
 2018-09-12 02:47:55  22 C   54 % 
 2018-09-12 02:38:19  22 C   54 % 
 2018-09-12 02:19:06  22 C   54 % 
 2018-09-12 02:09:25  22 C   54 % 
 2018-09-12 01:59:49  22 C   54 % 
 2018-09-12 01:50:09  22 C   54 % 
 2018-09-12 01:30:17  22 C   54 % 
 2018-09-12 01:20:45  22 C   54 % 
 2018-09-12 01:11:02  22 C   54 % 
 2018-09-12 01:01:24  22 C   55 % 
 2018-09-12 00:42:13  22 C   55 % 
 2018-09-12 00:32:35  22 C   55 % 
 2018-09-12 00:22:55  22 C   55 % 
 2018-09-12 00:13:20  22 C   55 % 
 2018-09-12 00:03:39  22 C   55 % 
 2018-09-11 23:54:00  22 C   55 % 
 2018-09-11 23:44:31  22 C   55 % 
 2018-09-11 23:34:56  22 C   55 % 
 2018-09-11 23:15:26  22 C   55 % 
 2018-09-11 23:05:46  22 C   55 % 
 2018-09-11 22:56:07  22 C   55 % 
 2018-09-11 22:46:32  22 C   55 % 
 2018-09-11 22:36:56  22 C   55 % 
 2018-09-11 22:27:15  22 C   55 % 
 2018-09-11 22:17:37  22 C   55 % 
 2018-09-11 21:38:42  22 C   55 % 
 2018-09-11 21:28:59  22 C   55 % 
 2018-09-11 21:19:20  22 C   55 % 
 2018-09-11 21:09:42  22 C   55 % 
 2018-09-11 21:00:02  22 C   55 % 
 2018-09-11 20:40:48  22 C   56 % 
 2018-09-11 20:21:39  22 C   56 % 
 2018-09-11 20:11:56  22 C   56 % 
 2018-09-11 19:43:05  22 C   55 % 
 2018-09-11 19:23:48  22 C   55 % 
 2018-09-11 19:14:09  22 C   55 % 
 2018-09-11 18:54:56  22 C   55 % 
 2018-09-11 18:45:15  22 C   55 % 
 2018-09-11 18:35:38  22 C   55 % 
 2018-09-11 18:06:15  22 C   54 % 
 2018-09-11 17:56:41  22 C   54 % 
 2018-09-11 17:47:00  22 C   54 % 
 2018-09-11 17:37:21  22 C   54 % 
 2018-09-11 17:27:42  22 C   54 % 
 2018-09-11 17:18:02  22 C   54 % 
 2018-09-11 17:08:26  22 C   54 % 
 2018-09-11 16:58:49  22 C   54 % 
 2018-09-11 16:49:14  22 C   54 % 
 2018-09-11 16:39:37  22 C   54 % 
 2018-09-11 16:29:56  22 C   54 % 
 2018-09-11 16:20:17  22 C   54 % 
 2018-09-11 15:50:49  22 C   54 % 
 2018-09-11 15:41:10  22 C   54 % 
 2018-09-11 15:21:56  22 C   54 % 
 2018-09-11 15:12:16  22 C   54 % 
 2018-09-11 15:02:42  22 C   54 % 
 2018-09-11 14:43:24  22 C   54 % 
 2018-09-11 14:33:52  22 C   54 % 
 2018-09-11 14:24:15  22 C   54 % 
 2018-09-11 14:04:25  22 C   54 % 
 2018-09-11 13:24:49  22 C   54 % 
 2018-09-11 13:15:09  22 C   54 % 
 2018-09-11 12:55:56  22 C   54 % 
 2018-09-11 12:36:39  22 C   54 % 
 2018-09-11 12:27:00  22 C   54 % 
 2018-09-11 12:17:23  22 C   54 % 
 2018-09-11 11:29:23  22 C   54 % 
 2018-09-11 11:19:43  22 C   54 % 
 2018-09-11 11:10:03  22 C   54 % 
 2018-09-11 10:50:56  22 C   54 % 
 2018-09-11 10:31:33  22 C   54 % 
 2018-09-11 10:21:56  22 C   54 % 
 2018-09-11 10:12:21  22 C   54 % 
 2018-09-11 10:02:40  22 C   54 % 
 2018-09-11 09:53:01  22 C   54 % 
 2018-09-11 09:43:25  22 C   54 % 
 2018-09-11 09:33:49  22 C   54 % 
 2018-09-11 09:14:32  22 C   54 % 
 2018-09-11 09:04:52  22 C   54 % 
 2018-09-11 08:55:13  22 C   54 % 
 2018-09-11 08:45:34  22 C   54 % 
 2018-09-11 08:36:07  22 C   54 % 
 2018-09-11 08:26:20  22 C   54 % 
 2018-09-11 07:57:26  22 C   54 % 
 2018-09-11 07:47:47  22 C   54 % 
 2018-09-11 07:38:08  22 C   54 % 
 2018-09-11 07:28:37  22 C   54 % 
 2018-09-11 07:18:55  22 C   54 % 
 2018-09-11 07:09:15  22 C   54 % 
 2018-09-11 06:40:29  22 C   54 % 
 2018-09-11 06:30:51  22 C   54 % 
 2018-09-11 06:21:16  23 C   54 % 
 2018-09-11 06:11:38  23 C   54 % 
 2018-09-11 06:01:57  23 C   54 % 
 2018-09-11 05:52:22  23 C   54 % 
 2018-09-11 05:42:41  23 C   54 % 
 2018-09-11 05:23:29  23 C   54 % 
 2018-09-11 05:13:55  23 C   54 % 
 2018-09-11 04:54:27  23 C   54 % 
 2018-09-11 04:35:10  23 C   54 % 
 2018-09-11 04:25:30  23 C   54 % 
 2018-09-11 04:15:52  23 C   54 % 
 2018-09-11 04:06:13  23 C   54 % 
 2018-09-11 03:56:36  23 C   54 % 
 2018-09-11 03:47:08  23 C   54 % 
 2018-09-11 03:37:16  23 C   54 % 
 2018-09-11 03:27:41  23 C   54 % 
 2018-09-11 03:18:01  23 C   54 % 
 2018-09-11 03:08:27  23 C   54 % 
 2018-09-11 02:58:45  23 C   54 % 
 2018-09-11 02:20:17  23 C   54 % 
 2018-09-11 02:10:45  23 C   54 % 
 2018-09-11 02:01:05  23 C   54 % 
 2018-09-11 01:51:25  23 C   54 % 
 2018-09-11 01:41:53  23 C   55 % 
 2018-09-11 01:32:11  23 C   55 % 
 2018-09-11 01:22:36  23 C   55 % 
 2018-09-11 01:12:57  23 C   55 % 
 2018-09-11 00:53:41  23 C   55 % 
 2018-09-11 00:44:05  23 C   55 % 
 2018-09-11 00:34:26  23 C   55 % 
 2018-09-11 00:15:03  23 C   55 % 
 2018-09-11 00:05:27  23 C   55 % 
 2018-09-10 23:46:15  23 C   55 % 
 2018-09-10 22:47:51  23 C   55 % 
 2018-09-10 22:38:12  23 C   55 % 
 2018-09-10 22:19:01  23 C   55 % 
 2018-09-10 21:11:41  23 C   55 % 
 2018-09-10 20:52:29  23 C   55 % 
 2018-09-10 19:35:31  23 C   55 % 
 2018-09-10 19:25:57  23 C   55 % 
 2018-09-10 19:16:18  23 C   55 % 
 2018-09-10 18:57:04  23 C   55 % 
 2018-09-10 18:37:24  23 C   55 % 
 2018-09-10 18:18:13  23 C   55 % 
 2018-09-10 17:58:53  23 C   55 % 
 2018-09-10 17:49:19  23 C   55 % 
 2018-09-10 17:10:48  23 C   55 % 
 2018-09-10 17:01:09  23 C   55 % 
 2018-09-10 16:32:18  23 C   55 % 
 2018-09-10 16:22:44  23 C   55 % 
 2018-09-10 16:13:03  23 C   55 % 
 2018-09-10 15:33:57  23 C   55 % 
 2018-09-10 15:24:23  23 C   55 % 
 2018-09-10 15:14:53  23 C   55 % 
 2018-09-10 15:05:04  23 C   55 % 
 2018-09-10 14:55:25  23 C   55 % 
 2018-09-10 14:45:47  23 C   55 % 
 2018-09-10 14:26:34  23 C   55 % 
 2018-09-10 13:37:58  23 C   55 % 
 2018-09-10 13:28:19  23 C   55 % 
 2018-09-10 11:42:06  22 C   56 % 
 2018-09-10 11:22:52  22 C   56 % 
 2018-09-10 11:03:33  22 C   56 % 
 2018-09-10 10:44:26  22 C   56 % 
 2018-09-10 10:34:40  22 C   56 % 
 2018-09-10 10:25:02  22 C   56 % 
 2018-09-10 10:15:27  22 C   56 % 
 2018-09-10 10:05:47  22 C   56 % 
 2018-09-10 09:56:13  22 C   56 % 
 2018-09-10 09:17:05  22 C   56 % 
 2018-09-10 08:48:13  22 C   56 % 
 2018-09-10 08:38:34  22 C   56 % 
 2018-09-10 08:28:57  22 C   56 % 
 2018-09-10 08:19:18  22 C   56 % 
 2018-09-10 08:09:38  22 C   56 % 
 2018-09-10 08:00:00  22 C   56 % 
 2018-09-10 07:50:29  22 C   56 % 
 2018-09-10 07:11:50  22 C   56 % 
 2018-09-10 07:02:09  22 C   56 % 
 2018-09-10 06:52:29  22 C   56 % 
 2018-09-10 06:42:53  22 C   55 % 
 2018-09-10 06:33:16  22 C   55 % 
 2018-09-10 06:23:37  22 C   56 % 
 2018-09-10 06:14:03  22 C   56 % 
 2018-09-10 06:04:27  22 C   56 % 
 2018-09-10 05:35:32  22 C   55 % 
 2018-09-10 05:25:59  22 C   55 % 
 2018-09-10 05:16:18  22 C   55 % 
 2018-09-10 05:06:45  22 C   55 % 
 2018-09-10 04:56:58  22 C   55 % 
 2018-09-10 04:37:53  22 C   55 % 
 2018-09-10 04:28:11  22 C   55 % 
 2018-09-10 04:08:47  22 C   55 % 
 2018-09-10 03:59:12  22 C   55 % 
 2018-09-10 03:49:36  22 C   55 % 
 2018-09-10 03:30:30  22 C   56 % 
 2018-09-10 03:20:44  22 C   56 % 
 2018-09-10 03:01:26  22 C   56 % 
 2018-09-10 02:51:48  23 C   56 % 
 2018-09-10 02:42:11  22 C   56 % 
 2018-09-10 02:22:53  22 C   56 % 
 2018-09-10 02:13:17  22 C   56 % 
 2018-09-10 01:54:01  22 C   56 % 
 2018-09-10 01:25:08  22 C   56 % 
 2018-09-10 01:15:29  22 C   56 % 
 2018-09-10 01:05:54  22 C   56 % 
 2018-09-10 00:56:23  22 C   56 % 
 2018-09-10 00:46:47  22 C   56 % 
 2018-09-10 00:37:02  22 C   56 % 
 2018-09-10 00:27:32  22 C   56 % 
 2018-09-10 00:17:40  23 C   56 % 
 2018-09-10 00:08:06  22 C   56 % 
 2018-09-09 23:58:32  22 C   56 % 
 2018-09-09 23:49:00  22 C   56 % 
 2018-09-09 23:39:09  22 C   56 % 
 2018-09-09 23:29:33  22 C   56 % 
 2018-09-09 23:20:02  22 C   56 % 
 2018-09-09 22:51:00  22 C   56 % 
 2018-09-09 22:41:21  22 C   56 % 
 2018-09-09 22:22:03  22 C   56 % 
 2018-09-09 22:12:22  22 C   56 % 
 2018-09-09 21:33:29  22 C   56 % 
 2018-09-09 21:14:22  22 C   56 % 
 2018-09-09 20:55:04  22 C   56 % 
 2018-09-09 20:45:19  22 C   56 % 
 2018-09-09 20:35:39  22 C   56 % 
 2018-09-09 20:26:03  22 C   56 % 
 2018-09-09 20:06:07  22 C   56 % 
 2018-09-09 19:56:31  22 C   56 % 
 2018-09-09 19:36:57  22 C   56 % 
 2018-09-09 19:27:18  22 C   56 % 
 2018-09-09 19:17:39  22 C   56 % 
 2018-09-09 19:08:05  22 C   56 % 
 2018-09-09 18:48:51  22 C   56 % 
 2018-09-09 18:39:11  22 C   56 % 
 2018-09-09 18:19:57  22 C   56 % 
 2018-09-09 18:10:15  22 C   56 % 
 2018-09-09 18:00:36  22 C   56 % 
 2018-09-09 17:50:57  22 C   56 % 
 2018-09-09 17:41:18  22 C   56 % 
 2018-09-09 17:31:39  22 C   56 % 
 2018-09-09 17:22:07  22 C   56 % 
 2018-09-09 17:12:25  22 C   56 % 
 2018-09-09 16:52:36  22 C   56 % 
 2018-09-09 16:33:20  22 C   56 % 
 2018-09-09 16:23:41  22 C   56 % 
 2018-09-09 16:14:03  22 C   55 % 
 2018-09-09 16:04:24  22 C   55 % 
 2018-09-09 15:45:08  22 C   55 % 
 2018-09-09 15:35:29  22 C   55 % 
 2018-09-09 15:25:55  22 C   55 % 
 2018-09-09 15:16:17  22 C   55 % 
 2018-09-09 15:06:41  22 C   55 % 
 2018-09-09 14:57:00  22 C   55 % 
 2018-09-09 14:47:22  22 C   55 % 
 2018-09-09 14:37:43  22 C   55 % 
 2018-09-09 14:28:10  22 C   55 % 
 2018-09-09 14:18:28  22 C   55 % 
 2018-09-09 13:59:17  22 C   55 % 
 2018-09-09 13:40:03  22 C   55 % 
 2018-09-09 13:30:22  22 C   55 % 
 2018-09-09 13:20:48  22 C   55 % 
 2018-09-09 13:11:14  22 C   55 % 
 2018-09-09 13:01:27  22 C   55 % 
 2018-09-09 12:51:48  22 C   55 % 
 2018-09-09 12:42:10  22 C   55 % 
 2018-09-09 12:22:58  22 C   55 % 
 2018-09-09 12:13:19  22 C   55 % 
 2018-09-09 12:03:44  22 C   55 % 
 2018-09-09 11:34:50  22 C   55 % 
 2018-09-09 11:25:14  22 C   55 % 
 2018-09-09 10:56:21  22 C   55 % 
 2018-09-09 10:46:49  22 C   55 % 
 2018-09-09 10:37:06  22 C   55 % 
 2018-09-09 10:27:27  22 C   55 % 
 2018-09-09 10:17:48  22 C   55 % 
 2018-09-09 10:08:08  22 C   55 % 
 2018-09-09 09:58:29  22 C   55 % 
 2018-09-09 09:48:51  22 C   55 % 
 2018-09-09 09:39:13  22 C   55 % 
 2018-09-09 09:19:59  22 C   55 % 
 2018-09-09 09:10:13  22 C   54 % 
 2018-09-09 09:00:37  22 C   55 % 
 2018-09-09 08:51:00  22 C   55 % 
 2018-09-09 08:41:18  22 C   55 % 
 2018-09-09 08:31:40  22 C   55 % 
 2018-09-09 08:22:06  22 C   55 % 
 2018-09-09 08:12:26  22 C   54 % 
 2018-09-09 08:02:54  22 C   54 % 
 2018-09-09 07:53:23  22 C   54 % 
 2018-09-09 07:43:30  22 C   54 % 
 2018-09-09 07:33:47  22 C   55 % 
 2018-09-09 07:24:09  22 C   55 % 
 2018-09-09 07:14:32  22 C   55 % 
 2018-09-09 07:05:00  22 C   55 % 
 2018-09-09 06:36:02  22 C   54 % 
 2018-09-09 06:26:25  22 C   54 % 
 2018-09-09 06:16:45  22 C   55 % 
 2018-09-09 06:07:05  22 C   55 % 
 2018-09-09 05:57:27  22 C   55 % 
 2018-09-09 05:47:47  22 C   55 % 
 2018-09-09 05:28:33  22 C   55 % 
 2018-09-09 05:18:53  22 C   55 % 
 2018-09-09 05:09:16  22 C   54 % 
 2018-09-09 04:59:43  22 C   55 % 
 2018-09-09 04:50:00  22 C   55 % 
 2018-09-09 04:40:27  22 C   55 % 
 2018-09-09 04:30:51  22 C   55 % 
 2018-09-09 04:21:08  22 C   55 % 
 2018-09-09 04:02:09  23 C   55 % 
 2018-09-09 03:42:18  23 C   55 % 
 2018-09-09 03:23:17  22 C   55 % 
 2018-09-09 03:03:38  23 C   55 % 
 2018-09-09 02:53:59  23 C   55 % 
 2018-09-09 02:44:20  23 C   55 % 
 2018-09-09 02:34:45  23 C   55 % 
 2018-09-09 02:25:04  23 C   55 % 
 2018-09-09 02:05:49  23 C   55 % 
 2018-09-09 01:56:13  23 C   55 % 
 2018-09-09 01:46:32  23 C   55 % 
 2018-09-09 01:17:40  23 C   55 % 
 2018-09-09 01:08:02  23 C   55 % 
 2018-09-09 00:58:23  23 C   55 % 
 2018-09-09 00:29:32  23 C   55 % 
 2018-09-09 00:19:57  23 C   55 % 
 2018-09-09 00:10:19  23 C   55 % 
 2018-09-09 00:00:39  23 C   55 % 
 2018-09-08 23:51:02  23 C   55 % 
 2018-09-08 23:22:14  23 C   55 % 
 2018-09-08 23:12:41  23 C   55 % 
 2018-09-08 22:53:19  23 C   55 % 
 2018-09-08 22:43:39  23 C   55 % 
 2018-09-08 22:33:59  23 C   55 % 
 2018-09-08 22:14:50  23 C   55 % 
 2018-09-08 22:05:08  23 C   55 % 
 2018-09-08 21:55:33  23 C   55 % 
 2018-09-08 21:26:34  23 C   54 % 
 2018-09-08 21:16:56  23 C   54 % 
 2018-09-08 21:07:17  23 C   54 % 
 2018-09-08 20:57:43  23 C   54 % 
 2018-09-08 20:48:07  23 C   54 % 
 2018-09-08 20:08:38  23 C   55 % 
 2018-09-08 19:59:04  23 C   55 % 
 2018-09-08 19:39:25  23 C   55 % 
 2018-09-08 19:29:56  23 C   55 % 
 2018-09-08 19:19:59  23 C   55 % 
 2018-09-08 19:10:21  23 C   55 % 
 2018-09-08 19:00:47  23 C   55 % 
 2018-09-08 18:51:06  23 C   55 % 
 2018-09-08 18:31:35  23 C   55 % 
 2018-09-08 18:12:33  23 C   55 % 
 2018-09-08 18:02:35  23 C   55 % 
 2018-09-08 17:53:00  23 C   55 % 
 2018-09-08 17:33:47  23 C   55 % 
 2018-09-08 17:24:06  23 C   55 % 
 2018-09-08 17:14:32  23 C   55 % 
 2018-09-08 17:04:50  23 C   55 % 
 2018-09-08 16:55:11  23 C   55 % 
 2018-09-08 16:26:29  23 C   55 % 
 2018-09-08 16:16:43  23 C   55 % 
 2018-09-08 16:07:04  23 C   55 % 
 2018-09-08 15:57:33  23 C   55 % 
 2018-09-08 15:47:59  23 C   55 % 
 2018-09-08 15:09:17  23 C   55 % 
 2018-09-08 14:59:38  23 C   55 % 
 2018-09-08 14:21:10  23 C   55 % 
 2018-09-08 14:11:31  23 C   55 % 
 2018-09-08 13:52:15  23 C   55 % 
 2018-09-08 13:42:37  23 C   55 % 
 2018-09-08 13:33:02  23 C   55 % 
 2018-09-08 13:13:28  22 C   55 % 
 2018-09-08 12:54:13  22 C   55 % 
 2018-09-08 12:44:34  22 C   55 % 
 2018-09-08 12:34:58  22 C   55 % 
 2018-09-08 12:25:30  22 C   55 % 
 2018-09-08 12:15:36  22 C   55 % 
 2018-09-08 12:06:03  22 C   55 % 
 2018-09-08 11:56:21  22 C   55 % 
 2018-09-08 11:27:35  22 C   55 % 
 2018-09-08 10:58:22  22 C   55 % 
 2018-09-08 10:48:41  22 C   55 % 
 2018-09-08 10:39:05  22 C   55 % 
 2018-09-08 10:29:26  22 C   55 % 
 2018-09-08 10:10:10  22 C   55 % 
 2018-09-08 10:00:19  22 C   55 % 
 2018-09-08 09:50:41  22 C   55 % 
 2018-09-08 09:41:02  22 C   55 % 
 2018-09-08 09:31:30  22 C   55 % 
 2018-09-08 09:21:55  22 C   55 % 
 2018-09-08 09:12:04  22 C   55 % 
 2018-09-08 09:02:23  22 C   55 % 
 2018-09-08 08:52:45  22 C   55 % 
 2018-09-08 08:43:10  22 C   55 % 
 2018-09-08 08:33:37  22 C   55 % 
 2018-09-08 08:23:58  22 C   55 % 
 2018-09-08 08:14:15  22 C   55 % 
 2018-09-08 08:04:44  22 C   55 % 
 2018-09-08 07:26:15  22 C   55 % 
 2018-09-08 07:16:34  22 C   55 % 
 2018-09-08 06:57:26  22 C   55 % 
 2018-09-08 06:47:51  22 C   55 % 
 2018-09-08 06:38:11  22 C   55 % 
 2018-09-08 06:28:33  22 C   55 % 
 2018-09-08 06:18:59  22 C   55 % 
 2018-09-08 06:09:16  22 C   55 % 
 2018-09-08 05:59:37  22 C   55 % 
 2018-09-08 05:49:59  22 C   55 % 
 2018-09-08 05:40:20  22 C   55 % 
 2018-09-08 05:30:46  22 C   55 % 
 2018-09-08 05:11:30  22 C   55 % 
 2018-09-08 04:52:15  22 C   55 % 
 2018-09-08 04:42:41  22 C   55 % 
 2018-09-08 04:33:12  22 C   55 % 
 2018-09-08 04:23:27  22 C   55 % 
 2018-09-08 04:13:46  22 C   55 % 
 2018-09-08 03:44:53  22 C   55 % 
 2018-09-08 03:35:17  22 C   55 % 
 2018-09-08 03:25:42  22 C   55 % 
 2018-09-08 03:16:07  23 C   55 % 
 2018-09-08 03:06:24  23 C   55 % 
 2018-09-08 02:56:46  22 C   55 % 
 2018-09-08 02:47:13  22 C   55 % 
 2018-09-08 02:37:35  22 C   55 % 
 2018-09-08 02:27:59  22 C   55 % 
 2018-09-08 02:18:19  22 C   54 % 
 2018-09-08 02:08:44  22 C   55 % 
 2018-09-08 01:59:05  23 C   54 % 
 2018-09-08 01:49:30  23 C   54 % 
 2018-09-08 01:30:20  22 C   55 % 
 2018-09-08 01:20:42  22 C   55 % 
 2018-09-08 01:11:07  22 C   55 % 
 2018-09-08 00:51:48  23 C   54 % 
 2018-09-08 00:42:14  23 C   54 % 
 2018-09-08 00:32:32  23 C   54 % 
 2018-09-08 00:22:53  23 C   54 % 
 2018-09-08 00:13:15  22 C   54 % 
 2018-09-08 00:03:41  22 C   54 % 
 2018-09-07 23:54:06  22 C   54 % 
 2018-09-07 23:34:10  23 C   54 % 
 2018-09-07 23:24:31  23 C   54 % 
 2018-09-07 23:14:55  23 C   54 % 
 2018-09-07 22:45:36  22 C   54 % 
 2018-09-07 22:36:03  22 C   54 % 
 2018-09-07 22:16:43  23 C   54 % 
 2018-09-07 22:07:04  23 C   54 % 
 2018-09-07 21:57:35  23 C   54 % 
 2018-09-07 21:47:55  23 C   54 % 
 2018-09-07 21:38:10  22 C   54 % 
 2018-09-07 21:28:32  22 C   54 % 
 2018-09-07 20:59:41  23 C   54 % 
 2018-09-07 20:50:07  23 C   54 % 
 2018-09-07 20:40:33  23 C   54 % 
 2018-09-07 20:30:54  23 C   54 % 
 2018-09-07 20:01:37  22 C   54 % 
 2018-09-07 19:23:14  23 C   54 % 
 2018-09-07 19:13:38  23 C   54 % 
 2018-09-07 19:04:05  23 C   54 % 
 2018-09-07 18:54:20  23 C   54 % 
 2018-09-07 18:25:28  23 C   54 % 
 2018-09-07 18:06:17  23 C   54 % 
 2018-09-07 17:56:41  23 C   54 % 
 2018-09-07 17:37:25  23 C   54 % 
 2018-09-07 17:27:46  23 C   54 % 
 2018-09-07 17:18:08  23 C   54 % 
 2018-09-07 17:08:30  23 C   54 % 
 2018-09-07 16:58:51  23 C   54 % 
 2018-09-07 16:49:12  23 C   54 % 
 2018-09-07 16:29:28  23 C   54 % 
 2018-09-07 16:00:20  23 C   54 % 
 2018-09-07 15:50:50  23 C   54 % 
 2018-09-07 15:31:30  23 C   54 % 
 2018-09-07 15:21:50  23 C   54 % 
 2018-09-07 15:12:10  23 C   54 % 
 2018-09-07 15:02:48  23 C   54 % 
 2018-09-07 14:52:36  23 C   54 % 
 2018-09-07 14:33:27  23 C   55 % 
 2018-09-07 14:23:48  23 C   55 % 
 2018-09-07 14:14:10  23 C   55 % 
 2018-09-07 13:45:09  22 C   55 % 
 2018-09-07 12:56:36  23 C   55 % 
 2018-09-07 12:37:25  22 C   55 % 
 2018-09-07 12:27:44  22 C   55 % 
 2018-09-07 12:07:58  22 C   55 % 
 2018-09-07 11:48:43  22 C   55 % 
 2018-09-07 11:39:13  22 C   55 % 
 2018-09-07 11:29:23  22 C   55 % 
 2018-09-07 11:19:43  22 C   55 % 
 2018-09-07 11:00:36  22 C   55 % 
 2018-09-07 10:31:38  22 C   55 % 
 2018-09-07 10:22:10  22 C   55 % 
 2018-09-07 10:12:26  22 C   55 % 
 2018-09-07 10:02:47  22 C   55 % 
 2018-09-07 09:53:10  22 C   55 % 
 2018-09-07 09:43:27  22 C   55 % 
 2018-09-07 09:14:16  22 C   55 % 
 2018-09-07 08:55:06  22 C   55 % 
 2018-09-07 08:45:24  22 C   55 % 
 2018-09-07 08:35:53  22 C   55 % 
 2018-09-07 08:26:14  22 C   55 % 
 2018-09-07 08:16:35  22 C   55 % 
 2018-09-07 08:06:55  22 C   55 % 
 2018-09-07 07:47:39  22 C   55 % 
 2018-09-07 07:38:05  22 C   55 % 
 2018-09-07 07:28:28  22 C   55 % 
 2018-09-07 07:18:56  22 C   55 % 
 2018-09-07 07:09:13  22 C   55 % 
 2018-09-07 06:49:52  22 C   55 % 
 2018-09-07 06:40:03  22 C   55 % 
 2018-09-07 06:20:48  23 C   55 % 
 2018-09-07 06:11:08  23 C   55 % 
 2018-09-07 06:01:30  23 C   55 % 
 2018-09-07 05:51:51  23 C   55 % 
 2018-09-07 05:42:12  22 C   55 % 
 2018-09-07 05:32:36  23 C   55 % 
 2018-09-07 05:23:00  23 C   55 % 
 2018-09-07 05:13:20  23 C   55 % 
 2018-09-07 05:03:41  23 C   55 % 
 2018-09-07 04:54:06  23 C   55 % 
 2018-09-07 04:34:51  23 C   55 % 
 2018-09-07 04:25:23  23 C   55 % 
 2018-09-07 04:15:38  23 C   55 % 
 2018-09-07 03:56:18  23 C   55 % 
 2018-09-07 03:46:40  23 C   55 % 
 2018-09-07 03:27:12  23 C   55 % 
 2018-09-07 02:58:20  23 C   55 % 
 2018-09-07 02:48:47  23 C   55 % 
 2018-09-07 02:39:03  23 C   55 % 
 2018-09-07 02:29:28  23 C   55 % 
 2018-09-07 02:19:47  23 C   55 % 
 2018-09-07 02:00:36  23 C   55 % 
 2018-09-07 01:51:00  23 C   55 % 
 2018-09-07 01:41:18  23 C   55 % 
 2018-09-07 01:22:05  23 C   55 % 
 2018-09-07 01:12:25  23 C   55 % 
 2018-09-07 01:02:46  23 C   55 % 
 2018-09-07 00:53:08  23 C   55 % 
 2018-09-07 00:43:29  23 C   55 % 
 2018-09-07 00:33:58  23 C   55 % 
 2018-09-07 00:24:07  23 C   55 % 
 2018-09-07 00:04:53  23 C   55 % 
 2018-09-06 23:45:36  23 C   55 % 
 2018-09-06 23:06:54  23 C   55 % 
 2018-09-06 22:18:54  23 C   55 % 
 2018-09-06 21:29:56  23 C   55 % 
 2018-09-06 21:20:31  23 C   55 % 
 2018-09-06 21:00:37  23 C   55 % 
 2018-09-06 20:41:29  23 C   55 % 
 2018-09-06 20:31:46  23 C   55 % 
 2018-09-06 20:22:08  23 C   55 % 
 2018-09-06 20:12:36  23 C   55 % 
 2018-09-06 20:02:53  23 C   55 % 
 2018-09-06 19:53:20  23 C   55 % 
 2018-09-06 19:33:52  23 C   55 % 
 2018-09-06 19:14:50  23 C   55 % 
 2018-09-06 18:45:48  23 C   55 % 
 2018-09-06 18:26:22  23 C   55 % 
 2018-09-06 18:16:49  23 C   55 % 
 2018-09-06 18:07:08  23 C   55 % 
 2018-09-06 17:57:44  23 C   55 % 
 2018-09-06 17:47:40  23 C   55 % 
 2018-09-06 17:38:09  23 C   55 % 
 2018-09-06 17:28:25  23 C   55 % 
 2018-09-06 17:18:50  23 C   55 % 
 2018-09-06 17:09:11  23 C   55 % 
 2018-09-06 16:59:43  23 C   55 % 
 2018-09-06 16:49:48  23 C   55 % 
 2018-09-06 16:40:15  23 C   55 % 
 2018-09-06 16:30:38  23 C   55 % 
 2018-09-06 15:52:13  23 C   55 % 
 2018-09-06 15:23:07  23 C   55 % 
 2018-09-06 15:13:30  23 C   54 % 
 2018-09-06 14:44:36  23 C   54 % 
 2018-09-06 14:25:25  23 C   54 % 
 2018-09-06 14:15:46  23 C   54 % 
 2018-09-06 14:06:11  23 C   54 % 
 2018-09-06 13:56:34  23 C   54 % 
 2018-09-06 13:47:05  23 C   54 % 
 2018-09-06 13:37:14  23 C   54 % 
 2018-09-06 13:18:00  23 C   54 % 
 2018-09-06 13:08:25  23 C   54 % 
 2018-09-06 12:58:45  23 C   54 % 
 2018-09-06 12:49:07  23 C   54 % 
 2018-09-06 12:39:27  23 C   54 % 
 2018-09-06 12:29:49  23 C   54 % 
 2018-09-06 12:10:33  23 C   54 % 
 2018-09-06 11:51:16  23 C   54 % 
 2018-09-06 11:41:37  23 C   54 % 
 2018-09-06 11:32:03  23 C   54 % 
 2018-09-06 10:34:19  23 C   54 % 
 2018-09-06 10:14:36  23 C   54 % 
 2018-09-06 09:36:08  23 C   54 % 
 2018-09-06 09:26:27  23 C   54 % 
 2018-09-06 09:16:54  23 C   54 % 
 2018-09-06 08:28:53  23 C   54 % 
 2018-09-06 08:19:05  23 C   54 % 
 2018-09-06 08:09:25  23 C   54 % 
 2018-09-06 07:50:16  23 C   54 % 
 2018-09-06 07:40:35  23 C   54 % 
 2018-09-06 07:02:12  23 C   53 % 
 2018-09-06 06:52:25  23 C   53 % 
 2018-09-06 06:23:33  23 C   53 % 
 2018-09-06 06:13:57  23 C   53 % 
 2018-09-06 05:54:25  23 C   53 % 
 2018-09-06 05:44:53  23 C   53 % 
 2018-09-06 05:35:16  23 C   53 % 
 2018-09-06 05:25:37  23 C   53 % 
 2018-09-06 04:47:06  23 C   53 % 
 2018-09-06 04:37:33  23 C   53 % 
 2018-09-06 04:08:38  23 C   53 % 
 2018-09-06 03:49:24  23 C   53 % 
 2018-09-06 03:29:36  23 C   53 % 
 2018-09-06 03:19:57  23 C   53 % 
 2018-09-06 03:10:18  23 C   53 % 
 2018-09-06 02:41:32  23 C   54 % 
 2018-09-06 01:34:08  23 C   54 % 
 2018-09-06 00:55:40  24 C   54 % 
 2018-09-06 00:46:03  24 C   54 % 
 2018-09-06 00:36:21  24 C   54 % 
 2018-09-06 00:26:42  24 C   54 % 
 2018-09-05 23:57:51  24 C   54 % 
 2018-09-05 23:29:02  24 C   54 % 
 2018-09-05 23:00:10  24 C   54 % 
 2018-09-05 22:50:43  24 C   54 % 
 2018-09-05 22:40:52  24 C   54 % 
 2018-09-05 22:21:07  24 C   54 % 
 2018-09-05 21:51:51  24 C   54 % 
 2018-09-05 21:32:38  24 C   54 % 
 2018-09-05 21:13:06  24 C   54 % 
 2018-09-05 20:44:07  24 C   54 % 
 2018-09-05 20:34:40  24 C   54 % 
 2018-09-05 19:55:54  24 C   54 % 
 2018-09-05 19:46:28  24 C   54 % 
 2018-09-05 19:36:34  24 C   54 % 
 2018-09-05 19:26:59  24 C   54 % 
 2018-09-05 19:17:18  24 C   54 % 
 2018-09-05 19:07:48  24 C   54 % 
 2018-09-05 18:48:28  24 C   54 % 
 2018-09-05 18:38:52  24 C   54 % 
 2018-09-05 18:29:17  24 C   54 % 
 2018-09-05 18:00:22  24 C   54 % 
 2018-09-05 17:50:44  24 C   54 % 
 2018-09-05 17:31:33  24 C   54 % 
 2018-09-05 17:21:56  24 C   54 % 
 2018-09-05 16:13:58  24 C   54 % 
 2018-09-05 16:04:15  24 C   54 % 
 2018-09-05 15:45:01  24 C   54 % 
 2018-09-05 15:35:27  24 C   54 % 
 2018-09-05 15:25:45  24 C   54 % 
 2018-09-05 15:06:12  24 C   54 % 
 2018-09-05 14:56:37  24 C   54 % 
 2018-09-05 14:46:59  24 C   54 % 
 2018-09-05 14:08:41  24 C   53 % 
 2018-09-05 13:49:10  24 C   53 % 
 2018-09-05 13:29:55  24 C   54 % 
 2018-09-05 13:20:16  24 C   54 % 
 2018-09-05 13:01:05  24 C   53 % 
 2018-09-05 12:51:25  24 C   53 % 
 2018-09-05 12:22:45  24 C   53 % 
 2018-09-05 12:03:14  24 C   53 % 
 2018-09-05 11:44:06  24 C   53 % 
 2018-09-05 11:34:25  24 C   53 % 
 2018-09-05 11:24:53  24 C   53 % 
 2018-09-05 11:05:18  24 C   53 % 
 2018-09-05 10:55:45  23 C   53 % 
 2018-09-05 10:26:55  24 C   53 % 
 2018-09-05 10:17:18  24 C   53 % 
 2018-09-05 09:58:06  23 C   53 % 
 2018-09-05 09:48:24  23 C   53 % 
 2018-09-05 09:38:43  23 C   53 % 
 2018-09-05 09:29:05  23 C   53 % 
 2018-09-05 09:09:54  24 C   53 % 
 2018-09-05 08:31:23  24 C   53 % 
 2018-09-05 08:21:44  24 C   53 % 
 2018-09-05 08:12:11  24 C   53 % 
 2018-09-05 07:43:24  24 C   53 % 
 2018-09-05 07:33:38  24 C   53 % 
 2018-09-05 07:23:59  24 C   53 % 
 2018-09-05 07:14:28  24 C   53 % 
 2018-09-05 07:04:44  24 C   53 % 
 2018-09-05 06:45:28  24 C   53 % 
 2018-09-05 06:16:41  24 C   53 % 
 2018-09-05 05:57:23  24 C   53 % 
 2018-09-05 05:47:50  24 C   53 % 
 2018-09-05 05:38:10  24 C   53 % 
 2018-09-05 05:28:27  24 C   53 % 
 2018-09-05 01:26:32  24 C   53 % 
 2018-09-05 00:57:38  24 C   53 % 
 2018-09-05 00:47:59  24 C   53 % 
 2018-09-05 00:28:44  24 C   53 % 
 2018-09-05 00:09:35  24 C   53 % 
 2018-09-04 23:59:56  24 C   53 % 
 2018-09-04 23:40:40  24 C   53 % 
 2018-09-04 23:31:06  24 C   53 % 
 2018-09-04 23:21:35  24 C   53 % 
 2018-09-04 22:32:16  24 C   53 % 
 2018-09-04 22:22:36  24 C   53 % 
 2018-09-04 22:13:01  24 C   53 % 
 2018-09-04 22:03:26  24 C   53 % 
 2018-09-04 21:44:09  24 C   52 % 
 2018-09-04 21:34:31  24 C   52 % 
 2018-09-04 21:24:56  24 C   52 % 
 2018-09-04 21:15:17  24 C   52 % 
 2018-09-04 20:27:18  24 C   52 % 
 2018-09-04 19:58:19  24 C   52 % 
 2018-09-04 19:09:43  24 C   52 % 
 2018-09-04 19:00:01  24 C   52 % 
 2018-09-04 18:50:22  24 C   52 % 
 2018-09-04 17:52:15  24 C   52 % 
 2018-09-04 17:42:38  24 C   52 % 
 2018-09-04 17:23:22  24 C   52 % 
 2018-09-04 16:35:05  24 C   53 % 
 2018-09-04 16:06:08  24 C   53 % 
 2018-09-04 15:56:27  24 C   53 % 
 2018-09-04 15:27:40  24 C   53 % 
 2018-09-04 15:08:30  24 C   53 % 
 2018-09-04 14:39:34  24 C   53 % 
 2018-09-04 14:20:18  24 C   53 % 
 2018-09-04 13:51:12  24 C   53 % 
 2018-09-04 13:41:33  24 C   53 % 
 2018-09-04 13:31:54  24 C   53 % 
 2018-09-04 13:22:18  24 C   53 % 
 2018-09-04 13:12:45  24 C   53 % 
 2018-09-04 12:53:34  24 C   53 % 
 2018-09-04 12:24:06  24 C   52 % 
 2018-09-04 12:14:32  24 C   52 % 
 2018-09-04 12:04:52  24 C   52 % 
 2018-09-04 11:16:47  24 C   52 % 
 2018-09-04 10:19:03  24 C   52 % 
 2018-09-04 10:09:30  24 C   52 % 
 2018-09-04 09:40:39  24 C   52 % 
 2018-09-04 09:21:27  24 C   52 % 
 2018-09-04 08:23:50  24 C   52 % 
 2018-09-04 07:25:51  24 C   52 % 
 2018-09-04 07:06:41  24 C   52 % 
 2018-09-04 06:46:47  24 C   52 % 
 2018-09-04 06:27:31  24 C   52 % 
 2018-09-04 06:08:10  24 C   52 % 
 2018-09-04 05:48:21  24 C   52 % 
 2018-09-04 05:38:46  24 C   52 % 
 2018-09-04 05:29:05  24 C   52 % 
 2018-09-04 05:09:56  24 C   52 % 
 2018-09-04 04:50:38  24 C   52 % 
 2018-09-04 04:31:21  24 C   52 % 
 2018-09-04 04:21:48  24 C   52 % 
 2018-09-04 04:12:09  24 C   52 % 
 2018-09-04 04:02:32  24 C   52 % 
 2018-09-04 03:52:57  24 C   52 % 
 2018-09-04 03:14:26  24 C   52 % 
 2018-09-04 02:55:18  24 C   52 % 
 2018-09-04 02:45:31  24 C   53 % 
 2018-09-04 02:26:18  24 C   53 % 
 2018-09-04 01:38:18  24 C   53 % 
 2018-09-04 01:19:05  24 C   53 % 
 2018-09-04 00:59:50  24 C   53 % 
 2018-09-04 00:20:58  24 C   53 % 
 2018-09-04 00:01:40  24 C   53 % 
 2018-09-03 23:52:04  24 C   53 % 
 2018-09-03 23:13:28  24 C   53 % 
 2018-09-03 22:44:35  24 C   53 % 
 2018-09-03 22:35:08  24 C   53 % 
 2018-09-03 22:15:00  24 C   52 % 
 2018-09-03 20:57:30  25 C   52 % 
 2018-09-03 20:19:01  25 C   52 % 
 2018-09-03 19:02:10  25 C   52 % 
 2018-09-03 18:13:56  25 C   52 % 
 2018-09-03 18:04:21  25 C   52 % 
 2018-09-03 17:54:43  25 C   52 % 
 2018-09-03 17:45:08  25 C   53 % 
 2018-09-03 17:35:29  25 C   53 % 
 2018-09-03 17:25:50  25 C   53 % 
 2018-09-03 16:37:50  25 C   53 % 
 2018-09-03 16:28:10  25 C   53 % 
 2018-09-03 16:08:50  25 C   53 % 
 2018-09-03 15:59:15  25 C   53 % 
 2018-09-03 15:10:51  25 C   53 % 
 2018-09-03 14:51:39  25 C   54 % 
 2018-09-03 14:42:02  25 C   54 % 
 2018-09-03 14:32:28  25 C   54 % 
 2018-09-03 14:13:12  25 C   54 % 
 2018-09-03 14:03:34  25 C   54 % 
 2018-09-03 13:34:46  24 C   54 % 
 2018-09-03 13:25:10  24 C   54 % 
 2018-09-03 12:46:42  24 C   54 % 
 2018-09-03 12:37:00  24 C   54 % 
 2018-09-03 12:17:42  24 C   54 % 
 2018-09-03 11:58:01  24 C   54 % 
 2018-09-03 11:48:21  24 C   54 % 
 2018-09-03 11:38:43  24 C   54 % 
 2018-09-03 11:29:07  24 C   54 % 
 2018-09-03 11:19:30  24 C   54 % 
 2018-09-03 11:09:54  24 C   53 % 
 2018-09-03 10:41:04  25 C   53 % 
 2018-09-03 10:21:36  25 C   54 % 
 2018-09-03 10:12:03  25 C   53 % 
 2018-09-03 09:52:46  25 C   54 % 
 2018-09-03 09:43:05  25 C   53 % 
 2018-09-03 09:33:35  25 C   53 % 
 2018-09-03 09:14:14  25 C   53 % 
 2018-09-03 09:04:39  25 C   53 % 
 2018-09-03 08:54:59  25 C   53 % 
 2018-09-03 08:35:47  25 C   54 % 
 2018-09-03 08:26:06  25 C   54 % 
 2018-09-03 08:16:35  25 C   54 % 
 2018-09-03 08:06:55  25 C   54 % 
 2018-09-03 07:47:16  25 C   53 % 
 2018-09-03 07:37:40  24 C   53 % 
 2018-09-03 07:18:33  24 C   53 % 
 2018-09-03 07:08:41  24 C   53 % 
 2018-09-03 06:39:47  24 C   52 % 
 2018-09-03 06:30:07  24 C   52 % 
 2018-09-03 06:10:51  24 C   52 % 
 2018-09-03 05:51:42  24 C   52 % 
 2018-09-03 05:22:50  24 C   52 % 
 2018-09-03 04:44:23  24 C   52 % 
 2018-09-03 03:27:28  24 C   52 % 
 2018-09-03 03:08:15  24 C   52 % 
 2018-09-03 02:20:13  24 C   52 % 
 2018-09-03 02:00:58  24 C   52 % 
 2018-09-03 01:41:47  25 C   52 % 
 2018-09-03 01:22:39  25 C   52 % 
 2018-09-03 00:53:34  25 C   52 % 
 2018-09-03 00:43:56  25 C   52 % 
 2018-09-02 22:28:22  25 C   51 % 
 2018-09-02 21:40:20  25 C   50 % 
 2018-09-02 19:44:34  24 C   50 % 
 2018-09-02 19:06:06  24 C   49 % 
 2018-09-02 18:07:39  24 C   47 % 
 2018-09-02 17:00:23  24 C   46 % 
 2018-09-02 16:50:39  24 C   46 % 
 2018-09-02 16:31:24  24 C   46 % 
 2018-09-02 16:02:27  24 C   46 % 
 2018-09-02 15:52:49  24 C   46 % 
 2018-09-02 15:33:38  24 C   46 % 
 2018-09-02 15:04:20  24 C   47 % 
 2018-09-02 14:15:41  24 C   48 % 
 2018-09-02 13:18:11  24 C   50 % 
 2018-09-02 12:39:25  24 C   53 % 
 2018-09-02 12:20:11  24 C   53 % 
 2018-09-02 12:10:37  24 C   53 % 
 2018-09-02 11:21:53  24 C   53 % 
 2018-09-02 11:02:41  24 C   51 % 
 2018-09-02 10:53:03  24 C   51 % 
 2018-09-02 09:44:35  24 C   51 % 
 2018-09-02 09:34:56  24 C   51 % 
 2018-09-02 09:25:22  24 C   51 % 
 2018-09-02 09:06:09  24 C   51 % 
 2018-09-02 08:46:35  24 C   51 % 
 2018-09-02 08:27:22  24 C   51 % 
 2018-09-02 08:17:48  24 C   51 % 
 2018-09-02 07:29:17  23 C   50 % 
 2018-09-02 07:19:29  23 C   50 % 
 2018-09-02 07:10:01  24 C   50 % 
 2018-09-02 07:00:10  24 C   50 % 
 2018-09-02 06:40:54  24 C   50 % 
 2018-09-02 06:31:18  24 C   50 % 
 2018-09-02 06:11:24  24 C   50 % 
 2018-09-02 06:01:44  24 C   50 % 
 2018-09-02 05:52:11  24 C   50 % 
 2018-09-02 05:42:35  24 C   50 % 
 2018-09-02 05:23:22  24 C   49 % 
 2018-09-02 05:04:03  24 C   49 % 
 2018-09-02 04:44:51  24 C   49 % 
 2018-09-02 04:35:12  24 C   49 % 
 2018-09-02 04:25:33  24 C   49 % 
 2018-09-02 04:15:59  24 C   49 % 
 2018-09-02 04:06:21  24 C   49 % 
 2018-09-02 03:56:50  24 C   49 % 
 2018-09-02 03:27:42  24 C   48 % 
 2018-09-02 03:08:32  24 C   48 % 
 2018-09-02 02:58:47  24 C   48 % 
 2018-09-02 02:10:48  24 C   48 % 
 2018-09-02 02:01:07  24 C   48 % 
 2018-09-02 01:51:30  24 C   47 % 
 2018-09-02 01:32:22  25 C   47 % 
 2018-09-02 01:22:35  25 C   47 % 
 2018-09-02 01:13:00  25 C   47 % 
 2018-09-02 01:03:22  25 C   47 % 
 2018-09-02 00:53:48  25 C   47 % 
 2018-09-01 22:20:02  27 C   40 % 
 2018-09-01 22:10:27  28 C   39 % 
 2018-09-01 22:00:48  28 C   38 % 
 2018-09-01 21:51:14  29 C   36 % 
 2018-09-01 21:41:35  30 C   34 % 
 2018-09-01 21:31:58  32 C   30 % 
 2018-09-01 21:22:23  35 C   27 % 
 2018-09-01 21:12:50  39 C   22 % 
 2018-09-01 21:03:19  43 C   20 % 
 2018-09-01 20:53:12  40 C   28 % 
 2018-09-01 17:00:52  23 C   48 % 
 2018-09-01 16:22:13  23 C   46 % 
 2018-09-01 09:26:31  23 C   50 % 
 2018-09-01 05:53:26  23 C   49 % 
 2018-09-01 05:43:50  23 C   49 % 
 2018-09-01 05:34:03  23 C   49 % 
 2018-09-01 04:06:55  23 C   49 % 
 2018-09-01 00:06:13  24 C   47 % 
 2018-08-31 21:12:58  24 C   45 % 
 2018-08-31 13:01:48  23 C   46 % 
 2018-08-30 09:08:11  25 C   51 % 
 2018-08-30 08:48:25  25 C   52 % 
 2018-08-30 08:39:01  25 C   52 % 
 2018-08-28 18:38:00  24 C   55 % 
 2018-08-26 12:14:42  23 C   52 % 
 2018-08-26 04:13:02  23 C   49 % 
 2018-08-25 02:12:19  24 C   53 % 
 2018-08-23 12:30:53  23 C   44 % 
 2018-08-23 12:21:17  23 C   42 % 
 2018-08-23 12:11:41  23 C   44 % 
 2018-08-23 11:42:57  24 C   46 % 
 2018-08-23 06:53:41  23 C   57 % 
 2018-08-23 04:09:32  23 C   58 % 
 2018-08-23 02:42:30  23 C   58 % 
 2018-08-23 02:13:42  23 C   58 % 
 2018-08-22 19:08:48  23 C   59 % 
 2018-08-22 18:00:46  23 C   59 % 
 2018-08-22 17:41:32  23 C   59 % 
 2018-08-22 17:03:18  23 C   59 % 
 2018-08-22 16:24:19  23 C   58 % 
 2018-08-22 13:49:52  23 C   58 % 
 2018-08-22 13:30:31  23 C   58 % 
 2018-08-22 12:23:12  22 C   57 % 
 2018-08-22 11:34:51  22 C   57 % 
 2018-08-22 11:05:53  22 C   57 % 
 2018-08-22 10:46:27  22 C   57 % 
 2018-08-22 10:36:55  22 C   56 % 
 2018-08-22 09:38:35  21 C   57 % 
 2018-08-22 08:50:08  21 C   56 % 
 2018-08-22 08:20:19  21 C   55 % 
 2018-08-22 08:10:50  21 C   54 % 
 2018-08-22 07:51:22  21 C   54 % 
 2018-08-22 07:41:49  21 C   54 % 
 2018-08-22 07:31:59  21 C   53 % 
 2018-08-22 07:03:16  21 C   53 % 
 2018-08-22 04:19:02  22 C   51 % 
 2018-08-22 04:09:27  22 C   51 % 
 2018-08-21 23:28:37  23 C   45 % 
 2018-08-21 23:09:21  23 C   43 % 
 2018-08-21 22:59:40  24 C   43 % 
 2018-08-21 04:12:29  24 C   49 % 
 2018-08-19 23:20:48  25 C   51 % 
 2018-08-19 17:53:40  24 C   44 % 
 2018-08-19 09:33:45  25 C   52 % 
 2018-08-19 06:20:28  24 C   53 % 
 2018-08-19 05:22:41  24 C   53 % 
 2018-08-19 02:00:44  25 C   55 % 
 2018-08-18 21:31:06  24 C   54 % 
 2018-08-18 19:06:51  24 C   60 % 
 2018-08-18 12:21:19  24 C   58 % 
 2018-08-18 11:03:31  23 C   57 % 
 2018-08-18 09:17:49  23 C   55 % 
 2018-08-17 21:35:03  23 C   57 % 
 2018-08-17 20:37:11  23 C   60 % 
 2018-08-17 20:27:35  23 C   59 % 
 2018-08-17 19:58:45  23 C   59 % 
 2018-08-17 19:20:03  23 C   59 % 
 2018-08-17 18:50:59  23 C   59 % 
 2018-08-17 17:52:45  23 C   57 % 
 2018-08-17 17:33:30  22 C   57 % 
 2018-08-17 17:04:42  22 C   57 % 
 2018-08-17 16:45:41  22 C   56 % 
 2018-08-17 16:16:30  23 C   59 % 
 2018-08-17 15:57:03  23 C   60 % 
 2018-08-17 15:47:25  23 C   60 % 
 2018-08-17 15:37:45  23 C   59 % 
 2018-08-17 15:28:08  23 C   58 % 
 2018-08-17 15:18:33  23 C   57 % 
 2018-08-17 15:09:01  23 C   56 % 
 2018-08-17 14:59:18  23 C   55 % 
 2018-08-17 14:39:59  23 C   52 % 
 2018-08-17 14:30:25  23 C   51 % 
 2018-08-17 14:01:29  23 C   51 % 
 2018-08-17 13:51:55  23 C   51 % 
 2018-08-17 13:13:24  23 C   51 % 
 2018-08-17 13:03:45  23 C   51 % 
 2018-08-17 12:54:10  23 C   51 % 
 2018-08-17 12:44:33  23 C   52 % 
 2018-08-17 12:15:40  24 C   54 % 
 2018-08-17 12:06:04  24 C   55 % 
 2018-08-17 11:56:23  24 C   56 % 
 2018-08-17 11:37:13  24 C   54 % 
 2018-08-17 11:27:38  24 C   55 % 
 2018-08-17 10:58:47  24 C   55 % 
 2018-08-17 10:49:11  24 C   56 % 
 2018-08-17 10:29:53  24 C   56 % 
 2018-08-17 10:20:19  24 C   56 % 
 2018-08-17 10:10:46  24 C   57 % 
 2018-08-17 10:01:01  24 C   57 % 
 2018-08-17 09:51:27  24 C   57 % 
 2018-08-17 09:41:51  24 C   57 % 
 2018-08-17 09:32:08  24 C   57 % 
 2018-08-17 09:12:53  24 C   58 % 
 2018-08-17 09:03:17  24 C   58 % 
 2018-08-17 08:44:06  24 C   58 % 
 2018-08-17 08:24:58  24 C   59 % 
 2018-08-17 08:05:29  23 C   59 % 
 2018-08-17 07:55:55  23 C   59 % 
 2018-08-17 07:46:13  23 C   59 % 
 2018-08-17 07:36:34  23 C   58 % 
 2018-08-17 07:26:58  23 C   58 % 
 2018-08-17 06:57:53  23 C   58 % 
 2018-08-17 06:48:19  23 C   58 % 
 2018-08-17 06:38:42  23 C   58 % 
 2018-08-17 06:29:05  23 C   58 % 
 2018-08-17 06:19:31  23 C   57 % 
 2018-08-17 06:09:47  23 C   57 % 
 2018-08-17 06:00:15  23 C   57 % 
 2018-08-17 05:50:30  23 C   57 % 
 2018-08-17 05:40:57  23 C   57 % 
 2018-08-17 05:31:15  24 C   57 % 
 2018-08-17 05:21:38  24 C   57 % 
 2018-08-17 05:02:21  24 C   58 % 
 2018-08-17 04:52:42  24 C   58 % 
 2018-08-17 04:43:04  24 C   58 % 
 2018-08-17 04:33:33  24 C   58 % 
 2018-08-17 04:23:55  24 C   58 % 
 2018-08-17 04:14:16  24 C   58 % 
 2018-08-17 04:04:37  24 C   58 % 
 2018-08-17 03:54:57  24 C   59 % 
 2018-08-17 03:45:23  24 C   59 % 
 2018-08-17 03:26:14  24 C   59 % 
 2018-08-17 03:06:43  24 C   59 % 
 2018-08-17 02:57:17  24 C   60 % 
 2018-08-17 02:37:42  24 C   60 % 
 2018-08-17 02:28:02  24 C   60 % 
 2018-08-17 02:08:47  24 C   60 % 
 2018-08-17 01:49:32  24 C   61 % 
 2018-08-17 01:39:55  24 C   61 % 
 2018-08-17 01:30:15  24 C   61 % 
 2018-08-17 01:20:40  24 C   61 % 
 2018-08-17 00:41:53  24 C   62 % 
 2018-08-17 00:22:47  24 C   62 % 
 2018-08-17 00:13:09  24 C   62 % 
 2018-08-17 00:03:27  24 C   62 % 
 2018-08-16 23:53:50  24 C   61 % 
 2018-08-16 23:34:04  24 C   61 % 
 2018-08-16 23:14:53  24 C   62 % 
 2018-08-16 23:05:17  24 C   62 % 
 2018-08-16 22:46:03  24 C   62 % 
 2018-08-16 22:36:22  24 C   61 % 
 2018-08-16 22:17:25  24 C   61 % 
 2018-08-16 21:57:32  24 C   61 % 
 2018-08-16 21:38:16  24 C   61 % 
 2018-08-16 21:28:38  24 C   61 % 
 2018-08-16 20:59:27  24 C   61 % 
 2018-08-16 20:40:08  24 C   61 % 
 2018-08-16 19:51:35  24 C   60 % 
 2018-08-16 19:22:47  24 C   60 % 
 2018-08-16 18:44:11  24 C   59 % 
 2018-08-16 18:34:34  24 C   59 % 
 2018-08-16 18:25:02  24 C   59 % 
 2018-08-16 17:55:45  24 C   58 % 
 2018-08-16 17:45:59  24 C   57 % 
 2018-08-16 17:36:15  24 C   56 % 
 2018-08-16 17:17:01  24 C   56 % 
 2018-08-16 16:57:45  24 C   56 % 
 2018-08-16 16:48:06  24 C   56 % 
 2018-08-16 16:38:33  24 C   56 % 
 2018-08-16 16:28:50  24 C   56 % 
 2018-08-16 16:19:11  24 C   56 % 
 2018-08-16 16:09:32  24 C   56 % 
 2018-08-16 15:59:53  24 C   56 % 
 2018-08-16 15:50:13  24 C   56 % 
 2018-08-16 15:40:34  24 C   56 % 
 2018-08-16 15:30:55  24 C   56 % 
 2018-08-16 15:21:19  24 C   56 % 
 2018-08-16 15:01:40  24 C   56 % 
 2018-08-16 14:42:32  24 C   56 % 
 2018-08-16 14:12:53  24 C   56 % 
 2018-08-16 14:03:14  24 C   56 % 
 2018-08-16 13:53:44  24 C   56 % 
 2018-08-16 13:43:57  24 C   56 % 
 2018-08-16 13:24:39  24 C   56 % 
 2018-08-16 13:15:06  24 C   56 % 
 2018-08-16 12:55:28  24 C   56 % 
 2018-08-16 12:45:58  24 C   56 % 
 2018-08-16 12:36:12  24 C   56 % 
 2018-08-16 12:26:37  24 C   56 % 
 2018-08-16 12:16:59  24 C   56 % 
 2018-08-16 12:07:23  24 C   56 % 
 2018-08-16 11:57:50  24 C   56 % 
 2018-08-16 11:48:06  24 C   56 % 
 2018-08-16 11:38:27  24 C   56 % 
 2018-08-16 11:19:16  24 C   56 % 
 2018-08-16 11:09:36  24 C   55 % 
 2018-08-16 11:00:02  24 C   55 % 
 2018-08-16 10:31:13  24 C   55 % 
 2018-08-16 10:21:31  24 C   55 % 
 2018-08-16 10:11:53  24 C   55 % 
 2018-08-16 10:02:28  24 C   55 % 
 2018-08-16 09:42:34  24 C   55 % 
 2018-08-16 09:23:23  24 C   55 % 
 2018-08-16 09:04:11  24 C   55 % 
 2018-08-16 08:54:29  24 C   55 % 
 2018-08-16 08:44:50  24 C   55 % 
 2018-08-16 08:25:36  24 C   55 % 
 2018-08-16 07:56:44  24 C   55 % 
 2018-08-16 07:47:06  24 C   55 % 
 2018-08-16 07:37:32  24 C   55 % 
 2018-08-16 07:08:36  24 C   55 % 
 2018-08-16 06:58:58  24 C   55 % 
 2018-08-16 06:49:26  24 C   55 % 
 2018-08-16 06:39:49  24 C   55 % 
 2018-08-16 06:30:05  24 C   55 % 
 2018-08-16 06:20:34  24 C   55 % 
 2018-08-16 06:10:51  24 C   55 % 
 2018-08-16 06:01:14  24 C   55 % 
 2018-08-16 05:41:57  24 C   55 % 
 2018-08-16 05:32:27  24 C   55 % 
 2018-08-16 05:22:42  24 C   55 % 
 2018-08-16 05:13:18  24 C   55 % 
 2018-08-16 04:43:49  24 C   55 % 
 2018-08-16 04:34:10  24 C   55 % 
 2018-08-16 04:24:31  24 C   55 % 
 2018-08-16 04:14:49  24 C   54 % 
 2018-08-16 04:05:10  24 C   54 % 
 2018-08-16 03:55:31  24 C   54 % 
 2018-08-16 03:45:51  24 C   54 % 
 2018-08-16 02:18:22  24 C   54 % 
 2018-08-16 02:08:37  24 C   54 % 
 2018-08-16 01:58:51  24 C   54 % 
 2018-08-16 01:49:13  25 C   54 % 
 2018-08-16 01:39:32  25 C   54 % 
 2018-08-16 01:20:21  25 C   54 % 
 2018-08-16 01:10:42  25 C   54 % 
 2018-08-16 01:01:16  25 C   53 % 
 2018-08-16 00:41:46  25 C   53 % 
 2018-08-15 23:34:16  26 C   50 % 
 2018-08-15 21:58:01  23 C   56 % 
 2018-08-15 21:38:49  23 C   56 % 
 2018-08-15 21:29:07  23 C   56 % 
 2018-08-15 21:19:33  23 C   56 % 
 2018-08-15 21:09:51  23 C   56 % 
 2018-08-15 20:41:05  23 C   55 % 
 2018-08-15 20:31:23  23 C   55 % 
 2018-08-15 19:52:42  23 C   56 % 
 2018-08-15 19:43:05  23 C   56 % 
 2018-08-15 19:33:28  23 C   56 % 
 2018-08-15 19:23:53  23 C   56 % 
 2018-08-15 19:14:13  23 C   55 % 
 2018-08-15 18:54:55  23 C   55 % 
 2018-08-15 18:35:42  23 C   56 % 
 2018-08-15 18:26:02  23 C   56 % 
 2018-08-15 18:06:52  23 C   55 % 
 2018-08-15 17:57:15  23 C   55 % 
 2018-08-15 17:47:33  23 C   56 % 
 2018-08-15 17:37:57  23 C   56 % 
 2018-08-15 17:28:23  23 C   56 % 
 2018-08-15 17:18:41  23 C   55 % 
 2018-08-15 17:09:09  23 C   55 % 
 2018-08-15 16:49:50  23 C   54 % 
 2018-08-15 16:40:18  23 C   54 % 
 2018-08-15 16:30:31  23 C   54 % 
 2018-08-15 16:21:03  23 C   54 % 
 2018-08-15 16:11:16  23 C   54 % 
 2018-08-15 16:01:36  23 C   54 % 
 2018-08-15 15:42:25  23 C   54 % 
 2018-08-15 15:22:49  23 C   54 % 
 2018-08-15 15:13:11  23 C   54 % 
 2018-08-15 15:03:34  23 C   54 % 
 2018-08-15 14:54:02  23 C   54 % 
 2018-08-15 14:44:21  23 C   54 % 
 2018-08-15 14:34:45  23 C   54 % 
 2018-08-15 14:25:11  23 C   54 % 
 2018-08-15 14:15:34  23 C   54 % 
 2018-08-15 14:05:56  23 C   54 % 
 2018-08-15 13:46:46  23 C   54 % 
 2018-08-15 13:27:30  23 C   54 % 
 2018-08-15 13:08:19  23 C   54 % 
 2018-08-15 12:58:39  23 C   54 % 
 2018-08-15 12:49:04  23 C   55 % 
 2018-08-15 12:39:21  23 C   54 % 
 2018-08-15 12:10:29  23 C   54 % 
 2018-08-15 11:50:49  23 C   54 % 
 2018-08-15 11:41:10  23 C   54 % 
 2018-08-15 11:31:31  23 C   54 % 
 2018-08-15 11:21:59  23 C   54 % 
 2018-08-15 11:12:22  23 C   54 % 
 2018-08-15 10:52:45  23 C   53 % 
 2018-08-15 10:43:04  23 C   53 % 
 2018-08-15 10:33:33  23 C   52 % 
 2018-08-15 10:14:15  23 C   50 % 
 2018-08-15 10:04:35  23 C   50 % 
 2018-08-15 09:54:57  23 C   50 % 
 2018-08-15 09:45:27  23 C   50 % 
 2018-08-15 09:35:42  23 C   50 % 
 2018-08-15 09:26:03  23 C   50 % 
 2018-08-15 09:06:47  23 C   50 % 
 2018-08-15 08:57:13  23 C   50 % 
 2018-08-15 08:47:34  23 C   50 % 
 2018-08-15 08:27:57  23 C   50 % 
 2018-08-15 08:18:20  23 C   50 % 
 2018-08-15 07:58:39  23 C   50 % 
 2018-08-15 07:20:17  23 C   50 % 
 2018-08-15 07:01:02  23 C   50 % 
 2018-08-15 06:51:23  23 C   50 % 
 2018-08-15 06:41:50  23 C   50 % 
 2018-08-15 06:32:09  23 C   50 % 
 2018-08-15 06:12:59  23 C   50 % 
 2018-08-15 06:03:21  23 C   50 % 
 2018-08-15 05:53:58  23 C   50 % 
 2018-08-15 05:43:35  23 C   50 % 
 2018-08-15 05:33:59  23 C   50 % 
 2018-08-15 05:24:23  23 C   50 % 
 2018-08-15 05:14:49  23 C   50 % 
 2018-08-15 04:54:59  23 C   50 % 
 2018-08-15 04:45:18  23 C   50 % 
 2018-08-15 04:35:39  23 C   50 % 
 2018-08-15 04:26:00  23 C   50 % 
 2018-08-15 04:16:22  23 C   50 % 
 2018-08-15 04:06:43  23 C   50 % 
 2018-08-15 03:57:09  23 C   50 % 
 2018-08-15 03:47:31  23 C   50 % 
 2018-08-15 03:37:57  23 C   50 % 
 2018-08-15 03:28:14  23 C   50 % 
 2018-08-15 03:18:41  23 C   50 % 
 2018-08-15 03:08:59  23 C   50 % 
 2018-08-15 02:59:21  23 C   50 % 
 2018-08-15 02:49:42  23 C   50 % 
 2018-08-15 02:40:09  23 C   50 % 
 2018-08-15 02:30:27  23 C   50 % 
 2018-08-15 02:11:11  24 C   50 % 
 2018-08-15 02:01:33  24 C   50 % 
 2018-08-15 01:51:54  24 C   50 % 
 2018-08-15 01:32:22  24 C   49 % 
 2018-08-15 01:22:47  24 C   49 % 
 2018-08-15 01:13:05  24 C   49 % 
 2018-08-15 00:53:51  24 C   49 % 
 2018-08-15 00:44:12  24 C   49 % 
 2018-08-15 00:25:01  24 C   49 % 
 2018-08-15 00:15:19  24 C   49 % 
 2018-08-15 00:05:42  24 C   49 % 
 2018-08-14 23:56:03  24 C   49 % 
 2018-08-14 23:36:45  24 C   49 % 
 2018-08-14 22:58:19  24 C   49 % 
 2018-08-14 22:48:51  24 C   49 % 
 2018-08-14 22:39:00  24 C   49 % 
 2018-08-14 22:19:50  24 C   49 % 
 2018-08-14 22:10:11  24 C   49 % 
 2018-08-14 22:00:31  24 C   49 % 
 2018-08-14 21:41:14  24 C   49 % 
 2018-08-14 21:21:33  24 C   49 % 
 2018-08-14 21:11:59  24 C   48 % 
 2018-08-14 21:02:19  24 C   48 % 
 2018-08-14 20:32:29  24 C   47 % 
 2018-08-14 20:13:17  24 C   49 % 
 2018-08-14 20:03:37  24 C   49 % 
 2018-08-14 19:53:57  24 C   49 % 
 2018-08-14 19:44:23  24 C   49 % 
 2018-08-14 19:34:48  24 C   49 % 
 2018-08-14 19:25:06  24 C   49 % 
 2018-08-14 19:15:27  24 C   49 % 
 2018-08-14 19:05:47  24 C   49 % 
 2018-08-14 18:56:22  24 C   49 % 
 2018-08-14 18:46:20  24 C   49 % 
 2018-08-14 18:36:41  24 C   49 % 
 2018-08-14 18:27:01  24 C   49 % 
 2018-08-14 18:17:28  24 C   49 % 
 2018-08-14 17:58:18  24 C   48 % 
 2018-08-14 17:00:17  26 C   45 % 
 2018-08-14 16:40:58  27 C   41 % 
 2018-08-14 16:01:45  23 C   50 % 
 2018-08-14 15:52:04  23 C   50 % 
 2018-08-14 15:22:48  23 C   50 % 
 2018-08-14 15:13:10  23 C   50 % 
 2018-08-14 15:03:32  23 C   50 % 
 2018-08-14 14:44:19  23 C   50 % 
 2018-08-14 14:34:36  23 C   50 % 
 2018-08-14 14:24:57  23 C   50 % 
 2018-08-14 14:15:16  23 C   50 % 
 2018-08-14 14:05:38  23 C   50 % 
 2018-08-14 13:56:01  23 C   50 % 
 2018-08-14 13:46:26  23 C   50 % 
 2018-08-14 13:27:20  23 C   50 % 
 2018-08-14 13:17:31  23 C   50 % 
 2018-08-14 13:08:07  23 C   49 % 
 2018-08-14 12:58:13  23 C   50 % 
 2018-08-14 12:48:23  23 C   49 % 
 2018-08-14 12:19:33  23 C   49 % 
 2018-08-14 12:10:01  23 C   49 % 
 2018-08-14 12:00:21  23 C   49 % 
 2018-08-14 11:50:43  23 C   49 % 
 2018-08-14 11:41:04  23 C   49 % 
 2018-08-14 11:31:31  23 C   50 % 
 2018-08-14 11:21:50  23 C   50 % 
 2018-08-14 11:02:31  23 C   50 % 
 2018-08-14 10:43:20  23 C   49 % 
 2018-08-14 10:33:44  23 C   49 % 
 2018-08-14 10:14:31  23 C   49 % 
 2018-08-14 10:04:51  23 C   49 % 
 2018-08-14 09:35:59  23 C   49 % 
 2018-08-14 09:26:16  23 C   49 % 
 2018-08-14 09:07:00  23 C   49 % 
 2018-08-14 08:57:22  23 C   49 % 
 2018-08-14 08:47:50  23 C   49 % 
 2018-08-14 08:38:07  23 C   49 % 
 2018-08-14 08:18:47  23 C   49 % 
 2018-08-14 08:09:15  23 C   49 % 
 2018-08-14 07:59:34  23 C   49 % 
 2018-08-14 07:40:15  23 C   49 % 
 2018-08-14 06:52:01  23 C   49 % 
 2018-08-14 06:42:32  23 C   49 % 
 2018-08-14 06:32:43  23 C   49 % 
 2018-08-14 05:53:54  23 C   49 % 
 2018-08-14 05:44:15  23 C   49 % 
 2018-08-14 05:05:31  23 C   49 % 
 2018-08-14 04:55:55  23 C   49 % 
 2018-08-14 04:46:17  23 C   49 % 
 2018-08-14 04:36:48  23 C   49 % 
 2018-08-14 03:48:31  23 C   49 % 
 2018-08-14 03:00:24  23 C   49 % 
 2018-08-14 02:21:28  24 C   48 % 
 2018-08-14 02:02:21  24 C   48 % 
 2018-08-14 01:13:29  24 C   48 % 
 2018-08-14 01:03:55  24 C   48 % 
 2018-08-14 00:54:17  24 C   48 % 
 2018-08-14 00:44:41  24 C   48 % 
 2018-08-14 00:35:06  24 C   48 % 
 2018-08-14 00:15:47  24 C   48 % 
 2018-08-13 23:56:31  24 C   48 % 
 2018-08-13 23:46:56  24 C   48 % 
 2018-08-13 23:37:16  24 C   48 % 
 2018-08-13 23:18:06  24 C   48 % 
 2018-08-13 22:58:55  24 C   47 % 
 2018-08-13 22:39:38  24 C   47 % 
 2018-08-13 22:30:03  24 C   47 % 
 2018-08-13 22:20:22  24 C   47 % 
 2018-08-13 21:32:18  24 C   46 % 
 2018-08-13 20:34:06  24 C   44 % 
 2018-08-13 20:05:14  24 C   42 % 
 2018-08-13 19:55:38  24 C   42 % 
 2018-08-13 18:38:42  23 C   41 % 
 2018-08-13 18:19:21  24 C   41 % 
 2018-08-13 18:09:41  24 C   42 % 
 2018-08-13 18:00:06  24 C   42 % 
 2018-08-13 17:50:34  24 C   43 % 
 2018-08-13 17:40:49  24 C   43 % 
 2018-08-13 17:31:10  24 C   43 % 
 2018-08-13 17:21:31  24 C   45 % 
 2018-08-13 17:11:55  24 C   45 % 
 2018-08-13 16:23:45  24 C   51 % 
 2018-08-13 15:54:54  24 C   51 % 
 2018-08-13 15:45:17  24 C   51 % 
 2018-08-13 15:35:41  24 C   51 % 
 2018-08-13 14:56:44  24 C   52 % 
 2018-08-13 14:27:50  24 C   52 % 
 2018-08-13 14:18:18  24 C   52 % 
 2018-08-13 14:08:37  24 C   52 % 
 2018-08-13 13:49:20  24 C   52 % 
 2018-08-13 13:39:58  24 C   51 % 
 2018-08-13 13:20:13  24 C   51 % 
 2018-08-13 13:10:33  24 C   51 % 
 2018-08-13 13:00:54  24 C   51 % 
 2018-08-13 12:51:16  24 C   51 % 
 2018-08-13 12:41:36  24 C   51 % 
 2018-08-13 12:32:03  24 C   51 % 
 2018-08-13 12:22:28  24 C   51 % 
 2018-08-13 12:12:47  24 C   51 % 
 2018-08-13 11:53:33  24 C   51 % 
 2018-08-13 11:34:21  24 C   51 % 
 2018-08-13 11:24:46  24 C   51 % 
 2018-08-13 11:05:29  24 C   51 % 
 2018-08-13 10:55:58  24 C   51 % 
 2018-08-13 10:17:28  24 C   51 % 
 2018-08-13 09:58:07  24 C   50 % 
 2018-08-13 09:48:28  24 C   50 % 
 2018-08-13 09:19:36  24 C   49 % 
 2018-08-13 09:10:02  24 C   49 % 
 2018-08-13 09:00:26  24 C   49 % 
 2018-08-13 08:50:49  24 C   49 % 
 2018-08-13 08:31:31  24 C   49 % 
 2018-08-13 08:21:52  24 C   49 % 
 2018-08-13 08:12:21  24 C   49 % 
 2018-08-13 08:02:36  23 C   50 % 
 2018-08-13 07:52:57  23 C   50 % 
 2018-08-13 07:43:19  23 C   50 % 
 2018-08-13 07:33:53  23 C   50 % 
 2018-08-13 07:04:56  23 C   50 % 
 2018-08-13 06:55:03  23 C   50 % 
 2018-08-13 06:45:25  23 C   50 % 
 2018-08-13 06:26:11  23 C   50 % 
 2018-08-13 06:16:36  23 C   50 % 
 2018-08-13 05:57:18  23 C   51 % 
 2018-08-13 05:47:41  23 C   51 % 
 2018-08-13 05:38:06  23 C   51 % 
 2018-08-13 05:28:27  23 C   51 % 
 2018-08-13 05:18:53  23 C   51 % 
 2018-08-13 05:09:16  23 C   51 % 
 2018-08-13 04:49:58  23 C   51 % 
 2018-08-13 04:40:18  23 C   51 % 
 2018-08-13 04:30:40  23 C   51 % 
 2018-08-13 04:21:01  23 C   51 % 
 2018-08-13 04:11:23  23 C   51 % 
 2018-08-13 03:52:12  23 C   51 % 
 2018-08-13 03:23:27  23 C   51 % 
 2018-08-13 03:04:08  23 C   51 % 
 2018-08-13 02:54:26  23 C   51 % 
 2018-08-13 02:44:46  23 C   51 % 
 2018-08-13 02:35:09  23 C   51 % 
 2018-08-13 02:06:15  23 C   51 % 
 2018-08-13 01:37:28  24 C   51 % 
 2018-08-13 01:08:37  24 C   52 % 
 2018-08-13 00:49:30  24 C   52 % 
 2018-08-13 00:29:46  24 C   52 % 
 2018-08-13 00:10:34  24 C   52 % 
 2018-08-13 00:00:53  24 C   52 % 
 2018-08-12 23:32:01  24 C   52 % 
 2018-08-12 22:24:30  24 C   53 % 
 2018-08-12 22:04:58  24 C   53 % 
 2018-08-12 21:45:44  24 C   53 % 
 2018-08-12 21:36:03  24 C   53 % 
 2018-08-12 21:26:32  24 C   53 % 
 2018-08-12 21:16:48  24 C   53 % 
 2018-08-12 21:07:10  24 C   53 % 
 2018-08-12 20:57:35  24 C   52 % 
 2018-08-12 20:48:06  24 C   52 % 
 2018-08-12 20:38:22  24 C   52 % 
 2018-08-12 20:19:09  24 C   52 % 
 2018-08-12 20:09:30  24 C   52 % 
 2018-08-12 19:50:09  24 C   52 % 
 2018-08-12 19:40:36  24 C   52 % 
 2018-08-12 19:21:25  24 C   51 % 
 2018-08-12 19:11:24  24 C   51 % 
 2018-08-12 19:01:47  24 C   51 % 
 2018-08-12 18:12:22  24 C   51 % 
 2018-08-12 17:52:51  24 C   51 % 
 2018-08-12 17:43:13  24 C   51 % 
 2018-08-12 17:24:03  24 C   51 % 
 2018-08-12 17:14:28  24 C   51 % 
 2018-08-12 17:04:48  24 C   51 % 
 2018-08-12 16:55:12  24 C   51 % 
 2018-08-12 16:35:20  23 C   50 % 
 2018-08-12 16:25:47  23 C   50 % 
 2018-08-12 16:16:02  23 C   50 % 
 2018-08-12 16:06:23  23 C   50 % 
 2018-08-12 15:56:43  23 C   50 % 
 2018-08-12 15:47:04  23 C   50 % 
 2018-08-12 15:27:48  23 C   50 % 
 2018-08-12 14:29:59  23 C   51 % 
 2018-08-12 14:20:19  23 C   51 % 
 2018-08-12 14:10:39  23 C   51 % 
 2018-08-12 14:00:59  23 C   51 % 
 2018-08-12 13:51:21  23 C   51 % 
 2018-08-12 13:41:42  23 C   51 % 
 2018-08-12 13:22:26  23 C   50 % 
 2018-08-12 13:12:47  23 C   51 % 
 2018-08-12 13:03:08  23 C   51 % 
 2018-08-12 12:53:32  23 C   51 % 
 2018-08-12 12:43:52  23 C   51 % 
 2018-08-12 12:34:17  23 C   52 % 
 2018-08-12 12:05:11  23 C   51 % 
 2018-08-12 11:55:36  23 C   51 % 
 2018-08-12 11:26:44  23 C   51 % 
 2018-08-12 11:17:03  23 C   51 % 
 2018-08-12 10:57:49  23 C   51 % 
 2018-08-12 10:38:37  23 C   51 % 
 2018-08-12 10:19:03  23 C   51 % 
 2018-08-12 10:09:08  23 C   51 % 
 2018-08-12 09:59:19  23 C   51 % 
 2018-08-12 09:49:40  23 C   51 % 
 2018-08-12 09:30:20  23 C   51 % 
 2018-08-12 09:20:46  24 C   51 % 
 2018-08-12 09:11:05  23 C   51 % 
 2018-08-12 09:01:31  23 C   51 % 
 2018-08-12 08:51:55  23 C   51 % 
 2018-08-12 08:42:15  23 C   51 % 
 2018-08-12 08:32:38  23 C   51 % 
 2018-08-12 08:23:04  23 C   51 % 
 2018-08-12 08:13:24  24 C   51 % 
 2018-08-12 08:03:46  24 C   51 % 
 2018-08-12 07:54:11  24 C   51 % 
 2018-08-12 07:44:30  24 C   51 % 
 2018-08-12 07:34:51  24 C   51 % 
 2018-08-12 07:25:13  24 C   51 % 
 2018-08-12 07:15:35  24 C   51 % 
 2018-08-12 07:05:56  24 C   51 % 
 2018-08-12 06:56:17  24 C   51 % 
 2018-08-12 06:46:38  24 C   51 % 
 2018-08-12 06:37:00  24 C   51 % 
 2018-08-12 06:27:22  24 C   51 % 
 2018-08-12 06:17:54  24 C   51 % 
 2018-08-12 06:08:07  24 C   51 % 
 2018-08-12 05:58:28  24 C   51 % 
 2018-08-12 05:48:49  24 C   51 % 
 2018-08-12 05:39:11  24 C   51 % 
 2018-08-12 05:29:32  24 C   51 % 
 2018-08-12 05:19:54  24 C   51 % 
 2018-08-12 05:10:16  24 C   51 % 
 2018-08-12 05:00:37  24 C   52 % 
 2018-08-12 04:51:05  24 C   52 % 
 2018-08-12 04:41:20  24 C   52 % 
 2018-08-12 04:31:41  24 C   52 % 
 2018-08-12 04:22:03  24 C   52 % 
 2018-08-12 04:12:25  24 C   52 % 
 2018-08-12 04:03:00  24 C   52 % 
 2018-08-12 03:53:08  24 C   52 % 
 2018-08-12 03:24:06  24 C   52 % 
 2018-08-12 03:14:28  24 C   52 % 
 2018-08-12 03:04:54  24 C   52 % 
 2018-08-12 02:45:40  24 C   52 % 
 2018-08-12 02:26:33  24 C   52 % 
 2018-08-12 02:16:42  24 C   52 % 
 2018-08-12 02:07:06  24 C   52 % 
 2018-08-12 01:57:28  24 C   52 % 
 2018-08-12 01:48:01  24 C   52 % 
 2018-08-12 01:37:59  24 C   52 % 
 2018-08-12 01:28:20  24 C   52 % 
 2018-08-12 01:09:09  24 C   52 % 
 2018-08-12 00:59:32  24 C   52 % 
 2018-08-12 00:40:19  24 C   52 % 
 2018-08-12 00:30:42  24 C   52 % 
 2018-08-12 00:21:00  24 C   51 % 
 2018-08-12 00:01:45  24 C   51 % 
 2018-08-11 23:52:06  24 C   51 % 
 2018-08-11 23:42:29  24 C   51 % 
 2018-08-11 23:32:49  24 C   51 % 
 2018-08-11 23:23:10  24 C   51 % 
 2018-08-11 23:04:10  24 C   50 % 
 2018-08-11 21:35:39  24 C   50 % 
 2018-08-11 21:25:59  24 C   50 % 
 2018-08-11 21:16:33  24 C   50 % 
 2018-08-11 21:06:37  24 C   50 % 
 2018-08-11 20:56:59  24 C   50 % 
 2018-08-11 20:47:31  24 C   50 % 
 2018-08-11 20:37:41  24 C   50 % 
 2018-08-11 20:28:08  24 C   50 % 
 2018-08-11 20:18:26  24 C   50 % 
 2018-08-11 20:08:47  24 C   50 % 
 2018-08-11 19:19:42  24 C   50 % 
 2018-08-11 18:40:43  24 C   50 % 
 2018-08-11 18:31:09  24 C   51 % 
 2018-08-11 18:21:30  24 C   51 % 
 2018-08-11 18:02:02  24 C   51 % 
 2018-08-11 17:32:32  24 C   50 % 
 2018-08-11 16:44:32  24 C   50 % 
 2018-08-11 16:34:42  24 C   50 % 
 2018-08-11 16:25:10  24 C   50 % 
 2018-08-11 16:15:40  24 C   50 % 
 2018-08-11 16:05:46  24 C   50 % 
 2018-08-11 15:56:11  24 C   50 % 
 2018-08-11 15:36:56  24 C   49 % 
 2018-08-11 15:17:39  24 C   49 % 
 2018-08-11 15:08:03  24 C   49 % 
 2018-08-11 14:48:56  24 C   48 % 
 2018-08-11 14:39:07  24 C   49 % 
 2018-08-11 14:19:52  24 C   49 % 
 2018-08-11 14:10:17  24 C   50 % 
 2018-08-11 14:00:43  24 C   50 % 
 2018-08-11 13:21:12  24 C   49 % 
 2018-08-11 11:53:50  24 C   49 % 
 2018-08-11 10:27:12  24 C   49 % 
 2018-08-11 09:57:54  24 C   48 % 
 2018-08-11 08:50:31  24 C   49 % 
 2018-08-11 08:40:51  24 C   49 % 
 2018-08-11 06:54:59  23 C   48 % 
 2018-08-11 06:45:24  23 C   48 % 
 2018-08-11 06:16:38  23 C   48 % 
 2018-08-11 06:07:09  23 C   47 % 
 2018-08-11 05:47:25  23 C   47 % 
 2018-08-11 05:08:47  23 C   47 % 
 2018-08-11 04:49:37  23 C   46 % 
 2018-08-11 04:29:49  23 C   46 % 
 2018-08-11 04:20:07  23 C   46 % 
 2018-08-11 04:10:29  23 C   46 % 
 2018-08-11 03:51:25  23 C   46 % 
 2018-08-11 03:41:34  23 C   46 % 
 2018-08-11 03:22:19  23 C   46 % 
 2018-08-11 03:12:40  23 C   46 % 
 2018-08-11 02:43:53  23 C   46 % 
 2018-08-11 02:34:13  23 C   46 % 
 2018-08-11 02:14:48  23 C   46 % 
 2018-08-11 01:55:34  23 C   46 % 
 2018-08-11 00:57:55  23 C   47 % 
 2018-08-11 00:38:39  23 C   46 % 
 2018-08-11 00:29:00  23 C   46 % 
 2018-08-10 23:59:48  23 C   46 % 
 2018-08-10 23:50:13  23 C   46 % 
 2018-08-10 23:40:38  23 C   46 % 
 2018-08-10 23:21:23  23 C   46 % 
 2018-08-10 23:11:43  23 C   46 % 
 2018-08-10 22:52:39  23 C   46 % 
 2018-08-10 22:42:51  23 C   46 % 
 2018-08-10 22:23:38  23 C   46 % 
 2018-08-10 21:54:14  23 C   46 % 
 2018-08-10 21:44:38  23 C   45 % 
 2018-08-10 21:25:22  23 C   45 % 
 2018-08-10 21:06:14  23 C   44 % 
 2018-08-10 20:18:05  23 C   43 % 
 2018-08-10 20:08:28  23 C   44 % 
 2018-08-10 19:49:12  23 C   44 % 
 2018-08-10 19:30:00  23 C   44 % 
 2018-08-10 19:20:28  23 C   44 % 
 2018-08-10 19:10:47  23 C   44 % 
 2018-08-10 19:01:08  23 C   45 % 
 2018-08-10 18:51:29  23 C   45 % 
 2018-08-10 18:32:14  24 C   45 % 
 2018-08-10 18:22:39  24 C   45 % 
 2018-08-10 17:33:54  24 C   48 % 
 2018-08-10 12:34:54  24 C   60 % 
 2018-08-10 10:20:14  24 C   58 % 
 2018-08-10 09:51:24  24 C   59 % 
 2018-08-10 08:14:03  24 C   57 % 
 2018-08-10 08:04:35  24 C   57 % 
 2018-08-10 07:45:08  24 C   56 % 
 2018-08-10 00:22:52  25 C   52 % 
 2018-08-09 10:24:54  25 C   62 % 
 2018-08-09 04:09:56  24 C   66 % 
 2018-08-08 23:40:45  25 C   64 % 
 2018-08-08 16:36:13  25 C   57 % 
 2018-08-08 12:45:11  25 C   55 % 
 2018-08-08 09:22:22  25 C   54 % 
 2018-08-08 04:14:21  25 C   54 % 
 2018-08-07 20:31:39  25 C   52 % 
 2018-08-07 20:12:30  25 C   53 % 
 2018-08-07 19:34:05  25 C   51 % 
 2018-08-07 13:27:29  25 C   52 % 
 2018-08-07 13:07:34  25 C   52 % 
 2018-08-07 12:38:02  24 C   53 % 
 2018-08-07 12:28:23  24 C   53 % 
 2018-08-07 12:18:44  24 C   54 % 
 2018-08-07 12:09:17  24 C   54 % 
 2018-08-07 11:59:33  24 C   54 % 
 2018-08-07 11:49:54  24 C   55 % 
 2018-08-07 10:42:13  24 C   53 % 
 2018-08-07 10:03:44  24 C   53 % 
 2018-08-07 09:34:58  24 C   53 % 
 2018-08-07 08:56:24  24 C   52 % 
 2018-08-07 08:08:04  24 C   52 % 
 2018-08-07 07:48:48  24 C   52 % 
 2018-08-07 07:39:10  24 C   52 % 
 2018-08-07 07:29:43  24 C   52 % 
 2018-08-07 07:19:54  24 C   52 % 
 2018-08-07 07:10:23  23 C   51 % 
 2018-08-07 07:00:33  23 C   51 % 
 2018-08-07 06:50:52  23 C   51 % 
 2018-08-07 06:41:13  23 C   51 % 
 2018-08-07 06:22:03  23 C   51 % 
 2018-08-07 06:12:16  23 C   51 % 
 2018-08-07 06:02:37  23 C   51 % 
 2018-08-07 05:52:58  23 C   51 % 
 2018-08-07 05:43:27  23 C   50 % 
 2018-08-07 05:14:38  23 C   50 % 
 2018-08-07 05:04:55  23 C   50 % 
 2018-08-07 04:45:44  24 C   50 % 
 2018-08-07 04:36:03  24 C   50 % 
 2018-08-07 04:26:32  24 C   50 % 
 2018-08-07 04:16:48  24 C   50 % 
 2018-08-07 04:07:12  24 C   50 % 
 2018-08-07 03:47:58  24 C   50 % 
 2018-08-07 03:28:42  24 C   50 % 
 2018-08-07 02:59:55  24 C   50 % 
 2018-08-07 02:50:13  24 C   50 % 
 2018-08-07 02:40:35  24 C   50 % 
 2018-08-07 02:31:09  24 C   50 % 
 2018-08-07 02:21:18  24 C   50 % 
 2018-08-07 02:11:36  24 C   50 % 
 2018-08-07 01:42:43  24 C   49 % 
 2018-08-07 00:35:29  24 C   48 % 
 2018-08-07 00:16:22  24 C   48 % 
 2018-08-07 00:06:34  24 C   48 % 
 2018-08-06 23:28:09  25 C   47 % 
 2018-08-06 23:18:30  25 C   47 % 
 2018-08-06 22:58:51  25 C   46 % 
 2018-08-06 20:42:55  24 C   44 % 
 2018-08-06 19:44:43  24 C   44 % 
 2018-08-06 16:59:48  24 C   40 % 
 2018-08-06 16:30:44  24 C   39 % 
 2018-08-06 15:52:18  24 C   38 % 
 2018-08-06 15:42:43  24 C   38 % 
 2018-08-06 15:04:22  24 C   36 % 
 2018-08-06 14:44:40  24 C   37 % 
 2018-08-06 14:06:11  24 C   38 % 
 2018-08-06 13:46:55  24 C   38 % 
 2018-08-06 13:18:08  24 C   38 % 
 2018-08-06 12:58:58  24 C   38 % 
 2018-08-06 12:39:35  24 C   39 % 
 2018-08-06 12:20:26  24 C   39 % 
 2018-08-06 12:10:43  24 C   39 % 
 2018-08-06 11:51:39  24 C   38 % 
 2018-08-06 11:41:57  24 C   38 % 
 2018-08-06 11:21:58  24 C   38 % 
 2018-08-06 11:02:41  24 C   41 % 
 2018-08-06 10:53:07  24 C   41 % 
 2018-08-06 10:24:13  24 C   42 % 
 2018-08-06 10:14:48  24 C   42 % 
 2018-08-06 10:04:56  24 C   42 % 
 2018-08-06 09:36:03  24 C   42 % 
 2018-08-06 08:17:51  23 C   41 % 
 2018-08-06 07:48:57  23 C   41 % 
 2018-08-06 07:39:18  23 C   41 % 
 2018-08-06 07:20:15  23 C   40 % 
 2018-08-06 07:00:46  23 C   40 % 
 2018-08-06 06:22:11  23 C   40 % 
 2018-08-06 06:12:38  23 C   40 % 
 2018-08-06 05:53:18  23 C   40 % 
 2018-08-06 05:34:07  23 C   40 % 
 2018-08-06 05:24:34  23 C   40 % 
 2018-08-06 04:55:45  23 C   40 % 
 2018-08-06 04:45:56  23 C   40 % 
 2018-08-06 04:26:41  23 C   40 % 
 2018-08-06 04:17:09  23 C   40 % 
 2018-08-06 03:57:49  23 C   39 % 
 2018-08-06 03:48:19  23 C   39 % 
 2018-08-06 03:38:33  23 C   39 % 
 2018-08-06 03:18:54  23 C   39 % 
 2018-08-06 03:09:19  23 C   39 % 
 2018-08-06 02:59:37  23 C   39 % 
 2018-08-06 02:50:03  23 C   39 % 
 2018-08-06 02:40:22  23 C   39 % 
 2018-08-06 02:30:43  23 C   38 % 
 2018-08-06 01:22:34  24 C   38 % 
 2018-08-06 01:12:52  24 C   38 % 
 2018-08-06 00:34:24  24 C   39 % 
 2018-08-06 00:24:46  24 C   39 % 
 2018-08-06 00:15:12  24 C   39 % 
 2018-08-05 23:46:10  24 C   39 % 
 2018-08-05 23:26:55  24 C   39 % 
 2018-08-05 23:07:44  24 C   39 % 
 2018-08-05 22:38:52  24 C   39 % 
 2018-08-05 22:19:35  24 C   38 % 
 2018-08-05 22:09:57  24 C   38 % 
 2018-08-05 21:11:42  24 C   37 % 
 2018-08-05 20:52:24  24 C   37 % 
 2018-08-05 20:42:52  24 C   37 % 
 2018-08-05 20:33:08  24 C   37 % 
 2018-08-05 20:13:54  24 C   36 % 
 2018-08-05 20:04:20  24 C   36 % 
 2018-08-05 19:54:39  24 C   35 % 
 2018-08-05 19:45:04  24 C   36 % 
 2018-08-05 19:35:25  24 C   36 % 
 2018-08-05 17:48:57  25 C   36 % 
 2018-08-05 17:39:17  25 C   35 % 
 2018-08-05 17:29:44  25 C   35 % 
 2018-08-05 17:10:32  25 C   36 % 
 2018-08-05 17:01:01  25 C   36 % 
 2018-08-05 16:51:07  25 C   37 % 
 2018-08-05 16:22:16  25 C   37 % 
 2018-08-05 16:12:42  25 C   37 % 
 2018-08-05 15:34:12  25 C   37 % 
 2018-08-05 15:05:25  25 C   37 % 
 2018-08-05 14:26:18  25 C   37 % 
 2018-08-05 14:16:40  25 C   37 % 
 2018-08-05 13:47:50  25 C   36 % 
 2018-08-05 13:38:20  25 C   36 % 
 2018-08-05 13:28:27  25 C   36 % 
 2018-08-05 13:09:11  24 C   35 % 
 2018-08-05 12:59:33  25 C   36 % 
 2018-08-05 12:40:13  24 C   36 % 
 2018-08-05 12:30:39  24 C   36 % 
 2018-08-05 12:11:26  25 C   35 % 
 2018-08-05 11:42:38  24 C   35 % 
 2018-08-05 11:04:13  25 C   37 % 
 2018-08-04 20:00:01  27 C   47 % 
 2018-08-04 17:35:46  26 C   49 % 
 2018-08-03 23:28:57  26 C   59 % 
 2018-08-03 14:58:51  25 C   54 % 
 2018-08-03 12:15:14  25 C   56 % 
 2018-08-02 21:01:27  26 C   47 % 
 2018-08-02 17:01:00  26 C   55 % 
 2018-08-01 16:57:22  26 C   52 % 
 2018-08-01 09:15:48  26 C   60 % 
 2018-08-01 08:56:47  26 C   60 % 
 2018-08-01 07:58:35  26 C   61 % 
 2018-08-01 07:10:09  26 C   60 % 
 2018-07-31 23:09:11  27 C   61 % 
 2018-07-31 22:50:03  27 C   62 % 
 2018-07-31 22:30:42  27 C   61 % 
 2018-07-31 21:33:01  27 C   58 % 
 2018-07-31 20:54:29  27 C   55 % 
 2018-07-31 20:44:57  27 C   54 % 
 2018-07-31 20:25:50  27 C   54 % 
 2018-07-31 20:16:02  27 C   56 % 
 2018-07-31 20:06:15  27 C   56 % 
 2018-07-31 19:56:40  27 C   57 % 
 2018-07-31 19:27:16  27 C   54 % 
 2018-07-31 19:08:02  27 C   54 % 
 2018-07-31 08:52:31  30 C   46 % 
 2018-07-31 08:42:51  31 C   44 % 
 2018-07-30 10:24:41  23 C   54 % 
 2018-07-30 07:11:54  22 C   52 % 
 2018-07-30 06:00:04  22 C   50 % 
 2018-07-30 05:40:42  22 C   50 % 
 2018-07-30 05:31:03  22 C   50 % 
 2018-07-30 05:11:52  22 C   48 % 
 2018-07-30 05:02:13  22 C   48 % 
 2018-07-30 03:26:15  23 C   47 % 
 2018-07-29 23:45:04  24 C   41 % 
 2018-07-29 19:35:18  27 C   36 % 
 2018-07-29 17:01:34  27 C   33 % 
 2018-07-29 14:36:22  27 C   42 % 
 2018-07-29 12:02:34  27 C   58 % 
 2018-07-29 09:18:39  28 C   63 % 
 2018-07-29 09:08:57  28 C   63 % 
 2018-07-29 08:39:58  27 C   68 % 
 2018-07-29 07:04:00  26 C   70 % 
 2018-07-29 06:06:01  26 C   69 % 
 2018-07-29 05:56:26  26 C   69 % 
 2018-07-29 05:46:50  26 C   69 % 
 2018-07-29 05:37:11  26 C   69 % 
 2018-07-29 04:10:45  27 C   68 % 
 2018-07-29 04:00:52  27 C   68 % 
 2018-07-29 03:32:03  27 C   67 % 
 2018-07-29 03:12:42  27 C   67 % 
 2018-07-29 02:53:23  27 C   67 % 
 2018-07-29 02:34:16  27 C   67 % 
 2018-07-29 02:04:53  27 C   66 % 
 2018-07-29 01:36:03  27 C   67 % 
 2018-07-29 01:07:09  27 C   66 % 
 2018-07-29 00:47:54  27 C   66 % 
 2018-07-28 23:59:56  27 C   66 % 
 2018-07-28 23:40:53  27 C   66 % 
 2018-07-28 22:23:23  27 C   65 % 
 2018-07-28 22:13:44  27 C   65 % 
 2018-07-28 21:16:02  27 C   63 % 
 2018-07-28 21:06:34  27 C   63 % 
 2018-07-28 20:37:39  28 C   61 % 
 2018-07-28 20:27:59  28 C   62 % 
 2018-07-28 19:10:23  27 C   58 % 
 2018-07-28 18:22:22  27 C   56 % 
 2018-07-28 17:43:55  27 C   58 % 
 2018-07-28 15:48:32  27 C   60 % 
 2018-07-28 15:19:06  27 C   60 % 
 2018-07-28 12:44:15  27 C   53 % 
 2018-07-28 12:34:53  27 C   54 % 
 2018-07-28 11:45:43  27 C   55 % 
 2018-07-28 11:36:09  27 C   56 % 
 2018-07-28 11:16:21  27 C   57 % 
 2018-07-28 10:47:26  27 C   56 % 
 2018-07-28 10:28:17  27 C   56 % 
 2018-07-28 09:59:02  27 C   55 % 
 2018-07-28 09:49:17  28 C   55 % 
 2018-07-28 09:29:24  28 C   55 % 
 2018-07-28 08:41:34  27 C   57 % 
 2018-07-28 08:02:33  27 C   58 % 
 2018-07-28 06:16:43  27 C   56 % 
 2018-07-28 03:42:46  28 C   55 % 
 2018-07-28 03:13:56  28 C   54 % 
 2018-07-28 02:44:57  28 C   51 % 
 2018-07-28 02:16:07  28 C   48 % 
 2018-07-28 01:56:29  28 C   47 % 
 2018-07-28 01:37:15  28 C   47 % 
 2018-07-28 00:48:34  29 C   47 % 
 2018-07-28 00:19:44  29 C   46 % 
 2018-07-28 00:10:07  29 C   45 % 
 2018-07-28 00:00:40  29 C   43 % 
 2018-07-27 23:40:45  29 C   41 % 
 2018-07-27 23:21:40  30 C   42 % 
 2018-07-27 23:11:49  30 C   41 % 
 2018-07-27 23:02:11  30 C   41 % 
 2018-07-27 22:52:31  30 C   42 % 
 2018-07-27 22:43:00  30 C   40 % 
 2018-07-27 22:33:22  31 C   42 % 
 2018-07-27 22:23:38  31 C   42 % 
 2018-07-27 22:14:00  31 C   41 % 
 2018-07-27 22:04:20  32 C   37 % 
 2018-07-27 21:54:41  32 C   40 % 
 2018-07-27 21:25:58  29 C   45 % 
 2018-07-26 19:24:49  28 C   48 % 
 2018-07-26 19:14:56  28 C   47 % 
 2018-07-26 19:05:21  28 C   45 % 
 2018-07-26 18:55:43  28 C   45 % 
 2018-07-26 18:36:16  28 C   47 % 
 2018-07-26 18:26:38  28 C   49 % 
 2018-07-26 18:07:25  28 C   47 % 
 2018-07-26 17:48:13  28 C   47 % 
 2018-07-26 17:38:34  27 C   47 % 
 2018-07-26 17:28:57  27 C   47 % 
 2018-07-26 17:09:39  27 C   47 % 
 2018-07-26 16:40:53  27 C   48 % 
 2018-07-26 16:31:15  27 C   50 % 
 2018-07-26 16:02:25  27 C   51 % 
 2018-07-26 15:04:43  26 C   51 % 
 2018-07-26 14:55:09  26 C   51 % 
 2018-07-26 14:35:53  26 C   52 % 
 2018-07-26 14:26:23  26 C   52 % 
 2018-07-26 13:47:47  26 C   54 % 
 2018-07-26 13:09:16  25 C   56 % 
 2018-07-26 11:32:24  25 C   56 % 
 2018-07-26 11:22:50  25 C   57 % 
 2018-07-26 11:13:13  25 C   56 % 
 2018-07-26 10:53:56  25 C   57 % 
 2018-07-26 10:44:22  25 C   56 % 
 2018-07-26 10:34:42  25 C   56 % 
 2018-07-26 10:15:23  25 C   56 % 
 2018-07-26 09:35:58  24 C   57 % 
 2018-07-26 09:26:23  24 C   57 % 
 2018-07-26 09:16:43  24 C   57 % 
 2018-07-26 09:07:03  24 C   57 % 
 2018-07-26 08:38:12  24 C   58 % 
 2018-07-26 08:18:45  24 C   58 % 
 2018-07-26 08:09:06  24 C   58 % 
 2018-07-26 07:59:27  24 C   58 % 
 2018-07-26 07:49:48  24 C   58 % 
 2018-07-26 07:10:51  24 C   58 % 
 2018-07-26 07:01:13  24 C   58 % 
 2018-07-26 06:41:54  24 C   58 % 
 2018-07-26 06:32:26  24 C   57 % 
 2018-07-26 06:22:28  24 C   57 % 
 2018-07-26 06:12:48  24 C   58 % 
 2018-07-26 06:03:09  24 C   58 % 
 2018-07-26 05:53:30  24 C   57 % 
 2018-07-26 05:43:53  24 C   58 % 
 2018-07-26 05:34:25  24 C   58 % 
 2018-07-26 05:24:30  24 C   58 % 
 2018-07-26 05:14:56  24 C   58 % 
 2018-07-26 04:55:10  24 C   58 % 
 2018-07-26 04:35:51  24 C   59 % 
 2018-07-26 04:26:12  24 C   58 % 
 2018-07-26 04:06:57  24 C   57 % 
 2018-07-26 03:57:16  24 C   57 % 
 2018-07-26 03:47:39  24 C   56 % 
 2018-07-26 03:37:59  24 C   56 % 
 2018-07-26 03:18:44  25 C   56 % 
 2018-07-26 02:30:23  25 C   55 % 
 2018-07-26 02:20:51  25 C   54 % 
 2018-07-26 01:13:28  26 C   50 % 
 2018-07-26 00:35:06  28 C   47 % 
 2018-07-26 00:15:35  30 C   43 % 
 2018-07-26 00:06:04  30 C   43 % 
 2018-07-25 23:56:19  30 C   43 % 
 2018-07-25 23:46:41  30 C   43 % 
 2018-07-25 23:37:10  30 C   43 % 
 2018-07-25 23:27:29  30 C   43 % 
 2018-07-25 23:17:48  30 C   42 % 
 2018-07-25 22:58:31  30 C   43 % 
 2018-07-25 22:48:52  31 C   43 % 
 2018-07-25 22:39:12  30 C   44 % 
 2018-07-25 22:29:33  31 C   43 % 
 2018-07-25 22:19:53  31 C   43 % 
 2018-07-25 22:10:13  31 C   43 % 
 2018-07-25 21:50:57  31 C   44 % 
 2018-07-25 21:41:17  31 C   46 % 
 2018-07-25 21:31:38  31 C   45 % 
 2018-07-25 21:12:21  30 C   46 % 
 2018-07-25 21:02:41  30 C   47 % 
 2018-07-25 20:53:02  30 C   47 % 
 2018-07-25 20:43:27  30 C   49 % 
 2018-07-25 20:33:44  29 C   51 % 
 2018-07-25 20:24:08  28 C   53 % 
 2018-07-25 20:14:31  27 C   55 % 
 2018-07-25 20:04:54  28 C   54 % 
 2018-07-25 19:55:14  28 C   54 % 
 2018-07-25 19:45:35  28 C   53 % 
 2018-07-25 19:26:19  28 C   52 % 
 2018-07-25 19:07:03  28 C   53 % 
 2018-07-25 18:47:19  28 C   52 % 
 2018-07-25 18:08:29  28 C   50 % 
 2018-07-25 17:58:58  28 C   49 % 
 2018-07-25 17:39:41  28 C   49 % 
 2018-07-25 17:30:00  28 C   48 % 
 2018-07-25 17:20:21  28 C   48 % 
 2018-07-25 17:10:43  28 C   47 % 
 2018-07-25 17:01:08  27 C   47 % 
 2018-07-25 16:51:31  28 C   47 % 
 2018-07-25 16:22:07  27 C   47 % 
 2018-07-25 16:12:30  27 C   45 % 
 2018-07-25 16:03:01  27 C   47 % 
 2018-07-25 15:53:08  27 C   47 % 
 2018-07-25 15:14:30  27 C   42 % 
 2018-07-25 14:45:41  27 C   43 % 
 2018-07-25 14:06:38  27 C   43 % 
 2018-07-25 13:56:57  27 C   45 % 
 2018-07-25 13:28:04  27 C   49 % 
 2018-07-25 13:18:30  27 C   47 % 
 2018-07-25 12:49:50  27 C   50 % 
 2018-07-25 12:11:17  26 C   54 % 
 2018-07-25 11:03:05  26 C   63 % 
 2018-07-25 10:15:01  25 C   68 % 
 2018-07-25 09:55:53  25 C   69 % 
 2018-07-25 09:36:43  25 C   69 % 
 2018-07-25 07:50:04  24 C   66 % 
 2018-07-25 06:50:22  24 C   64 % 
 2018-07-25 06:40:43  24 C   64 % 
 2018-07-25 06:11:48  24 C   63 % 
 2018-07-25 05:52:43  24 C   63 % 
 2018-07-25 05:23:38  24 C   63 % 
 2018-07-25 04:06:11  25 C   61 % 
 2018-07-25 03:37:01  25 C   61 % 
 2018-07-25 02:57:56  25 C   63 % 
 2018-07-25 02:19:26  25 C   62 % 
 2018-07-25 01:50:23  25 C   61 % 
 2018-07-25 01:40:46  25 C   61 % 
 2018-07-25 01:11:56  25 C   60 % 
 2018-07-25 01:02:22  25 C   60 % 
 2018-07-24 23:55:10  26 C   58 % 
 2018-07-24 23:45:19  26 C   58 % 
 2018-07-24 23:15:51  26 C   58 % 
 2018-07-24 22:46:58  26 C   58 % 
 2018-07-24 22:37:23  27 C   58 % 
 2018-07-24 22:18:11  27 C   59 % 
 2018-07-24 21:49:10  27 C   59 % 
 2018-07-24 21:39:40  27 C   58 % 
 2018-07-24 21:20:18  27 C   58 % 
 2018-07-24 21:10:43  27 C   59 % 
 2018-07-24 21:01:06  27 C   59 % 
 2018-07-24 20:22:19  27 C   58 % 
 2018-07-24 20:12:39  27 C   56 % 
 2018-07-24 19:53:24  28 C   53 % 
 2018-07-24 19:43:44  27 C   53 % 
 2018-07-24 19:34:11  28 C   52 % 
 2018-07-24 19:24:32  27 C   52 % 
 2018-07-24 19:14:56  27 C   52 % 
 2018-07-24 19:05:26  27 C   52 % 
 2018-07-24 18:36:25  27 C   52 % 
 2018-07-24 18:26:51  27 C   52 % 
 2018-07-24 18:17:22  27 C   53 % 
 2018-07-24 18:07:28  27 C   53 % 
 2018-07-24 17:48:08  27 C   53 % 
 2018-07-24 17:19:19  27 C   53 % 
 2018-07-24 17:09:38  27 C   53 % 
 2018-07-24 15:42:52  27 C   49 % 
 2018-07-24 15:33:12  27 C   49 % 
 2018-07-24 15:23:39  27 C   49 % 
 2018-07-24 15:04:26  27 C   50 % 
 2018-07-24 14:45:14  26 C   52 % 
 2018-07-24 14:25:59  26 C   56 % 
 2018-07-24 14:16:23  26 C   56 % 
 2018-07-24 14:06:53  27 C   56 % 
 2018-07-24 13:57:13  26 C   60 % 
 2018-07-24 13:47:27  26 C   62 % 
 2018-07-24 13:37:48  26 C   62 % 
 2018-07-24 13:08:28  25 C   67 % 
 2018-07-24 12:58:49  25 C   67 % 
 2018-07-24 12:39:08  25 C   68 % 
 2018-07-24 12:29:29  25 C   68 % 
 2018-07-24 12:00:35  24 C   69 % 
 2018-07-24 11:50:56  24 C   69 % 
 2018-07-24 11:41:18  24 C   69 % 
 2018-07-24 11:21:37  24 C   69 % 
 2018-07-24 11:01:54  24 C   70 % 
 2018-07-24 10:52:20  24 C   70 % 
 2018-07-24 10:42:38  24 C   69 % 
 2018-07-24 10:32:59  24 C   69 % 
 2018-07-24 10:23:21  24 C   69 % 
 2018-07-24 10:13:43  24 C   69 % 
 2018-07-24 10:04:05  24 C   69 % 
 2018-07-24 09:54:24  24 C   68 % 
 2018-07-24 09:44:48  24 C   68 % 
 2018-07-24 09:35:09  24 C   67 % 
 2018-07-24 09:25:31  24 C   67 % 
 2018-07-24 09:15:51  24 C   67 % 
 2018-07-24 09:06:17  24 C   67 % 
 2018-07-24 08:56:35  24 C   67 % 
 2018-07-24 08:46:56  24 C   67 % 
 2018-07-24 08:37:16  24 C   67 % 
 2018-07-24 08:27:42  24 C   67 % 
 2018-07-24 08:18:05  24 C   67 % 
 2018-07-24 08:08:36  24 C   66 % 
 2018-07-24 07:58:44  24 C   66 % 
 2018-07-24 07:49:10  24 C   66 % 
 2018-07-24 07:29:51  24 C   66 % 
 2018-07-24 07:20:13  24 C   66 % 
 2018-07-24 07:10:38  24 C   66 % 
 2018-07-24 07:00:56  24 C   66 % 
 2018-07-24 06:51:18  24 C   66 % 
 2018-07-24 06:41:40  24 C   66 % 
 2018-07-24 06:32:04  24 C   66 % 
 2018-07-24 06:22:23  24 C   65 % 
 2018-07-24 06:12:49  24 C   65 % 
 2018-07-24 06:03:08  24 C   64 % 
 2018-07-24 05:53:30  24 C   64 % 
 2018-07-24 05:43:49  24 C   64 % 
 2018-07-24 05:34:10  24 C   64 % 
 2018-07-24 05:24:32  24 C   64 % 
 2018-07-24 05:14:53  24 C   64 % 
 2018-07-24 05:05:14  25 C   64 % 
 2018-07-24 04:55:40  25 C   64 % 
 2018-07-24 04:46:03  25 C   63 % 
 2018-07-24 04:36:28  25 C   63 % 
 2018-07-24 04:17:16  25 C   62 % 
 2018-07-24 04:07:44  25 C   61 % 
 2018-07-24 03:58:02  25 C   61 % 
 2018-07-24 03:48:21  25 C   60 % 
 2018-07-24 03:29:00  25 C   59 % 
 2018-07-24 03:19:23  25 C   59 % 
 2018-07-24 03:09:51  25 C   58 % 
 2018-07-24 03:00:13  25 C   58 % 
 2018-07-24 02:50:31  25 C   58 % 
 2018-07-24 02:40:54  25 C   57 % 
 2018-07-24 02:31:21  26 C   57 % 
 2018-07-24 02:21:41  26 C   57 % 
 2018-07-24 02:12:09  26 C   57 % 
 2018-07-24 01:52:15  26 C   56 % 
 2018-07-24 01:42:36  26 C   56 % 
 2018-07-24 01:32:56  26 C   56 % 
 2018-07-24 01:23:25  27 C   55 % 
 2018-07-24 01:13:51  27 C   54 % 
 2018-07-24 01:04:06  27 C   54 % 
 2018-07-24 00:54:37  27 C   54 % 
 2018-07-24 00:34:38  27 C   52 % 
 2018-07-24 00:24:58  27 C   52 % 
 2018-07-24 00:15:20  27 C   52 % 
 2018-07-24 00:05:42  27 C   52 % 
 2018-07-23 23:46:14  27 C   53 % 
 2018-07-23 23:36:38  27 C   53 % 
 2018-07-23 23:27:05  27 C   52 % 
 2018-07-23 23:17:17  28 C   51 % 
 2018-07-23 22:58:05  28 C   48 % 
 2018-07-23 22:10:09  28 C   46 % 
 2018-07-23 21:50:49  28 C   46 % 
 2018-07-23 21:41:06  29 C   44 % 
 2018-07-23 21:21:55  29 C   43 % 
 2018-07-23 21:02:41  29 C   43 % 
 2018-07-23 20:43:35  29 C   43 % 
 2018-07-23 20:33:53  28 C   43 % 
 2018-07-23 20:24:05  28 C   43 % 
 2018-07-23 20:14:30  28 C   43 % 
 2018-07-23 20:04:51  28 C   44 % 
 2018-07-23 19:55:17  28 C   44 % 
 2018-07-23 19:45:40  28 C   44 % 
 2018-07-23 19:36:00  28 C   44 % 
 2018-07-23 19:26:23  28 C   44 % 
 2018-07-23 19:16:47  28 C   44 % 
 2018-07-23 19:07:12  28 C   44 % 
 2018-07-23 18:57:29  28 C   44 % 
 2018-07-23 18:28:42  27 C   44 % 
 2018-07-23 18:19:05  28 C   44 % 
 2018-07-23 18:09:23  28 C   44 % 
 2018-07-23 17:59:43  28 C   43 % 
 2018-07-23 17:50:09  27 C   43 % 
 2018-07-23 17:40:33  28 C   42 % 
 2018-07-23 17:30:54  28 C   42 % 
 2018-07-23 17:11:43  27 C   41 % 
 2018-07-23 17:02:06  27 C   41 % 
 2018-07-23 16:52:28  27 C   42 % 
 2018-07-23 16:42:55  27 C   41 % 
 2018-07-23 16:33:15  27 C   40 % 
 2018-07-23 16:23:40  27 C   40 % 
 2018-07-23 16:14:02  27 C   40 % 
 2018-07-23 15:54:55  27 C   41 % 
 2018-07-23 15:35:33  27 C   42 % 
 2018-07-23 15:16:19  27 C   42 % 
 2018-07-23 15:06:37  27 C   42 % 
 2018-07-23 14:57:09  27 C   43 % 
 2018-07-23 14:47:32  27 C   44 % 
 2018-07-23 13:59:12  26 C   48 % 
 2018-07-23 13:49:32  26 C   50 % 
 2018-07-23 13:30:21  26 C   52 % 
 2018-07-23 13:01:24  26 C   54 % 
 2018-07-23 12:51:34  26 C   54 % 
 2018-07-23 12:41:59  26 C   54 % 
 2018-07-23 12:03:29  26 C   55 % 
 2018-07-23 11:53:43  26 C   54 % 
 2018-07-23 11:44:07  26 C   54 % 
 2018-07-23 11:24:58  26 C   55 % 
 2018-07-23 11:15:10  26 C   55 % 
 2018-07-23 10:55:53  26 C   56 % 
 2018-07-23 10:36:46  26 C   57 % 
 2018-07-23 10:27:05  26 C   57 % 
 2018-07-23 10:17:29  26 C   57 % 
 2018-07-23 10:07:53  26 C   57 % 
 2018-07-23 09:58:13  26 C   57 % 
 2018-07-23 09:48:40  26 C   57 % 
 2018-07-23 09:28:53  26 C   57 % 
 2018-07-23 09:19:17  26 C   57 % 
 2018-07-23 09:09:38  26 C   57 % 
 2018-07-23 08:50:30  26 C   57 % 
 2018-07-23 08:40:46  26 C   57 % 
 2018-07-23 08:21:33  26 C   57 % 
 2018-07-23 08:11:53  26 C   57 % 
 2018-07-23 07:52:37  26 C   57 % 
 2018-07-23 07:43:04  25 C   57 % 
 2018-07-23 07:33:31  25 C   57 % 
 2018-07-23 07:23:21  25 C   57 % 
 2018-07-23 07:13:44  25 C   57 % 
 2018-07-23 07:04:09  25 C   57 % 
 2018-07-23 06:35:11  25 C   57 % 
 2018-07-23 06:25:32  24 C   57 % 
 2018-07-23 06:16:00  24 C   57 % 
 2018-07-23 06:06:17  24 C   56 % 
 2018-07-23 05:56:43  24 C   56 % 
 2018-07-23 05:47:02  24 C   56 % 
 2018-07-23 05:37:23  24 C   56 % 
 2018-07-23 05:27:44  24 C   56 % 
 2018-07-23 05:18:09  24 C   56 % 
 2018-07-23 05:08:28  24 C   56 % 
 2018-07-23 04:58:49  24 C   56 % 
 2018-07-23 04:49:14  24 C   56 % 
 2018-07-23 04:39:34  25 C   56 % 
 2018-07-23 04:29:54  25 C   56 % 
 2018-07-23 04:20:23  25 C